<?xml version="1.0" encoding="UTF-8" standalone="no" ?>
<gpx xmlns="http://www.topografix.com/GPX/1/1" xmlns:xsi="http://www.w3.org/2001/XMLSchema-instance" xsi:schemaLocation="http://www.topografix.com/GPX/1/1 http://www.topografix.com/GPX/1/1/gpx.xsd" version="1.1" creator="VisuGPX - https://www.visugpx.com">
  <metadata>
    <name>Cholet - Valanjou</name>
    <desc><![CDATA[Circuit Cholet Valanjou]]></desc>
  </metadata>
  <trk>
    <name><![CDATA[2011-08-27T07:32:18Z]]></name>
    <trkseg>
      <trkpt lat="47.06658" lon="-0.84204">
        <ele>131.8378906</ele>
        <time>2011-08-27T07:32:19Z</time>
      </trkpt>
      <trkpt lat="47.06657" lon="-0.84196">
        <ele>131.8378906</ele>
        <time>2011-08-27T07:32:20Z</time>
      </trkpt>
      <trkpt lat="47.06653" lon="-0.8414">
        <ele>134.7219238</ele>
        <time>2011-08-27T07:32:27Z</time>
      </trkpt>
      <trkpt lat="47.0664" lon="-0.84048">
        <ele>137.1252441</ele>
        <time>2011-08-27T07:32:39Z</time>
      </trkpt>
      <trkpt lat="47.0663" lon="-0.83976">
        <ele>137.1252441</ele>
        <time>2011-08-27T07:32:48Z</time>
      </trkpt>
      <trkpt lat="47.06619" lon="-0.83904">
        <ele>136.6446533</ele>
        <time>2011-08-27T07:32:57Z</time>
      </trkpt>
      <trkpt lat="47.06605" lon="-0.8381">
        <ele>138.0865479</ele>
        <time>2011-08-27T07:33:08Z</time>
      </trkpt>
      <trkpt lat="47.06586" lon="-0.837">
        <ele>138.5672607</ele>
        <time>2011-08-27T07:33:21Z</time>
      </trkpt>
      <trkpt lat="47.06571" lon="-0.83617">
        <ele>140.0091553</ele>
        <time>2011-08-27T07:33:31Z</time>
      </trkpt>
      <trkpt lat="47.06552" lon="-0.83527">
        <ele>139.0478516</ele>
        <time>2011-08-27T07:33:42Z</time>
      </trkpt>
      <trkpt lat="47.06534" lon="-0.83438">
        <ele>138.5672607</ele>
        <time>2011-08-27T07:33:52Z</time>
      </trkpt>
      <trkpt lat="47.06507" lon="-0.83307">
        <ele>137.1252441</ele>
        <time>2011-08-27T07:34:06Z</time>
      </trkpt>
      <trkpt lat="47.06488" lon="-0.83209">
        <ele>136.1639404</ele>
        <time>2011-08-27T07:34:16Z</time>
      </trkpt>
      <trkpt lat="47.06473" lon="-0.83131">
        <ele>136.1639404</ele>
        <time>2011-08-27T07:34:24Z</time>
      </trkpt>
      <trkpt lat="47.06459" lon="-0.83053">
        <ele>137.605835</ele>
        <time>2011-08-27T07:34:33Z</time>
      </trkpt>
      <trkpt lat="47.06447" lon="-0.82988">
        <ele>141.4510498</ele>
        <time>2011-08-27T07:34:42Z</time>
      </trkpt>
      <trkpt lat="47.06443" lon="-0.82967">
        <ele>142.8930664</ele>
        <time>2011-08-27T07:34:45Z</time>
      </trkpt>
      <trkpt lat="47.06442" lon="-0.8296">
        <ele>143.3736572</ele>
        <time>2011-08-27T07:34:46Z</time>
      </trkpt>
      <trkpt lat="47.06436" lon="-0.82886">
        <ele>147.2189941</ele>
        <time>2011-08-27T07:34:57Z</time>
      </trkpt>
      <trkpt lat="47.06436" lon="-0.82813">
        <ele>150.1030273</ele>
        <time>2011-08-27T07:35:07Z</time>
      </trkpt>
      <trkpt lat="47.06438" lon="-0.82775">
        <ele>150.5836182</ele>
        <time>2011-08-27T07:35:12Z</time>
      </trkpt>
      <trkpt lat="47.06442" lon="-0.82696">
        <ele>151.064209</ele>
        <time>2011-08-27T07:35:22Z</time>
      </trkpt>
      <trkpt lat="47.06445" lon="-0.82608">
        <ele>150.5836182</ele>
        <time>2011-08-27T07:35:32Z</time>
      </trkpt>
      <trkpt lat="47.0645" lon="-0.82516">
        <ele>148.6610107</ele>
        <time>2011-08-27T07:35:41Z</time>
      </trkpt>
      <trkpt lat="47.06455" lon="-0.82422">
        <ele>146.2578125</ele>
        <time>2011-08-27T07:35:49Z</time>
      </trkpt>
      <trkpt lat="47.06458" lon="-0.82323">
        <ele>144.3352051</ele>
        <time>2011-08-27T07:35:57Z</time>
      </trkpt>
      <trkpt lat="47.06457" lon="-0.82261">
        <ele>142.8930664</ele>
        <time>2011-08-27T07:36:02Z</time>
      </trkpt>
      <trkpt lat="47.06453" lon="-0.8218">
        <ele>141.4510498</ele>
        <time>2011-08-27T07:36:09Z</time>
      </trkpt>
      <trkpt lat="47.06452" lon="-0.82157">
        <ele>140.970459</ele>
        <time>2011-08-27T07:36:11Z</time>
      </trkpt>
      <trkpt lat="47.06451" lon="-0.8211">
        <ele>140.0091553</ele>
        <time>2011-08-27T07:36:15Z</time>
      </trkpt>
      <trkpt lat="47.06456" lon="-0.8209">
        <ele>140.0091553</ele>
        <time>2011-08-27T07:36:17Z</time>
      </trkpt>
      <trkpt lat="47.06471" lon="-0.82065">
        <ele>140.0091553</ele>
        <time>2011-08-27T07:36:20Z</time>
      </trkpt>
      <trkpt lat="47.06473" lon="-0.8204">
        <ele>139.5284424</ele>
        <time>2011-08-27T07:36:22Z</time>
      </trkpt>
      <trkpt lat="47.06477" lon="-0.81972">
        <ele>138.5672607</ele>
        <time>2011-08-27T07:36:27Z</time>
      </trkpt>
      <trkpt lat="47.06503" lon="-0.81889">
        <ele>138.0865479</ele>
        <time>2011-08-27T07:36:34Z</time>
      </trkpt>
      <trkpt lat="47.0653" lon="-0.81813">
        <ele>138.0865479</ele>
        <time>2011-08-27T07:36:42Z</time>
      </trkpt>
      <trkpt lat="47.06566" lon="-0.81721">
        <ele>136.1639404</ele>
        <time>2011-08-27T07:36:52Z</time>
      </trkpt>
      <trkpt lat="47.066" lon="-0.81634">
        <ele>136.1639404</ele>
        <time>2011-08-27T07:37:01Z</time>
      </trkpt>
      <trkpt lat="47.06625" lon="-0.81551">
        <ele>135.2025146</ele>
        <time>2011-08-27T07:37:09Z</time>
      </trkpt>
      <trkpt lat="47.06643" lon="-0.81491">
        <ele>133.760498</ele>
        <time>2011-08-27T07:37:15Z</time>
      </trkpt>
      <trkpt lat="47.06655" lon="-0.81449">
        <ele>132.7993164</ele>
        <time>2011-08-27T07:37:19Z</time>
      </trkpt>
      <trkpt lat="47.06664" lon="-0.81416">
        <ele>132.3186035</ele>
        <time>2011-08-27T07:37:22Z</time>
      </trkpt>
      <trkpt lat="47.06687" lon="-0.81355">
        <ele>129.4346924</ele>
        <time>2011-08-27T07:37:28Z</time>
      </trkpt>
      <trkpt lat="47.06728" lon="-0.81257">
        <ele>128.9541016</ele>
        <time>2011-08-27T07:37:37Z</time>
      </trkpt>
      <trkpt lat="47.06751" lon="-0.81203">
        <ele>130.3959961</ele>
        <time>2011-08-27T07:37:42Z</time>
      </trkpt>
      <trkpt lat="47.06762" lon="-0.81174">
        <ele>129.4346924</ele>
        <time>2011-08-27T07:37:45Z</time>
      </trkpt>
      <trkpt lat="47.06772" lon="-0.81136">
        <ele>129.9152832</ele>
        <time>2011-08-27T07:37:50Z</time>
      </trkpt>
      <trkpt lat="47.06787" lon="-0.81095">
        <ele>132.3186035</ele>
        <time>2011-08-27T07:37:55Z</time>
      </trkpt>
      <trkpt lat="47.06793" lon="-0.81079">
        <ele>133.760498</ele>
        <time>2011-08-27T07:37:57Z</time>
      </trkpt>
      <trkpt lat="47.06812" lon="-0.81044">
        <ele>139.0478516</ele>
        <time>2011-08-27T07:38:01Z</time>
      </trkpt>
      <trkpt lat="47.06843" lon="-0.80993">
        <ele>140.970459</ele>
        <time>2011-08-27T07:38:07Z</time>
      </trkpt>
      <trkpt lat="47.06857" lon="-0.80964">
        <ele>142.8930664</ele>
        <time>2011-08-27T07:38:11Z</time>
      </trkpt>
      <trkpt lat="47.06875" lon="-0.80927">
        <ele>140.4898682</ele>
        <time>2011-08-27T07:38:16Z</time>
      </trkpt>
      <trkpt lat="47.06897" lon="-0.80886">
        <ele>137.605835</ele>
        <time>2011-08-27T07:38:22Z</time>
      </trkpt>
      <trkpt lat="47.06911" lon="-0.80864">
        <ele>136.6446533</ele>
        <time>2011-08-27T07:38:26Z</time>
      </trkpt>
      <trkpt lat="47.06922" lon="-0.80837">
        <ele>138.0865479</ele>
        <time>2011-08-27T07:38:31Z</time>
      </trkpt>
      <trkpt lat="47.06933" lon="-0.80816">
        <ele>138.5672607</ele>
        <time>2011-08-27T07:38:34Z</time>
      </trkpt>
      <trkpt lat="47.06951" lon="-0.80789">
        <ele>140.4898682</ele>
        <time>2011-08-27T07:38:38Z</time>
      </trkpt>
      <trkpt lat="47.06976" lon="-0.80755">
        <ele>142.4124756</ele>
        <time>2011-08-27T07:38:43Z</time>
      </trkpt>
      <trkpt lat="47.0701" lon="-0.80721">
        <ele>139.0478516</ele>
        <time>2011-08-27T07:38:50Z</time>
      </trkpt>
      <trkpt lat="47.07037" lon="-0.80697">
        <ele>139.5284424</ele>
        <time>2011-08-27T07:38:56Z</time>
      </trkpt>
      <trkpt lat="47.0705" lon="-0.80687">
        <ele>137.605835</ele>
        <time>2011-08-27T07:39:01Z</time>
      </trkpt>
      <trkpt lat="47.07054" lon="-0.80683">
        <ele>137.605835</ele>
        <time>2011-08-27T07:39:02Z</time>
      </trkpt>
      <trkpt lat="47.07081" lon="-0.80656">
        <ele>135.2025146</ele>
        <time>2011-08-27T07:39:09Z</time>
      </trkpt>
      <trkpt lat="47.07088" lon="-0.80646">
        <ele>134.7219238</ele>
        <time>2011-08-27T07:39:11Z</time>
      </trkpt>
      <trkpt lat="47.07095" lon="-0.80634">
        <ele>134.7219238</ele>
        <time>2011-08-27T07:39:13Z</time>
      </trkpt>
      <trkpt lat="47.07118" lon="-0.80606">
        <ele>137.1252441</ele>
        <time>2011-08-27T07:39:18Z</time>
      </trkpt>
      <trkpt lat="47.0714" lon="-0.80577">
        <ele>139.0478516</ele>
        <time>2011-08-27T07:39:23Z</time>
      </trkpt>
      <trkpt lat="47.07166" lon="-0.80539">
        <ele>140.4898682</ele>
        <time>2011-08-27T07:39:29Z</time>
      </trkpt>
      <trkpt lat="47.0718" lon="-0.80515">
        <ele>139.5284424</ele>
        <time>2011-08-27T07:39:33Z</time>
      </trkpt>
      <trkpt lat="47.07189" lon="-0.80483">
        <ele>141.9317627</ele>
        <time>2011-08-27T07:39:37Z</time>
      </trkpt>
      <trkpt lat="47.07193" lon="-0.80442">
        <ele>136.6446533</ele>
        <time>2011-08-27T07:39:42Z</time>
      </trkpt>
      <trkpt lat="47.07192" lon="-0.80417">
        <ele>139.5284424</ele>
        <time>2011-08-27T07:39:45Z</time>
      </trkpt>
      <trkpt lat="47.07195" lon="-0.80385">
        <ele>140.0091553</ele>
        <time>2011-08-27T07:39:49Z</time>
      </trkpt>
      <trkpt lat="47.07195" lon="-0.80361">
        <ele>139.5284424</ele>
        <time>2011-08-27T07:39:52Z</time>
      </trkpt>
      <trkpt lat="47.07195" lon="-0.80331">
        <ele>138.5672607</ele>
        <time>2011-08-27T07:39:56Z</time>
      </trkpt>
      <trkpt lat="47.07196" lon="-0.80316">
        <ele>138.0865479</ele>
        <time>2011-08-27T07:39:58Z</time>
      </trkpt>
      <trkpt lat="47.07199" lon="-0.8027">
        <ele>136.6446533</ele>
        <time>2011-08-27T07:40:04Z</time>
      </trkpt>
      <trkpt lat="47.07202" lon="-0.8022">
        <ele>138.0865479</ele>
        <time>2011-08-27T07:40:11Z</time>
      </trkpt>
      <trkpt lat="47.07203" lon="-0.80193">
        <ele>139.0478516</ele>
        <time>2011-08-27T07:40:15Z</time>
      </trkpt>
      <trkpt lat="47.07202" lon="-0.80168">
        <ele>140.4898682</ele>
        <time>2011-08-27T07:40:19Z</time>
      </trkpt>
      <trkpt lat="47.07204" lon="-0.80137">
        <ele>142.4124756</ele>
        <time>2011-08-27T07:40:24Z</time>
      </trkpt>
      <trkpt lat="47.07206" lon="-0.80109">
        <ele>142.4124756</ele>
        <time>2011-08-27T07:40:28Z</time>
      </trkpt>
      <trkpt lat="47.07206" lon="-0.80096">
        <ele>142.4124756</ele>
        <time>2011-08-27T07:40:30Z</time>
      </trkpt>
      <trkpt lat="47.07211" lon="-0.80042">
        <ele>144.8157959</ele>
        <time>2011-08-27T07:40:38Z</time>
      </trkpt>
      <trkpt lat="47.07213" lon="-0.80004">
        <ele>144.3352051</ele>
        <time>2011-08-27T07:40:44Z</time>
      </trkpt>
      <trkpt lat="47.07212" lon="-0.79981">
        <ele>145.2963867</ele>
        <time>2011-08-27T07:40:48Z</time>
      </trkpt>
      <trkpt lat="47.0721" lon="-0.79958">
        <ele>148.6610107</ele>
        <time>2011-08-27T07:40:52Z</time>
      </trkpt>
      <trkpt lat="47.07208" lon="-0.79935">
        <ele>151.064209</ele>
        <time>2011-08-27T07:40:56Z</time>
      </trkpt>
      <trkpt lat="47.07208" lon="-0.79917">
        <ele>152.0257568</ele>
        <time>2011-08-27T07:40:59Z</time>
      </trkpt>
      <trkpt lat="47.0721" lon="-0.79903">
        <ele>151.5449219</ele>
        <time>2011-08-27T07:41:01Z</time>
      </trkpt>
      <trkpt lat="47.07215" lon="-0.79875">
        <ele>152.0257568</ele>
        <time>2011-08-27T07:41:05Z</time>
      </trkpt>
      <trkpt lat="47.07219" lon="-0.79862">
        <ele>153.9483643</ele>
        <time>2011-08-27T07:41:07Z</time>
      </trkpt>
      <trkpt lat="47.07227" lon="-0.79818">
        <ele>157.3128662</ele>
        <time>2011-08-27T07:41:13Z</time>
      </trkpt>
      <trkpt lat="47.07228" lon="-0.79791">
        <ele>158.7547607</ele>
        <time>2011-08-27T07:41:17Z</time>
      </trkpt>
      <trkpt lat="47.07227" lon="-0.79762">
        <ele>158.2741699</ele>
        <time>2011-08-27T07:41:22Z</time>
      </trkpt>
      <trkpt lat="47.07224" lon="-0.79733">
        <ele>157.3128662</ele>
        <time>2011-08-27T07:41:27Z</time>
      </trkpt>
      <trkpt lat="47.07233" lon="-0.79693">
        <ele>159.2354736</ele>
        <time>2011-08-27T07:41:33Z</time>
      </trkpt>
      <trkpt lat="47.07243" lon="-0.7967">
        <ele>161.1582031</ele>
        <time>2011-08-27T07:41:36Z</time>
      </trkpt>
      <trkpt lat="47.07257" lon="-0.79645">
        <ele>161.638916</ele>
        <time>2011-08-27T07:41:41Z</time>
      </trkpt>
      <trkpt lat="47.07278" lon="-0.79614">
        <ele>160.6774902</ele>
        <time>2011-08-27T07:41:48Z</time>
      </trkpt>
      <trkpt lat="47.0728" lon="-0.79611">
        <ele>160.6774902</ele>
        <time>2011-08-27T07:41:49Z</time>
      </trkpt>
      <trkpt lat="47.07286" lon="-0.79601">
        <ele>161.638916</ele>
        <time>2011-08-27T07:41:51Z</time>
      </trkpt>
      <trkpt lat="47.07289" lon="-0.7959">
        <ele>161.638916</ele>
        <time>2011-08-27T07:41:53Z</time>
      </trkpt>
      <trkpt lat="47.07313" lon="-0.79552">
        <ele>165.003418</ele>
        <time>2011-08-27T07:42:00Z</time>
      </trkpt>
      <trkpt lat="47.07325" lon="-0.79532">
        <ele>165.003418</ele>
        <time>2011-08-27T07:42:04Z</time>
      </trkpt>
      <trkpt lat="47.07327" lon="-0.79524">
        <ele>163.0808105</ele>
        <time>2011-08-27T07:42:06Z</time>
      </trkpt>
      <trkpt lat="47.07331" lon="-0.79513">
        <ele>165.003418</ele>
        <time>2011-08-27T07:42:08Z</time>
      </trkpt>
      <trkpt lat="47.07338" lon="-0.79496">
        <ele>167.4067383</ele>
        <time>2011-08-27T07:42:11Z</time>
      </trkpt>
      <trkpt lat="47.07349" lon="-0.79476">
        <ele>166.4453125</ele>
        <time>2011-08-27T07:42:15Z</time>
      </trkpt>
      <trkpt lat="47.07358" lon="-0.79455">
        <ele>165.4841309</ele>
        <time>2011-08-27T07:42:19Z</time>
      </trkpt>
      <trkpt lat="47.07377" lon="-0.79426">
        <ele>165.4841309</ele>
        <time>2011-08-27T07:42:25Z</time>
      </trkpt>
      <trkpt lat="47.0738" lon="-0.79421">
        <ele>164.5227051</ele>
        <time>2011-08-27T07:42:26Z</time>
      </trkpt>
      <trkpt lat="47.07395" lon="-0.79393">
        <ele>164.5227051</ele>
        <time>2011-08-27T07:42:31Z</time>
      </trkpt>
      <trkpt lat="47.07408" lon="-0.79373">
        <ele>164.5227051</ele>
        <time>2011-08-27T07:42:35Z</time>
      </trkpt>
      <trkpt lat="47.07414" lon="-0.79365">
        <ele>163.5615234</ele>
        <time>2011-08-27T07:42:37Z</time>
      </trkpt>
      <trkpt lat="47.07428" lon="-0.79338">
        <ele>164.5227051</ele>
        <time>2011-08-27T07:42:42Z</time>
      </trkpt>
      <trkpt lat="47.07443" lon="-0.79313">
        <ele>167.4067383</ele>
        <time>2011-08-27T07:42:46Z</time>
      </trkpt>
      <trkpt lat="47.07455" lon="-0.79292">
        <ele>170.2906494</ele>
        <time>2011-08-27T07:42:50Z</time>
      </trkpt>
      <trkpt lat="47.07471" lon="-0.79264">
        <ele>170.2906494</ele>
        <time>2011-08-27T07:42:55Z</time>
      </trkpt>
      <trkpt lat="47.07487" lon="-0.79239">
        <ele>170.2906494</ele>
        <time>2011-08-27T07:43:00Z</time>
      </trkpt>
      <trkpt lat="47.07509" lon="-0.79196">
        <ele>175.5778809</ele>
        <time>2011-08-27T07:43:07Z</time>
      </trkpt>
      <trkpt lat="47.07513" lon="-0.7919">
        <ele>175.09729</ele>
        <time>2011-08-27T07:43:08Z</time>
      </trkpt>
      <trkpt lat="47.07528" lon="-0.79153">
        <ele>173.6552734</ele>
        <time>2011-08-27T07:43:14Z</time>
      </trkpt>
      <trkpt lat="47.07543" lon="-0.7913">
        <ele>174.1358643</ele>
        <time>2011-08-27T07:43:18Z</time>
      </trkpt>
      <trkpt lat="47.07558" lon="-0.79109">
        <ele>172.6939697</ele>
        <time>2011-08-27T07:43:22Z</time>
      </trkpt>
      <trkpt lat="47.07574" lon="-0.79082">
        <ele>170.7713623</ele>
        <time>2011-08-27T07:43:27Z</time>
      </trkpt>
      <trkpt lat="47.07583" lon="-0.79065">
        <ele>169.3294678</ele>
        <time>2011-08-27T07:43:30Z</time>
      </trkpt>
      <trkpt lat="47.07602" lon="-0.79028">
        <ele>171.732666</ele>
        <time>2011-08-27T07:43:36Z</time>
      </trkpt>
      <trkpt lat="47.07622" lon="-0.78992">
        <ele>171.2520752</ele>
        <time>2011-08-27T07:43:42Z</time>
      </trkpt>
      <trkpt lat="47.07636" lon="-0.78968">
        <ele>170.7713623</ele>
        <time>2011-08-27T07:43:46Z</time>
      </trkpt>
      <trkpt lat="47.07643" lon="-0.78957">
        <ele>169.8100586</ele>
        <time>2011-08-27T07:43:48Z</time>
      </trkpt>
      <trkpt lat="47.07662" lon="-0.78922">
        <ele>171.732666</ele>
        <time>2011-08-27T07:43:53Z</time>
      </trkpt>
      <trkpt lat="47.07681" lon="-0.78889">
        <ele>173.1746826</ele>
        <time>2011-08-27T07:43:58Z</time>
      </trkpt>
      <trkpt lat="47.07699" lon="-0.78861">
        <ele>173.6552734</ele>
        <time>2011-08-27T07:44:03Z</time>
      </trkpt>
      <trkpt lat="47.07715" lon="-0.78832">
        <ele>173.6552734</ele>
        <time>2011-08-27T07:44:08Z</time>
      </trkpt>
      <trkpt lat="47.07726" lon="-0.78809">
        <ele>175.09729</ele>
        <time>2011-08-27T07:44:12Z</time>
      </trkpt>
      <trkpt lat="47.07737" lon="-0.78794">
        <ele>174.1358643</ele>
        <time>2011-08-27T07:44:15Z</time>
      </trkpt>
      <trkpt lat="47.0775" lon="-0.78773">
        <ele>171.2520752</ele>
        <time>2011-08-27T07:44:19Z</time>
      </trkpt>
      <trkpt lat="47.07765" lon="-0.78743">
        <ele>174.1358643</ele>
        <time>2011-08-27T07:44:23Z</time>
      </trkpt>
      <trkpt lat="47.07773" lon="-0.78722">
        <ele>175.5778809</ele>
        <time>2011-08-27T07:44:26Z</time>
      </trkpt>
      <trkpt lat="47.07789" lon="-0.7869">
        <ele>177.0200195</ele>
        <time>2011-08-27T07:44:31Z</time>
      </trkpt>
      <trkpt lat="47.07809" lon="-0.78655">
        <ele>170.7713623</ele>
        <time>2011-08-27T07:44:37Z</time>
      </trkpt>
      <trkpt lat="47.07826" lon="-0.78628">
        <ele>168.8487549</ele>
        <time>2011-08-27T07:44:41Z</time>
      </trkpt>
      <trkpt lat="47.07847" lon="-0.7859">
        <ele>168.368042</ele>
        <time>2011-08-27T07:44:47Z</time>
      </trkpt>
      <trkpt lat="47.07851" lon="-0.78584">
        <ele>168.8487549</ele>
        <time>2011-08-27T07:44:48Z</time>
      </trkpt>
      <trkpt lat="47.07871" lon="-0.7854">
        <ele>165.9647217</ele>
        <time>2011-08-27T07:44:56Z</time>
      </trkpt>
      <trkpt lat="47.07874" lon="-0.78534">
        <ele>166.4453125</ele>
        <time>2011-08-27T07:44:57Z</time>
      </trkpt>
      <trkpt lat="47.07897" lon="-0.78494">
        <ele>169.3294678</ele>
        <time>2011-08-27T07:45:04Z</time>
      </trkpt>
      <trkpt lat="47.07903" lon="-0.78482">
        <ele>169.8100586</ele>
        <time>2011-08-27T07:45:06Z</time>
      </trkpt>
      <trkpt lat="47.0792" lon="-0.78448">
        <ele>171.732666</ele>
        <time>2011-08-27T07:45:12Z</time>
      </trkpt>
      <trkpt lat="47.07927" lon="-0.78427">
        <ele>174.1358643</ele>
        <time>2011-08-27T07:45:17Z</time>
      </trkpt>
      <trkpt lat="47.07937" lon="-0.78399">
        <ele>171.732666</ele>
        <time>2011-08-27T07:45:23Z</time>
      </trkpt>
      <trkpt lat="47.07947" lon="-0.78369">
        <ele>165.9647217</ele>
        <time>2011-08-27T07:45:28Z</time>
      </trkpt>
      <trkpt lat="47.07958" lon="-0.78343">
        <ele>161.638916</ele>
        <time>2011-08-27T07:45:32Z</time>
      </trkpt>
      <trkpt lat="47.07975" lon="-0.78301">
        <ele>162.1195068</ele>
        <time>2011-08-27T07:45:38Z</time>
      </trkpt>
      <trkpt lat="47.07983" lon="-0.78279">
        <ele>164.0421143</ele>
        <time>2011-08-27T07:45:41Z</time>
      </trkpt>
      <trkpt lat="47.0799" lon="-0.78258">
        <ele>164.0421143</ele>
        <time>2011-08-27T07:45:44Z</time>
      </trkpt>
      <trkpt lat="47.07994" lon="-0.78235">
        <ele>163.5615234</ele>
        <time>2011-08-27T07:45:47Z</time>
      </trkpt>
      <trkpt lat="47.0801" lon="-0.78186">
        <ele>163.5615234</ele>
        <time>2011-08-27T07:45:53Z</time>
      </trkpt>
      <trkpt lat="47.08023" lon="-0.78141">
        <ele>164.5227051</ele>
        <time>2011-08-27T07:45:59Z</time>
      </trkpt>
      <trkpt lat="47.0803" lon="-0.78117">
        <ele>164.5227051</ele>
        <time>2011-08-27T07:46:02Z</time>
      </trkpt>
      <trkpt lat="47.08036" lon="-0.78101">
        <ele>165.003418</ele>
        <time>2011-08-27T07:46:04Z</time>
      </trkpt>
      <trkpt lat="47.08047" lon="-0.78067">
        <ele>165.4841309</ele>
        <time>2011-08-27T07:46:08Z</time>
      </trkpt>
      <trkpt lat="47.08055" lon="-0.78043">
        <ele>164.0421143</ele>
        <time>2011-08-27T07:46:11Z</time>
      </trkpt>
      <trkpt lat="47.08064" lon="-0.78004">
        <ele>162.1195068</ele>
        <time>2011-08-27T07:46:16Z</time>
      </trkpt>
      <trkpt lat="47.08068" lon="-0.77988">
        <ele>163.0808105</ele>
        <time>2011-08-27T07:46:18Z</time>
      </trkpt>
      <trkpt lat="47.08084" lon="-0.77941">
        <ele>163.0808105</ele>
        <time>2011-08-27T07:46:23Z</time>
      </trkpt>
      <trkpt lat="47.08089" lon="-0.77919">
        <ele>162.1195068</ele>
        <time>2011-08-27T07:46:26Z</time>
      </trkpt>
      <trkpt lat="47.08094" lon="-0.77904">
        <ele>164.0421143</ele>
        <time>2011-08-27T07:46:28Z</time>
      </trkpt>
      <trkpt lat="47.08107" lon="-0.7787">
        <ele>165.4841309</ele>
        <time>2011-08-27T07:46:32Z</time>
      </trkpt>
      <trkpt lat="47.08119" lon="-0.77835">
        <ele>169.3294678</ele>
        <time>2011-08-27T07:46:36Z</time>
      </trkpt>
      <trkpt lat="47.08125" lon="-0.7781">
        <ele>169.8100586</ele>
        <time>2011-08-27T07:46:39Z</time>
      </trkpt>
      <trkpt lat="47.08138" lon="-0.77769">
        <ele>165.9647217</ele>
        <time>2011-08-27T07:46:44Z</time>
      </trkpt>
      <trkpt lat="47.08154" lon="-0.77714">
        <ele>167.8873291</ele>
        <time>2011-08-27T07:46:50Z</time>
      </trkpt>
      <trkpt lat="47.08158" lon="-0.77692">
        <ele>165.4841309</ele>
        <time>2011-08-27T07:46:53Z</time>
      </trkpt>
      <trkpt lat="47.08166" lon="-0.77674">
        <ele>165.003418</ele>
        <time>2011-08-27T07:46:55Z</time>
      </trkpt>
      <trkpt lat="47.08187" lon="-0.77619">
        <ele>167.4067383</ele>
        <time>2011-08-27T07:47:01Z</time>
      </trkpt>
      <trkpt lat="47.08202" lon="-0.77563">
        <ele>163.5615234</ele>
        <time>2011-08-27T07:47:08Z</time>
      </trkpt>
      <trkpt lat="47.08218" lon="-0.77511">
        <ele>161.1582031</ele>
        <time>2011-08-27T07:47:15Z</time>
      </trkpt>
      <trkpt lat="47.08227" lon="-0.77479">
        <ele>160.1968994</ele>
        <time>2011-08-27T07:47:20Z</time>
      </trkpt>
      <trkpt lat="47.08235" lon="-0.77449">
        <ele>161.1582031</ele>
        <time>2011-08-27T07:47:25Z</time>
      </trkpt>
      <trkpt lat="47.08244" lon="-0.77428">
        <ele>162.6000977</ele>
        <time>2011-08-27T07:47:29Z</time>
      </trkpt>
      <trkpt lat="47.08256" lon="-0.77395">
        <ele>164.0421143</ele>
        <time>2011-08-27T07:47:35Z</time>
      </trkpt>
      <trkpt lat="47.08258" lon="-0.77389">
        <ele>165.003418</ele>
        <time>2011-08-27T07:47:36Z</time>
      </trkpt>
      <trkpt lat="47.08269" lon="-0.7737">
        <ele>167.8873291</ele>
        <time>2011-08-27T07:47:41Z</time>
      </trkpt>
      <trkpt lat="47.08268" lon="-0.77362">
        <ele>167.8873291</ele>
        <time>2011-08-27T07:47:44Z</time>
      </trkpt>
      <trkpt lat="47.08274" lon="-0.77347">
        <ele>167.4067383</ele>
        <time>2011-08-27T07:47:47Z</time>
      </trkpt>
      <trkpt lat="47.08285" lon="-0.7732">
        <ele>166.4453125</ele>
        <time>2011-08-27T07:47:52Z</time>
      </trkpt>
      <trkpt lat="47.08292" lon="-0.77304">
        <ele>167.4067383</ele>
        <time>2011-08-27T07:47:56Z</time>
      </trkpt>
      <trkpt lat="47.08301" lon="-0.77279">
        <ele>165.4841309</ele>
        <time>2011-08-27T07:48:01Z</time>
      </trkpt>
      <trkpt lat="47.0831" lon="-0.77258">
        <ele>166.4453125</ele>
        <time>2011-08-27T07:48:06Z</time>
      </trkpt>
      <trkpt lat="47.08318" lon="-0.77228">
        <ele>167.8873291</ele>
        <time>2011-08-27T07:48:11Z</time>
      </trkpt>
      <trkpt lat="47.08328" lon="-0.77198">
        <ele>169.3294678</ele>
        <time>2011-08-27T07:48:16Z</time>
      </trkpt>
      <trkpt lat="47.08329" lon="-0.77192">
        <ele>169.8100586</ele>
        <time>2011-08-27T07:48:17Z</time>
      </trkpt>
      <trkpt lat="47.08328" lon="-0.77164">
        <ele>165.9647217</ele>
        <time>2011-08-27T07:48:22Z</time>
      </trkpt>
      <trkpt lat="47.08327" lon="-0.77159">
        <ele>165.4841309</ele>
        <time>2011-08-27T07:48:23Z</time>
      </trkpt>
      <trkpt lat="47.08318" lon="-0.77132">
        <ele>166.9260254</ele>
        <time>2011-08-27T07:48:28Z</time>
      </trkpt>
      <trkpt lat="47.08311" lon="-0.77105">
        <ele>163.0808105</ele>
        <time>2011-08-27T07:48:33Z</time>
      </trkpt>
      <trkpt lat="47.08308" lon="-0.77092">
        <ele>162.1195068</ele>
        <time>2011-08-27T07:48:35Z</time>
      </trkpt>
      <trkpt lat="47.08303" lon="-0.77067">
        <ele>162.1195068</ele>
        <time>2011-08-27T07:48:39Z</time>
      </trkpt>
      <trkpt lat="47.08301" lon="-0.77053">
        <ele>162.6000977</ele>
        <time>2011-08-27T07:48:41Z</time>
      </trkpt>
      <trkpt lat="47.08298" lon="-0.77025">
        <ele>165.4841309</ele>
        <time>2011-08-27T07:48:45Z</time>
      </trkpt>
      <trkpt lat="47.08295" lon="-0.76992">
        <ele>167.4067383</ele>
        <time>2011-08-27T07:48:50Z</time>
      </trkpt>
      <trkpt lat="47.08294" lon="-0.76979">
        <ele>168.368042</ele>
        <time>2011-08-27T07:48:52Z</time>
      </trkpt>
      <trkpt lat="47.08307" lon="-0.76943">
        <ele>172.6939697</ele>
        <time>2011-08-27T07:48:56Z</time>
      </trkpt>
      <trkpt lat="47.08312" lon="-0.76932">
        <ele>172.6939697</ele>
        <time>2011-08-27T07:48:57Z</time>
      </trkpt>
      <trkpt lat="47.08329" lon="-0.76898">
        <ele>172.2132568</ele>
        <time>2011-08-27T07:49:01Z</time>
      </trkpt>
      <trkpt lat="47.08329" lon="-0.76876">
        <ele>173.6552734</ele>
        <time>2011-08-27T07:49:05Z</time>
      </trkpt>
      <trkpt lat="47.08338" lon="-0.76854">
        <ele>175.09729</ele>
        <time>2011-08-27T07:49:09Z</time>
      </trkpt>
      <trkpt lat="47.08343" lon="-0.76837">
        <ele>176.0585938</ele>
        <time>2011-08-27T07:49:12Z</time>
      </trkpt>
      <trkpt lat="47.08346" lon="-0.76811">
        <ele>174.6165771</ele>
        <time>2011-08-27T07:49:16Z</time>
      </trkpt>
      <trkpt lat="47.08345" lon="-0.76781">
        <ele>175.5778809</ele>
        <time>2011-08-27T07:49:20Z</time>
      </trkpt>
      <trkpt lat="47.08342" lon="-0.7676">
        <ele>175.5778809</ele>
        <time>2011-08-27T07:49:23Z</time>
      </trkpt>
      <trkpt lat="47.08339" lon="-0.76746">
        <ele>175.09729</ele>
        <time>2011-08-27T07:49:25Z</time>
      </trkpt>
      <trkpt lat="47.0833" lon="-0.7672">
        <ele>172.2132568</ele>
        <time>2011-08-27T07:49:29Z</time>
      </trkpt>
      <trkpt lat="47.08326" lon="-0.76691">
        <ele>171.2520752</ele>
        <time>2011-08-27T07:49:33Z</time>
      </trkpt>
      <trkpt lat="47.08325" lon="-0.76654">
        <ele>170.7713623</ele>
        <time>2011-08-27T07:49:38Z</time>
      </trkpt>
      <trkpt lat="47.08329" lon="-0.76597">
        <ele>167.4067383</ele>
        <time>2011-08-27T07:49:45Z</time>
      </trkpt>
      <trkpt lat="47.08328" lon="-0.7659">
        <ele>166.4453125</ele>
        <time>2011-08-27T07:49:46Z</time>
      </trkpt>
      <trkpt lat="47.08332" lon="-0.76563">
        <ele>168.8487549</ele>
        <time>2011-08-27T07:49:50Z</time>
      </trkpt>
      <trkpt lat="47.08334" lon="-0.76542">
        <ele>166.9260254</ele>
        <time>2011-08-27T07:49:54Z</time>
      </trkpt>
      <trkpt lat="47.08331" lon="-0.76521">
        <ele>163.5615234</ele>
        <time>2011-08-27T07:49:57Z</time>
      </trkpt>
      <trkpt lat="47.08324" lon="-0.76483">
        <ele>165.9647217</ele>
        <time>2011-08-27T07:50:02Z</time>
      </trkpt>
      <trkpt lat="47.08322" lon="-0.76458">
        <ele>170.7713623</ele>
        <time>2011-08-27T07:50:05Z</time>
      </trkpt>
      <trkpt lat="47.08322" lon="-0.76437">
        <ele>176.0585938</ele>
        <time>2011-08-27T07:50:08Z</time>
      </trkpt>
      <trkpt lat="47.08328" lon="-0.76407">
        <ele>181.3458252</ele>
        <time>2011-08-27T07:50:13Z</time>
      </trkpt>
      <trkpt lat="47.08334" lon="-0.76371">
        <ele>183.7490234</ele>
        <time>2011-08-27T07:50:18Z</time>
      </trkpt>
      <trkpt lat="47.08334" lon="-0.76364">
        <ele>184.7105713</ele>
        <time>2011-08-27T07:50:19Z</time>
      </trkpt>
      <trkpt lat="47.08335" lon="-0.7633">
        <ele>186.1524658</ele>
        <time>2011-08-27T07:50:24Z</time>
      </trkpt>
      <trkpt lat="47.08342" lon="-0.76291">
        <ele>182.3071289</ele>
        <time>2011-08-27T07:50:30Z</time>
      </trkpt>
      <trkpt lat="47.08345" lon="-0.76271">
        <ele>183.2684326</ele>
        <time>2011-08-27T07:50:33Z</time>
      </trkpt>
      <trkpt lat="47.08347" lon="-0.7625">
        <ele>182.7878418</ele>
        <time>2011-08-27T07:50:36Z</time>
      </trkpt>
      <trkpt lat="47.08349" lon="-0.76237">
        <ele>182.7878418</ele>
        <time>2011-08-27T07:50:38Z</time>
      </trkpt>
      <trkpt lat="47.08362" lon="-0.76196">
        <ele>179.4232178</ele>
        <time>2011-08-27T07:50:44Z</time>
      </trkpt>
      <trkpt lat="47.08375" lon="-0.76148">
        <ele>177.9812012</ele>
        <time>2011-08-27T07:50:51Z</time>
      </trkpt>
      <trkpt lat="47.08388" lon="-0.76103">
        <ele>175.5778809</ele>
        <time>2011-08-27T07:50:58Z</time>
      </trkpt>
      <trkpt lat="47.08396" lon="-0.76085">
        <ele>175.09729</ele>
        <time>2011-08-27T07:51:01Z</time>
      </trkpt>
      <trkpt lat="47.08412" lon="-0.76046">
        <ele>176.5393066</ele>
        <time>2011-08-27T07:51:07Z</time>
      </trkpt>
      <trkpt lat="47.08427" lon="-0.76015">
        <ele>177.9812012</ele>
        <time>2011-08-27T07:51:12Z</time>
      </trkpt>
      <trkpt lat="47.08435" lon="-0.75997">
        <ele>178.4619141</ele>
        <time>2011-08-27T07:51:15Z</time>
      </trkpt>
      <trkpt lat="47.08446" lon="-0.75976">
        <ele>178.4619141</ele>
        <time>2011-08-27T07:51:19Z</time>
      </trkpt>
      <trkpt lat="47.08468" lon="-0.75943">
        <ele>183.7490234</ele>
        <time>2011-08-27T07:51:25Z</time>
      </trkpt>
      <trkpt lat="47.08475" lon="-0.75934">
        <ele>184.2298584</ele>
        <time>2011-08-27T07:51:27Z</time>
      </trkpt>
      <trkpt lat="47.08483" lon="-0.75925">
        <ele>185.1911621</ele>
        <time>2011-08-27T07:51:29Z</time>
      </trkpt>
      <trkpt lat="47.08493" lon="-0.7591">
        <ele>184.7105713</ele>
        <time>2011-08-27T07:51:34Z</time>
      </trkpt>
      <trkpt lat="47.085" lon="-0.759">
        <ele>183.2684326</ele>
        <time>2011-08-27T07:51:38Z</time>
      </trkpt>
      <trkpt lat="47.08505" lon="-0.75891">
        <ele>181.826416</ele>
        <time>2011-08-27T07:51:40Z</time>
      </trkpt>
      <trkpt lat="47.08522" lon="-0.75864">
        <ele>177.5006104</ele>
        <time>2011-08-27T07:51:46Z</time>
      </trkpt>
      <trkpt lat="47.08531" lon="-0.75843">
        <ele>176.5393066</ele>
        <time>2011-08-27T07:51:51Z</time>
      </trkpt>
      <trkpt lat="47.08536" lon="-0.75833">
        <ele>177.0200195</ele>
        <time>2011-08-27T07:51:53Z</time>
      </trkpt>
      <trkpt lat="47.08545" lon="-0.75821">
        <ele>175.5778809</ele>
        <time>2011-08-27T07:51:55Z</time>
      </trkpt>
      <trkpt lat="47.08556" lon="-0.75805">
        <ele>171.2520752</ele>
        <time>2011-08-27T07:51:58Z</time>
      </trkpt>
      <trkpt lat="47.08579" lon="-0.75774">
        <ele>169.8100586</ele>
        <time>2011-08-27T07:52:04Z</time>
      </trkpt>
      <trkpt lat="47.08597" lon="-0.75748">
        <ele>174.1358643</ele>
        <time>2011-08-27T07:52:10Z</time>
      </trkpt>
      <trkpt lat="47.08607" lon="-0.75735">
        <ele>176.0585938</ele>
        <time>2011-08-27T07:52:13Z</time>
      </trkpt>
      <trkpt lat="47.08621" lon="-0.75707">
        <ele>178.942627</ele>
        <time>2011-08-27T07:52:18Z</time>
      </trkpt>
      <trkpt lat="47.08625" lon="-0.75693">
        <ele>182.3071289</ele>
        <time>2011-08-27T07:52:20Z</time>
      </trkpt>
      <trkpt lat="47.08635" lon="-0.75661">
        <ele>181.3458252</ele>
        <time>2011-08-27T07:52:25Z</time>
      </trkpt>
      <trkpt lat="47.08639" lon="-0.7565">
        <ele>181.3458252</ele>
        <time>2011-08-27T07:52:27Z</time>
      </trkpt>
      <trkpt lat="47.08643" lon="-0.75641">
        <ele>181.826416</ele>
        <time>2011-08-27T07:52:29Z</time>
      </trkpt>
      <trkpt lat="47.08645" lon="-0.75621">
        <ele>178.942627</ele>
        <time>2011-08-27T07:52:35Z</time>
      </trkpt>
      <trkpt lat="47.08643" lon="-0.75617">
        <ele>177.9812012</ele>
        <time>2011-08-27T07:52:36Z</time>
      </trkpt>
      <trkpt lat="47.08634" lon="-0.75572">
        <ele>175.09729</ele>
        <time>2011-08-27T07:52:44Z</time>
      </trkpt>
      <trkpt lat="47.08623" lon="-0.75526">
        <ele>175.09729</ele>
        <time>2011-08-27T07:52:52Z</time>
      </trkpt>
      <trkpt lat="47.0862" lon="-0.75514">
        <ele>175.09729</ele>
        <time>2011-08-27T07:52:54Z</time>
      </trkpt>
      <trkpt lat="47.08613" lon="-0.75479">
        <ele>175.5778809</ele>
        <time>2011-08-27T07:53:00Z</time>
      </trkpt>
      <trkpt lat="47.0861" lon="-0.75468">
        <ele>175.5778809</ele>
        <time>2011-08-27T07:53:02Z</time>
      </trkpt>
      <trkpt lat="47.08608" lon="-0.75454">
        <ele>176.5393066</ele>
        <time>2011-08-27T07:53:05Z</time>
      </trkpt>
      <trkpt lat="47.08601" lon="-0.7545">
        <ele>177.0200195</ele>
        <time>2011-08-27T07:53:10Z</time>
      </trkpt>
      <trkpt lat="47.08601" lon="-0.75432">
        <ele>175.5778809</ele>
        <time>2011-08-27T07:53:14Z</time>
      </trkpt>
      <trkpt lat="47.08594" lon="-0.75398">
        <ele>175.09729</ele>
        <time>2011-08-27T07:53:19Z</time>
      </trkpt>
      <trkpt lat="47.08591" lon="-0.75379">
        <ele>173.6552734</ele>
        <time>2011-08-27T07:53:22Z</time>
      </trkpt>
      <trkpt lat="47.08587" lon="-0.75349">
        <ele>172.6939697</ele>
        <time>2011-08-27T07:53:27Z</time>
      </trkpt>
      <trkpt lat="47.08577" lon="-0.75303">
        <ele>170.2906494</ele>
        <time>2011-08-27T07:53:34Z</time>
      </trkpt>
      <trkpt lat="47.08564" lon="-0.75268">
        <ele>171.2520752</ele>
        <time>2011-08-27T07:53:39Z</time>
      </trkpt>
      <trkpt lat="47.08562" lon="-0.7526">
        <ele>170.7713623</ele>
        <time>2011-08-27T07:53:40Z</time>
      </trkpt>
      <trkpt lat="47.08549" lon="-0.75229">
        <ele>171.2520752</ele>
        <time>2011-08-27T07:53:44Z</time>
      </trkpt>
      <trkpt lat="47.08521" lon="-0.75173">
        <ele>169.8100586</ele>
        <time>2011-08-27T07:53:51Z</time>
      </trkpt>
      <trkpt lat="47.08516" lon="-0.75167">
        <ele>170.2906494</ele>
        <time>2011-08-27T07:53:52Z</time>
      </trkpt>
      <trkpt lat="47.08509" lon="-0.75152">
        <ele>170.2906494</ele>
        <time>2011-08-27T07:53:54Z</time>
      </trkpt>
      <trkpt lat="47.08501" lon="-0.75139">
        <ele>170.7713623</ele>
        <time>2011-08-27T07:53:56Z</time>
      </trkpt>
      <trkpt lat="47.08494" lon="-0.75126">
        <ele>170.7713623</ele>
        <time>2011-08-27T07:53:58Z</time>
      </trkpt>
      <trkpt lat="47.08482" lon="-0.75097">
        <ele>170.7713623</ele>
        <time>2011-08-27T07:54:02Z</time>
      </trkpt>
      <trkpt lat="47.08476" lon="-0.75083">
        <ele>170.7713623</ele>
        <time>2011-08-27T07:54:04Z</time>
      </trkpt>
      <trkpt lat="47.08468" lon="-0.75071">
        <ele>170.7713623</ele>
        <time>2011-08-27T07:54:06Z</time>
      </trkpt>
      <trkpt lat="47.08452" lon="-0.7504">
        <ele>170.2906494</ele>
        <time>2011-08-27T07:54:11Z</time>
      </trkpt>
      <trkpt lat="47.08434" lon="-0.74999">
        <ele>168.368042</ele>
        <time>2011-08-27T07:54:17Z</time>
      </trkpt>
      <trkpt lat="47.0842" lon="-0.74971">
        <ele>168.368042</ele>
        <time>2011-08-27T07:54:21Z</time>
      </trkpt>
      <trkpt lat="47.08417" lon="-0.74965">
        <ele>168.8487549</ele>
        <time>2011-08-27T07:54:22Z</time>
      </trkpt>
      <trkpt lat="47.08392" lon="-0.74916">
        <ele>169.8100586</ele>
        <time>2011-08-27T07:54:29Z</time>
      </trkpt>
      <trkpt lat="47.08385" lon="-0.74904">
        <ele>170.2906494</ele>
        <time>2011-08-27T07:54:31Z</time>
      </trkpt>
      <trkpt lat="47.08369" lon="-0.74871">
        <ele>170.7713623</ele>
        <time>2011-08-27T07:54:36Z</time>
      </trkpt>
      <trkpt lat="47.08348" lon="-0.7482">
        <ele>169.8100586</ele>
        <time>2011-08-27T07:54:43Z</time>
      </trkpt>
      <trkpt lat="47.08341" lon="-0.74803">
        <ele>168.8487549</ele>
        <time>2011-08-27T07:54:46Z</time>
      </trkpt>
      <trkpt lat="47.08332" lon="-0.74777">
        <ele>166.9260254</ele>
        <time>2011-08-27T07:54:50Z</time>
      </trkpt>
      <trkpt lat="47.08323" lon="-0.74747">
        <ele>166.9260254</ele>
        <time>2011-08-27T07:54:54Z</time>
      </trkpt>
      <trkpt lat="47.08311" lon="-0.7472">
        <ele>169.3294678</ele>
        <time>2011-08-27T07:54:58Z</time>
      </trkpt>
      <trkpt lat="47.08303" lon="-0.74688">
        <ele>168.8487549</ele>
        <time>2011-08-27T07:55:03Z</time>
      </trkpt>
      <trkpt lat="47.08297" lon="-0.7467">
        <ele>169.8100586</ele>
        <time>2011-08-27T07:55:06Z</time>
      </trkpt>
      <trkpt lat="47.08286" lon="-0.74638">
        <ele>173.1746826</ele>
        <time>2011-08-27T07:55:11Z</time>
      </trkpt>
      <trkpt lat="47.08283" lon="-0.74626">
        <ele>172.6939697</ele>
        <time>2011-08-27T07:55:13Z</time>
      </trkpt>
      <trkpt lat="47.08276" lon="-0.74603">
        <ele>172.2132568</ele>
        <time>2011-08-27T07:55:17Z</time>
      </trkpt>
      <trkpt lat="47.0827" lon="-0.74581">
        <ele>174.1358643</ele>
        <time>2011-08-27T07:55:21Z</time>
      </trkpt>
      <trkpt lat="47.08272" lon="-0.74554">
        <ele>172.6939697</ele>
        <time>2011-08-27T07:55:26Z</time>
      </trkpt>
      <trkpt lat="47.08278" lon="-0.74533">
        <ele>172.2132568</ele>
        <time>2011-08-27T07:55:31Z</time>
      </trkpt>
      <trkpt lat="47.08288" lon="-0.74503">
        <ele>177.0200195</ele>
        <time>2011-08-27T07:55:36Z</time>
      </trkpt>
      <trkpt lat="47.08291" lon="-0.7449">
        <ele>180.3845215</ele>
        <time>2011-08-27T07:55:38Z</time>
      </trkpt>
      <trkpt lat="47.08309" lon="-0.74446">
        <ele>187.1137695</ele>
        <time>2011-08-27T07:55:45Z</time>
      </trkpt>
      <trkpt lat="47.08313" lon="-0.74435">
        <ele>189.5169678</ele>
        <time>2011-08-27T07:55:47Z</time>
      </trkpt>
      <trkpt lat="47.08317" lon="-0.74415">
        <ele>187.5943604</ele>
        <time>2011-08-27T07:55:52Z</time>
      </trkpt>
      <trkpt lat="47.08322" lon="-0.74391">
        <ele>190.4783936</ele>
        <time>2011-08-27T07:55:58Z</time>
      </trkpt>
      <trkpt lat="47.08329" lon="-0.74366">
        <ele>190.4783936</ele>
        <time>2011-08-27T07:56:04Z</time>
      </trkpt>
      <trkpt lat="47.08338" lon="-0.74348">
        <ele>187.1137695</ele>
        <time>2011-08-27T07:56:08Z</time>
      </trkpt>
      <trkpt lat="47.08346" lon="-0.74327">
        <ele>185.1911621</ele>
        <time>2011-08-27T07:56:13Z</time>
      </trkpt>
      <trkpt lat="47.0836" lon="-0.74302">
        <ele>185.1911621</ele>
        <time>2011-08-27T07:56:19Z</time>
      </trkpt>
      <trkpt lat="47.08372" lon="-0.74285">
        <ele>186.6331787</ele>
        <time>2011-08-27T07:56:23Z</time>
      </trkpt>
      <trkpt lat="47.08379" lon="-0.74276">
        <ele>187.5943604</ele>
        <time>2011-08-27T07:56:25Z</time>
      </trkpt>
      <trkpt lat="47.08392" lon="-0.74256">
        <ele>189.9976807</ele>
        <time>2011-08-27T07:56:30Z</time>
      </trkpt>
      <trkpt lat="47.0841" lon="-0.74243">
        <ele>188.5557861</ele>
        <time>2011-08-27T07:56:36Z</time>
      </trkpt>
      <trkpt lat="47.08427" lon="-0.74232">
        <ele>187.1137695</ele>
        <time>2011-08-27T07:56:41Z</time>
      </trkpt>
      <trkpt lat="47.08448" lon="-0.74213">
        <ele>184.7105713</ele>
        <time>2011-08-27T07:56:47Z</time>
      </trkpt>
      <trkpt lat="47.08452" lon="-0.7421">
        <ele>185.1911621</ele>
        <time>2011-08-27T07:56:48Z</time>
      </trkpt>
      <trkpt lat="47.08461" lon="-0.74207">
        <ele>185.1911621</ele>
        <time>2011-08-27T07:56:50Z</time>
      </trkpt>
      <trkpt lat="47.08472" lon="-0.74187">
        <ele>180.8652344</ele>
        <time>2011-08-27T07:56:54Z</time>
      </trkpt>
      <trkpt lat="47.08472" lon="-0.74174">
        <ele>178.942627</ele>
        <time>2011-08-27T07:56:56Z</time>
      </trkpt>
      <trkpt lat="47.0847" lon="-0.7416">
        <ele>178.942627</ele>
        <time>2011-08-27T07:56:58Z</time>
      </trkpt>
      <trkpt lat="47.08468" lon="-0.74139">
        <ele>175.09729</ele>
        <time>2011-08-27T07:57:01Z</time>
      </trkpt>
      <trkpt lat="47.08463" lon="-0.7411">
        <ele>172.6939697</ele>
        <time>2011-08-27T07:57:05Z</time>
      </trkpt>
      <trkpt lat="47.08461" lon="-0.74098">
        <ele>172.2132568</ele>
        <time>2011-08-27T07:57:07Z</time>
      </trkpt>
      <trkpt lat="47.08456" lon="-0.74077">
        <ele>173.1746826</ele>
        <time>2011-08-27T07:57:11Z</time>
      </trkpt>
      <trkpt lat="47.08453" lon="-0.74064">
        <ele>174.6165771</ele>
        <time>2011-08-27T07:57:13Z</time>
      </trkpt>
      <trkpt lat="47.0845" lon="-0.74051">
        <ele>176.5393066</ele>
        <time>2011-08-27T07:57:15Z</time>
      </trkpt>
      <trkpt lat="47.08444" lon="-0.74038">
        <ele>178.942627</ele>
        <time>2011-08-27T07:57:17Z</time>
      </trkpt>
      <trkpt lat="47.08436" lon="-0.74021">
        <ele>184.7105713</ele>
        <time>2011-08-27T07:57:20Z</time>
      </trkpt>
      <trkpt lat="47.08437" lon="-0.73989">
        <ele>183.7490234</ele>
        <time>2011-08-27T07:57:26Z</time>
      </trkpt>
      <trkpt lat="47.08449" lon="-0.73991">
        <ele>184.7105713</ele>
        <time>2011-08-27T07:57:30Z</time>
      </trkpt>
      <trkpt lat="47.08454" lon="-0.73991">
        <ele>185.1911621</ele>
        <time>2011-08-27T07:57:31Z</time>
      </trkpt>
      <trkpt lat="47.0849" lon="-0.73987">
        <ele>185.6717529</ele>
        <time>2011-08-27T07:57:39Z</time>
      </trkpt>
      <trkpt lat="47.08499" lon="-0.73985">
        <ele>187.1137695</ele>
        <time>2011-08-27T07:57:41Z</time>
      </trkpt>
      <trkpt lat="47.08516" lon="-0.73981">
        <ele>186.1524658</ele>
        <time>2011-08-27T07:57:45Z</time>
      </trkpt>
      <trkpt lat="47.08536" lon="-0.73978">
        <ele>186.1524658</ele>
        <time>2011-08-27T07:57:49Z</time>
      </trkpt>
      <trkpt lat="47.08565" lon="-0.73972">
        <ele>190.4783936</ele>
        <time>2011-08-27T07:57:55Z</time>
      </trkpt>
      <trkpt lat="47.0858" lon="-0.73972">
        <ele>189.5169678</ele>
        <time>2011-08-27T07:57:58Z</time>
      </trkpt>
      <trkpt lat="47.08596" lon="-0.7397">
        <ele>189.5169678</ele>
        <time>2011-08-27T07:58:02Z</time>
      </trkpt>
      <trkpt lat="47.08617" lon="-0.73969">
        <ele>188.5557861</ele>
        <time>2011-08-27T07:58:08Z</time>
      </trkpt>
      <trkpt lat="47.0863" lon="-0.73969">
        <ele>189.5169678</ele>
        <time>2011-08-27T07:58:12Z</time>
      </trkpt>
      <trkpt lat="47.08652" lon="-0.73967">
        <ele>190.4783936</ele>
        <time>2011-08-27T07:58:17Z</time>
      </trkpt>
      <trkpt lat="47.0866" lon="-0.73968">
        <ele>189.9976807</ele>
        <time>2011-08-27T07:58:19Z</time>
      </trkpt>
      <trkpt lat="47.08681" lon="-0.73966">
        <ele>188.5557861</ele>
        <time>2011-08-27T07:58:23Z</time>
      </trkpt>
      <trkpt lat="47.08702" lon="-0.73965">
        <ele>186.6331787</ele>
        <time>2011-08-27T07:58:28Z</time>
      </trkpt>
      <trkpt lat="47.08728" lon="-0.7396">
        <ele>186.1524658</ele>
        <time>2011-08-27T07:58:34Z</time>
      </trkpt>
      <trkpt lat="47.08731" lon="-0.73959">
        <ele>185.6717529</ele>
        <time>2011-08-27T07:58:35Z</time>
      </trkpt>
      <trkpt lat="47.0875" lon="-0.73957">
        <ele>181.826416</ele>
        <time>2011-08-27T07:58:41Z</time>
      </trkpt>
      <trkpt lat="47.08768" lon="-0.73955">
        <ele>183.2684326</ele>
        <time>2011-08-27T07:58:46Z</time>
      </trkpt>
      <trkpt lat="47.0878" lon="-0.73953">
        <ele>183.2684326</ele>
        <time>2011-08-27T07:58:52Z</time>
      </trkpt>
      <trkpt lat="47.08782" lon="-0.73954">
        <ele>189.9976807</ele>
        <time>2011-08-27T07:58:56Z</time>
      </trkpt>
      <trkpt lat="47.08786" lon="-0.73956">
        <ele>190.4783936</ele>
        <time>2011-08-27T07:58:59Z</time>
      </trkpt>
      <trkpt lat="47.0879" lon="-0.73957">
        <ele>187.5943604</ele>
        <time>2011-08-27T07:59:06Z</time>
      </trkpt>
      <trkpt lat="47.08797" lon="-0.73955">
        <ele>188.0750732</ele>
        <time>2011-08-27T07:59:11Z</time>
      </trkpt>
      <trkpt lat="47.0881" lon="-0.73946">
        <ele>184.2298584</ele>
        <time>2011-08-27T07:59:16Z</time>
      </trkpt>
      <trkpt lat="47.08822" lon="-0.7394">
        <ele>183.2684326</ele>
        <time>2011-08-27T07:59:21Z</time>
      </trkpt>
      <trkpt lat="47.08834" lon="-0.73934">
        <ele>183.2684326</ele>
        <time>2011-08-27T07:59:27Z</time>
      </trkpt>
      <trkpt lat="47.08843" lon="-0.7393">
        <ele>183.7490234</ele>
        <time>2011-08-27T07:59:31Z</time>
      </trkpt>
      <trkpt lat="47.08857" lon="-0.73926">
        <ele>184.7105713</ele>
        <time>2011-08-27T07:59:35Z</time>
      </trkpt>
      <trkpt lat="47.08869" lon="-0.73922">
        <ele>185.6717529</ele>
        <time>2011-08-27T07:59:39Z</time>
      </trkpt>
      <trkpt lat="47.08884" lon="-0.73914">
        <ele>190.4783936</ele>
        <time>2011-08-27T07:59:45Z</time>
      </trkpt>
      <trkpt lat="47.08895" lon="-0.73911">
        <ele>192.401123</ele>
        <time>2011-08-27T07:59:49Z</time>
      </trkpt>
      <trkpt lat="47.08915" lon="-0.73905">
        <ele>191.9202881</ele>
        <time>2011-08-27T07:59:55Z</time>
      </trkpt>
      <trkpt lat="47.08933" lon="-0.73896">
        <ele>192.8817139</ele>
        <time>2011-08-27T08:00:00Z</time>
      </trkpt>
      <trkpt lat="47.0895" lon="-0.73886">
        <ele>193.8430176</ele>
        <time>2011-08-27T08:00:05Z</time>
      </trkpt>
      <trkpt lat="47.08968" lon="-0.7388">
        <ele>194.3237305</ele>
        <time>2011-08-27T08:00:10Z</time>
      </trkpt>
      <trkpt lat="47.08976" lon="-0.73878">
        <ele>196.2463379</ele>
        <time>2011-08-27T08:00:12Z</time>
      </trkpt>
      <trkpt lat="47.08997" lon="-0.73868">
        <ele>193.8430176</ele>
        <time>2011-08-27T08:00:18Z</time>
      </trkpt>
      <trkpt lat="47.09019" lon="-0.73862">
        <ele>191.4395752</ele>
        <time>2011-08-27T08:00:24Z</time>
      </trkpt>
      <trkpt lat="47.09022" lon="-0.73861">
        <ele>191.4395752</ele>
        <time>2011-08-27T08:00:25Z</time>
      </trkpt>
      <trkpt lat="47.09037" lon="-0.73849">
        <ele>192.401123</ele>
        <time>2011-08-27T08:00:29Z</time>
      </trkpt>
      <trkpt lat="47.0906" lon="-0.73828">
        <ele>191.9202881</ele>
        <time>2011-08-27T08:00:36Z</time>
      </trkpt>
      <trkpt lat="47.09074" lon="-0.73811">
        <ele>192.8817139</ele>
        <time>2011-08-27T08:00:41Z</time>
      </trkpt>
      <trkpt lat="47.09084" lon="-0.73791">
        <ele>193.8430176</ele>
        <time>2011-08-27T08:00:46Z</time>
      </trkpt>
      <trkpt lat="47.09094" lon="-0.73758">
        <ele>194.8043213</ele>
        <time>2011-08-27T08:00:52Z</time>
      </trkpt>
      <trkpt lat="47.09097" lon="-0.73747">
        <ele>194.8043213</ele>
        <time>2011-08-27T08:00:54Z</time>
      </trkpt>
      <trkpt lat="47.09102" lon="-0.73733">
        <ele>195.765625</ele>
        <time>2011-08-27T08:00:56Z</time>
      </trkpt>
      <trkpt lat="47.09113" lon="-0.73706">
        <ele>196.2463379</ele>
        <time>2011-08-27T08:01:00Z</time>
      </trkpt>
      <trkpt lat="47.09126" lon="-0.73682">
        <ele>194.8043213</ele>
        <time>2011-08-27T08:01:04Z</time>
      </trkpt>
      <trkpt lat="47.09132" lon="-0.73671">
        <ele>194.8043213</ele>
        <time>2011-08-27T08:01:06Z</time>
      </trkpt>
      <trkpt lat="47.09137" lon="-0.73662">
        <ele>194.8043213</ele>
        <time>2011-08-27T08:01:08Z</time>
      </trkpt>
      <trkpt lat="47.09143" lon="-0.73651">
        <ele>194.3237305</ele>
        <time>2011-08-27T08:01:10Z</time>
      </trkpt>
      <trkpt lat="47.09152" lon="-0.73626">
        <ele>192.8817139</ele>
        <time>2011-08-27T08:01:15Z</time>
      </trkpt>
      <trkpt lat="47.09166" lon="-0.736">
        <ele>193.8430176</ele>
        <time>2011-08-27T08:01:20Z</time>
      </trkpt>
      <trkpt lat="47.09175" lon="-0.73587">
        <ele>193.3623047</ele>
        <time>2011-08-27T08:01:23Z</time>
      </trkpt>
      <trkpt lat="47.09196" lon="-0.73563">
        <ele>190.9589844</ele>
        <time>2011-08-27T08:01:28Z</time>
      </trkpt>
      <trkpt lat="47.09211" lon="-0.73538">
        <ele>189.5169678</ele>
        <time>2011-08-27T08:01:34Z</time>
      </trkpt>
      <trkpt lat="47.09214" lon="-0.73534">
        <ele>189.036377</ele>
        <time>2011-08-27T08:01:35Z</time>
      </trkpt>
      <trkpt lat="47.0922" lon="-0.73519">
        <ele>185.1911621</ele>
        <time>2011-08-27T08:01:39Z</time>
      </trkpt>
      <trkpt lat="47.09223" lon="-0.73517">
        <ele>185.6717529</ele>
        <time>2011-08-27T08:01:46Z</time>
      </trkpt>
      <trkpt lat="47.09224" lon="-0.73516">
        <ele>185.6717529</ele>
        <time>2011-08-27T08:01:53Z</time>
      </trkpt>
      <trkpt lat="47.09225" lon="-0.73517">
        <ele>185.6717529</ele>
        <time>2011-08-27T08:01:58Z</time>
      </trkpt>
      <trkpt lat="47.09225" lon="-0.73516">
        <ele>185.6717529</ele>
        <time>2011-08-27T08:02:08Z</time>
      </trkpt>
      <trkpt lat="47.09224" lon="-0.73512">
        <ele>197.6882324</ele>
        <time>2011-08-27T08:02:16Z</time>
      </trkpt>
      <trkpt lat="47.09226" lon="-0.73513">
        <ele>195.765625</ele>
        <time>2011-08-27T08:02:27Z</time>
      </trkpt>
      <trkpt lat="47.09226" lon="-0.73514">
        <ele>194.3237305</ele>
        <time>2011-08-27T08:02:32Z</time>
      </trkpt>
      <trkpt lat="47.09228" lon="-0.7351">
        <ele>201.5335693</ele>
        <time>2011-08-27T08:02:45Z</time>
      </trkpt>
      <trkpt lat="47.09227" lon="-0.73515">
        <ele>194.8043213</ele>
        <time>2011-08-27T08:03:00Z</time>
      </trkpt>
      <trkpt lat="47.09225" lon="-0.73519">
        <ele>190.9589844</ele>
        <time>2011-08-27T08:03:10Z</time>
      </trkpt>
      <trkpt lat="47.09227" lon="-0.73518">
        <ele>189.9976807</ele>
        <time>2011-08-27T08:03:16Z</time>
      </trkpt>
      <trkpt lat="47.09228" lon="-0.73515">
        <ele>188.0750732</ele>
        <time>2011-08-27T08:03:23Z</time>
      </trkpt>
      <trkpt lat="47.09228" lon="-0.73514">
        <ele>188.0750732</ele>
        <time>2011-08-27T08:03:24Z</time>
      </trkpt>
      <trkpt lat="47.0922" lon="-0.73504">
        <ele>184.7105713</ele>
        <time>2011-08-27T08:03:30Z</time>
      </trkpt>
      <trkpt lat="47.09217" lon="-0.73504">
        <ele>180.3845215</ele>
        <time>2011-08-27T08:03:35Z</time>
      </trkpt>
      <trkpt lat="47.09213" lon="-0.735">
        <ele>181.3458252</ele>
        <time>2011-08-27T08:03:40Z</time>
      </trkpt>
      <trkpt lat="47.09203" lon="-0.73484">
        <ele>182.7878418</ele>
        <time>2011-08-27T08:03:45Z</time>
      </trkpt>
      <trkpt lat="47.09194" lon="-0.73464">
        <ele>184.2298584</ele>
        <time>2011-08-27T08:03:50Z</time>
      </trkpt>
      <trkpt lat="47.09192" lon="-0.7345">
        <ele>185.6717529</ele>
        <time>2011-08-27T08:03:54Z</time>
      </trkpt>
      <trkpt lat="47.09182" lon="-0.73413">
        <ele>186.6331787</ele>
        <time>2011-08-27T08:03:59Z</time>
      </trkpt>
      <trkpt lat="47.09181" lon="-0.73385">
        <ele>188.0750732</ele>
        <time>2011-08-27T08:04:02Z</time>
      </trkpt>
      <trkpt lat="47.09179" lon="-0.7336">
        <ele>184.7105713</ele>
        <time>2011-08-27T08:04:05Z</time>
      </trkpt>
      <trkpt lat="47.09164" lon="-0.73288">
        <ele>186.1524658</ele>
        <time>2011-08-27T08:04:13Z</time>
      </trkpt>
      <trkpt lat="47.09163" lon="-0.7327">
        <ele>186.1524658</ele>
        <time>2011-08-27T08:04:15Z</time>
      </trkpt>
      <trkpt lat="47.09167" lon="-0.73214">
        <ele>184.7105713</ele>
        <time>2011-08-27T08:04:21Z</time>
      </trkpt>
      <trkpt lat="47.09175" lon="-0.73171">
        <ele>183.2684326</ele>
        <time>2011-08-27T08:04:26Z</time>
      </trkpt>
      <trkpt lat="47.09192" lon="-0.73073">
        <ele>180.8652344</ele>
        <time>2011-08-27T08:04:37Z</time>
      </trkpt>
      <trkpt lat="47.09194" lon="-0.73055">
        <ele>180.8652344</ele>
        <time>2011-08-27T08:04:39Z</time>
      </trkpt>
      <trkpt lat="47.0919" lon="-0.7301">
        <ele>180.8652344</ele>
        <time>2011-08-27T08:04:44Z</time>
      </trkpt>
      <trkpt lat="47.09173" lon="-0.72935">
        <ele>181.826416</ele>
        <time>2011-08-27T08:04:53Z</time>
      </trkpt>
      <trkpt lat="47.09173" lon="-0.72889">
        <ele>182.3071289</ele>
        <time>2011-08-27T08:04:58Z</time>
      </trkpt>
      <trkpt lat="47.09182" lon="-0.72818">
        <ele>182.3071289</ele>
        <time>2011-08-27T08:05:06Z</time>
      </trkpt>
      <trkpt lat="47.09198" lon="-0.7272">
        <ele>182.3071289</ele>
        <time>2011-08-27T08:05:17Z</time>
      </trkpt>
      <trkpt lat="47.09209" lon="-0.72625">
        <ele>182.3071289</ele>
        <time>2011-08-27T08:05:27Z</time>
      </trkpt>
      <trkpt lat="47.09225" lon="-0.72562">
        <ele>181.826416</ele>
        <time>2011-08-27T08:05:34Z</time>
      </trkpt>
      <trkpt lat="47.09242" lon="-0.72503">
        <ele>181.826416</ele>
        <time>2011-08-27T08:05:41Z</time>
      </trkpt>
      <trkpt lat="47.09256" lon="-0.72459">
        <ele>180.8652344</ele>
        <time>2011-08-27T08:05:47Z</time>
      </trkpt>
      <trkpt lat="47.09282" lon="-0.72385">
        <ele>179.9038086</ele>
        <time>2011-08-27T08:05:56Z</time>
      </trkpt>
      <trkpt lat="47.09296" lon="-0.72347">
        <ele>179.4232178</ele>
        <time>2011-08-27T08:06:01Z</time>
      </trkpt>
      <trkpt lat="47.09298" lon="-0.72315">
        <ele>179.4232178</ele>
        <time>2011-08-27T08:06:05Z</time>
      </trkpt>
      <trkpt lat="47.09288" lon="-0.72296">
        <ele>180.3845215</ele>
        <time>2011-08-27T08:06:08Z</time>
      </trkpt>
      <trkpt lat="47.09278" lon="-0.72287">
        <ele>180.3845215</ele>
        <time>2011-08-27T08:06:10Z</time>
      </trkpt>
      <trkpt lat="47.09238" lon="-0.72263">
        <ele>180.8652344</ele>
        <time>2011-08-27T08:06:18Z</time>
      </trkpt>
      <trkpt lat="47.09201" lon="-0.72242">
        <ele>181.3458252</ele>
        <time>2011-08-27T08:06:25Z</time>
      </trkpt>
      <trkpt lat="47.09181" lon="-0.72214">
        <ele>181.826416</ele>
        <time>2011-08-27T08:06:30Z</time>
      </trkpt>
      <trkpt lat="47.09175" lon="-0.72191">
        <ele>182.3071289</ele>
        <time>2011-08-27T08:06:33Z</time>
      </trkpt>
      <trkpt lat="47.09169" lon="-0.72129">
        <ele>183.2684326</ele>
        <time>2011-08-27T08:06:41Z</time>
      </trkpt>
      <trkpt lat="47.0917" lon="-0.72066">
        <ele>183.7490234</ele>
        <time>2011-08-27T08:06:49Z</time>
      </trkpt>
      <trkpt lat="47.09173" lon="-0.71975">
        <ele>184.7105713</ele>
        <time>2011-08-27T08:07:01Z</time>
      </trkpt>
      <trkpt lat="47.09173" lon="-0.7195">
        <ele>184.7105713</ele>
        <time>2011-08-27T08:07:05Z</time>
      </trkpt>
      <trkpt lat="47.09172" lon="-0.71942">
        <ele>184.7105713</ele>
        <time>2011-08-27T08:07:09Z</time>
      </trkpt>
      <trkpt lat="47.0917" lon="-0.71943">
        <ele>184.7105713</ele>
        <time>2011-08-27T08:07:18Z</time>
      </trkpt>
      <trkpt lat="47.0917" lon="-0.7194">
        <ele>184.7105713</ele>
        <time>2011-08-27T08:07:22Z</time>
      </trkpt>
      <trkpt lat="47.0917" lon="-0.7194">
        <ele>185.1911621</ele>
        <time>2011-08-27T08:07:27Z</time>
      </trkpt>
      <trkpt lat="47.0917" lon="-0.7194">
        <ele>186.6331787</ele>
        <time>2011-08-27T08:07:37Z</time>
      </trkpt>
      <trkpt lat="47.09174" lon="-0.71943">
        <ele>186.6331787</ele>
        <time>2011-08-27T08:07:47Z</time>
      </trkpt>
      <trkpt lat="47.09175" lon="-0.71945">
        <ele>186.1524658</ele>
        <time>2011-08-27T08:07:48Z</time>
      </trkpt>
      <trkpt lat="47.09176" lon="-0.71976">
        <ele>185.6717529</ele>
        <time>2011-08-27T08:07:56Z</time>
      </trkpt>
      <trkpt lat="47.09175" lon="-0.7202">
        <ele>184.7105713</ele>
        <time>2011-08-27T08:08:03Z</time>
      </trkpt>
      <trkpt lat="47.09173" lon="-0.72075">
        <ele>184.2298584</ele>
        <time>2011-08-27T08:08:10Z</time>
      </trkpt>
      <trkpt lat="47.09174" lon="-0.72144">
        <ele>183.2684326</ele>
        <time>2011-08-27T08:08:18Z</time>
      </trkpt>
      <trkpt lat="47.0918" lon="-0.72195">
        <ele>182.3071289</ele>
        <time>2011-08-27T08:08:24Z</time>
      </trkpt>
      <trkpt lat="47.09194" lon="-0.72232">
        <ele>181.826416</ele>
        <time>2011-08-27T08:08:29Z</time>
      </trkpt>
      <trkpt lat="47.09212" lon="-0.72251">
        <ele>181.3458252</ele>
        <time>2011-08-27T08:08:33Z</time>
      </trkpt>
      <trkpt lat="47.09217" lon="-0.72254">
        <ele>181.3458252</ele>
        <time>2011-08-27T08:08:34Z</time>
      </trkpt>
      <trkpt lat="47.09277" lon="-0.72285">
        <ele>182.7878418</ele>
        <time>2011-08-27T08:08:45Z</time>
      </trkpt>
      <trkpt lat="47.09288" lon="-0.72293">
        <ele>183.2684326</ele>
        <time>2011-08-27T08:08:47Z</time>
      </trkpt>
      <trkpt lat="47.09304" lon="-0.72328">
        <ele>182.3071289</ele>
        <time>2011-08-27T08:08:52Z</time>
      </trkpt>
      <trkpt lat="47.09301" lon="-0.72346">
        <ele>181.3458252</ele>
        <time>2011-08-27T08:08:54Z</time>
      </trkpt>
      <trkpt lat="47.09278" lon="-0.72411">
        <ele>179.9038086</ele>
        <time>2011-08-27T08:09:02Z</time>
      </trkpt>
      <trkpt lat="47.09258" lon="-0.72465">
        <ele>179.4232178</ele>
        <time>2011-08-27T08:09:09Z</time>
      </trkpt>
      <trkpt lat="47.09251" lon="-0.72487">
        <ele>179.4232178</ele>
        <time>2011-08-27T08:09:12Z</time>
      </trkpt>
      <trkpt lat="47.09251" lon="-0.72504">
        <ele>177.9812012</ele>
        <time>2011-08-27T08:09:16Z</time>
      </trkpt>
      <trkpt lat="47.09258" lon="-0.72507">
        <ele>177.9812012</ele>
        <time>2011-08-27T08:09:18Z</time>
      </trkpt>
      <trkpt lat="47.09294" lon="-0.72518">
        <ele>177.9812012</ele>
        <time>2011-08-27T08:09:25Z</time>
      </trkpt>
      <trkpt lat="47.09304" lon="-0.72523">
        <ele>177.0200195</ele>
        <time>2011-08-27T08:09:27Z</time>
      </trkpt>
      <trkpt lat="47.09347" lon="-0.72541">
        <ele>177.0200195</ele>
        <time>2011-08-27T08:09:34Z</time>
      </trkpt>
      <trkpt lat="47.09387" lon="-0.72559">
        <ele>174.6165771</ele>
        <time>2011-08-27T08:09:41Z</time>
      </trkpt>
      <trkpt lat="47.09439" lon="-0.7258">
        <ele>175.5778809</ele>
        <time>2011-08-27T08:09:49Z</time>
      </trkpt>
      <trkpt lat="47.09496" lon="-0.72599">
        <ele>175.5778809</ele>
        <time>2011-08-27T08:09:58Z</time>
      </trkpt>
      <trkpt lat="47.09532" lon="-0.72606">
        <ele>173.6552734</ele>
        <time>2011-08-27T08:10:04Z</time>
      </trkpt>
      <trkpt lat="47.09549" lon="-0.72609">
        <ele>173.6552734</ele>
        <time>2011-08-27T08:10:07Z</time>
      </trkpt>
      <trkpt lat="47.09571" lon="-0.72605">
        <ele>174.1358643</ele>
        <time>2011-08-27T08:10:11Z</time>
      </trkpt>
      <trkpt lat="47.09611" lon="-0.72577">
        <ele>175.5778809</ele>
        <time>2011-08-27T08:10:19Z</time>
      </trkpt>
      <trkpt lat="47.09634" lon="-0.72563">
        <ele>176.5393066</ele>
        <time>2011-08-27T08:10:24Z</time>
      </trkpt>
      <trkpt lat="47.0965" lon="-0.72553">
        <ele>177.9812012</ele>
        <time>2011-08-27T08:10:28Z</time>
      </trkpt>
      <trkpt lat="47.09663" lon="-0.72544">
        <ele>178.942627</ele>
        <time>2011-08-27T08:10:32Z</time>
      </trkpt>
      <trkpt lat="47.09689" lon="-0.72523">
        <ele>180.3845215</ele>
        <time>2011-08-27T08:10:40Z</time>
      </trkpt>
      <trkpt lat="47.09711" lon="-0.72508">
        <ele>177.9812012</ele>
        <time>2011-08-27T08:10:47Z</time>
      </trkpt>
      <trkpt lat="47.09728" lon="-0.72493">
        <ele>178.942627</ele>
        <time>2011-08-27T08:10:53Z</time>
      </trkpt>
      <trkpt lat="47.09748" lon="-0.72481">
        <ele>178.942627</ele>
        <time>2011-08-27T08:10:59Z</time>
      </trkpt>
      <trkpt lat="47.09773" lon="-0.72471">
        <ele>180.3845215</ele>
        <time>2011-08-27T08:11:06Z</time>
      </trkpt>
      <trkpt lat="47.09789" lon="-0.72459">
        <ele>180.8652344</ele>
        <time>2011-08-27T08:11:11Z</time>
      </trkpt>
      <trkpt lat="47.09799" lon="-0.72447">
        <ele>180.8652344</ele>
        <time>2011-08-27T08:11:15Z</time>
      </trkpt>
      <trkpt lat="47.09813" lon="-0.72438">
        <ele>180.3845215</ele>
        <time>2011-08-27T08:11:19Z</time>
      </trkpt>
      <trkpt lat="47.09838" lon="-0.72418">
        <ele>179.9038086</ele>
        <time>2011-08-27T08:11:26Z</time>
      </trkpt>
      <trkpt lat="47.0985" lon="-0.72411">
        <ele>180.3845215</ele>
        <time>2011-08-27T08:11:29Z</time>
      </trkpt>
      <trkpt lat="47.09858" lon="-0.72409">
        <ele>179.4232178</ele>
        <time>2011-08-27T08:11:31Z</time>
      </trkpt>
      <trkpt lat="47.09865" lon="-0.72406">
        <ele>177.9812012</ele>
        <time>2011-08-27T08:11:34Z</time>
      </trkpt>
      <trkpt lat="47.09867" lon="-0.72405">
        <ele>177.9812012</ele>
        <time>2011-08-27T08:11:41Z</time>
      </trkpt>
      <trkpt lat="47.09867" lon="-0.72406">
        <ele>178.4619141</ele>
        <time>2011-08-27T08:11:50Z</time>
      </trkpt>
      <trkpt lat="47.09868" lon="-0.72407">
        <ele>178.942627</ele>
        <time>2011-08-27T08:11:55Z</time>
      </trkpt>
      <trkpt lat="47.09869" lon="-0.72408">
        <ele>178.942627</ele>
        <time>2011-08-27T08:12:00Z</time>
      </trkpt>
      <trkpt lat="47.0987" lon="-0.72408">
        <ele>179.4232178</ele>
        <time>2011-08-27T08:12:07Z</time>
      </trkpt>
      <trkpt lat="47.0987" lon="-0.72408">
        <ele>179.9038086</ele>
        <time>2011-08-27T08:12:09Z</time>
      </trkpt>
      <trkpt lat="47.0987" lon="-0.72409">
        <ele>179.9038086</ele>
        <time>2011-08-27T08:12:22Z</time>
      </trkpt>
      <trkpt lat="47.0987" lon="-0.72409">
        <ele>176.5393066</ele>
        <time>2011-08-27T08:12:37Z</time>
      </trkpt>
      <trkpt lat="47.0987" lon="-0.72409">
        <ele>176.0585938</ele>
        <time>2011-08-27T08:12:42Z</time>
      </trkpt>
      <trkpt lat="47.0987" lon="-0.72409">
        <ele>176.0585938</ele>
        <time>2011-08-27T08:12:43Z</time>
      </trkpt>
      <trkpt lat="47.09871" lon="-0.72409">
        <ele>176.0585938</ele>
        <time>2011-08-27T08:12:55Z</time>
      </trkpt>
      <trkpt lat="47.09871" lon="-0.72409">
        <ele>175.5778809</ele>
        <time>2011-08-27T08:13:00Z</time>
      </trkpt>
      <trkpt lat="47.09871" lon="-0.72409">
        <ele>175.5778809</ele>
        <time>2011-08-27T08:13:07Z</time>
      </trkpt>
      <trkpt lat="47.09871" lon="-0.72408">
        <ele>175.09729</ele>
        <time>2011-08-27T08:13:17Z</time>
      </trkpt>
      <trkpt lat="47.09869" lon="-0.72407">
        <ele>175.5778809</ele>
        <time>2011-08-27T08:13:31Z</time>
      </trkpt>
      <trkpt lat="47.09869" lon="-0.72407">
        <ele>175.5778809</ele>
        <time>2011-08-27T08:13:45Z</time>
      </trkpt>
      <trkpt lat="47.09869" lon="-0.72407">
        <ele>175.5778809</ele>
        <time>2011-08-27T08:13:49Z</time>
      </trkpt>
      <trkpt lat="47.09868" lon="-0.72406">
        <ele>175.5778809</ele>
        <time>2011-08-27T08:13:51Z</time>
      </trkpt>
      <trkpt lat="47.09868" lon="-0.72406">
        <ele>176.0585938</ele>
        <time>2011-08-27T08:14:00Z</time>
      </trkpt>
      <trkpt lat="47.09868" lon="-0.72406">
        <ele>176.0585938</ele>
        <time>2011-08-27T08:14:20Z</time>
      </trkpt>
      <trkpt lat="47.0987" lon="-0.72407">
        <ele>176.0585938</ele>
        <time>2011-08-27T08:14:35Z</time>
      </trkpt>
      <trkpt lat="47.09871" lon="-0.72408">
        <ele>175.5778809</ele>
        <time>2011-08-27T08:14:45Z</time>
      </trkpt>
      <trkpt lat="47.09872" lon="-0.72409">
        <ele>175.5778809</ele>
        <time>2011-08-27T08:15:00Z</time>
      </trkpt>
      <trkpt lat="47.09871" lon="-0.72408">
        <ele>175.5778809</ele>
        <time>2011-08-27T08:15:07Z</time>
      </trkpt>
      <trkpt lat="47.09871" lon="-0.72408">
        <ele>176.0585938</ele>
        <time>2011-08-27T08:15:09Z</time>
      </trkpt>
      <trkpt lat="47.0987" lon="-0.72407">
        <ele>177.9812012</ele>
        <time>2011-08-27T08:15:16Z</time>
      </trkpt>
      <trkpt lat="47.09868" lon="-0.72408">
        <ele>178.4619141</ele>
        <time>2011-08-27T08:15:25Z</time>
      </trkpt>
      <trkpt lat="47.09866" lon="-0.72409">
        <ele>178.4619141</ele>
        <time>2011-08-27T08:15:27Z</time>
      </trkpt>
      <trkpt lat="47.0985" lon="-0.72414">
        <ele>177.9812012</ele>
        <time>2011-08-27T08:15:33Z</time>
      </trkpt>
      <trkpt lat="47.09828" lon="-0.72427">
        <ele>178.4619141</ele>
        <time>2011-08-27T08:15:40Z</time>
      </trkpt>
      <trkpt lat="47.09809" lon="-0.72444">
        <ele>177.9812012</ele>
        <time>2011-08-27T08:15:45Z</time>
      </trkpt>
      <trkpt lat="47.09805" lon="-0.72448">
        <ele>177.9812012</ele>
        <time>2011-08-27T08:15:46Z</time>
      </trkpt>
      <trkpt lat="47.09793" lon="-0.7246">
        <ele>177.5006104</ele>
        <time>2011-08-27T08:15:49Z</time>
      </trkpt>
      <trkpt lat="47.09777" lon="-0.72472">
        <ele>177.5006104</ele>
        <time>2011-08-27T08:15:53Z</time>
      </trkpt>
      <trkpt lat="47.09758" lon="-0.72479">
        <ele>177.9812012</ele>
        <time>2011-08-27T08:15:58Z</time>
      </trkpt>
      <trkpt lat="47.09724" lon="-0.72499">
        <ele>177.0200195</ele>
        <time>2011-08-27T08:16:06Z</time>
      </trkpt>
      <trkpt lat="47.09696" lon="-0.7252">
        <ele>176.0585938</ele>
        <time>2011-08-27T08:16:12Z</time>
      </trkpt>
      <trkpt lat="47.09687" lon="-0.72527">
        <ele>175.5778809</ele>
        <time>2011-08-27T08:16:14Z</time>
      </trkpt>
      <trkpt lat="47.09663" lon="-0.72545">
        <ele>175.09729</ele>
        <time>2011-08-27T08:16:20Z</time>
      </trkpt>
      <trkpt lat="47.09637" lon="-0.72561">
        <ele>173.1746826</ele>
        <time>2011-08-27T08:16:26Z</time>
      </trkpt>
      <trkpt lat="47.09623" lon="-0.72571">
        <ele>173.1746826</ele>
        <time>2011-08-27T08:16:29Z</time>
      </trkpt>
      <trkpt lat="47.09586" lon="-0.72598">
        <ele>173.6552734</ele>
        <time>2011-08-27T08:16:37Z</time>
      </trkpt>
      <trkpt lat="47.09577" lon="-0.72604">
        <ele>174.1358643</ele>
        <time>2011-08-27T08:16:39Z</time>
      </trkpt>
      <trkpt lat="47.09568" lon="-0.72609">
        <ele>174.6165771</ele>
        <time>2011-08-27T08:16:41Z</time>
      </trkpt>
      <trkpt lat="47.09547" lon="-0.72612">
        <ele>175.5778809</ele>
        <time>2011-08-27T08:16:45Z</time>
      </trkpt>
      <trkpt lat="47.09514" lon="-0.72607">
        <ele>174.6165771</ele>
        <time>2011-08-27T08:16:52Z</time>
      </trkpt>
      <trkpt lat="47.095" lon="-0.72605">
        <ele>174.6165771</ele>
        <time>2011-08-27T08:16:55Z</time>
      </trkpt>
      <trkpt lat="47.09493" lon="-0.72604">
        <ele>174.6165771</ele>
        <time>2011-08-27T08:16:57Z</time>
      </trkpt>
      <trkpt lat="47.09488" lon="-0.72607">
        <ele>174.6165771</ele>
        <time>2011-08-27T08:17:02Z</time>
      </trkpt>
      <trkpt lat="47.09486" lon="-0.72609">
        <ele>175.09729</ele>
        <time>2011-08-27T08:17:08Z</time>
      </trkpt>
      <trkpt lat="47.09488" lon="-0.72609">
        <ele>175.09729</ele>
        <time>2011-08-27T08:17:12Z</time>
      </trkpt>
      <trkpt lat="47.09487" lon="-0.72605">
        <ele>174.6165771</ele>
        <time>2011-08-27T08:17:16Z</time>
      </trkpt>
      <trkpt lat="47.09486" lon="-0.72609">
        <ele>176.0585938</ele>
        <time>2011-08-27T08:17:22Z</time>
      </trkpt>
      <trkpt lat="47.09485" lon="-0.72609">
        <ele>177.5006104</ele>
        <time>2011-08-27T08:17:27Z</time>
      </trkpt>
      <trkpt lat="47.09485" lon="-0.72608">
        <ele>177.0200195</ele>
        <time>2011-08-27T08:17:32Z</time>
      </trkpt>
      <trkpt lat="47.09484" lon="-0.72611">
        <ele>177.0200195</ele>
        <time>2011-08-27T08:17:34Z</time>
      </trkpt>
      <trkpt lat="47.09479" lon="-0.72632">
        <ele>177.9812012</ele>
        <time>2011-08-27T08:17:40Z</time>
      </trkpt>
      <trkpt lat="47.09478" lon="-0.72636">
        <ele>177.9812012</ele>
        <time>2011-08-27T08:17:45Z</time>
      </trkpt>
      <trkpt lat="47.09479" lon="-0.72637">
        <ele>178.942627</ele>
        <time>2011-08-27T08:17:51Z</time>
      </trkpt>
      <trkpt lat="47.09478" lon="-0.72639">
        <ele>178.4619141</ele>
        <time>2011-08-27T08:18:01Z</time>
      </trkpt>
      <trkpt lat="47.09476" lon="-0.72653">
        <ele>179.4232178</ele>
        <time>2011-08-27T08:18:05Z</time>
      </trkpt>
      <trkpt lat="47.09471" lon="-0.72686">
        <ele>180.8652344</ele>
        <time>2011-08-27T08:18:11Z</time>
      </trkpt>
      <trkpt lat="47.09465" lon="-0.72717">
        <ele>180.8652344</ele>
        <time>2011-08-27T08:18:16Z</time>
      </trkpt>
      <trkpt lat="47.09454" lon="-0.72786">
        <ele>178.942627</ele>
        <time>2011-08-27T08:18:26Z</time>
      </trkpt>
      <trkpt lat="47.09449" lon="-0.72813">
        <ele>177.9812012</ele>
        <time>2011-08-27T08:18:30Z</time>
      </trkpt>
      <trkpt lat="47.09442" lon="-0.72852">
        <ele>176.5393066</ele>
        <time>2011-08-27T08:18:36Z</time>
      </trkpt>
      <trkpt lat="47.09439" lon="-0.72876">
        <ele>176.0585938</ele>
        <time>2011-08-27T08:18:39Z</time>
      </trkpt>
      <trkpt lat="47.09429" lon="-0.72946">
        <ele>175.09729</ele>
        <time>2011-08-27T08:18:48Z</time>
      </trkpt>
      <trkpt lat="47.09427" lon="-0.72967">
        <ele>175.5778809</ele>
        <time>2011-08-27T08:18:51Z</time>
      </trkpt>
      <trkpt lat="47.09426" lon="-0.7298">
        <ele>177.0200195</ele>
        <time>2011-08-27T08:18:53Z</time>
      </trkpt>
      <trkpt lat="47.09429" lon="-0.73013">
        <ele>176.0585938</ele>
        <time>2011-08-27T08:18:58Z</time>
      </trkpt>
      <trkpt lat="47.09436" lon="-0.7306">
        <ele>175.5778809</ele>
        <time>2011-08-27T08:19:05Z</time>
      </trkpt>
      <trkpt lat="47.0944" lon="-0.73091">
        <ele>176.5393066</ele>
        <time>2011-08-27T08:19:10Z</time>
      </trkpt>
      <trkpt lat="47.09442" lon="-0.73103">
        <ele>176.5393066</ele>
        <time>2011-08-27T08:19:12Z</time>
      </trkpt>
      <trkpt lat="47.09443" lon="-0.73115">
        <ele>176.0585938</ele>
        <time>2011-08-27T08:19:14Z</time>
      </trkpt>
      <trkpt lat="47.09448" lon="-0.7314">
        <ele>175.5778809</ele>
        <time>2011-08-27T08:19:18Z</time>
      </trkpt>
      <trkpt lat="47.09458" lon="-0.73185">
        <ele>174.6165771</ele>
        <time>2011-08-27T08:19:25Z</time>
      </trkpt>
      <trkpt lat="47.09464" lon="-0.73205">
        <ele>174.1358643</ele>
        <time>2011-08-27T08:19:28Z</time>
      </trkpt>
      <trkpt lat="47.09469" lon="-0.73217">
        <ele>173.6552734</ele>
        <time>2011-08-27T08:19:30Z</time>
      </trkpt>
      <trkpt lat="47.09488" lon="-0.73243">
        <ele>173.1746826</ele>
        <time>2011-08-27T08:19:35Z</time>
      </trkpt>
      <trkpt lat="47.09525" lon="-0.73278">
        <ele>171.732666</ele>
        <time>2011-08-27T08:19:43Z</time>
      </trkpt>
      <trkpt lat="47.09529" lon="-0.73283">
        <ele>171.732666</ele>
        <time>2011-08-27T08:19:44Z</time>
      </trkpt>
      <trkpt lat="47.09536" lon="-0.73297">
        <ele>172.2132568</ele>
        <time>2011-08-27T08:19:48Z</time>
      </trkpt>
      <trkpt lat="47.09549" lon="-0.73309">
        <ele>172.6939697</ele>
        <time>2011-08-27T08:19:54Z</time>
      </trkpt>
      <trkpt lat="47.09568" lon="-0.73322">
        <ele>171.732666</ele>
        <time>2011-08-27T08:20:00Z</time>
      </trkpt>
      <trkpt lat="47.0957" lon="-0.73323">
        <ele>171.732666</ele>
        <time>2011-08-27T08:20:01Z</time>
      </trkpt>
      <trkpt lat="47.09575" lon="-0.73328">
        <ele>173.1746826</ele>
        <time>2011-08-27T08:20:07Z</time>
      </trkpt>
      <trkpt lat="47.09582" lon="-0.73333">
        <ele>174.1358643</ele>
        <time>2011-08-27T08:20:10Z</time>
      </trkpt>
      <trkpt lat="47.09607" lon="-0.73353">
        <ele>176.0585938</ele>
        <time>2011-08-27T08:20:17Z</time>
      </trkpt>
      <trkpt lat="47.09622" lon="-0.73364">
        <ele>177.0200195</ele>
        <time>2011-08-27T08:20:21Z</time>
      </trkpt>
      <trkpt lat="47.09638" lon="-0.73373">
        <ele>178.4619141</ele>
        <time>2011-08-27T08:20:25Z</time>
      </trkpt>
      <trkpt lat="47.09674" lon="-0.73388">
        <ele>179.9038086</ele>
        <time>2011-08-27T08:20:34Z</time>
      </trkpt>
      <trkpt lat="47.09681" lon="-0.73391">
        <ele>180.3845215</ele>
        <time>2011-08-27T08:20:36Z</time>
      </trkpt>
      <trkpt lat="47.09697" lon="-0.73396">
        <ele>180.3845215</ele>
        <time>2011-08-27T08:20:40Z</time>
      </trkpt>
      <trkpt lat="47.09713" lon="-0.73404">
        <ele>179.9038086</ele>
        <time>2011-08-27T08:20:44Z</time>
      </trkpt>
      <trkpt lat="47.09745" lon="-0.73415">
        <ele>178.942627</ele>
        <time>2011-08-27T08:20:52Z</time>
      </trkpt>
      <trkpt lat="47.09776" lon="-0.73424">
        <ele>179.4232178</ele>
        <time>2011-08-27T08:20:59Z</time>
      </trkpt>
      <trkpt lat="47.09796" lon="-0.73432">
        <ele>178.4619141</ele>
        <time>2011-08-27T08:21:04Z</time>
      </trkpt>
      <trkpt lat="47.09803" lon="-0.73433">
        <ele>178.4619141</ele>
        <time>2011-08-27T08:21:06Z</time>
      </trkpt>
      <trkpt lat="47.09811" lon="-0.73433">
        <ele>178.942627</ele>
        <time>2011-08-27T08:21:11Z</time>
      </trkpt>
      <trkpt lat="47.09813" lon="-0.73423">
        <ele>178.942627</ele>
        <time>2011-08-27T08:21:16Z</time>
      </trkpt>
      <trkpt lat="47.09813" lon="-0.73413">
        <ele>178.4619141</ele>
        <time>2011-08-27T08:21:19Z</time>
      </trkpt>
      <trkpt lat="47.09815" lon="-0.73388">
        <ele>177.9812012</ele>
        <time>2011-08-27T08:21:25Z</time>
      </trkpt>
      <trkpt lat="47.09822" lon="-0.73352">
        <ele>177.0200195</ele>
        <time>2011-08-27T08:21:32Z</time>
      </trkpt>
      <trkpt lat="47.09833" lon="-0.73324">
        <ele>177.0200195</ele>
        <time>2011-08-27T08:21:37Z</time>
      </trkpt>
      <trkpt lat="47.09855" lon="-0.73283">
        <ele>177.0200195</ele>
        <time>2011-08-27T08:21:44Z</time>
      </trkpt>
      <trkpt lat="47.0986" lon="-0.73266">
        <ele>177.0200195</ele>
        <time>2011-08-27T08:21:47Z</time>
      </trkpt>
      <trkpt lat="47.09864" lon="-0.73246">
        <ele>177.0200195</ele>
        <time>2011-08-27T08:21:52Z</time>
      </trkpt>
      <trkpt lat="47.09865" lon="-0.73233">
        <ele>177.5006104</ele>
        <time>2011-08-27T08:21:56Z</time>
      </trkpt>
      <trkpt lat="47.09866" lon="-0.7322">
        <ele>178.942627</ele>
        <time>2011-08-27T08:22:01Z</time>
      </trkpt>
      <trkpt lat="47.09866" lon="-0.73217">
        <ele>178.942627</ele>
        <time>2011-08-27T08:22:02Z</time>
      </trkpt>
      <trkpt lat="47.09867" lon="-0.73193">
        <ele>178.4619141</ele>
        <time>2011-08-27T08:22:08Z</time>
      </trkpt>
      <trkpt lat="47.09873" lon="-0.73167">
        <ele>177.9812012</ele>
        <time>2011-08-27T08:22:13Z</time>
      </trkpt>
      <trkpt lat="47.09884" lon="-0.73148">
        <ele>178.4619141</ele>
        <time>2011-08-27T08:22:19Z</time>
      </trkpt>
      <trkpt lat="47.09886" lon="-0.73145">
        <ele>178.4619141</ele>
        <time>2011-08-27T08:22:21Z</time>
      </trkpt>
      <trkpt lat="47.09888" lon="-0.73142">
        <ele>178.942627</ele>
        <time>2011-08-27T08:22:24Z</time>
      </trkpt>
      <trkpt lat="47.09895" lon="-0.73136">
        <ele>179.4232178</ele>
        <time>2011-08-27T08:22:29Z</time>
      </trkpt>
      <trkpt lat="47.09905" lon="-0.73125">
        <ele>180.3845215</ele>
        <time>2011-08-27T08:22:34Z</time>
      </trkpt>
      <trkpt lat="47.09921" lon="-0.73108">
        <ele>179.9038086</ele>
        <time>2011-08-27T08:22:40Z</time>
      </trkpt>
      <trkpt lat="47.09937" lon="-0.73089">
        <ele>179.9038086</ele>
        <time>2011-08-27T08:22:47Z</time>
      </trkpt>
      <trkpt lat="47.09958" lon="-0.73062">
        <ele>178.4619141</ele>
        <time>2011-08-27T08:22:56Z</time>
      </trkpt>
      <trkpt lat="47.09969" lon="-0.73046">
        <ele>178.4619141</ele>
        <time>2011-08-27T08:23:02Z</time>
      </trkpt>
      <trkpt lat="47.0997" lon="-0.73049">
        <ele>177.9812012</ele>
        <time>2011-08-27T08:23:06Z</time>
      </trkpt>
      <trkpt lat="47.09962" lon="-0.73058">
        <ele>177.9812012</ele>
        <time>2011-08-27T08:23:10Z</time>
      </trkpt>
      <trkpt lat="47.09953" lon="-0.73069">
        <ele>177.9812012</ele>
        <time>2011-08-27T08:23:13Z</time>
      </trkpt>
      <trkpt lat="47.09935" lon="-0.73094">
        <ele>177.9812012</ele>
        <time>2011-08-27T08:23:18Z</time>
      </trkpt>
      <trkpt lat="47.09918" lon="-0.73112">
        <ele>177.9812012</ele>
        <time>2011-08-27T08:23:22Z</time>
      </trkpt>
      <trkpt lat="47.09889" lon="-0.73145">
        <ele>177.9812012</ele>
        <time>2011-08-27T08:23:29Z</time>
      </trkpt>
      <trkpt lat="47.09878" lon="-0.73163">
        <ele>178.4619141</ele>
        <time>2011-08-27T08:23:32Z</time>
      </trkpt>
      <trkpt lat="47.0987" lon="-0.73185">
        <ele>178.942627</ele>
        <time>2011-08-27T08:23:35Z</time>
      </trkpt>
      <trkpt lat="47.09868" lon="-0.73202">
        <ele>178.942627</ele>
        <time>2011-08-27T08:23:37Z</time>
      </trkpt>
      <trkpt lat="47.09863" lon="-0.73273">
        <ele>178.942627</ele>
        <time>2011-08-27T08:23:46Z</time>
      </trkpt>
      <trkpt lat="47.09861" lon="-0.7328">
        <ele>178.942627</ele>
        <time>2011-08-27T08:23:47Z</time>
      </trkpt>
      <trkpt lat="47.09841" lon="-0.73322">
        <ele>179.4232178</ele>
        <time>2011-08-27T08:23:54Z</time>
      </trkpt>
      <trkpt lat="47.09829" lon="-0.73344">
        <ele>179.9038086</ele>
        <time>2011-08-27T08:23:59Z</time>
      </trkpt>
      <trkpt lat="47.09819" lon="-0.73378">
        <ele>180.3845215</ele>
        <time>2011-08-27T08:24:06Z</time>
      </trkpt>
      <trkpt lat="47.09813" lon="-0.73421">
        <ele>180.3845215</ele>
        <time>2011-08-27T08:24:13Z</time>
      </trkpt>
      <trkpt lat="47.09816" lon="-0.73444">
        <ele>180.3845215</ele>
        <time>2011-08-27T08:24:17Z</time>
      </trkpt>
      <trkpt lat="47.09821" lon="-0.73475">
        <ele>179.9038086</ele>
        <time>2011-08-27T08:24:22Z</time>
      </trkpt>
      <trkpt lat="47.09821" lon="-0.73528">
        <ele>178.942627</ele>
        <time>2011-08-27T08:24:30Z</time>
      </trkpt>
      <trkpt lat="47.0983" lon="-0.73568">
        <ele>177.5006104</ele>
        <time>2011-08-27T08:24:36Z</time>
      </trkpt>
      <trkpt lat="47.09839" lon="-0.73595">
        <ele>176.5393066</ele>
        <time>2011-08-27T08:24:40Z</time>
      </trkpt>
      <trkpt lat="47.09843" lon="-0.73633">
        <ele>176.0585938</ele>
        <time>2011-08-27T08:24:45Z</time>
      </trkpt>
      <trkpt lat="47.09839" lon="-0.73665">
        <ele>175.5778809</ele>
        <time>2011-08-27T08:24:49Z</time>
      </trkpt>
      <trkpt lat="47.09838" lon="-0.73677">
        <ele>175.5778809</ele>
        <time>2011-08-27T08:24:51Z</time>
      </trkpt>
      <trkpt lat="47.09837" lon="-0.73692">
        <ele>175.5778809</ele>
        <time>2011-08-27T08:24:55Z</time>
      </trkpt>
      <trkpt lat="47.09833" lon="-0.7373">
        <ele>175.5778809</ele>
        <time>2011-08-27T08:25:00Z</time>
      </trkpt>
      <trkpt lat="47.09834" lon="-0.73764">
        <ele>176.5393066</ele>
        <time>2011-08-27T08:25:04Z</time>
      </trkpt>
      <trkpt lat="47.09838" lon="-0.73815">
        <ele>177.0200195</ele>
        <time>2011-08-27T08:25:10Z</time>
      </trkpt>
      <trkpt lat="47.09843" lon="-0.73832">
        <ele>176.5393066</ele>
        <time>2011-08-27T08:25:15Z</time>
      </trkpt>
      <trkpt lat="47.09844" lon="-0.73832">
        <ele>176.5393066</ele>
        <time>2011-08-27T08:25:20Z</time>
      </trkpt>
      <trkpt lat="47.09845" lon="-0.73833">
        <ele>176.0585938</ele>
        <time>2011-08-27T08:25:25Z</time>
      </trkpt>
      <trkpt lat="47.09846" lon="-0.73829">
        <ele>175.5778809</ele>
        <time>2011-08-27T08:25:33Z</time>
      </trkpt>
      <trkpt lat="47.09846" lon="-0.73829">
        <ele>177.0200195</ele>
        <time>2011-08-27T08:25:39Z</time>
      </trkpt>
      <trkpt lat="47.09846" lon="-0.73828">
        <ele>177.5006104</ele>
        <time>2011-08-27T08:25:46Z</time>
      </trkpt>
      <trkpt lat="47.09847" lon="-0.73827">
        <ele>177.5006104</ele>
        <time>2011-08-27T08:25:47Z</time>
      </trkpt>
      <trkpt lat="47.09861" lon="-0.73824">
        <ele>176.5393066</ele>
        <time>2011-08-27T08:25:52Z</time>
      </trkpt>
      <trkpt lat="47.09876" lon="-0.73825">
        <ele>177.0200195</ele>
        <time>2011-08-27T08:25:56Z</time>
      </trkpt>
      <trkpt lat="47.09893" lon="-0.73827">
        <ele>176.5393066</ele>
        <time>2011-08-27T08:25:59Z</time>
      </trkpt>
      <trkpt lat="47.09912" lon="-0.73841">
        <ele>175.5778809</ele>
        <time>2011-08-27T08:26:03Z</time>
      </trkpt>
      <trkpt lat="47.09922" lon="-0.7385">
        <ele>174.6165771</ele>
        <time>2011-08-27T08:26:05Z</time>
      </trkpt>
      <trkpt lat="47.09942" lon="-0.73881">
        <ele>174.1358643</ele>
        <time>2011-08-27T08:26:10Z</time>
      </trkpt>
      <trkpt lat="47.09962" lon="-0.73899">
        <ele>171.732666</ele>
        <time>2011-08-27T08:26:14Z</time>
      </trkpt>
      <trkpt lat="47.09981" lon="-0.73905">
        <ele>170.7713623</ele>
        <time>2011-08-27T08:26:17Z</time>
      </trkpt>
      <trkpt lat="47.10012" lon="-0.73905">
        <ele>170.2906494</ele>
        <time>2011-08-27T08:26:22Z</time>
      </trkpt>
      <trkpt lat="47.10026" lon="-0.739">
        <ele>170.2906494</ele>
        <time>2011-08-27T08:26:25Z</time>
      </trkpt>
      <trkpt lat="47.10042" lon="-0.73895">
        <ele>169.3294678</ele>
        <time>2011-08-27T08:26:29Z</time>
      </trkpt>
      <trkpt lat="47.10068" lon="-0.73894">
        <ele>169.8100586</ele>
        <time>2011-08-27T08:26:34Z</time>
      </trkpt>
      <trkpt lat="47.10097" lon="-0.73892">
        <ele>170.2906494</ele>
        <time>2011-08-27T08:26:38Z</time>
      </trkpt>
      <trkpt lat="47.10117" lon="-0.73888">
        <ele>170.2906494</ele>
        <time>2011-08-27T08:26:41Z</time>
      </trkpt>
      <trkpt lat="47.10145" lon="-0.73876">
        <ele>170.7713623</ele>
        <time>2011-08-27T08:26:46Z</time>
      </trkpt>
      <trkpt lat="47.10172" lon="-0.73861">
        <ele>170.2906494</ele>
        <time>2011-08-27T08:26:52Z</time>
      </trkpt>
      <trkpt lat="47.10187" lon="-0.73868">
        <ele>169.3294678</ele>
        <time>2011-08-27T08:26:57Z</time>
      </trkpt>
      <trkpt lat="47.10209" lon="-0.73916">
        <ele>165.4841309</ele>
        <time>2011-08-27T08:27:06Z</time>
      </trkpt>
      <trkpt lat="47.10215" lon="-0.73925">
        <ele>165.9647217</ele>
        <time>2011-08-27T08:27:08Z</time>
      </trkpt>
      <trkpt lat="47.10237" lon="-0.73945">
        <ele>165.4841309</ele>
        <time>2011-08-27T08:27:14Z</time>
      </trkpt>
      <trkpt lat="47.10252" lon="-0.73946">
        <ele>165.4841309</ele>
        <time>2011-08-27T08:27:18Z</time>
      </trkpt>
      <trkpt lat="47.10265" lon="-0.73943">
        <ele>165.9647217</ele>
        <time>2011-08-27T08:27:21Z</time>
      </trkpt>
      <trkpt lat="47.10276" lon="-0.73938">
        <ele>166.9260254</ele>
        <time>2011-08-27T08:27:24Z</time>
      </trkpt>
      <trkpt lat="47.10293" lon="-0.73934">
        <ele>167.4067383</ele>
        <time>2011-08-27T08:27:28Z</time>
      </trkpt>
      <trkpt lat="47.10316" lon="-0.73931">
        <ele>166.4453125</ele>
        <time>2011-08-27T08:27:33Z</time>
      </trkpt>
      <trkpt lat="47.10326" lon="-0.73929">
        <ele>165.9647217</ele>
        <time>2011-08-27T08:27:35Z</time>
      </trkpt>
      <trkpt lat="47.10348" lon="-0.73915">
        <ele>166.4453125</ele>
        <time>2011-08-27T08:27:40Z</time>
      </trkpt>
      <trkpt lat="47.10351" lon="-0.73909">
        <ele>165.9647217</ele>
        <time>2011-08-27T08:27:41Z</time>
      </trkpt>
      <trkpt lat="47.10375" lon="-0.73846">
        <ele>165.003418</ele>
        <time>2011-08-27T08:27:50Z</time>
      </trkpt>
      <trkpt lat="47.10402" lon="-0.73803">
        <ele>164.5227051</ele>
        <time>2011-08-27T08:27:57Z</time>
      </trkpt>
      <trkpt lat="47.10405" lon="-0.73798">
        <ele>164.5227051</ele>
        <time>2011-08-27T08:27:58Z</time>
      </trkpt>
      <trkpt lat="47.10439" lon="-0.73762">
        <ele>163.0808105</ele>
        <time>2011-08-27T08:28:06Z</time>
      </trkpt>
      <trkpt lat="47.10462" lon="-0.7373">
        <ele>162.1195068</ele>
        <time>2011-08-27T08:28:12Z</time>
      </trkpt>
      <trkpt lat="47.10494" lon="-0.73685">
        <ele>160.6774902</ele>
        <time>2011-08-27T08:28:20Z</time>
      </trkpt>
      <trkpt lat="47.10537" lon="-0.73641">
        <ele>160.6774902</ele>
        <time>2011-08-27T08:28:29Z</time>
      </trkpt>
      <trkpt lat="47.10546" lon="-0.73633">
        <ele>160.6774902</ele>
        <time>2011-08-27T08:28:31Z</time>
      </trkpt>
      <trkpt lat="47.10563" lon="-0.73612">
        <ele>159.7161865</ele>
        <time>2011-08-27T08:28:36Z</time>
      </trkpt>
      <trkpt lat="47.10569" lon="-0.73601">
        <ele>158.7547607</ele>
        <time>2011-08-27T08:28:38Z</time>
      </trkpt>
      <trkpt lat="47.10593" lon="-0.73558">
        <ele>157.7935791</ele>
        <time>2011-08-27T08:28:46Z</time>
      </trkpt>
      <trkpt lat="47.10617" lon="-0.73522">
        <ele>158.2741699</ele>
        <time>2011-08-27T08:28:53Z</time>
      </trkpt>
      <trkpt lat="47.10634" lon="-0.73501">
        <ele>158.2741699</ele>
        <time>2011-08-27T08:28:57Z</time>
      </trkpt>
      <trkpt lat="47.10653" lon="-0.73485">
        <ele>158.7547607</ele>
        <time>2011-08-27T08:29:01Z</time>
      </trkpt>
      <trkpt lat="47.10694" lon="-0.73465">
        <ele>158.2741699</ele>
        <time>2011-08-27T08:29:09Z</time>
      </trkpt>
      <trkpt lat="47.10732" lon="-0.7346">
        <ele>158.2741699</ele>
        <time>2011-08-27T08:29:16Z</time>
      </trkpt>
      <trkpt lat="47.10781" lon="-0.7344">
        <ele>156.8321533</ele>
        <time>2011-08-27T08:29:25Z</time>
      </trkpt>
      <trkpt lat="47.10825" lon="-0.73412">
        <ele>155.3902588</ele>
        <time>2011-08-27T08:29:33Z</time>
      </trkpt>
      <trkpt lat="47.10836" lon="-0.73403">
        <ele>155.3902588</ele>
        <time>2011-08-27T08:29:36Z</time>
      </trkpt>
      <trkpt lat="47.10843" lon="-0.73396">
        <ele>155.3902588</ele>
        <time>2011-08-27T08:29:40Z</time>
      </trkpt>
      <trkpt lat="47.10845" lon="-0.73393">
        <ele>155.3902588</ele>
        <time>2011-08-27T08:29:41Z</time>
      </trkpt>
      <trkpt lat="47.10863" lon="-0.73361">
        <ele>154.4289551</ele>
        <time>2011-08-27T08:29:46Z</time>
      </trkpt>
      <trkpt lat="47.10878" lon="-0.73342">
        <ele>153.9483643</ele>
        <time>2011-08-27T08:29:50Z</time>
      </trkpt>
      <trkpt lat="47.109" lon="-0.73326">
        <ele>152.9869385</ele>
        <time>2011-08-27T08:29:55Z</time>
      </trkpt>
      <trkpt lat="47.10928" lon="-0.73293">
        <ele>150.1030273</ele>
        <time>2011-08-27T08:30:00Z</time>
      </trkpt>
      <trkpt lat="47.10957" lon="-0.73261">
        <ele>149.6223145</ele>
        <time>2011-08-27T08:30:05Z</time>
      </trkpt>
      <trkpt lat="47.10986" lon="-0.73217">
        <ele>146.7384033</ele>
        <time>2011-08-27T08:30:10Z</time>
      </trkpt>
      <trkpt lat="47.10999" lon="-0.73201">
        <ele>146.2578125</ele>
        <time>2011-08-27T08:30:12Z</time>
      </trkpt>
      <trkpt lat="47.11043" lon="-0.73151">
        <ele>144.8157959</ele>
        <time>2011-08-27T08:30:19Z</time>
      </trkpt>
      <trkpt lat="47.11066" lon="-0.73106">
        <ele>143.8543701</ele>
        <time>2011-08-27T08:30:24Z</time>
      </trkpt>
      <trkpt lat="47.11094" lon="-0.73043">
        <ele>144.8157959</ele>
        <time>2011-08-27T08:30:31Z</time>
      </trkpt>
      <trkpt lat="47.11134" lon="-0.72978">
        <ele>143.3736572</ele>
        <time>2011-08-27T08:30:39Z</time>
      </trkpt>
      <trkpt lat="47.11158" lon="-0.72943">
        <ele>143.8543701</ele>
        <time>2011-08-27T08:30:43Z</time>
      </trkpt>
      <trkpt lat="47.11199" lon="-0.72884">
        <ele>143.3736572</ele>
        <time>2011-08-27T08:30:50Z</time>
      </trkpt>
      <trkpt lat="47.11225" lon="-0.72837">
        <ele>141.4510498</ele>
        <time>2011-08-27T08:30:56Z</time>
      </trkpt>
      <trkpt lat="47.11241" lon="-0.72803">
        <ele>140.970459</ele>
        <time>2011-08-27T08:31:00Z</time>
      </trkpt>
      <trkpt lat="47.11247" lon="-0.72786">
        <ele>140.0091553</ele>
        <time>2011-08-27T08:31:02Z</time>
      </trkpt>
      <trkpt lat="47.11265" lon="-0.72729">
        <ele>139.5284424</ele>
        <time>2011-08-27T08:31:08Z</time>
      </trkpt>
      <trkpt lat="47.11273" lon="-0.72695">
        <ele>139.0478516</ele>
        <time>2011-08-27T08:31:12Z</time>
      </trkpt>
      <trkpt lat="47.11281" lon="-0.72668">
        <ele>138.0865479</ele>
        <time>2011-08-27T08:31:15Z</time>
      </trkpt>
      <trkpt lat="47.11287" lon="-0.72638">
        <ele>137.1252441</ele>
        <time>2011-08-27T08:31:18Z</time>
      </trkpt>
      <trkpt lat="47.1129" lon="-0.72602">
        <ele>137.605835</ele>
        <time>2011-08-27T08:31:22Z</time>
      </trkpt>
      <trkpt lat="47.11295" lon="-0.72572">
        <ele>135.6831055</ele>
        <time>2011-08-27T08:31:25Z</time>
      </trkpt>
      <trkpt lat="47.11302" lon="-0.72526">
        <ele>135.6831055</ele>
        <time>2011-08-27T08:31:30Z</time>
      </trkpt>
      <trkpt lat="47.1131" lon="-0.72471">
        <ele>131.3572998</ele>
        <time>2011-08-27T08:31:36Z</time>
      </trkpt>
      <trkpt lat="47.11312" lon="-0.72441">
        <ele>134.2412109</ele>
        <time>2011-08-27T08:31:39Z</time>
      </trkpt>
      <trkpt lat="47.11318" lon="-0.72404">
        <ele>134.2412109</ele>
        <time>2011-08-27T08:31:43Z</time>
      </trkpt>
      <trkpt lat="47.11332" lon="-0.7234">
        <ele>134.7219238</ele>
        <time>2011-08-27T08:31:50Z</time>
      </trkpt>
      <trkpt lat="47.11339" lon="-0.72317">
        <ele>136.6446533</ele>
        <time>2011-08-27T08:31:53Z</time>
      </trkpt>
      <trkpt lat="47.11354" lon="-0.72284">
        <ele>136.1639404</ele>
        <time>2011-08-27T08:31:58Z</time>
      </trkpt>
      <trkpt lat="47.11375" lon="-0.72238">
        <ele>135.2025146</ele>
        <time>2011-08-27T08:32:04Z</time>
      </trkpt>
      <trkpt lat="47.11396" lon="-0.72193">
        <ele>135.6831055</ele>
        <time>2011-08-27T08:32:10Z</time>
      </trkpt>
      <trkpt lat="47.11424" lon="-0.72157">
        <ele>136.1639404</ele>
        <time>2011-08-27T08:32:16Z</time>
      </trkpt>
      <trkpt lat="47.11447" lon="-0.72139">
        <ele>135.6831055</ele>
        <time>2011-08-27T08:32:20Z</time>
      </trkpt>
      <trkpt lat="47.11483" lon="-0.72116">
        <ele>136.1639404</ele>
        <time>2011-08-27T08:32:26Z</time>
      </trkpt>
      <trkpt lat="47.11516" lon="-0.72104">
        <ele>134.7219238</ele>
        <time>2011-08-27T08:32:31Z</time>
      </trkpt>
      <trkpt lat="47.11552" lon="-0.72085">
        <ele>134.7219238</ele>
        <time>2011-08-27T08:32:37Z</time>
      </trkpt>
      <trkpt lat="47.11575" lon="-0.72072">
        <ele>132.7993164</ele>
        <time>2011-08-27T08:32:41Z</time>
      </trkpt>
      <trkpt lat="47.116" lon="-0.72045">
        <ele>134.2412109</ele>
        <time>2011-08-27T08:32:46Z</time>
      </trkpt>
      <trkpt lat="47.11605" lon="-0.7204">
        <ele>134.2412109</ele>
        <time>2011-08-27T08:32:47Z</time>
      </trkpt>
      <trkpt lat="47.11616" lon="-0.72027">
        <ele>134.7219238</ele>
        <time>2011-08-27T08:32:49Z</time>
      </trkpt>
      <trkpt lat="47.11656" lon="-0.71998">
        <ele>132.7993164</ele>
        <time>2011-08-27T08:32:56Z</time>
      </trkpt>
      <trkpt lat="47.11681" lon="-0.71983">
        <ele>134.7219238</ele>
        <time>2011-08-27T08:33:01Z</time>
      </trkpt>
      <trkpt lat="47.11708" lon="-0.71972">
        <ele>135.2025146</ele>
        <time>2011-08-27T08:33:06Z</time>
      </trkpt>
      <trkpt lat="47.11719" lon="-0.71968">
        <ele>135.2025146</ele>
        <time>2011-08-27T08:33:08Z</time>
      </trkpt>
      <trkpt lat="47.11745" lon="-0.7195">
        <ele>135.2025146</ele>
        <time>2011-08-27T08:33:14Z</time>
      </trkpt>
      <trkpt lat="47.11767" lon="-0.71939">
        <ele>133.760498</ele>
        <time>2011-08-27T08:33:19Z</time>
      </trkpt>
      <trkpt lat="47.11775" lon="-0.71936">
        <ele>133.2799072</ele>
        <time>2011-08-27T08:33:22Z</time>
      </trkpt>
      <trkpt lat="47.11788" lon="-0.71914">
        <ele>131.8378906</ele>
        <time>2011-08-27T08:33:29Z</time>
      </trkpt>
      <trkpt lat="47.11802" lon="-0.71886">
        <ele>131.8378906</ele>
        <time>2011-08-27T08:33:35Z</time>
      </trkpt>
      <trkpt lat="47.11818" lon="-0.71848">
        <ele>132.3186035</ele>
        <time>2011-08-27T08:33:42Z</time>
      </trkpt>
      <trkpt lat="47.11835" lon="-0.71804">
        <ele>132.7993164</ele>
        <time>2011-08-27T08:33:50Z</time>
      </trkpt>
      <trkpt lat="47.1185" lon="-0.71769">
        <ele>132.3186035</ele>
        <time>2011-08-27T08:33:57Z</time>
      </trkpt>
      <trkpt lat="47.11856" lon="-0.71769">
        <ele>132.3186035</ele>
        <time>2011-08-27T08:34:00Z</time>
      </trkpt>
      <trkpt lat="47.11866" lon="-0.7178">
        <ele>131.8378906</ele>
        <time>2011-08-27T08:34:03Z</time>
      </trkpt>
      <trkpt lat="47.11898" lon="-0.71801">
        <ele>130.876709</ele>
        <time>2011-08-27T08:34:10Z</time>
      </trkpt>
      <trkpt lat="47.11935" lon="-0.71812">
        <ele>129.9152832</ele>
        <time>2011-08-27T08:34:17Z</time>
      </trkpt>
      <trkpt lat="47.12001" lon="-0.71828">
        <ele>128.9541016</ele>
        <time>2011-08-27T08:34:28Z</time>
      </trkpt>
      <trkpt lat="47.12034" lon="-0.71838">
        <ele>127.9925537</ele>
        <time>2011-08-27T08:34:34Z</time>
      </trkpt>
      <trkpt lat="47.12072" lon="-0.71856">
        <ele>126.5506592</ele>
        <time>2011-08-27T08:34:41Z</time>
      </trkpt>
      <trkpt lat="47.12109" lon="-0.71884">
        <ele>127.9925537</ele>
        <time>2011-08-27T08:34:48Z</time>
      </trkpt>
      <trkpt lat="47.1213" lon="-0.7191">
        <ele>129.9152832</ele>
        <time>2011-08-27T08:34:53Z</time>
      </trkpt>
      <trkpt lat="47.12149" lon="-0.71935">
        <ele>128.4733887</ele>
        <time>2011-08-27T08:34:58Z</time>
      </trkpt>
      <trkpt lat="47.12159" lon="-0.71941">
        <ele>127.9925537</ele>
        <time>2011-08-27T08:35:00Z</time>
      </trkpt>
      <trkpt lat="47.12175" lon="-0.71947">
        <ele>127.5119629</ele>
        <time>2011-08-27T08:35:03Z</time>
      </trkpt>
      <trkpt lat="47.12214" lon="-0.71971">
        <ele>128.4733887</ele>
        <time>2011-08-27T08:35:11Z</time>
      </trkpt>
      <trkpt lat="47.12224" lon="-0.71975">
        <ele>128.9541016</ele>
        <time>2011-08-27T08:35:13Z</time>
      </trkpt>
      <trkpt lat="47.12263" lon="-0.71973">
        <ele>130.876709</ele>
        <time>2011-08-27T08:35:21Z</time>
      </trkpt>
      <trkpt lat="47.12266" lon="-0.71973">
        <ele>131.3572998</ele>
        <time>2011-08-27T08:35:22Z</time>
      </trkpt>
      <trkpt lat="47.12275" lon="-0.71965">
        <ele>130.876709</ele>
        <time>2011-08-27T08:35:27Z</time>
      </trkpt>
      <trkpt lat="47.12277" lon="-0.71962">
        <ele>129.9152832</ele>
        <time>2011-08-27T08:35:35Z</time>
      </trkpt>
      <trkpt lat="47.12277" lon="-0.71962">
        <ele>129.9152832</ele>
        <time>2011-08-27T08:35:40Z</time>
      </trkpt>
      <trkpt lat="47.12276" lon="-0.71961">
        <ele>131.8378906</ele>
        <time>2011-08-27T08:35:48Z</time>
      </trkpt>
      <trkpt lat="47.12276" lon="-0.71962">
        <ele>133.760498</ele>
        <time>2011-08-27T08:35:59Z</time>
      </trkpt>
      <trkpt lat="47.12277" lon="-0.71965">
        <ele>134.7219238</ele>
        <time>2011-08-27T08:36:12Z</time>
      </trkpt>
      <trkpt lat="47.12278" lon="-0.71964">
        <ele>134.7219238</ele>
        <time>2011-08-27T08:36:14Z</time>
      </trkpt>
      <trkpt lat="47.12289" lon="-0.71952">
        <ele>130.876709</ele>
        <time>2011-08-27T08:36:20Z</time>
      </trkpt>
      <trkpt lat="47.12298" lon="-0.71943">
        <ele>128.9541016</ele>
        <time>2011-08-27T08:36:25Z</time>
      </trkpt>
      <trkpt lat="47.12312" lon="-0.71933">
        <ele>129.9152832</ele>
        <time>2011-08-27T08:36:30Z</time>
      </trkpt>
      <trkpt lat="47.12327" lon="-0.71927">
        <ele>129.4346924</ele>
        <time>2011-08-27T08:36:35Z</time>
      </trkpt>
      <trkpt lat="47.12336" lon="-0.71924">
        <ele>128.9541016</ele>
        <time>2011-08-27T08:36:39Z</time>
      </trkpt>
      <trkpt lat="47.12347" lon="-0.71922">
        <ele>128.9541016</ele>
        <time>2011-08-27T08:36:43Z</time>
      </trkpt>
      <trkpt lat="47.12357" lon="-0.71917">
        <ele>128.9541016</ele>
        <time>2011-08-27T08:36:47Z</time>
      </trkpt>
      <trkpt lat="47.12375" lon="-0.71906">
        <ele>128.9541016</ele>
        <time>2011-08-27T08:36:54Z</time>
      </trkpt>
      <trkpt lat="47.1239" lon="-0.71891">
        <ele>128.9541016</ele>
        <time>2011-08-27T08:37:00Z</time>
      </trkpt>
      <trkpt lat="47.12407" lon="-0.71872">
        <ele>130.876709</ele>
        <time>2011-08-27T08:37:06Z</time>
      </trkpt>
      <trkpt lat="47.12429" lon="-0.71849">
        <ele>134.2412109</ele>
        <time>2011-08-27T08:37:13Z</time>
      </trkpt>
      <trkpt lat="47.12455" lon="-0.71823">
        <ele>132.3186035</ele>
        <time>2011-08-27T08:37:20Z</time>
      </trkpt>
      <trkpt lat="47.12479" lon="-0.71804">
        <ele>133.2799072</ele>
        <time>2011-08-27T08:37:26Z</time>
      </trkpt>
      <trkpt lat="47.12488" lon="-0.71798">
        <ele>133.2799072</ele>
        <time>2011-08-27T08:37:28Z</time>
      </trkpt>
      <trkpt lat="47.12512" lon="-0.71776">
        <ele>133.2799072</ele>
        <time>2011-08-27T08:37:34Z</time>
      </trkpt>
      <trkpt lat="47.12526" lon="-0.71764">
        <ele>132.7993164</ele>
        <time>2011-08-27T08:37:38Z</time>
      </trkpt>
      <trkpt lat="47.1254" lon="-0.71751">
        <ele>130.3959961</ele>
        <time>2011-08-27T08:37:42Z</time>
      </trkpt>
      <trkpt lat="47.12551" lon="-0.7174">
        <ele>128.4733887</ele>
        <time>2011-08-27T08:37:45Z</time>
      </trkpt>
      <trkpt lat="47.12559" lon="-0.71733">
        <ele>127.9925537</ele>
        <time>2011-08-27T08:37:47Z</time>
      </trkpt>
      <trkpt lat="47.12579" lon="-0.71713">
        <ele>131.8378906</ele>
        <time>2011-08-27T08:37:53Z</time>
      </trkpt>
      <trkpt lat="47.12602" lon="-0.7169">
        <ele>131.3572998</ele>
        <time>2011-08-27T08:37:59Z</time>
      </trkpt>
      <trkpt lat="47.12643" lon="-0.71646">
        <ele>131.8378906</ele>
        <time>2011-08-27T08:38:09Z</time>
      </trkpt>
      <trkpt lat="47.12673" lon="-0.71613">
        <ele>135.2025146</ele>
        <time>2011-08-27T08:38:17Z</time>
      </trkpt>
      <trkpt lat="47.12698" lon="-0.71581">
        <ele>136.6446533</ele>
        <time>2011-08-27T08:38:24Z</time>
      </trkpt>
      <trkpt lat="47.12716" lon="-0.71557">
        <ele>136.6446533</ele>
        <time>2011-08-27T08:38:29Z</time>
      </trkpt>
      <trkpt lat="47.12723" lon="-0.71541">
        <ele>138.0865479</ele>
        <time>2011-08-27T08:38:33Z</time>
      </trkpt>
      <trkpt lat="47.1273" lon="-0.71537">
        <ele>139.5284424</ele>
        <time>2011-08-27T08:38:38Z</time>
      </trkpt>
      <trkpt lat="47.12753" lon="-0.71533">
        <ele>140.4898682</ele>
        <time>2011-08-27T08:38:46Z</time>
      </trkpt>
      <trkpt lat="47.12775" lon="-0.71529">
        <ele>141.9317627</ele>
        <time>2011-08-27T08:38:53Z</time>
      </trkpt>
      <trkpt lat="47.12788" lon="-0.71527">
        <ele>142.8930664</ele>
        <time>2011-08-27T08:38:57Z</time>
      </trkpt>
      <trkpt lat="47.12818" lon="-0.71528">
        <ele>144.3352051</ele>
        <time>2011-08-27T08:39:06Z</time>
      </trkpt>
      <trkpt lat="47.12841" lon="-0.71532">
        <ele>145.2963867</ele>
        <time>2011-08-27T08:39:12Z</time>
      </trkpt>
      <trkpt lat="47.12869" lon="-0.71534">
        <ele>147.2189941</ele>
        <time>2011-08-27T08:39:20Z</time>
      </trkpt>
      <trkpt lat="47.12894" lon="-0.71539">
        <ele>148.1804199</ele>
        <time>2011-08-27T08:39:27Z</time>
      </trkpt>
      <trkpt lat="47.12925" lon="-0.71547">
        <ele>148.6610107</ele>
        <time>2011-08-27T08:39:36Z</time>
      </trkpt>
      <trkpt lat="47.12949" lon="-0.71564">
        <ele>147.699707</ele>
        <time>2011-08-27T08:39:43Z</time>
      </trkpt>
      <trkpt lat="47.12972" lon="-0.71582">
        <ele>146.2578125</ele>
        <time>2011-08-27T08:39:49Z</time>
      </trkpt>
      <trkpt lat="47.12998" lon="-0.71607">
        <ele>145.2963867</ele>
        <time>2011-08-27T08:39:55Z</time>
      </trkpt>
      <trkpt lat="47.13002" lon="-0.71612">
        <ele>145.2963867</ele>
        <time>2011-08-27T08:39:56Z</time>
      </trkpt>
      <trkpt lat="47.13014" lon="-0.71637">
        <ele>144.3352051</ele>
        <time>2011-08-27T08:40:00Z</time>
      </trkpt>
      <trkpt lat="47.13043" lon="-0.71676">
        <ele>143.3736572</ele>
        <time>2011-08-27T08:40:07Z</time>
      </trkpt>
      <trkpt lat="47.13079" lon="-0.71726">
        <ele>143.3736572</ele>
        <time>2011-08-27T08:40:15Z</time>
      </trkpt>
      <trkpt lat="47.13114" lon="-0.71778">
        <ele>141.4510498</ele>
        <time>2011-08-27T08:40:22Z</time>
      </trkpt>
      <trkpt lat="47.1315" lon="-0.71818">
        <ele>140.4898682</ele>
        <time>2011-08-27T08:40:28Z</time>
      </trkpt>
      <trkpt lat="47.13188" lon="-0.71843">
        <ele>140.4898682</ele>
        <time>2011-08-27T08:40:34Z</time>
      </trkpt>
      <trkpt lat="47.13194" lon="-0.71846">
        <ele>140.4898682</ele>
        <time>2011-08-27T08:40:35Z</time>
      </trkpt>
      <trkpt lat="47.13235" lon="-0.71854">
        <ele>142.4124756</ele>
        <time>2011-08-27T08:40:42Z</time>
      </trkpt>
      <trkpt lat="47.13265" lon="-0.71858">
        <ele>144.3352051</ele>
        <time>2011-08-27T08:40:48Z</time>
      </trkpt>
      <trkpt lat="47.13291" lon="-0.71876">
        <ele>144.3352051</ele>
        <time>2011-08-27T08:40:54Z</time>
      </trkpt>
      <trkpt lat="47.13321" lon="-0.71898">
        <ele>142.8930664</ele>
        <time>2011-08-27T08:40:59Z</time>
      </trkpt>
      <trkpt lat="47.13345" lon="-0.71934">
        <ele>141.4510498</ele>
        <time>2011-08-27T08:41:04Z</time>
      </trkpt>
      <trkpt lat="47.13353" lon="-0.71949">
        <ele>141.4510498</ele>
        <time>2011-08-27T08:41:06Z</time>
      </trkpt>
      <trkpt lat="47.13372" lon="-0.71975">
        <ele>140.4898682</ele>
        <time>2011-08-27T08:41:11Z</time>
      </trkpt>
      <trkpt lat="47.13392" lon="-0.71975">
        <ele>140.4898682</ele>
        <time>2011-08-27T08:41:15Z</time>
      </trkpt>
      <trkpt lat="47.13452" lon="-0.71958">
        <ele>140.4898682</ele>
        <time>2011-08-27T08:41:26Z</time>
      </trkpt>
      <trkpt lat="47.13511" lon="-0.71938">
        <ele>141.9317627</ele>
        <time>2011-08-27T08:41:37Z</time>
      </trkpt>
      <trkpt lat="47.13557" lon="-0.71914">
        <ele>144.3352051</ele>
        <time>2011-08-27T08:41:46Z</time>
      </trkpt>
      <trkpt lat="47.13612" lon="-0.71881">
        <ele>145.7770996</ele>
        <time>2011-08-27T08:41:57Z</time>
      </trkpt>
      <trkpt lat="47.13651" lon="-0.7187">
        <ele>146.2578125</ele>
        <time>2011-08-27T08:42:05Z</time>
      </trkpt>
      <trkpt lat="47.13697" lon="-0.71865">
        <ele>146.7384033</ele>
        <time>2011-08-27T08:42:14Z</time>
      </trkpt>
      <trkpt lat="47.13749" lon="-0.71851">
        <ele>149.1416016</ele>
        <time>2011-08-27T08:42:25Z</time>
      </trkpt>
      <trkpt lat="47.13789" lon="-0.7184">
        <ele>151.5449219</ele>
        <time>2011-08-27T08:42:33Z</time>
      </trkpt>
      <trkpt lat="47.13827" lon="-0.71832">
        <ele>153.9483643</ele>
        <time>2011-08-27T08:42:41Z</time>
      </trkpt>
      <trkpt lat="47.13872" lon="-0.71826">
        <ele>154.4289551</ele>
        <time>2011-08-27T08:42:50Z</time>
      </trkpt>
      <trkpt lat="47.13912" lon="-0.71821">
        <ele>154.4289551</ele>
        <time>2011-08-27T08:42:59Z</time>
      </trkpt>
      <trkpt lat="47.13933" lon="-0.71813">
        <ele>155.3902588</ele>
        <time>2011-08-27T08:43:05Z</time>
      </trkpt>
      <trkpt lat="47.13952" lon="-0.71812">
        <ele>156.8321533</ele>
        <time>2011-08-27T08:43:11Z</time>
      </trkpt>
      <trkpt lat="47.13975" lon="-0.71818">
        <ele>156.3515625</ele>
        <time>2011-08-27T08:43:18Z</time>
      </trkpt>
      <trkpt lat="47.13997" lon="-0.71824">
        <ele>157.3128662</ele>
        <time>2011-08-27T08:43:25Z</time>
      </trkpt>
      <trkpt lat="47.14023" lon="-0.71833">
        <ele>157.3128662</ele>
        <time>2011-08-27T08:43:33Z</time>
      </trkpt>
      <trkpt lat="47.1405" lon="-0.71844">
        <ele>156.3515625</ele>
        <time>2011-08-27T08:43:39Z</time>
      </trkpt>
      <trkpt lat="47.14081" lon="-0.71864">
        <ele>154.9095459</ele>
        <time>2011-08-27T08:43:46Z</time>
      </trkpt>
      <trkpt lat="47.1409" lon="-0.7187">
        <ele>154.9095459</ele>
        <time>2011-08-27T08:43:48Z</time>
      </trkpt>
      <trkpt lat="47.14107" lon="-0.71881">
        <ele>154.4289551</ele>
        <time>2011-08-27T08:43:52Z</time>
      </trkpt>
      <trkpt lat="47.14119" lon="-0.71889">
        <ele>154.4289551</ele>
        <time>2011-08-27T08:43:55Z</time>
      </trkpt>
      <trkpt lat="47.1413" lon="-0.71906">
        <ele>154.4289551</ele>
        <time>2011-08-27T08:43:59Z</time>
      </trkpt>
      <trkpt lat="47.14134" lon="-0.71921">
        <ele>153.9483643</ele>
        <time>2011-08-27T08:44:02Z</time>
      </trkpt>
      <trkpt lat="47.14143" lon="-0.71971">
        <ele>152.5063477</ele>
        <time>2011-08-27T08:44:10Z</time>
      </trkpt>
      <trkpt lat="47.14152" lon="-0.72029">
        <ele>151.064209</ele>
        <time>2011-08-27T08:44:18Z</time>
      </trkpt>
      <trkpt lat="47.14154" lon="-0.72037">
        <ele>151.064209</ele>
        <time>2011-08-27T08:44:19Z</time>
      </trkpt>
      <trkpt lat="47.14172" lon="-0.72104">
        <ele>149.1416016</ele>
        <time>2011-08-27T08:44:28Z</time>
      </trkpt>
      <trkpt lat="47.14196" lon="-0.72183">
        <ele>147.699707</ele>
        <time>2011-08-27T08:44:39Z</time>
      </trkpt>
      <trkpt lat="47.14218" lon="-0.72247">
        <ele>145.7770996</ele>
        <time>2011-08-27T08:44:47Z</time>
      </trkpt>
      <trkpt lat="47.14236" lon="-0.72299">
        <ele>144.8157959</ele>
        <time>2011-08-27T08:44:54Z</time>
      </trkpt>
      <trkpt lat="47.14254" lon="-0.7236">
        <ele>144.3352051</ele>
        <time>2011-08-27T08:45:02Z</time>
      </trkpt>
      <trkpt lat="47.14265" lon="-0.72414">
        <ele>144.3352051</ele>
        <time>2011-08-27T08:45:09Z</time>
      </trkpt>
      <trkpt lat="47.14271" lon="-0.72465">
        <ele>142.8930664</ele>
        <time>2011-08-27T08:45:16Z</time>
      </trkpt>
      <trkpt lat="47.14279" lon="-0.72524">
        <ele>140.970459</ele>
        <time>2011-08-27T08:45:23Z</time>
      </trkpt>
      <trkpt lat="47.14279" lon="-0.72557">
        <ele>139.5284424</ele>
        <time>2011-08-27T08:45:27Z</time>
      </trkpt>
      <trkpt lat="47.14282" lon="-0.72615">
        <ele>139.5284424</ele>
        <time>2011-08-27T08:45:34Z</time>
      </trkpt>
      <trkpt lat="47.14283" lon="-0.72623">
        <ele>139.0478516</ele>
        <time>2011-08-27T08:45:35Z</time>
      </trkpt>
      <trkpt lat="47.14293" lon="-0.72707">
        <ele>137.605835</ele>
        <time>2011-08-27T08:45:45Z</time>
      </trkpt>
      <trkpt lat="47.14294" lon="-0.72715">
        <ele>137.1252441</ele>
        <time>2011-08-27T08:45:46Z</time>
      </trkpt>
      <trkpt lat="47.14306" lon="-0.72756">
        <ele>136.1639404</ele>
        <time>2011-08-27T08:45:51Z</time>
      </trkpt>
      <trkpt lat="47.14315" lon="-0.72788">
        <ele>135.2025146</ele>
        <time>2011-08-27T08:45:55Z</time>
      </trkpt>
      <trkpt lat="47.14327" lon="-0.72829">
        <ele>132.7993164</ele>
        <time>2011-08-27T08:46:00Z</time>
      </trkpt>
      <trkpt lat="47.14329" lon="-0.72835">
        <ele>132.7993164</ele>
        <time>2011-08-27T08:46:04Z</time>
      </trkpt>
      <trkpt lat="47.14328" lon="-0.72834">
        <ele>133.2799072</ele>
        <time>2011-08-27T08:46:12Z</time>
      </trkpt>
      <trkpt lat="47.14326" lon="-0.72835">
        <ele>135.2025146</ele>
        <time>2011-08-27T08:46:18Z</time>
      </trkpt>
      <trkpt lat="47.14325" lon="-0.72836">
        <ele>135.2025146</ele>
        <time>2011-08-27T08:46:19Z</time>
      </trkpt>
      <trkpt lat="47.14317" lon="-0.72844">
        <ele>136.1639404</ele>
        <time>2011-08-27T08:46:23Z</time>
      </trkpt>
      <trkpt lat="47.14295" lon="-0.72864">
        <ele>137.1252441</ele>
        <time>2011-08-27T08:46:29Z</time>
      </trkpt>
      <trkpt lat="47.14286" lon="-0.72873">
        <ele>137.605835</ele>
        <time>2011-08-27T08:46:31Z</time>
      </trkpt>
      <trkpt lat="47.14272" lon="-0.72905">
        <ele>137.1252441</ele>
        <time>2011-08-27T08:46:36Z</time>
      </trkpt>
      <trkpt lat="47.14269" lon="-0.72921">
        <ele>136.6446533</ele>
        <time>2011-08-27T08:46:38Z</time>
      </trkpt>
      <trkpt lat="47.14268" lon="-0.72938">
        <ele>135.6831055</ele>
        <time>2011-08-27T08:46:40Z</time>
      </trkpt>
      <trkpt lat="47.14263" lon="-0.72963">
        <ele>135.6831055</ele>
        <time>2011-08-27T08:46:43Z</time>
      </trkpt>
      <trkpt lat="47.14261" lon="-0.73003">
        <ele>135.6831055</ele>
        <time>2011-08-27T08:46:49Z</time>
      </trkpt>
      <trkpt lat="47.14261" lon="-0.73015">
        <ele>135.2025146</ele>
        <time>2011-08-27T08:46:51Z</time>
      </trkpt>
      <trkpt lat="47.14258" lon="-0.73037">
        <ele>135.2025146</ele>
        <time>2011-08-27T08:46:55Z</time>
      </trkpt>
      <trkpt lat="47.14253" lon="-0.7308">
        <ele>134.7219238</ele>
        <time>2011-08-27T08:47:02Z</time>
      </trkpt>
      <trkpt lat="47.14249" lon="-0.7311">
        <ele>133.760498</ele>
        <time>2011-08-27T08:47:07Z</time>
      </trkpt>
      <trkpt lat="47.14237" lon="-0.73157">
        <ele>131.8378906</ele>
        <time>2011-08-27T08:47:14Z</time>
      </trkpt>
      <trkpt lat="47.14222" lon="-0.73196">
        <ele>132.3186035</ele>
        <time>2011-08-27T08:47:20Z</time>
      </trkpt>
      <trkpt lat="47.1422" lon="-0.73203">
        <ele>132.7993164</ele>
        <time>2011-08-27T08:47:21Z</time>
      </trkpt>
      <trkpt lat="47.14216" lon="-0.73216">
        <ele>132.3186035</ele>
        <time>2011-08-27T08:47:23Z</time>
      </trkpt>
      <trkpt lat="47.14214" lon="-0.7323">
        <ele>133.2799072</ele>
        <time>2011-08-27T08:47:25Z</time>
      </trkpt>
      <trkpt lat="47.14202" lon="-0.73266">
        <ele>135.2025146</ele>
        <time>2011-08-27T08:47:31Z</time>
      </trkpt>
      <trkpt lat="47.142" lon="-0.73287">
        <ele>134.7219238</ele>
        <time>2011-08-27T08:47:35Z</time>
      </trkpt>
      <trkpt lat="47.14209" lon="-0.73288">
        <ele>135.2025146</ele>
        <time>2011-08-27T08:47:38Z</time>
      </trkpt>
      <trkpt lat="47.14226" lon="-0.7329">
        <ele>137.1252441</ele>
        <time>2011-08-27T08:47:44Z</time>
      </trkpt>
      <trkpt lat="47.14242" lon="-0.73287">
        <ele>136.6446533</ele>
        <time>2011-08-27T08:47:49Z</time>
      </trkpt>
      <trkpt lat="47.14259" lon="-0.73285">
        <ele>138.0865479</ele>
        <time>2011-08-27T08:47:55Z</time>
      </trkpt>
      <trkpt lat="47.14275" lon="-0.73283">
        <ele>139.5284424</ele>
        <time>2011-08-27T08:48:00Z</time>
      </trkpt>
      <trkpt lat="47.14289" lon="-0.7328">
        <ele>138.0865479</ele>
        <time>2011-08-27T08:48:05Z</time>
      </trkpt>
      <trkpt lat="47.14311" lon="-0.73279">
        <ele>137.1252441</ele>
        <time>2011-08-27T08:48:12Z</time>
      </trkpt>
      <trkpt lat="47.14328" lon="-0.7328">
        <ele>137.1252441</ele>
        <time>2011-08-27T08:48:18Z</time>
      </trkpt>
      <trkpt lat="47.1435" lon="-0.73285">
        <ele>138.0865479</ele>
        <time>2011-08-27T08:48:24Z</time>
      </trkpt>
      <trkpt lat="47.1437" lon="-0.73291">
        <ele>140.0091553</ele>
        <time>2011-08-27T08:48:31Z</time>
      </trkpt>
      <trkpt lat="47.14387" lon="-0.733">
        <ele>141.4510498</ele>
        <time>2011-08-27T08:48:38Z</time>
      </trkpt>
      <trkpt lat="47.14403" lon="-0.7331">
        <ele>142.8930664</ele>
        <time>2011-08-27T08:48:45Z</time>
      </trkpt>
      <trkpt lat="47.14421" lon="-0.73331">
        <ele>143.3736572</ele>
        <time>2011-08-27T08:48:54Z</time>
      </trkpt>
      <trkpt lat="47.14434" lon="-0.7335">
        <ele>143.8543701</ele>
        <time>2011-08-27T08:49:01Z</time>
      </trkpt>
      <trkpt lat="47.14454" lon="-0.73375">
        <ele>146.2578125</ele>
        <time>2011-08-27T08:49:10Z</time>
      </trkpt>
      <trkpt lat="47.14472" lon="-0.73393">
        <ele>148.1804199</ele>
        <time>2011-08-27T08:49:18Z</time>
      </trkpt>
      <trkpt lat="47.14491" lon="-0.7341">
        <ele>148.6610107</ele>
        <time>2011-08-27T08:49:26Z</time>
      </trkpt>
      <trkpt lat="47.14508" lon="-0.73429">
        <ele>148.6610107</ele>
        <time>2011-08-27T08:49:34Z</time>
      </trkpt>
      <trkpt lat="47.14529" lon="-0.73454">
        <ele>150.1030273</ele>
        <time>2011-08-27T08:49:44Z</time>
      </trkpt>
      <trkpt lat="47.14545" lon="-0.73471">
        <ele>151.5449219</ele>
        <time>2011-08-27T08:49:51Z</time>
      </trkpt>
      <trkpt lat="47.14561" lon="-0.73492">
        <ele>152.5063477</ele>
        <time>2011-08-27T08:49:59Z</time>
      </trkpt>
      <trkpt lat="47.14578" lon="-0.73517">
        <ele>153.4676514</ele>
        <time>2011-08-27T08:50:08Z</time>
      </trkpt>
      <trkpt lat="47.14591" lon="-0.73526">
        <ele>154.4289551</ele>
        <time>2011-08-27T08:50:14Z</time>
      </trkpt>
      <trkpt lat="47.14615" lon="-0.73519">
        <ele>155.3902588</ele>
        <time>2011-08-27T08:50:22Z</time>
      </trkpt>
      <trkpt lat="47.14647" lon="-0.73507">
        <ele>155.8709717</ele>
        <time>2011-08-27T08:50:32Z</time>
      </trkpt>
      <trkpt lat="47.14675" lon="-0.73498">
        <ele>156.3515625</ele>
        <time>2011-08-27T08:50:40Z</time>
      </trkpt>
      <trkpt lat="47.14708" lon="-0.73484">
        <ele>157.7935791</ele>
        <time>2011-08-27T08:50:49Z</time>
      </trkpt>
      <trkpt lat="47.14734" lon="-0.73461">
        <ele>160.1968994</ele>
        <time>2011-08-27T08:50:56Z</time>
      </trkpt>
      <trkpt lat="47.14765" lon="-0.7343">
        <ele>162.1195068</ele>
        <time>2011-08-27T08:51:04Z</time>
      </trkpt>
      <trkpt lat="47.14801" lon="-0.73395">
        <ele>163.0808105</ele>
        <time>2011-08-27T08:51:13Z</time>
      </trkpt>
      <trkpt lat="47.14805" lon="-0.73391">
        <ele>163.0808105</ele>
        <time>2011-08-27T08:51:14Z</time>
      </trkpt>
      <trkpt lat="47.14823" lon="-0.73379">
        <ele>162.6000977</ele>
        <time>2011-08-27T08:51:18Z</time>
      </trkpt>
      <trkpt lat="47.14846" lon="-0.73378">
        <ele>163.0808105</ele>
        <time>2011-08-27T08:51:23Z</time>
      </trkpt>
      <trkpt lat="47.14876" lon="-0.7338">
        <ele>164.5227051</ele>
        <time>2011-08-27T08:51:30Z</time>
      </trkpt>
      <trkpt lat="47.14888" lon="-0.73382">
        <ele>165.003418</ele>
        <time>2011-08-27T08:51:33Z</time>
      </trkpt>
      <trkpt lat="47.14901" lon="-0.73382">
        <ele>166.4453125</ele>
        <time>2011-08-27T08:51:37Z</time>
      </trkpt>
      <trkpt lat="47.14924" lon="-0.73383">
        <ele>168.8487549</ele>
        <time>2011-08-27T08:51:45Z</time>
      </trkpt>
      <trkpt lat="47.14939" lon="-0.73399">
        <ele>171.2520752</ele>
        <time>2011-08-27T08:51:53Z</time>
      </trkpt>
      <trkpt lat="47.14959" lon="-0.73422">
        <ele>174.6165771</ele>
        <time>2011-08-27T08:52:04Z</time>
      </trkpt>
      <trkpt lat="47.14978" lon="-0.73444">
        <ele>177.5006104</ele>
        <time>2011-08-27T08:52:14Z</time>
      </trkpt>
      <trkpt lat="47.14992" lon="-0.73461">
        <ele>179.9038086</ele>
        <time>2011-08-27T08:52:22Z</time>
      </trkpt>
      <trkpt lat="47.15007" lon="-0.73479">
        <ele>182.3071289</ele>
        <time>2011-08-27T08:52:31Z</time>
      </trkpt>
      <trkpt lat="47.15025" lon="-0.73501">
        <ele>185.1911621</ele>
        <time>2011-08-27T08:52:42Z</time>
      </trkpt>
      <trkpt lat="47.15038" lon="-0.73518">
        <ele>187.5943604</ele>
        <time>2011-08-27T08:52:51Z</time>
      </trkpt>
      <trkpt lat="47.15052" lon="-0.73534">
        <ele>189.036377</ele>
        <time>2011-08-27T08:53:00Z</time>
      </trkpt>
      <trkpt lat="47.15066" lon="-0.73552">
        <ele>190.4783936</ele>
        <time>2011-08-27T08:53:09Z</time>
      </trkpt>
      <trkpt lat="47.15079" lon="-0.73567">
        <ele>191.4395752</ele>
        <time>2011-08-27T08:53:17Z</time>
      </trkpt>
      <trkpt lat="47.15093" lon="-0.73584">
        <ele>192.401123</ele>
        <time>2011-08-27T08:53:25Z</time>
      </trkpt>
      <trkpt lat="47.15108" lon="-0.73602">
        <ele>194.3237305</ele>
        <time>2011-08-27T08:53:34Z</time>
      </trkpt>
      <trkpt lat="47.1512" lon="-0.73613">
        <ele>195.765625</ele>
        <time>2011-08-27T08:53:42Z</time>
      </trkpt>
      <trkpt lat="47.15132" lon="-0.7362">
        <ele>197.2075195</ele>
        <time>2011-08-27T08:53:49Z</time>
      </trkpt>
      <trkpt lat="47.15149" lon="-0.73634">
        <ele>198.1689453</ele>
        <time>2011-08-27T08:53:58Z</time>
      </trkpt>
      <trkpt lat="47.15171" lon="-0.73649">
        <ele>198.6495361</ele>
        <time>2011-08-27T08:54:08Z</time>
      </trkpt>
      <trkpt lat="47.15193" lon="-0.73665">
        <ele>202.494873</ele>
        <time>2011-08-27T08:54:17Z</time>
      </trkpt>
      <trkpt lat="47.15208" lon="-0.7367">
        <ele>202.0142822</ele>
        <time>2011-08-27T08:54:22Z</time>
      </trkpt>
      <trkpt lat="47.15219" lon="-0.73677">
        <ele>201.5335693</ele>
        <time>2011-08-27T08:54:26Z</time>
      </trkpt>
      <trkpt lat="47.15221" lon="-0.7368">
        <ele>201.5335693</ele>
        <time>2011-08-27T08:54:28Z</time>
      </trkpt>
      <trkpt lat="47.15221" lon="-0.73683">
        <ele>203.4561768</ele>
        <time>2011-08-27T08:54:36Z</time>
      </trkpt>
      <trkpt lat="47.15219" lon="-0.73683">
        <ele>204.8980713</ele>
        <time>2011-08-27T08:54:42Z</time>
      </trkpt>
      <trkpt lat="47.15203" lon="-0.73673">
        <ele>206.3400879</ele>
        <time>2011-08-27T08:54:48Z</time>
      </trkpt>
      <trkpt lat="47.1518" lon="-0.73658">
        <ele>206.3400879</ele>
        <time>2011-08-27T08:54:53Z</time>
      </trkpt>
      <trkpt lat="47.15152" lon="-0.7364">
        <ele>204.8980713</ele>
        <time>2011-08-27T08:54:58Z</time>
      </trkpt>
      <trkpt lat="47.15144" lon="-0.73633">
        <ele>204.4174805</ele>
        <time>2011-08-27T08:55:00Z</time>
      </trkpt>
      <trkpt lat="47.15122" lon="-0.7362">
        <ele>202.494873</ele>
        <time>2011-08-27T08:55:05Z</time>
      </trkpt>
      <trkpt lat="47.15119" lon="-0.73615">
        <ele>201.0528564</ele>
        <time>2011-08-27T08:55:11Z</time>
      </trkpt>
      <trkpt lat="47.1512" lon="-0.73613">
        <ele>201.0528564</ele>
        <time>2011-08-27T08:55:13Z</time>
      </trkpt>
      <trkpt lat="47.15124" lon="-0.73617">
        <ele>201.0528564</ele>
        <time>2011-08-27T08:55:18Z</time>
      </trkpt>
      <trkpt lat="47.15123" lon="-0.73619">
        <ele>200.5722656</ele>
        <time>2011-08-27T08:55:22Z</time>
      </trkpt>
      <trkpt lat="47.15121" lon="-0.73622">
        <ele>199.6108398</ele>
        <time>2011-08-27T08:55:27Z</time>
      </trkpt>
      <trkpt lat="47.1512" lon="-0.7362">
        <ele>199.130127</ele>
        <time>2011-08-27T08:55:34Z</time>
      </trkpt>
      <trkpt lat="47.1512" lon="-0.73618">
        <ele>199.130127</ele>
        <time>2011-08-27T08:55:35Z</time>
      </trkpt>
      <trkpt lat="47.15131" lon="-0.73592">
        <ele>198.1689453</ele>
        <time>2011-08-27T08:55:41Z</time>
      </trkpt>
      <trkpt lat="47.15147" lon="-0.73548">
        <ele>197.6882324</ele>
        <time>2011-08-27T08:55:48Z</time>
      </trkpt>
      <trkpt lat="47.15157" lon="-0.73523">
        <ele>197.2075195</ele>
        <time>2011-08-27T08:55:52Z</time>
      </trkpt>
      <trkpt lat="47.15169" lon="-0.735">
        <ele>196.7269287</ele>
        <time>2011-08-27T08:55:57Z</time>
      </trkpt>
      <trkpt lat="47.15175" lon="-0.73503">
        <ele>197.2075195</ele>
        <time>2011-08-27T08:55:59Z</time>
      </trkpt>
      <trkpt lat="47.15198" lon="-0.73517">
        <ele>198.6495361</ele>
        <time>2011-08-27T08:56:06Z</time>
      </trkpt>
      <trkpt lat="47.15209" lon="-0.73523">
        <ele>199.130127</ele>
        <time>2011-08-27T08:56:09Z</time>
      </trkpt>
      <trkpt lat="47.15234" lon="-0.73538">
        <ele>200.0916748</ele>
        <time>2011-08-27T08:56:16Z</time>
      </trkpt>
      <trkpt lat="47.15253" lon="-0.7355">
        <ele>201.0528564</ele>
        <time>2011-08-27T08:56:22Z</time>
      </trkpt>
      <trkpt lat="47.15272" lon="-0.73562">
        <ele>202.0142822</ele>
        <time>2011-08-27T08:56:28Z</time>
      </trkpt>
      <trkpt lat="47.15292" lon="-0.73575">
        <ele>203.9368896</ele>
        <time>2011-08-27T08:56:36Z</time>
      </trkpt>
      <trkpt lat="47.15305" lon="-0.73583">
        <ele>204.8980713</ele>
        <time>2011-08-27T08:56:41Z</time>
      </trkpt>
      <trkpt lat="47.15329" lon="-0.73596">
        <ele>205.8594971</ele>
        <time>2011-08-27T08:56:50Z</time>
      </trkpt>
      <trkpt lat="47.15349" lon="-0.73607">
        <ele>206.8206787</ele>
        <time>2011-08-27T08:56:58Z</time>
      </trkpt>
      <trkpt lat="47.15359" lon="-0.73614">
        <ele>207.3013916</ele>
        <time>2011-08-27T08:57:02Z</time>
      </trkpt>
      <trkpt lat="47.1536" lon="-0.73631">
        <ele>207.3013916</ele>
        <time>2011-08-27T08:57:07Z</time>
      </trkpt>
      <trkpt lat="47.1535" lon="-0.73656">
        <ele>206.3400879</ele>
        <time>2011-08-27T08:57:15Z</time>
      </trkpt>
      <trkpt lat="47.15342" lon="-0.73676">
        <ele>205.3787842</ele>
        <time>2011-08-27T08:57:21Z</time>
      </trkpt>
      <trkpt lat="47.15332" lon="-0.73704">
        <ele>206.3400879</ele>
        <time>2011-08-27T08:57:27Z</time>
      </trkpt>
      <trkpt lat="47.15322" lon="-0.73733">
        <ele>206.8206787</ele>
        <time>2011-08-27T08:57:33Z</time>
      </trkpt>
      <trkpt lat="47.1532" lon="-0.73754">
        <ele>205.8594971</ele>
        <time>2011-08-27T08:57:37Z</time>
      </trkpt>
      <trkpt lat="47.15321" lon="-0.73774">
        <ele>205.3787842</ele>
        <time>2011-08-27T08:57:42Z</time>
      </trkpt>
      <trkpt lat="47.15324" lon="-0.73791">
        <ele>204.8980713</ele>
        <time>2011-08-27T08:57:46Z</time>
      </trkpt>
      <trkpt lat="47.15333" lon="-0.7381">
        <ele>204.4174805</ele>
        <time>2011-08-27T08:57:51Z</time>
      </trkpt>
      <trkpt lat="47.15333" lon="-0.73823">
        <ele>204.4174805</ele>
        <time>2011-08-27T08:57:55Z</time>
      </trkpt>
      <trkpt lat="47.15331" lon="-0.73827">
        <ele>204.4174805</ele>
        <time>2011-08-27T08:57:57Z</time>
      </trkpt>
      <trkpt lat="47.15328" lon="-0.73819">
        <ele>204.8980713</ele>
        <time>2011-08-27T08:58:00Z</time>
      </trkpt>
      <trkpt lat="47.15328" lon="-0.73816">
        <ele>205.3787842</ele>
        <time>2011-08-27T08:58:01Z</time>
      </trkpt>
      <trkpt lat="47.15327" lon="-0.73812">
        <ele>204.8980713</ele>
        <time>2011-08-27T08:58:03Z</time>
      </trkpt>
      <trkpt lat="47.15327" lon="-0.73806">
        <ele>205.3787842</ele>
        <time>2011-08-27T08:58:08Z</time>
      </trkpt>
      <trkpt lat="47.15325" lon="-0.73796">
        <ele>206.8206787</ele>
        <time>2011-08-27T08:58:15Z</time>
      </trkpt>
      <trkpt lat="47.15332" lon="-0.73804">
        <ele>206.8206787</ele>
        <time>2011-08-27T08:58:20Z</time>
      </trkpt>
      <trkpt lat="47.15336" lon="-0.73806">
        <ele>208.2628174</ele>
        <time>2011-08-27T08:58:24Z</time>
      </trkpt>
      <trkpt lat="47.15337" lon="-0.73806">
        <ele>209.2241211</ele>
        <time>2011-08-27T08:58:30Z</time>
      </trkpt>
      <trkpt lat="47.15334" lon="-0.73808">
        <ele>208.7434082</ele>
        <time>2011-08-27T08:58:33Z</time>
      </trkpt>
      <trkpt lat="47.15328" lon="-0.73836">
        <ele>205.3787842</ele>
        <time>2011-08-27T08:58:39Z</time>
      </trkpt>
      <trkpt lat="47.1532" lon="-0.73879">
        <ele>202.9754639</ele>
        <time>2011-08-27T08:58:45Z</time>
      </trkpt>
      <trkpt lat="47.15316" lon="-0.73894">
        <ele>202.494873</ele>
        <time>2011-08-27T08:58:47Z</time>
      </trkpt>
      <trkpt lat="47.15307" lon="-0.7392">
        <ele>202.0142822</ele>
        <time>2011-08-27T08:58:51Z</time>
      </trkpt>
      <trkpt lat="47.15291" lon="-0.73966">
        <ele>202.9754639</ele>
        <time>2011-08-27T08:58:58Z</time>
      </trkpt>
      <trkpt lat="47.15272" lon="-0.74023">
        <ele>200.5722656</ele>
        <time>2011-08-27T08:59:06Z</time>
      </trkpt>
      <trkpt lat="47.15269" lon="-0.74037">
        <ele>200.0916748</ele>
        <time>2011-08-27T08:59:08Z</time>
      </trkpt>
      <trkpt lat="47.1526" lon="-0.74061">
        <ele>198.6495361</ele>
        <time>2011-08-27T08:59:12Z</time>
      </trkpt>
      <trkpt lat="47.15237" lon="-0.74095">
        <ele>200.5722656</ele>
        <time>2011-08-27T08:59:19Z</time>
      </trkpt>
      <trkpt lat="47.15216" lon="-0.74119">
        <ele>201.5335693</ele>
        <time>2011-08-27T08:59:24Z</time>
      </trkpt>
      <trkpt lat="47.15181" lon="-0.74154">
        <ele>202.0142822</ele>
        <time>2011-08-27T08:59:32Z</time>
      </trkpt>
      <trkpt lat="47.1515" lon="-0.7419">
        <ele>202.494873</ele>
        <time>2011-08-27T08:59:40Z</time>
      </trkpt>
      <trkpt lat="47.15124" lon="-0.74222">
        <ele>202.494873</ele>
        <time>2011-08-27T08:59:47Z</time>
      </trkpt>
      <trkpt lat="47.15093" lon="-0.74258">
        <ele>203.9368896</ele>
        <time>2011-08-27T08:59:55Z</time>
      </trkpt>
      <trkpt lat="47.15075" lon="-0.74269">
        <ele>204.4174805</ele>
        <time>2011-08-27T08:59:59Z</time>
      </trkpt>
      <trkpt lat="47.15029" lon="-0.74289">
        <ele>204.8980713</ele>
        <time>2011-08-27T09:00:09Z</time>
      </trkpt>
      <trkpt lat="47.14992" lon="-0.74304">
        <ele>204.8980713</ele>
        <time>2011-08-27T09:00:17Z</time>
      </trkpt>
      <trkpt lat="47.14952" lon="-0.74322">
        <ele>204.4174805</ele>
        <time>2011-08-27T09:00:25Z</time>
      </trkpt>
      <trkpt lat="47.14942" lon="-0.74328">
        <ele>203.9368896</ele>
        <time>2011-08-27T09:00:27Z</time>
      </trkpt>
      <trkpt lat="47.14934" lon="-0.74332">
        <ele>203.4561768</ele>
        <time>2011-08-27T09:00:29Z</time>
      </trkpt>
      <trkpt lat="47.14926" lon="-0.74336">
        <ele>203.9368896</ele>
        <time>2011-08-27T09:00:34Z</time>
      </trkpt>
      <trkpt lat="47.14922" lon="-0.74342">
        <ele>203.4561768</ele>
        <time>2011-08-27T09:00:36Z</time>
      </trkpt>
      <trkpt lat="47.149" lon="-0.74377">
        <ele>203.4561768</ele>
        <time>2011-08-27T09:00:43Z</time>
      </trkpt>
      <trkpt lat="47.14878" lon="-0.74416">
        <ele>204.4174805</ele>
        <time>2011-08-27T09:00:50Z</time>
      </trkpt>
      <trkpt lat="47.14847" lon="-0.74474">
        <ele>207.7821045</ele>
        <time>2011-08-27T09:00:59Z</time>
      </trkpt>
      <trkpt lat="47.14822" lon="-0.74522">
        <ele>207.7821045</ele>
        <time>2011-08-27T09:01:06Z</time>
      </trkpt>
      <trkpt lat="47.14794" lon="-0.74575">
        <ele>208.2628174</ele>
        <time>2011-08-27T09:01:14Z</time>
      </trkpt>
      <trkpt lat="47.14765" lon="-0.74629">
        <ele>207.7821045</ele>
        <time>2011-08-27T09:01:23Z</time>
      </trkpt>
      <trkpt lat="47.14737" lon="-0.74674">
        <ele>206.3400879</ele>
        <time>2011-08-27T09:01:30Z</time>
      </trkpt>
      <trkpt lat="47.14701" lon="-0.74731">
        <ele>204.8980713</ele>
        <time>2011-08-27T09:01:38Z</time>
      </trkpt>
      <trkpt lat="47.14679" lon="-0.74772">
        <ele>203.9368896</ele>
        <time>2011-08-27T09:01:44Z</time>
      </trkpt>
      <trkpt lat="47.14666" lon="-0.748">
        <ele>203.4561768</ele>
        <time>2011-08-27T09:01:49Z</time>
      </trkpt>
      <trkpt lat="47.14662" lon="-0.74808">
        <ele>203.4561768</ele>
        <time>2011-08-27T09:01:51Z</time>
      </trkpt>
      <trkpt lat="47.1466" lon="-0.74814">
        <ele>203.9368896</ele>
        <time>2011-08-27T09:01:56Z</time>
      </trkpt>
      <trkpt lat="47.1466" lon="-0.74813">
        <ele>204.4174805</ele>
        <time>2011-08-27T09:02:00Z</time>
      </trkpt>
      <trkpt lat="47.1466" lon="-0.7481">
        <ele>203.4561768</ele>
        <time>2011-08-27T09:02:22Z</time>
      </trkpt>
      <trkpt lat="47.1466" lon="-0.74808">
        <ele>203.9368896</ele>
        <time>2011-08-27T09:02:39Z</time>
      </trkpt>
      <trkpt lat="47.14658" lon="-0.74807">
        <ele>205.8594971</ele>
        <time>2011-08-27T09:03:01Z</time>
      </trkpt>
      <trkpt lat="47.14659" lon="-0.74807">
        <ele>205.3787842</ele>
        <time>2011-08-27T09:03:08Z</time>
      </trkpt>
      <trkpt lat="47.1466" lon="-0.74808">
        <ele>205.8594971</ele>
        <time>2011-08-27T09:03:14Z</time>
      </trkpt>
      <trkpt lat="47.1466" lon="-0.74808">
        <ele>205.3787842</ele>
        <time>2011-08-27T09:03:23Z</time>
      </trkpt>
      <trkpt lat="47.14659" lon="-0.74808">
        <ele>204.4174805</ele>
        <time>2011-08-27T09:03:29Z</time>
      </trkpt>
      <trkpt lat="47.14658" lon="-0.74803">
        <ele>203.9368896</ele>
        <time>2011-08-27T09:03:33Z</time>
      </trkpt>
      <trkpt lat="47.1466" lon="-0.74799">
        <ele>203.4561768</ele>
        <time>2011-08-27T09:03:34Z</time>
      </trkpt>
      <trkpt lat="47.14667" lon="-0.74783">
        <ele>202.494873</ele>
        <time>2011-08-27T09:03:38Z</time>
      </trkpt>
      <trkpt lat="47.14675" lon="-0.74768">
        <ele>202.0142822</ele>
        <time>2011-08-27T09:03:41Z</time>
      </trkpt>
      <trkpt lat="47.1469" lon="-0.74739">
        <ele>201.5335693</ele>
        <time>2011-08-27T09:03:47Z</time>
      </trkpt>
      <trkpt lat="47.14696" lon="-0.74726">
        <ele>201.0528564</ele>
        <time>2011-08-27T09:03:50Z</time>
      </trkpt>
      <trkpt lat="47.14696" lon="-0.74724">
        <ele>202.494873</ele>
        <time>2011-08-27T09:03:57Z</time>
      </trkpt>
      <trkpt lat="47.14696" lon="-0.74723">
        <ele>203.9368896</ele>
        <time>2011-08-27T09:04:03Z</time>
      </trkpt>
      <trkpt lat="47.14696" lon="-0.74722">
        <ele>203.9368896</ele>
        <time>2011-08-27T09:04:07Z</time>
      </trkpt>
      <trkpt lat="47.14697" lon="-0.74721">
        <ele>205.3787842</ele>
        <time>2011-08-27T09:04:16Z</time>
      </trkpt>
      <trkpt lat="47.14696" lon="-0.74721">
        <ele>204.8980713</ele>
        <time>2011-08-27T09:04:23Z</time>
      </trkpt>
      <trkpt lat="47.14694" lon="-0.74719">
        <ele>204.4174805</ele>
        <time>2011-08-27T09:04:31Z</time>
      </trkpt>
      <trkpt lat="47.14695" lon="-0.74718">
        <ele>204.4174805</ele>
        <time>2011-08-27T09:04:41Z</time>
      </trkpt>
      <trkpt lat="47.14696" lon="-0.74717">
        <ele>204.4174805</ele>
        <time>2011-08-27T09:04:42Z</time>
      </trkpt>
      <trkpt lat="47.14699" lon="-0.74716">
        <ele>203.9368896</ele>
        <time>2011-08-27T09:04:49Z</time>
      </trkpt>
      <trkpt lat="47.14699" lon="-0.74717">
        <ele>204.8980713</ele>
        <time>2011-08-27T09:04:59Z</time>
      </trkpt>
      <trkpt lat="47.147" lon="-0.74718">
        <ele>205.3787842</ele>
        <time>2011-08-27T09:05:07Z</time>
      </trkpt>
      <trkpt lat="47.14699" lon="-0.74718">
        <ele>204.8980713</ele>
        <time>2011-08-27T09:05:14Z</time>
      </trkpt>
      <trkpt lat="47.14699" lon="-0.7472">
        <ele>204.4174805</ele>
        <time>2011-08-27T09:05:34Z</time>
      </trkpt>
      <trkpt lat="47.14698" lon="-0.74724">
        <ele>207.7821045</ele>
        <time>2011-08-27T09:05:53Z</time>
      </trkpt>
      <trkpt lat="47.14701" lon="-0.74724">
        <ele>207.3013916</ele>
        <time>2011-08-27T09:05:58Z</time>
      </trkpt>
      <trkpt lat="47.147" lon="-0.74726">
        <ele>207.3013916</ele>
        <time>2011-08-27T09:05:59Z</time>
      </trkpt>
      <trkpt lat="47.1469" lon="-0.74746">
        <ele>207.3013916</ele>
        <time>2011-08-27T09:06:05Z</time>
      </trkpt>
      <trkpt lat="47.14667" lon="-0.74795">
        <ele>205.3787842</ele>
        <time>2011-08-27T09:06:14Z</time>
      </trkpt>
      <trkpt lat="47.14648" lon="-0.74837">
        <ele>203.9368896</ele>
        <time>2011-08-27T09:06:20Z</time>
      </trkpt>
      <trkpt lat="47.14621" lon="-0.74895">
        <ele>201.5335693</ele>
        <time>2011-08-27T09:06:27Z</time>
      </trkpt>
      <trkpt lat="47.14592" lon="-0.74972">
        <ele>198.1689453</ele>
        <time>2011-08-27T09:06:35Z</time>
      </trkpt>
      <trkpt lat="47.14568" lon="-0.75029">
        <ele>196.2463379</ele>
        <time>2011-08-27T09:06:41Z</time>
      </trkpt>
      <trkpt lat="47.14528" lon="-0.75088">
        <ele>194.3237305</ele>
        <time>2011-08-27T09:06:49Z</time>
      </trkpt>
      <trkpt lat="47.14485" lon="-0.75143">
        <ele>191.9202881</ele>
        <time>2011-08-27T09:06:57Z</time>
      </trkpt>
      <trkpt lat="47.14449" lon="-0.75194">
        <ele>189.5169678</ele>
        <time>2011-08-27T09:07:04Z</time>
      </trkpt>
      <trkpt lat="47.14444" lon="-0.75201">
        <ele>189.5169678</ele>
        <time>2011-08-27T09:07:05Z</time>
      </trkpt>
      <trkpt lat="47.14425" lon="-0.75242">
        <ele>188.0750732</ele>
        <time>2011-08-27T09:07:10Z</time>
      </trkpt>
      <trkpt lat="47.14414" lon="-0.75286">
        <ele>187.1137695</ele>
        <time>2011-08-27T09:07:15Z</time>
      </trkpt>
      <trkpt lat="47.14414" lon="-0.75297">
        <ele>186.1524658</ele>
        <time>2011-08-27T09:07:17Z</time>
      </trkpt>
      <trkpt lat="47.14424" lon="-0.753">
        <ele>185.1911621</ele>
        <time>2011-08-27T09:07:21Z</time>
      </trkpt>
      <trkpt lat="47.14447" lon="-0.75303">
        <ele>184.7105713</ele>
        <time>2011-08-27T09:07:27Z</time>
      </trkpt>
      <trkpt lat="47.14454" lon="-0.75306">
        <ele>184.7105713</ele>
        <time>2011-08-27T09:07:30Z</time>
      </trkpt>
      <trkpt lat="47.14464" lon="-0.75309">
        <ele>186.1524658</ele>
        <time>2011-08-27T09:07:38Z</time>
      </trkpt>
      <trkpt lat="47.14465" lon="-0.75309">
        <ele>186.1524658</ele>
        <time>2011-08-27T09:07:39Z</time>
      </trkpt>
      <trkpt lat="47.14466" lon="-0.7531">
        <ele>186.6331787</ele>
        <time>2011-08-27T09:07:47Z</time>
      </trkpt>
      <trkpt lat="47.14466" lon="-0.7531">
        <ele>186.6331787</ele>
        <time>2011-08-27T09:07:55Z</time>
      </trkpt>
      <trkpt lat="47.14466" lon="-0.7531">
        <ele>186.1524658</ele>
        <time>2011-08-27T09:08:01Z</time>
      </trkpt>
      <trkpt lat="47.14466" lon="-0.7531">
        <ele>186.1524658</ele>
        <time>2011-08-27T09:08:02Z</time>
      </trkpt>
      <trkpt lat="47.14467" lon="-0.75311">
        <ele>185.6717529</ele>
        <time>2011-08-27T09:08:28Z</time>
      </trkpt>
      <trkpt lat="47.14469" lon="-0.75313">
        <ele>185.6717529</ele>
        <time>2011-08-27T09:08:30Z</time>
      </trkpt>
      <trkpt lat="47.14484" lon="-0.75321">
        <ele>186.1524658</ele>
        <time>2011-08-27T09:08:36Z</time>
      </trkpt>
      <trkpt lat="47.14502" lon="-0.75326">
        <ele>186.1524658</ele>
        <time>2011-08-27T09:08:40Z</time>
      </trkpt>
      <trkpt lat="47.14506" lon="-0.75328">
        <ele>186.1524658</ele>
        <time>2011-08-27T09:08:41Z</time>
      </trkpt>
      <trkpt lat="47.14554" lon="-0.75342">
        <ele>185.6717529</ele>
        <time>2011-08-27T09:08:50Z</time>
      </trkpt>
      <trkpt lat="47.14597" lon="-0.75348">
        <ele>184.7105713</ele>
        <time>2011-08-27T09:08:57Z</time>
      </trkpt>
      <trkpt lat="47.14631" lon="-0.75347">
        <ele>184.2298584</ele>
        <time>2011-08-27T09:09:02Z</time>
      </trkpt>
      <trkpt lat="47.14689" lon="-0.75353">
        <ele>181.826416</ele>
        <time>2011-08-27T09:09:10Z</time>
      </trkpt>
      <trkpt lat="47.14735" lon="-0.75362">
        <ele>179.4232178</ele>
        <time>2011-08-27T09:09:16Z</time>
      </trkpt>
      <trkpt lat="47.14778" lon="-0.75366">
        <ele>177.9812012</ele>
        <time>2011-08-27T09:09:21Z</time>
      </trkpt>
      <trkpt lat="47.14802" lon="-0.75367">
        <ele>177.0200195</ele>
        <time>2011-08-27T09:09:24Z</time>
      </trkpt>
      <trkpt lat="47.1484" lon="-0.75376">
        <ele>176.0585938</ele>
        <time>2011-08-27T09:09:29Z</time>
      </trkpt>
      <trkpt lat="47.14886" lon="-0.75387">
        <ele>173.6552734</ele>
        <time>2011-08-27T09:09:35Z</time>
      </trkpt>
      <trkpt lat="47.14925" lon="-0.75398">
        <ele>171.2520752</ele>
        <time>2011-08-27T09:09:40Z</time>
      </trkpt>
      <trkpt lat="47.14972" lon="-0.75409">
        <ele>168.368042</ele>
        <time>2011-08-27T09:09:46Z</time>
      </trkpt>
      <trkpt lat="47.1503" lon="-0.75427">
        <ele>164.0421143</ele>
        <time>2011-08-27T09:09:53Z</time>
      </trkpt>
      <trkpt lat="47.15069" lon="-0.75461">
        <ele>160.1968994</ele>
        <time>2011-08-27T09:09:58Z</time>
      </trkpt>
      <trkpt lat="47.15119" lon="-0.75518">
        <ele>154.4289551</ele>
        <time>2011-08-27T09:10:04Z</time>
      </trkpt>
      <trkpt lat="47.15173" lon="-0.75581">
        <ele>147.2189941</ele>
        <time>2011-08-27T09:10:10Z</time>
      </trkpt>
      <trkpt lat="47.15185" lon="-0.75596">
        <ele>144.8157959</ele>
        <time>2011-08-27T09:10:13Z</time>
      </trkpt>
      <trkpt lat="47.15187" lon="-0.75598">
        <ele>144.3352051</ele>
        <time>2011-08-27T09:10:14Z</time>
      </trkpt>
      <trkpt lat="47.15194" lon="-0.75602">
        <ele>143.3736572</ele>
        <time>2011-08-27T09:10:17Z</time>
      </trkpt>
      <trkpt lat="47.15198" lon="-0.75601">
        <ele>142.8930664</ele>
        <time>2011-08-27T09:10:22Z</time>
      </trkpt>
      <trkpt lat="47.15204" lon="-0.75595">
        <ele>141.9317627</ele>
        <time>2011-08-27T09:10:26Z</time>
      </trkpt>
      <trkpt lat="47.15214" lon="-0.75584">
        <ele>141.9317627</ele>
        <time>2011-08-27T09:10:29Z</time>
      </trkpt>
      <trkpt lat="47.15222" lon="-0.75571">
        <ele>141.9317627</ele>
        <time>2011-08-27T09:10:31Z</time>
      </trkpt>
      <trkpt lat="47.15236" lon="-0.75542">
        <ele>140.4898682</ele>
        <time>2011-08-27T09:10:34Z</time>
      </trkpt>
      <trkpt lat="47.15241" lon="-0.75511">
        <ele>139.0478516</ele>
        <time>2011-08-27T09:10:37Z</time>
      </trkpt>
      <trkpt lat="47.15244" lon="-0.75488">
        <ele>137.605835</ele>
        <time>2011-08-27T09:10:40Z</time>
      </trkpt>
      <trkpt lat="47.15257" lon="-0.75474">
        <ele>133.2799072</ele>
        <time>2011-08-27T09:10:44Z</time>
      </trkpt>
      <trkpt lat="47.15262" lon="-0.75473">
        <ele>132.7993164</ele>
        <time>2011-08-27T09:10:45Z</time>
      </trkpt>
      <trkpt lat="47.15271" lon="-0.7547">
        <ele>129.4346924</ele>
        <time>2011-08-27T09:10:47Z</time>
      </trkpt>
      <trkpt lat="47.15303" lon="-0.7545">
        <ele>130.876709</ele>
        <time>2011-08-27T09:10:52Z</time>
      </trkpt>
      <trkpt lat="47.15338" lon="-0.75407">
        <ele>132.3186035</ele>
        <time>2011-08-27T09:10:58Z</time>
      </trkpt>
      <trkpt lat="47.15348" lon="-0.75392">
        <ele>132.3186035</ele>
        <time>2011-08-27T09:11:00Z</time>
      </trkpt>
      <trkpt lat="47.15373" lon="-0.75367">
        <ele>131.8378906</ele>
        <time>2011-08-27T09:11:04Z</time>
      </trkpt>
      <trkpt lat="47.15402" lon="-0.75334">
        <ele>131.8378906</ele>
        <time>2011-08-27T09:11:09Z</time>
      </trkpt>
      <trkpt lat="47.15412" lon="-0.75308">
        <ele>132.3186035</ele>
        <time>2011-08-27T09:11:12Z</time>
      </trkpt>
      <trkpt lat="47.15425" lon="-0.75256">
        <ele>133.760498</ele>
        <time>2011-08-27T09:11:18Z</time>
      </trkpt>
      <trkpt lat="47.15427" lon="-0.75249">
        <ele>134.2412109</ele>
        <time>2011-08-27T09:11:19Z</time>
      </trkpt>
      <trkpt lat="47.15431" lon="-0.75234">
        <ele>134.7219238</ele>
        <time>2011-08-27T09:11:21Z</time>
      </trkpt>
      <trkpt lat="47.15445" lon="-0.75187">
        <ele>132.3186035</ele>
        <time>2011-08-27T09:11:27Z</time>
      </trkpt>
      <trkpt lat="47.15461" lon="-0.7514">
        <ele>130.3959961</ele>
        <time>2011-08-27T09:11:33Z</time>
      </trkpt>
      <trkpt lat="47.15464" lon="-0.75132">
        <ele>129.9152832</ele>
        <time>2011-08-27T09:11:34Z</time>
      </trkpt>
      <trkpt lat="47.15473" lon="-0.75118">
        <ele>130.3959961</ele>
        <time>2011-08-27T09:11:38Z</time>
      </trkpt>
      <trkpt lat="47.15475" lon="-0.75118">
        <ele>130.3959961</ele>
        <time>2011-08-27T09:11:39Z</time>
      </trkpt>
      <trkpt lat="47.15491" lon="-0.75113">
        <ele>130.3959961</ele>
        <time>2011-08-27T09:11:46Z</time>
      </trkpt>
      <trkpt lat="47.15492" lon="-0.75113">
        <ele>131.3572998</ele>
        <time>2011-08-27T09:11:50Z</time>
      </trkpt>
      <trkpt lat="47.15493" lon="-0.75113">
        <ele>132.3186035</ele>
        <time>2011-08-27T09:11:56Z</time>
      </trkpt>
      <trkpt lat="47.15495" lon="-0.75116">
        <ele>132.7993164</ele>
        <time>2011-08-27T09:12:03Z</time>
      </trkpt>
      <trkpt lat="47.15501" lon="-0.75127">
        <ele>132.3186035</ele>
        <time>2011-08-27T09:12:08Z</time>
      </trkpt>
      <trkpt lat="47.15507" lon="-0.75155">
        <ele>130.3959961</ele>
        <time>2011-08-27T09:12:14Z</time>
      </trkpt>
      <trkpt lat="47.15519" lon="-0.75187">
        <ele>129.9152832</ele>
        <time>2011-08-27T09:12:19Z</time>
      </trkpt>
      <trkpt lat="47.15541" lon="-0.75252">
        <ele>128.9541016</ele>
        <time>2011-08-27T09:12:27Z</time>
      </trkpt>
      <trkpt lat="47.15556" lon="-0.75296">
        <ele>127.5119629</ele>
        <time>2011-08-27T09:12:32Z</time>
      </trkpt>
      <trkpt lat="47.15586" lon="-0.75385">
        <ele>125.5893555</ele>
        <time>2011-08-27T09:12:41Z</time>
      </trkpt>
      <trkpt lat="47.15627" lon="-0.75508">
        <ele>122.7054443</ele>
        <time>2011-08-27T09:12:53Z</time>
      </trkpt>
      <trkpt lat="47.15657" lon="-0.75601">
        <ele>119.8214111</ele>
        <time>2011-08-27T09:13:02Z</time>
      </trkpt>
      <trkpt lat="47.15676" lon="-0.75657">
        <ele>118.8601074</ele>
        <time>2011-08-27T09:13:08Z</time>
      </trkpt>
      <trkpt lat="47.15696" lon="-0.75714">
        <ele>117.8988037</ele>
        <time>2011-08-27T09:13:15Z</time>
      </trkpt>
      <trkpt lat="47.15698" lon="-0.75718">
        <ele>117.8988037</ele>
        <time>2011-08-27T09:13:16Z</time>
      </trkpt>
      <trkpt lat="47.15698" lon="-0.75721">
        <ele>117.4182129</ele>
        <time>2011-08-27T09:13:21Z</time>
      </trkpt>
      <trkpt lat="47.15698" lon="-0.75724">
        <ele>116.9375</ele>
        <time>2011-08-27T09:13:29Z</time>
      </trkpt>
      <trkpt lat="47.15692" lon="-0.75736">
        <ele>115.9761963</ele>
        <time>2011-08-27T09:13:33Z</time>
      </trkpt>
      <trkpt lat="47.15687" lon="-0.75746">
        <ele>115.4956055</ele>
        <time>2011-08-27T09:13:35Z</time>
      </trkpt>
      <trkpt lat="47.15681" lon="-0.75767">
        <ele>115.4956055</ele>
        <time>2011-08-27T09:13:38Z</time>
      </trkpt>
      <trkpt lat="47.15676" lon="-0.75791">
        <ele>115.0148926</ele>
        <time>2011-08-27T09:13:41Z</time>
      </trkpt>
      <trkpt lat="47.15677" lon="-0.75842">
        <ele>115.0148926</ele>
        <time>2011-08-27T09:13:47Z</time>
      </trkpt>
      <trkpt lat="47.1568" lon="-0.75859">
        <ele>114.5341797</ele>
        <time>2011-08-27T09:13:49Z</time>
      </trkpt>
      <trkpt lat="47.15705" lon="-0.75936">
        <ele>115.0148926</ele>
        <time>2011-08-27T09:13:58Z</time>
      </trkpt>
      <trkpt lat="47.15725" lon="-0.75998">
        <ele>114.5341797</ele>
        <time>2011-08-27T09:14:05Z</time>
      </trkpt>
      <trkpt lat="47.15754" lon="-0.76069">
        <ele>114.5341797</ele>
        <time>2011-08-27T09:14:14Z</time>
      </trkpt>
      <trkpt lat="47.15793" lon="-0.7614">
        <ele>113.0922852</ele>
        <time>2011-08-27T09:14:24Z</time>
      </trkpt>
      <trkpt lat="47.15836" lon="-0.76216">
        <ele>112.1309814</ele>
        <time>2011-08-27T09:14:35Z</time>
      </trkpt>
      <trkpt lat="47.15869" lon="-0.76263">
        <ele>112.1309814</ele>
        <time>2011-08-27T09:14:43Z</time>
      </trkpt>
      <trkpt lat="47.15908" lon="-0.76306">
        <ele>113.0922852</ele>
        <time>2011-08-27T09:14:52Z</time>
      </trkpt>
      <trkpt lat="47.15917" lon="-0.76317">
        <ele>113.0922852</ele>
        <time>2011-08-27T09:14:54Z</time>
      </trkpt>
      <trkpt lat="47.15931" lon="-0.76362">
        <ele>113.0922852</ele>
        <time>2011-08-27T09:15:00Z</time>
      </trkpt>
      <trkpt lat="47.15935" lon="-0.76436">
        <ele>113.0922852</ele>
        <time>2011-08-27T09:15:09Z</time>
      </trkpt>
      <trkpt lat="47.15937" lon="-0.7647">
        <ele>113.572998</ele>
        <time>2011-08-27T09:15:13Z</time>
      </trkpt>
      <trkpt lat="47.15951" lon="-0.76537">
        <ele>114.5341797</ele>
        <time>2011-08-27T09:15:21Z</time>
      </trkpt>
      <trkpt lat="47.1597" lon="-0.76581">
        <ele>115.4956055</ele>
        <time>2011-08-27T09:15:27Z</time>
      </trkpt>
      <trkpt lat="47.15983" lon="-0.76611">
        <ele>115.4956055</ele>
        <time>2011-08-27T09:15:31Z</time>
      </trkpt>
      <trkpt lat="47.15992" lon="-0.76652">
        <ele>115.9761963</ele>
        <time>2011-08-27T09:15:36Z</time>
      </trkpt>
      <trkpt lat="47.1599" lon="-0.7672">
        <ele>117.4182129</ele>
        <time>2011-08-27T09:15:44Z</time>
      </trkpt>
      <trkpt lat="47.1599" lon="-0.76734">
        <ele>117.4182129</ele>
        <time>2011-08-27T09:15:46Z</time>
      </trkpt>
      <trkpt lat="47.15997" lon="-0.76759">
        <ele>118.3793945</ele>
        <time>2011-08-27T09:15:51Z</time>
      </trkpt>
      <trkpt lat="47.16006" lon="-0.76759">
        <ele>117.8988037</ele>
        <time>2011-08-27T09:15:54Z</time>
      </trkpt>
      <trkpt lat="47.16009" lon="-0.76757">
        <ele>117.8988037</ele>
        <time>2011-08-27T09:15:55Z</time>
      </trkpt>
      <trkpt lat="47.1604" lon="-0.76734">
        <ele>116.9375</ele>
        <time>2011-08-27T09:16:03Z</time>
      </trkpt>
      <trkpt lat="47.1608" lon="-0.76708">
        <ele>115.9761963</ele>
        <time>2011-08-27T09:16:12Z</time>
      </trkpt>
      <trkpt lat="47.16118" lon="-0.76685">
        <ele>114.0535889</ele>
        <time>2011-08-27T09:16:20Z</time>
      </trkpt>
      <trkpt lat="47.16141" lon="-0.76675">
        <ele>113.572998</ele>
        <time>2011-08-27T09:16:25Z</time>
      </trkpt>
      <trkpt lat="47.16169" lon="-0.76655">
        <ele>112.6115723</ele>
        <time>2011-08-27T09:16:31Z</time>
      </trkpt>
      <trkpt lat="47.16211" lon="-0.76626">
        <ele>111.1695557</ele>
        <time>2011-08-27T09:16:39Z</time>
      </trkpt>
      <trkpt lat="47.16232" lon="-0.76609">
        <ele>110.6888428</ele>
        <time>2011-08-27T09:16:43Z</time>
      </trkpt>
      <trkpt lat="47.16269" lon="-0.7658">
        <ele>109.7276611</ele>
        <time>2011-08-27T09:16:49Z</time>
      </trkpt>
      <trkpt lat="47.16311" lon="-0.76555">
        <ele>108.2856445</ele>
        <time>2011-08-27T09:16:55Z</time>
      </trkpt>
      <trkpt lat="47.16362" lon="-0.76524">
        <ele>106.3630371</ele>
        <time>2011-08-27T09:17:02Z</time>
      </trkpt>
      <trkpt lat="47.16411" lon="-0.76495">
        <ele>105.4017334</ele>
        <time>2011-08-27T09:17:09Z</time>
      </trkpt>
      <trkpt lat="47.16457" lon="-0.76467">
        <ele>105.8824463</ele>
        <time>2011-08-27T09:17:16Z</time>
      </trkpt>
      <trkpt lat="47.1647" lon="-0.76459">
        <ele>105.8824463</ele>
        <time>2011-08-27T09:17:18Z</time>
      </trkpt>
      <trkpt lat="47.16487" lon="-0.76444">
        <ele>105.8824463</ele>
        <time>2011-08-27T09:17:21Z</time>
      </trkpt>
      <trkpt lat="47.16508" lon="-0.76426">
        <ele>106.8436279</ele>
        <time>2011-08-27T09:17:25Z</time>
      </trkpt>
      <trkpt lat="47.16535" lon="-0.76393">
        <ele>105.8824463</ele>
        <time>2011-08-27T09:17:31Z</time>
      </trkpt>
      <trkpt lat="47.16559" lon="-0.76372">
        <ele>103.9597168</ele>
        <time>2011-08-27T09:17:35Z</time>
      </trkpt>
      <trkpt lat="47.16603" lon="-0.76351">
        <ele>102.0371094</ele>
        <time>2011-08-27T09:17:41Z</time>
      </trkpt>
      <trkpt lat="47.16644" lon="-0.76328">
        <ele>101.0756836</ele>
        <time>2011-08-27T09:17:47Z</time>
      </trkpt>
      <trkpt lat="47.16668" lon="-0.76302">
        <ele>100.5950928</ele>
        <time>2011-08-27T09:17:51Z</time>
      </trkpt>
      <trkpt lat="47.16698" lon="-0.76256">
        <ele>101.5563965</ele>
        <time>2011-08-27T09:17:57Z</time>
      </trkpt>
      <trkpt lat="47.1672" lon="-0.76227">
        <ele>102.0371094</ele>
        <time>2011-08-27T09:18:02Z</time>
      </trkpt>
      <trkpt lat="47.16741" lon="-0.762">
        <ele>102.5177002</ele>
        <time>2011-08-27T09:18:07Z</time>
      </trkpt>
      <trkpt lat="47.16766" lon="-0.76169">
        <ele>101.5563965</ele>
        <time>2011-08-27T09:18:13Z</time>
      </trkpt>
      <trkpt lat="47.16775" lon="-0.76158">
        <ele>101.0756836</ele>
        <time>2011-08-27T09:18:15Z</time>
      </trkpt>
      <trkpt lat="47.168" lon="-0.76127">
        <ele>100.114502</ele>
        <time>2011-08-27T09:18:20Z</time>
      </trkpt>
      <trkpt lat="47.16838" lon="-0.76095">
        <ele>99.1530762</ele>
        <time>2011-08-27T09:18:27Z</time>
      </trkpt>
      <trkpt lat="47.16882" lon="-0.76064">
        <ele>99.1530762</ele>
        <time>2011-08-27T09:18:35Z</time>
      </trkpt>
      <trkpt lat="47.16911" lon="-0.76043">
        <ele>100.5950928</ele>
        <time>2011-08-27T09:18:41Z</time>
      </trkpt>
      <trkpt lat="47.16956" lon="-0.76022">
        <ele>101.5563965</ele>
        <time>2011-08-27T09:18:50Z</time>
      </trkpt>
      <trkpt lat="47.17002" lon="-0.76009">
        <ele>102.0371094</ele>
        <time>2011-08-27T09:18:59Z</time>
      </trkpt>
      <trkpt lat="47.17046" lon="-0.76004">
        <ele>102.998291</ele>
        <time>2011-08-27T09:19:07Z</time>
      </trkpt>
      <trkpt lat="47.17061" lon="-0.76002">
        <ele>102.998291</ele>
        <time>2011-08-27T09:19:10Z</time>
      </trkpt>
      <trkpt lat="47.1707" lon="-0.75987">
        <ele>103.4790039</ele>
        <time>2011-08-27T09:19:14Z</time>
      </trkpt>
      <trkpt lat="47.17069" lon="-0.75982">
        <ele>102.998291</ele>
        <time>2011-08-27T09:19:15Z</time>
      </trkpt>
      <trkpt lat="47.1706" lon="-0.75943">
        <ele>105.4017334</ele>
        <time>2011-08-27T09:19:24Z</time>
      </trkpt>
      <trkpt lat="47.17051" lon="-0.75892">
        <ele>108.2856445</ele>
        <time>2011-08-27T09:19:35Z</time>
      </trkpt>
      <trkpt lat="47.17044" lon="-0.75853">
        <ele>110.6888428</ele>
        <time>2011-08-27T09:19:43Z</time>
      </trkpt>
      <trkpt lat="47.17036" lon="-0.75809">
        <ele>112.1309814</ele>
        <time>2011-08-27T09:19:52Z</time>
      </trkpt>
      <trkpt lat="47.1703" lon="-0.75772">
        <ele>113.0922852</ele>
        <time>2011-08-27T09:19:59Z</time>
      </trkpt>
      <trkpt lat="47.17026" lon="-0.75748">
        <ele>113.572998</ele>
        <time>2011-08-27T09:20:03Z</time>
      </trkpt>
      <trkpt lat="47.17036" lon="-0.75731">
        <ele>114.0535889</ele>
        <time>2011-08-27T09:20:07Z</time>
      </trkpt>
      <trkpt lat="47.1704" lon="-0.7573">
        <ele>114.0535889</ele>
        <time>2011-08-27T09:20:08Z</time>
      </trkpt>
      <trkpt lat="47.17054" lon="-0.75728">
        <ele>114.0535889</ele>
        <time>2011-08-27T09:20:11Z</time>
      </trkpt>
      <trkpt lat="47.17066" lon="-0.75729">
        <ele>114.0535889</ele>
        <time>2011-08-27T09:20:14Z</time>
      </trkpt>
      <trkpt lat="47.17097" lon="-0.75727">
        <ele>114.0535889</ele>
        <time>2011-08-27T09:20:22Z</time>
      </trkpt>
      <trkpt lat="47.17102" lon="-0.75727">
        <ele>113.572998</ele>
        <time>2011-08-27T09:20:23Z</time>
      </trkpt>
      <trkpt lat="47.17137" lon="-0.75725">
        <ele>110.6888428</ele>
        <time>2011-08-27T09:20:31Z</time>
      </trkpt>
      <trkpt lat="47.17166" lon="-0.75724">
        <ele>108.7662354</ele>
        <time>2011-08-27T09:20:37Z</time>
      </trkpt>
      <trkpt lat="47.17186" lon="-0.75723">
        <ele>106.8436279</ele>
        <time>2011-08-27T09:20:41Z</time>
      </trkpt>
      <trkpt lat="47.17236" lon="-0.75726">
        <ele>104.4404297</ele>
        <time>2011-08-27T09:20:50Z</time>
      </trkpt>
      <trkpt lat="47.17281" lon="-0.75727">
        <ele>103.9597168</ele>
        <time>2011-08-27T09:20:58Z</time>
      </trkpt>
      <trkpt lat="47.17321" lon="-0.75734">
        <ele>102.998291</ele>
        <time>2011-08-27T09:21:05Z</time>
      </trkpt>
      <trkpt lat="47.17356" lon="-0.75752">
        <ele>101.5563965</ele>
        <time>2011-08-27T09:21:11Z</time>
      </trkpt>
      <trkpt lat="47.17361" lon="-0.75756">
        <ele>101.5563965</ele>
        <time>2011-08-27T09:21:12Z</time>
      </trkpt>
      <trkpt lat="47.17395" lon="-0.75775">
        <ele>100.114502</ele>
        <time>2011-08-27T09:21:18Z</time>
      </trkpt>
      <trkpt lat="47.17435" lon="-0.75785">
        <ele>98.6724854</ele>
        <time>2011-08-27T09:21:25Z</time>
      </trkpt>
      <trkpt lat="47.17471" lon="-0.75783">
        <ele>98.1918945</ele>
        <time>2011-08-27T09:21:31Z</time>
      </trkpt>
      <trkpt lat="47.17495" lon="-0.75775">
        <ele>97.2304688</ele>
        <time>2011-08-27T09:21:35Z</time>
      </trkpt>
      <trkpt lat="47.17519" lon="-0.75748">
        <ele>96.2692871</ele>
        <time>2011-08-27T09:21:40Z</time>
      </trkpt>
      <trkpt lat="47.17559" lon="-0.75698">
        <ele>92.904541</ele>
        <time>2011-08-27T09:21:48Z</time>
      </trkpt>
      <trkpt lat="47.17596" lon="-0.75657">
        <ele>90.0206299</ele>
        <time>2011-08-27T09:21:54Z</time>
      </trkpt>
      <trkpt lat="47.17628" lon="-0.75622">
        <ele>89.0593262</ele>
        <time>2011-08-27T09:22:00Z</time>
      </trkpt>
      <trkpt lat="47.17642" lon="-0.75605">
        <ele>89.539917</ele>
        <time>2011-08-27T09:22:04Z</time>
      </trkpt>
      <trkpt lat="47.17655" lon="-0.75592">
        <ele>90.9819336</ele>
        <time>2011-08-27T09:22:08Z</time>
      </trkpt>
      <trkpt lat="47.17668" lon="-0.75579">
        <ele>93.3851318</ele>
        <time>2011-08-27T09:22:12Z</time>
      </trkpt>
      <trkpt lat="47.17675" lon="-0.75573">
        <ele>92.904541</ele>
        <time>2011-08-27T09:22:14Z</time>
      </trkpt>
      <trkpt lat="47.17688" lon="-0.75564">
        <ele>94.3465576</ele>
        <time>2011-08-27T09:22:18Z</time>
      </trkpt>
      <trkpt lat="47.17697" lon="-0.75555">
        <ele>97.2304688</ele>
        <time>2011-08-27T09:22:22Z</time>
      </trkpt>
      <trkpt lat="47.17713" lon="-0.75541">
        <ele>98.6724854</ele>
        <time>2011-08-27T09:22:27Z</time>
      </trkpt>
      <trkpt lat="47.17727" lon="-0.75529">
        <ele>98.1918945</ele>
        <time>2011-08-27T09:22:32Z</time>
      </trkpt>
      <trkpt lat="47.17736" lon="-0.75519">
        <ele>99.1530762</ele>
        <time>2011-08-27T09:22:37Z</time>
      </trkpt>
      <trkpt lat="47.1775" lon="-0.75513">
        <ele>99.1530762</ele>
        <time>2011-08-27T09:22:42Z</time>
      </trkpt>
      <trkpt lat="47.17778" lon="-0.75502">
        <ele>97.2304688</ele>
        <time>2011-08-27T09:22:51Z</time>
      </trkpt>
      <trkpt lat="47.17794" lon="-0.75493">
        <ele>95.3077393</ele>
        <time>2011-08-27T09:22:56Z</time>
      </trkpt>
      <trkpt lat="47.17831" lon="-0.75473">
        <ele>92.4239502</ele>
        <time>2011-08-27T09:23:04Z</time>
      </trkpt>
      <trkpt lat="47.17857" lon="-0.75449">
        <ele>92.904541</ele>
        <time>2011-08-27T09:23:10Z</time>
      </trkpt>
      <trkpt lat="47.17869" lon="-0.75436">
        <ele>92.904541</ele>
        <time>2011-08-27T09:23:13Z</time>
      </trkpt>
      <trkpt lat="47.17896" lon="-0.75394">
        <ele>94.8271484</ele>
        <time>2011-08-27T09:23:22Z</time>
      </trkpt>
      <trkpt lat="47.17905" lon="-0.75379">
        <ele>95.3077393</ele>
        <time>2011-08-27T09:23:25Z</time>
      </trkpt>
      <trkpt lat="47.17918" lon="-0.75354">
        <ele>96.7498779</ele>
        <time>2011-08-27T09:23:30Z</time>
      </trkpt>
      <trkpt lat="47.17933" lon="-0.75341">
        <ele>97.7111816</ele>
        <time>2011-08-27T09:23:34Z</time>
      </trkpt>
      <trkpt lat="47.17977" lon="-0.7532">
        <ele>96.7498779</ele>
        <time>2011-08-27T09:23:43Z</time>
      </trkpt>
      <trkpt lat="47.18024" lon="-0.75293">
        <ele>96.7498779</ele>
        <time>2011-08-27T09:23:52Z</time>
      </trkpt>
      <trkpt lat="47.18074" lon="-0.75267">
        <ele>99.6337891</ele>
        <time>2011-08-27T09:24:02Z</time>
      </trkpt>
      <trkpt lat="47.18113" lon="-0.75249">
        <ele>101.5563965</ele>
        <time>2011-08-27T09:24:10Z</time>
      </trkpt>
      <trkpt lat="47.18156" lon="-0.75226">
        <ele>102.5177002</ele>
        <time>2011-08-27T09:24:19Z</time>
      </trkpt>
      <trkpt lat="47.18217" lon="-0.75197">
        <ele>101.5563965</ele>
        <time>2011-08-27T09:24:31Z</time>
      </trkpt>
      <trkpt lat="47.18261" lon="-0.75175">
        <ele>103.4790039</ele>
        <time>2011-08-27T09:24:40Z</time>
      </trkpt>
      <trkpt lat="47.1831" lon="-0.75156">
        <ele>102.998291</ele>
        <time>2011-08-27T09:24:50Z</time>
      </trkpt>
      <trkpt lat="47.18359" lon="-0.75138">
        <ele>102.0371094</ele>
        <time>2011-08-27T09:25:00Z</time>
      </trkpt>
      <trkpt lat="47.18402" lon="-0.75124">
        <ele>101.0756836</ele>
        <time>2011-08-27T09:25:09Z</time>
      </trkpt>
      <trkpt lat="47.18436" lon="-0.75112">
        <ele>100.5950928</ele>
        <time>2011-08-27T09:25:16Z</time>
      </trkpt>
      <trkpt lat="47.18477" lon="-0.75096">
        <ele>99.6337891</ele>
        <time>2011-08-27T09:25:24Z</time>
      </trkpt>
      <trkpt lat="47.18516" lon="-0.75082">
        <ele>98.6724854</ele>
        <time>2011-08-27T09:25:31Z</time>
      </trkpt>
      <trkpt lat="47.18564" lon="-0.75064">
        <ele>97.7111816</ele>
        <time>2011-08-27T09:25:39Z</time>
      </trkpt>
      <trkpt lat="47.18605" lon="-0.75041">
        <ele>96.2692871</ele>
        <time>2011-08-27T09:25:46Z</time>
      </trkpt>
      <trkpt lat="47.18635" lon="-0.75033">
        <ele>96.7498779</ele>
        <time>2011-08-27T09:25:51Z</time>
      </trkpt>
      <trkpt lat="47.18644" lon="-0.75029">
        <ele>96.2692871</ele>
        <time>2011-08-27T09:25:53Z</time>
      </trkpt>
      <trkpt lat="47.18672" lon="-0.75023">
        <ele>95.7884521</ele>
        <time>2011-08-27T09:25:58Z</time>
      </trkpt>
      <trkpt lat="47.18713" lon="-0.75009">
        <ele>96.7498779</ele>
        <time>2011-08-27T09:26:05Z</time>
      </trkpt>
      <trkpt lat="47.18725" lon="-0.75005">
        <ele>97.2304688</ele>
        <time>2011-08-27T09:26:07Z</time>
      </trkpt>
      <trkpt lat="47.18775" lon="-0.74984">
        <ele>98.6724854</ele>
        <time>2011-08-27T09:26:16Z</time>
      </trkpt>
      <trkpt lat="47.18815" lon="-0.74967">
        <ele>100.114502</ele>
        <time>2011-08-27T09:26:24Z</time>
      </trkpt>
      <trkpt lat="47.18827" lon="-0.74963">
        <ele>100.5950928</ele>
        <time>2011-08-27T09:26:27Z</time>
      </trkpt>
      <trkpt lat="47.18841" lon="-0.74952">
        <ele>100.5950928</ele>
        <time>2011-08-27T09:26:32Z</time>
      </trkpt>
      <trkpt lat="47.18844" lon="-0.74949">
        <ele>100.5950928</ele>
        <time>2011-08-27T09:26:33Z</time>
      </trkpt>
      <trkpt lat="47.18861" lon="-0.74933">
        <ele>100.5950928</ele>
        <time>2011-08-27T09:26:39Z</time>
      </trkpt>
      <trkpt lat="47.18885" lon="-0.74916">
        <ele>99.6337891</ele>
        <time>2011-08-27T09:26:46Z</time>
      </trkpt>
      <trkpt lat="47.18919" lon="-0.74894">
        <ele>98.6724854</ele>
        <time>2011-08-27T09:26:54Z</time>
      </trkpt>
      <trkpt lat="47.18965" lon="-0.74859">
        <ele>97.2304688</ele>
        <time>2011-08-27T09:27:04Z</time>
      </trkpt>
      <trkpt lat="47.19009" lon="-0.74823">
        <ele>97.7111816</ele>
        <time>2011-08-27T09:27:13Z</time>
      </trkpt>
      <trkpt lat="47.19023" lon="-0.74809">
        <ele>97.2304688</ele>
        <time>2011-08-27T09:27:16Z</time>
      </trkpt>
      <trkpt lat="47.19053" lon="-0.74776">
        <ele>96.2692871</ele>
        <time>2011-08-27T09:27:23Z</time>
      </trkpt>
      <trkpt lat="47.19081" lon="-0.74746">
        <ele>96.2692871</ele>
        <time>2011-08-27T09:27:29Z</time>
      </trkpt>
      <trkpt lat="47.19118" lon="-0.74708">
        <ele>97.2304688</ele>
        <time>2011-08-27T09:27:37Z</time>
      </trkpt>
      <trkpt lat="47.19162" lon="-0.74663">
        <ele>97.2304688</ele>
        <time>2011-08-27T09:27:47Z</time>
      </trkpt>
      <trkpt lat="47.19193" lon="-0.74631">
        <ele>95.7884521</ele>
        <time>2011-08-27T09:27:54Z</time>
      </trkpt>
      <trkpt lat="47.19206" lon="-0.74613">
        <ele>95.3077393</ele>
        <time>2011-08-27T09:27:57Z</time>
      </trkpt>
      <trkpt lat="47.19234" lon="-0.74573">
        <ele>93.3851318</ele>
        <time>2011-08-27T09:28:03Z</time>
      </trkpt>
      <trkpt lat="47.19244" lon="-0.7456">
        <ele>92.904541</ele>
        <time>2011-08-27T09:28:05Z</time>
      </trkpt>
      <trkpt lat="47.19276" lon="-0.74523">
        <ele>91.9432373</ele>
        <time>2011-08-27T09:28:11Z</time>
      </trkpt>
      <trkpt lat="47.19324" lon="-0.74473">
        <ele>90.0206299</ele>
        <time>2011-08-27T09:28:20Z</time>
      </trkpt>
      <trkpt lat="47.19365" lon="-0.74433">
        <ele>88.5787354</ele>
        <time>2011-08-27T09:28:28Z</time>
      </trkpt>
      <trkpt lat="47.19405" lon="-0.74393">
        <ele>88.5787354</ele>
        <time>2011-08-27T09:28:36Z</time>
      </trkpt>
      <trkpt lat="47.19443" lon="-0.74353">
        <ele>86.6560059</ele>
        <time>2011-08-27T09:28:44Z</time>
      </trkpt>
      <trkpt lat="47.19448" lon="-0.74348">
        <ele>86.175293</ele>
        <time>2011-08-27T09:28:45Z</time>
      </trkpt>
      <trkpt lat="47.19493" lon="-0.74328">
        <ele>85.6945801</ele>
        <time>2011-08-27T09:28:53Z</time>
      </trkpt>
      <trkpt lat="47.19506" lon="-0.74323">
        <ele>85.2139893</ele>
        <time>2011-08-27T09:28:56Z</time>
      </trkpt>
      <trkpt lat="47.19525" lon="-0.74315">
        <ele>84.2526855</ele>
        <time>2011-08-27T09:29:00Z</time>
      </trkpt>
      <trkpt lat="47.19543" lon="-0.74303">
        <ele>83.2913818</ele>
        <time>2011-08-27T09:29:03Z</time>
      </trkpt>
      <trkpt lat="47.19573" lon="-0.74262">
        <ele>78.4847412</ele>
        <time>2011-08-27T09:29:08Z</time>
      </trkpt>
      <trkpt lat="47.19608" lon="-0.74222">
        <ele>77.0428467</ele>
        <time>2011-08-27T09:29:13Z</time>
      </trkpt>
      <trkpt lat="47.19628" lon="-0.74203">
        <ele>76.5621338</ele>
        <time>2011-08-27T09:29:17Z</time>
      </trkpt>
      <trkpt lat="47.19638" lon="-0.74202">
        <ele>75.1202393</ele>
        <time>2011-08-27T09:29:21Z</time>
      </trkpt>
      <trkpt lat="47.19653" lon="-0.74198">
        <ele>74.6395264</ele>
        <time>2011-08-27T09:29:27Z</time>
      </trkpt>
      <trkpt lat="47.19664" lon="-0.7419">
        <ele>75.1202393</ele>
        <time>2011-08-27T09:29:31Z</time>
      </trkpt>
      <trkpt lat="47.19666" lon="-0.74188">
        <ele>74.6395264</ele>
        <time>2011-08-27T09:29:32Z</time>
      </trkpt>
      <trkpt lat="47.19666" lon="-0.74179">
        <ele>74.1588135</ele>
        <time>2011-08-27T09:29:37Z</time>
      </trkpt>
      <trkpt lat="47.19671" lon="-0.74168">
        <ele>75.1202393</ele>
        <time>2011-08-27T09:29:42Z</time>
      </trkpt>
      <trkpt lat="47.19674" lon="-0.74157">
        <ele>78.9654541</ele>
        <time>2011-08-27T09:29:48Z</time>
      </trkpt>
      <trkpt lat="47.19678" lon="-0.7414">
        <ele>83.7719727</ele>
        <time>2011-08-27T09:29:54Z</time>
      </trkpt>
      <trkpt lat="47.19678" lon="-0.74109">
        <ele>86.175293</ele>
        <time>2011-08-27T09:30:01Z</time>
      </trkpt>
      <trkpt lat="47.19677" lon="-0.7409">
        <ele>87.1365967</ele>
        <time>2011-08-27T09:30:06Z</time>
      </trkpt>
      <trkpt lat="47.19683" lon="-0.74072">
        <ele>90.0206299</ele>
        <time>2011-08-27T09:30:12Z</time>
      </trkpt>
      <trkpt lat="47.1969" lon="-0.74054">
        <ele>91.9432373</ele>
        <time>2011-08-27T09:30:18Z</time>
      </trkpt>
      <trkpt lat="47.19697" lon="-0.74042">
        <ele>94.3465576</ele>
        <time>2011-08-27T09:30:23Z</time>
      </trkpt>
      <trkpt lat="47.19705" lon="-0.74031">
        <ele>96.2692871</ele>
        <time>2011-08-27T09:30:28Z</time>
      </trkpt>
      <trkpt lat="47.19719" lon="-0.74014">
        <ele>94.8271484</ele>
        <time>2011-08-27T09:30:35Z</time>
      </trkpt>
      <trkpt lat="47.19719" lon="-0.74013">
        <ele>94.8271484</ele>
        <time>2011-08-27T09:30:36Z</time>
      </trkpt>
      <trkpt lat="47.19733" lon="-0.73998">
        <ele>91.4625244</ele>
        <time>2011-08-27T09:30:44Z</time>
      </trkpt>
      <trkpt lat="47.19744" lon="-0.73987">
        <ele>89.539917</ele>
        <time>2011-08-27T09:30:51Z</time>
      </trkpt>
      <trkpt lat="47.1975" lon="-0.73978">
        <ele>88.5787354</ele>
        <time>2011-08-27T09:30:56Z</time>
      </trkpt>
      <trkpt lat="47.19752" lon="-0.73976">
        <ele>89.0593262</ele>
        <time>2011-08-27T09:30:57Z</time>
      </trkpt>
      <trkpt lat="47.19757" lon="-0.73971">
        <ele>90.0206299</ele>
        <time>2011-08-27T09:31:00Z</time>
      </trkpt>
      <trkpt lat="47.19766" lon="-0.73959">
        <ele>94.3465576</ele>
        <time>2011-08-27T09:31:07Z</time>
      </trkpt>
      <trkpt lat="47.19771" lon="-0.7395">
        <ele>94.8271484</ele>
        <time>2011-08-27T09:31:12Z</time>
      </trkpt>
      <trkpt lat="47.1978" lon="-0.73939">
        <ele>97.7111816</ele>
        <time>2011-08-27T09:31:17Z</time>
      </trkpt>
      <trkpt lat="47.19793" lon="-0.7392">
        <ele>97.7111816</ele>
        <time>2011-08-27T09:31:23Z</time>
      </trkpt>
      <trkpt lat="47.19811" lon="-0.73897">
        <ele>97.7111816</ele>
        <time>2011-08-27T09:31:31Z</time>
      </trkpt>
      <trkpt lat="47.19818" lon="-0.73888">
        <ele>97.7111816</ele>
        <time>2011-08-27T09:31:35Z</time>
      </trkpt>
      <trkpt lat="47.19818" lon="-0.73886">
        <ele>99.1530762</ele>
        <time>2011-08-27T09:31:45Z</time>
      </trkpt>
      <trkpt lat="47.19819" lon="-0.73885">
        <ele>99.1530762</ele>
        <time>2011-08-27T09:31:55Z</time>
      </trkpt>
      <trkpt lat="47.19819" lon="-0.73885">
        <ele>99.6337891</ele>
        <time>2011-08-27T09:31:59Z</time>
      </trkpt>
      <trkpt lat="47.19821" lon="-0.73884">
        <ele>101.5563965</ele>
        <time>2011-08-27T09:32:16Z</time>
      </trkpt>
      <trkpt lat="47.19821" lon="-0.73884">
        <ele>101.0756836</ele>
        <time>2011-08-27T09:32:22Z</time>
      </trkpt>
      <trkpt lat="47.19822" lon="-0.73885">
        <ele>102.0371094</ele>
        <time>2011-08-27T09:32:28Z</time>
      </trkpt>
      <trkpt lat="47.19822" lon="-0.73886">
        <ele>102.998291</ele>
        <time>2011-08-27T09:32:34Z</time>
      </trkpt>
      <trkpt lat="47.19823" lon="-0.73886">
        <ele>103.4790039</ele>
        <time>2011-08-27T09:32:37Z</time>
      </trkpt>
      <trkpt lat="47.19823" lon="-0.73886">
        <ele>102.998291</ele>
        <time>2011-08-27T09:32:44Z</time>
      </trkpt>
      <trkpt lat="47.19823" lon="-0.73885">
        <ele>102.5177002</ele>
        <time>2011-08-27T09:32:50Z</time>
      </trkpt>
      <trkpt lat="47.19823" lon="-0.73886">
        <ele>101.5563965</ele>
        <time>2011-08-27T09:33:00Z</time>
      </trkpt>
      <trkpt lat="47.19822" lon="-0.73885">
        <ele>100.5950928</ele>
        <time>2011-08-27T09:33:19Z</time>
      </trkpt>
      <trkpt lat="47.19821" lon="-0.73885">
        <ele>100.114502</ele>
        <time>2011-08-27T09:33:26Z</time>
      </trkpt>
      <trkpt lat="47.19822" lon="-0.73886">
        <ele>98.6724854</ele>
        <time>2011-08-27T09:33:32Z</time>
      </trkpt>
      <trkpt lat="47.19824" lon="-0.73882">
        <ele>98.1918945</ele>
        <time>2011-08-27T09:33:37Z</time>
      </trkpt>
      <trkpt lat="47.19824" lon="-0.73881">
        <ele>98.1918945</ele>
        <time>2011-08-27T09:33:38Z</time>
      </trkpt>
      <trkpt lat="47.19835" lon="-0.73865">
        <ele>98.1918945</ele>
        <time>2011-08-27T09:33:44Z</time>
      </trkpt>
      <trkpt lat="47.19842" lon="-0.73853">
        <ele>98.1918945</ele>
        <time>2011-08-27T09:33:47Z</time>
      </trkpt>
      <trkpt lat="47.19855" lon="-0.73823">
        <ele>98.6724854</ele>
        <time>2011-08-27T09:33:52Z</time>
      </trkpt>
      <trkpt lat="47.19875" lon="-0.73778">
        <ele>97.2304688</ele>
        <time>2011-08-27T09:33:58Z</time>
      </trkpt>
      <trkpt lat="47.19882" lon="-0.73762">
        <ele>96.7498779</ele>
        <time>2011-08-27T09:34:00Z</time>
      </trkpt>
      <trkpt lat="47.19896" lon="-0.73727">
        <ele>94.3465576</ele>
        <time>2011-08-27T09:34:04Z</time>
      </trkpt>
      <trkpt lat="47.19915" lon="-0.73668">
        <ele>90.9819336</ele>
        <time>2011-08-27T09:34:10Z</time>
      </trkpt>
      <trkpt lat="47.19934" lon="-0.73627">
        <ele>90.5013428</ele>
        <time>2011-08-27T09:34:14Z</time>
      </trkpt>
      <trkpt lat="47.19964" lon="-0.73576">
        <ele>87.6171875</ele>
        <time>2011-08-27T09:34:19Z</time>
      </trkpt>
      <trkpt lat="47.19991" lon="-0.73538">
        <ele>85.2139893</ele>
        <time>2011-08-27T09:34:24Z</time>
      </trkpt>
      <trkpt lat="47.19997" lon="-0.73528">
        <ele>84.2526855</ele>
        <time>2011-08-27T09:34:26Z</time>
      </trkpt>
      <trkpt lat="47.20001" lon="-0.73522">
        <ele>84.2526855</ele>
        <time>2011-08-27T09:34:29Z</time>
      </trkpt>
      <trkpt lat="47.2" lon="-0.73521">
        <ele>83.2913818</ele>
        <time>2011-08-27T09:34:38Z</time>
      </trkpt>
      <trkpt lat="47.20014" lon="-0.73507">
        <ele>82.810791</ele>
        <time>2011-08-27T09:34:45Z</time>
      </trkpt>
      <trkpt lat="47.20026" lon="-0.73497">
        <ele>84.7333984</ele>
        <time>2011-08-27T09:34:51Z</time>
      </trkpt>
      <trkpt lat="47.20032" lon="-0.73492">
        <ele>85.2139893</ele>
        <time>2011-08-27T09:34:55Z</time>
      </trkpt>
      <trkpt lat="47.2005" lon="-0.7349">
        <ele>85.6945801</ele>
        <time>2011-08-27T09:35:00Z</time>
      </trkpt>
      <trkpt lat="47.20081" lon="-0.73471">
        <ele>83.7719727</ele>
        <time>2011-08-27T09:35:07Z</time>
      </trkpt>
      <trkpt lat="47.20088" lon="-0.73479">
        <ele>83.2913818</ele>
        <time>2011-08-27T09:35:12Z</time>
      </trkpt>
      <trkpt lat="47.20108" lon="-0.735">
        <ele>83.7719727</ele>
        <time>2011-08-27T09:35:19Z</time>
      </trkpt>
      <trkpt lat="47.20132" lon="-0.73522">
        <ele>84.2526855</ele>
        <time>2011-08-27T09:35:26Z</time>
      </trkpt>
      <trkpt lat="47.20142" lon="-0.73533">
        <ele>83.2913818</ele>
        <time>2011-08-27T09:35:29Z</time>
      </trkpt>
      <trkpt lat="47.20145" lon="-0.73556">
        <ele>83.2913818</ele>
        <time>2011-08-27T09:35:33Z</time>
      </trkpt>
      <trkpt lat="47.20142" lon="-0.73568">
        <ele>82.810791</ele>
        <time>2011-08-27T09:35:35Z</time>
      </trkpt>
      <trkpt lat="47.20125" lon="-0.7362">
        <ele>82.810791</ele>
        <time>2011-08-27T09:35:44Z</time>
      </trkpt>
      <trkpt lat="47.2012" lon="-0.7363">
        <ele>82.3300781</ele>
        <time>2011-08-27T09:35:46Z</time>
      </trkpt>
      <trkpt lat="47.20106" lon="-0.73667">
        <ele>83.7719727</ele>
        <time>2011-08-27T09:35:52Z</time>
      </trkpt>
      <trkpt lat="47.20103" lon="-0.73726">
        <ele>84.7333984</ele>
        <time>2011-08-27T09:36:00Z</time>
      </trkpt>
      <trkpt lat="47.20095" lon="-0.73768">
        <ele>84.7333984</ele>
        <time>2011-08-27T09:36:06Z</time>
      </trkpt>
      <trkpt lat="47.20089" lon="-0.73795">
        <ele>85.2139893</ele>
        <time>2011-08-27T09:36:10Z</time>
      </trkpt>
      <trkpt lat="47.20084" lon="-0.73821">
        <ele>84.7333984</ele>
        <time>2011-08-27T09:36:14Z</time>
      </trkpt>
      <trkpt lat="47.20085" lon="-0.73849">
        <ele>82.810791</ele>
        <time>2011-08-27T09:36:19Z</time>
      </trkpt>
      <trkpt lat="47.20105" lon="-0.73883">
        <ele>79.9266357</ele>
        <time>2011-08-27T09:36:24Z</time>
      </trkpt>
      <trkpt lat="47.20124" lon="-0.73907">
        <ele>76.5621338</ele>
        <time>2011-08-27T09:36:27Z</time>
      </trkpt>
      <trkpt lat="47.20131" lon="-0.73914">
        <ele>75.1202393</ele>
        <time>2011-08-27T09:36:28Z</time>
      </trkpt>
      <trkpt lat="47.20144" lon="-0.73931">
        <ele>74.1588135</ele>
        <time>2011-08-27T09:36:30Z</time>
      </trkpt>
      <trkpt lat="47.20156" lon="-0.73975">
        <ele>74.6395264</ele>
        <time>2011-08-27T09:36:34Z</time>
      </trkpt>
      <trkpt lat="47.20168" lon="-0.74014">
        <ele>75.6008301</ele>
        <time>2011-08-27T09:36:39Z</time>
      </trkpt>
      <trkpt lat="47.2017" lon="-0.74048">
        <ele>73.6782227</ele>
        <time>2011-08-27T09:36:44Z</time>
      </trkpt>
      <trkpt lat="47.20168" lon="-0.74055">
        <ele>73.1976318</ele>
        <time>2011-08-27T09:36:45Z</time>
      </trkpt>
      <trkpt lat="47.20145" lon="-0.74106">
        <ele>72.7169189</ele>
        <time>2011-08-27T09:36:52Z</time>
      </trkpt>
      <trkpt lat="47.20139" lon="-0.74121">
        <ele>72.7169189</ele>
        <time>2011-08-27T09:36:54Z</time>
      </trkpt>
      <trkpt lat="47.20112" lon="-0.74177">
        <ele>74.6395264</ele>
        <time>2011-08-27T09:37:02Z</time>
      </trkpt>
      <trkpt lat="47.20109" lon="-0.74184">
        <ele>75.1202393</ele>
        <time>2011-08-27T09:37:03Z</time>
      </trkpt>
      <trkpt lat="47.20105" lon="-0.74206">
        <ele>76.0814209</ele>
        <time>2011-08-27T09:37:07Z</time>
      </trkpt>
      <trkpt lat="47.20101" lon="-0.74227">
        <ele>76.0814209</ele>
        <time>2011-08-27T09:37:12Z</time>
      </trkpt>
      <trkpt lat="47.20102" lon="-0.7423">
        <ele>74.6395264</ele>
        <time>2011-08-27T09:37:16Z</time>
      </trkpt>
      <trkpt lat="47.20104" lon="-0.74221">
        <ele>73.6782227</ele>
        <time>2011-08-27T09:37:20Z</time>
      </trkpt>
      <trkpt lat="47.20106" lon="-0.74217">
        <ele>73.6782227</ele>
        <time>2011-08-27T09:37:24Z</time>
      </trkpt>
      <trkpt lat="47.20115" lon="-0.74221">
        <ele>73.1976318</ele>
        <time>2011-08-27T09:37:28Z</time>
      </trkpt>
      <trkpt lat="47.20131" lon="-0.74222">
        <ele>72.2362061</ele>
        <time>2011-08-27T09:37:34Z</time>
      </trkpt>
      <trkpt lat="47.20137" lon="-0.74217">
        <ele>72.2362061</ele>
        <time>2011-08-27T09:37:36Z</time>
      </trkpt>
      <trkpt lat="47.20157" lon="-0.74186">
        <ele>73.6782227</ele>
        <time>2011-08-27T09:37:43Z</time>
      </trkpt>
      <trkpt lat="47.20167" lon="-0.7417">
        <ele>74.1588135</ele>
        <time>2011-08-27T09:37:47Z</time>
      </trkpt>
      <trkpt lat="47.20184" lon="-0.74138">
        <ele>74.6395264</ele>
        <time>2011-08-27T09:37:53Z</time>
      </trkpt>
      <trkpt lat="47.20193" lon="-0.74116">
        <ele>75.6008301</ele>
        <time>2011-08-27T09:37:57Z</time>
      </trkpt>
      <trkpt lat="47.20197" lon="-0.74104">
        <ele>76.5621338</ele>
        <time>2011-08-27T09:37:59Z</time>
      </trkpt>
      <trkpt lat="47.20206" lon="-0.74082">
        <ele>77.0428467</ele>
        <time>2011-08-27T09:38:03Z</time>
      </trkpt>
      <trkpt lat="47.20212" lon="-0.74063">
        <ele>77.0428467</ele>
        <time>2011-08-27T09:38:06Z</time>
      </trkpt>
      <trkpt lat="47.20212" lon="-0.74049">
        <ele>79.9266357</ele>
        <time>2011-08-27T09:38:08Z</time>
      </trkpt>
      <trkpt lat="47.20214" lon="-0.74036">
        <ele>78.9654541</ele>
        <time>2011-08-27T09:38:10Z</time>
      </trkpt>
      <trkpt lat="47.20217" lon="-0.74013">
        <ele>80.8881836</ele>
        <time>2011-08-27T09:38:13Z</time>
      </trkpt>
      <trkpt lat="47.20215" lon="-0.73974">
        <ele>78.4847412</ele>
        <time>2011-08-27T09:38:18Z</time>
      </trkpt>
      <trkpt lat="47.20199" lon="-0.7395">
        <ele>74.6395264</ele>
        <time>2011-08-27T09:38:23Z</time>
      </trkpt>
      <trkpt lat="47.2019" lon="-0.73921">
        <ele>72.2362061</ele>
        <time>2011-08-27T09:38:28Z</time>
      </trkpt>
      <trkpt lat="47.2019" lon="-0.73914">
        <ele>72.7169189</ele>
        <time>2011-08-27T09:38:29Z</time>
      </trkpt>
      <trkpt lat="47.20207" lon="-0.73864">
        <ele>73.6782227</ele>
        <time>2011-08-27T09:38:36Z</time>
      </trkpt>
      <trkpt lat="47.20221" lon="-0.73816">
        <ele>73.6782227</ele>
        <time>2011-08-27T09:38:43Z</time>
      </trkpt>
      <trkpt lat="47.20228" lon="-0.73796">
        <ele>73.6782227</ele>
        <time>2011-08-27T09:38:46Z</time>
      </trkpt>
      <trkpt lat="47.20238" lon="-0.73784">
        <ele>73.6782227</ele>
        <time>2011-08-27T09:38:50Z</time>
      </trkpt>
      <trkpt lat="47.20241" lon="-0.73788">
        <ele>74.1588135</ele>
        <time>2011-08-27T09:38:52Z</time>
      </trkpt>
      <trkpt lat="47.2025" lon="-0.73808">
        <ele>75.6008301</ele>
        <time>2011-08-27T09:38:59Z</time>
      </trkpt>
      <trkpt lat="47.2026" lon="-0.73823">
        <ele>75.6008301</ele>
        <time>2011-08-27T09:39:05Z</time>
      </trkpt>
      <trkpt lat="47.20271" lon="-0.73839">
        <ele>76.0814209</ele>
        <time>2011-08-27T09:39:12Z</time>
      </trkpt>
      <trkpt lat="47.20281" lon="-0.7385">
        <ele>78.4847412</ele>
        <time>2011-08-27T09:39:18Z</time>
      </trkpt>
      <trkpt lat="47.20289" lon="-0.73861">
        <ele>80.8881836</ele>
        <time>2011-08-27T09:39:24Z</time>
      </trkpt>
      <trkpt lat="47.20298" lon="-0.73871">
        <ele>83.7719727</ele>
        <time>2011-08-27T09:39:31Z</time>
      </trkpt>
      <trkpt lat="47.20307" lon="-0.73881">
        <ele>83.7719727</ele>
        <time>2011-08-27T09:39:36Z</time>
      </trkpt>
      <trkpt lat="47.2032" lon="-0.73899">
        <ele>83.7719727</ele>
        <time>2011-08-27T09:39:43Z</time>
      </trkpt>
      <trkpt lat="47.20333" lon="-0.73906">
        <ele>84.7333984</ele>
        <time>2011-08-27T09:39:49Z</time>
      </trkpt>
      <trkpt lat="47.20335" lon="-0.73906">
        <ele>84.7333984</ele>
        <time>2011-08-27T09:39:50Z</time>
      </trkpt>
      <trkpt lat="47.20341" lon="-0.73895">
        <ele>85.6945801</ele>
        <time>2011-08-27T09:39:57Z</time>
      </trkpt>
      <trkpt lat="47.2035" lon="-0.73872">
        <ele>86.6560059</ele>
        <time>2011-08-27T09:40:05Z</time>
      </trkpt>
      <trkpt lat="47.20363" lon="-0.73839">
        <ele>87.6171875</ele>
        <time>2011-08-27T09:40:15Z</time>
      </trkpt>
      <trkpt lat="47.20379" lon="-0.73804">
        <ele>89.0593262</ele>
        <time>2011-08-27T09:40:24Z</time>
      </trkpt>
      <trkpt lat="47.20401" lon="-0.7376">
        <ele>90.5013428</ele>
        <time>2011-08-27T09:40:34Z</time>
      </trkpt>
      <trkpt lat="47.20418" lon="-0.73723">
        <ele>90.9819336</ele>
        <time>2011-08-27T09:40:42Z</time>
      </trkpt>
      <trkpt lat="47.20438" lon="-0.73687">
        <ele>92.4239502</ele>
        <time>2011-08-27T09:40:50Z</time>
      </trkpt>
      <trkpt lat="47.20467" lon="-0.7364">
        <ele>92.4239502</ele>
        <time>2011-08-27T09:41:00Z</time>
      </trkpt>
      <trkpt lat="47.20487" lon="-0.73611">
        <ele>92.904541</ele>
        <time>2011-08-27T09:41:06Z</time>
      </trkpt>
      <trkpt lat="47.2049" lon="-0.73606">
        <ele>92.4239502</ele>
        <time>2011-08-27T09:41:07Z</time>
      </trkpt>
      <trkpt lat="47.205" lon="-0.73592">
        <ele>91.9432373</ele>
        <time>2011-08-27T09:41:10Z</time>
      </trkpt>
      <trkpt lat="47.20521" lon="-0.73563">
        <ele>90.9819336</ele>
        <time>2011-08-27T09:41:16Z</time>
      </trkpt>
      <trkpt lat="47.20554" lon="-0.73516">
        <ele>90.5013428</ele>
        <time>2011-08-27T09:41:25Z</time>
      </trkpt>
      <trkpt lat="47.20583" lon="-0.73472">
        <ele>89.0593262</ele>
        <time>2011-08-27T09:41:33Z</time>
      </trkpt>
      <trkpt lat="47.20605" lon="-0.73436">
        <ele>88.5787354</ele>
        <time>2011-08-27T09:41:39Z</time>
      </trkpt>
      <trkpt lat="47.20613" lon="-0.73425">
        <ele>88.0980225</ele>
        <time>2011-08-27T09:41:41Z</time>
      </trkpt>
      <trkpt lat="47.20641" lon="-0.73406">
        <ele>87.1365967</ele>
        <time>2011-08-27T09:41:47Z</time>
      </trkpt>
      <trkpt lat="47.20692" lon="-0.73384">
        <ele>86.175293</ele>
        <time>2011-08-27T09:41:57Z</time>
      </trkpt>
      <trkpt lat="47.20722" lon="-0.73374">
        <ele>86.6560059</ele>
        <time>2011-08-27T09:42:03Z</time>
      </trkpt>
      <trkpt lat="47.20764" lon="-0.73361">
        <ele>84.2526855</ele>
        <time>2011-08-27T09:42:10Z</time>
      </trkpt>
      <trkpt lat="47.20797" lon="-0.73357">
        <ele>82.810791</ele>
        <time>2011-08-27T09:42:15Z</time>
      </trkpt>
      <trkpt lat="47.20834" lon="-0.73362">
        <ele>82.810791</ele>
        <time>2011-08-27T09:42:21Z</time>
      </trkpt>
      <trkpt lat="47.20854" lon="-0.73371">
        <ele>82.3300781</ele>
        <time>2011-08-27T09:42:25Z</time>
      </trkpt>
      <trkpt lat="47.20862" lon="-0.73373">
        <ele>81.8493652</ele>
        <time>2011-08-27T09:42:27Z</time>
      </trkpt>
      <trkpt lat="47.20877" lon="-0.73363">
        <ele>81.3687744</ele>
        <time>2011-08-27T09:42:33Z</time>
      </trkpt>
      <trkpt lat="47.20878" lon="-0.73359">
        <ele>81.3687744</ele>
        <time>2011-08-27T09:42:34Z</time>
      </trkpt>
      <trkpt lat="47.2088" lon="-0.73335">
        <ele>80.8881836</ele>
        <time>2011-08-27T09:42:41Z</time>
      </trkpt>
      <trkpt lat="47.20883" lon="-0.73313">
        <ele>80.4074707</ele>
        <time>2011-08-27T09:42:45Z</time>
      </trkpt>
      <trkpt lat="47.20891" lon="-0.73295">
        <ele>79.4460449</ele>
        <time>2011-08-27T09:42:48Z</time>
      </trkpt>
      <trkpt lat="47.20895" lon="-0.7329">
        <ele>78.9654541</ele>
        <time>2011-08-27T09:42:49Z</time>
      </trkpt>
      <trkpt lat="47.20912" lon="-0.73275">
        <ele>75.6008301</ele>
        <time>2011-08-27T09:42:53Z</time>
      </trkpt>
      <trkpt lat="47.20921" lon="-0.73249">
        <ele>72.7169189</ele>
        <time>2011-08-27T09:42:56Z</time>
      </trkpt>
      <trkpt lat="47.20935" lon="-0.73224">
        <ele>73.1976318</ele>
        <time>2011-08-27T09:43:01Z</time>
      </trkpt>
      <trkpt lat="47.20944" lon="-0.73226">
        <ele>73.6782227</ele>
        <time>2011-08-27T09:43:03Z</time>
      </trkpt>
      <trkpt lat="47.20958" lon="-0.73231">
        <ele>74.1588135</ele>
        <time>2011-08-27T09:43:06Z</time>
      </trkpt>
      <trkpt lat="47.20967" lon="-0.73234">
        <ele>74.1588135</ele>
        <time>2011-08-27T09:43:08Z</time>
      </trkpt>
      <trkpt lat="47.20985" lon="-0.73239">
        <ele>74.1588135</ele>
        <time>2011-08-27T09:43:12Z</time>
      </trkpt>
      <trkpt lat="47.20994" lon="-0.73241">
        <ele>75.1202393</ele>
        <time>2011-08-27T09:43:14Z</time>
      </trkpt>
      <trkpt lat="47.21008" lon="-0.73244">
        <ele>75.6008301</ele>
        <time>2011-08-27T09:43:17Z</time>
      </trkpt>
      <trkpt lat="47.21048" lon="-0.73252">
        <ele>78.0040283</ele>
        <time>2011-08-27T09:43:25Z</time>
      </trkpt>
      <trkpt lat="47.21083" lon="-0.73264">
        <ele>77.0428467</ele>
        <time>2011-08-27T09:43:32Z</time>
      </trkpt>
      <trkpt lat="47.21108" lon="-0.73272">
        <ele>77.0428467</ele>
        <time>2011-08-27T09:43:37Z</time>
      </trkpt>
      <trkpt lat="47.21117" lon="-0.73274">
        <ele>77.5234375</ele>
        <time>2011-08-27T09:43:39Z</time>
      </trkpt>
      <trkpt lat="47.2114" lon="-0.73284">
        <ele>76.5621338</ele>
        <time>2011-08-27T09:43:45Z</time>
      </trkpt>
      <trkpt lat="47.21174" lon="-0.73301">
        <ele>74.1588135</ele>
        <time>2011-08-27T09:43:52Z</time>
      </trkpt>
      <trkpt lat="47.21193" lon="-0.73311">
        <ele>72.2362061</ele>
        <time>2011-08-27T09:43:55Z</time>
      </trkpt>
      <trkpt lat="47.21218" lon="-0.73325">
        <ele>69.3522949</ele>
        <time>2011-08-27T09:43:59Z</time>
      </trkpt>
      <trkpt lat="47.21226" lon="-0.73326">
        <ele>68.871582</ele>
        <time>2011-08-27T09:44:00Z</time>
      </trkpt>
      <trkpt lat="47.21258" lon="-0.73325">
        <ele>66.9489746</ele>
        <time>2011-08-27T09:44:04Z</time>
      </trkpt>
      <trkpt lat="47.21281" lon="-0.73327">
        <ele>66.9489746</ele>
        <time>2011-08-27T09:44:08Z</time>
      </trkpt>
      <trkpt lat="47.21285" lon="-0.7333">
        <ele>67.4296875</ele>
        <time>2011-08-27T09:44:10Z</time>
      </trkpt>
      <trkpt lat="47.21286" lon="-0.73339">
        <ele>67.9102783</ele>
        <time>2011-08-27T09:44:15Z</time>
      </trkpt>
      <trkpt lat="47.21285" lon="-0.73344">
        <ele>67.9102783</ele>
        <time>2011-08-27T09:44:16Z</time>
      </trkpt>
      <trkpt lat="47.21279" lon="-0.73375">
        <ele>68.3908691</ele>
        <time>2011-08-27T09:44:21Z</time>
      </trkpt>
      <trkpt lat="47.21279" lon="-0.7338">
        <ele>68.3908691</ele>
        <time>2011-08-27T09:44:22Z</time>
      </trkpt>
      <trkpt lat="47.21283" lon="-0.73384">
        <ele>67.4296875</ele>
        <time>2011-08-27T09:44:25Z</time>
      </trkpt>
      <trkpt lat="47.21297" lon="-0.7339">
        <ele>66.4682617</ele>
        <time>2011-08-27T09:44:29Z</time>
      </trkpt>
      <trkpt lat="47.21314" lon="-0.73395">
        <ele>65.0263672</ele>
        <time>2011-08-27T09:44:32Z</time>
      </trkpt>
      <trkpt lat="47.21338" lon="-0.73414">
        <ele>66.9489746</ele>
        <time>2011-08-27T09:44:37Z</time>
      </trkpt>
      <trkpt lat="47.21344" lon="-0.73415">
        <ele>69.3522949</ele>
        <time>2011-08-27T09:44:41Z</time>
      </trkpt>
      <trkpt lat="47.21345" lon="-0.73416">
        <ele>70.3134766</ele>
        <time>2011-08-27T09:44:42Z</time>
      </trkpt>
      <trkpt lat="47.21342" lon="-0.7343">
        <ele>69.8328857</ele>
        <time>2011-08-27T09:44:47Z</time>
      </trkpt>
      <trkpt lat="47.21341" lon="-0.73442">
        <ele>67.4296875</ele>
        <time>2011-08-27T09:44:50Z</time>
      </trkpt>
      <trkpt lat="47.21339" lon="-0.73458">
        <ele>64.5456543</ele>
        <time>2011-08-27T09:44:54Z</time>
      </trkpt>
      <trkpt lat="47.21345" lon="-0.73484">
        <ele>63.5843506</ele>
        <time>2011-08-27T09:45:00Z</time>
      </trkpt>
      <trkpt lat="47.21353" lon="-0.73501">
        <ele>62.6229248</ele>
        <time>2011-08-27T09:45:05Z</time>
      </trkpt>
      <trkpt lat="47.21353" lon="-0.73516">
        <ele>60.7003174</ele>
        <time>2011-08-27T09:45:10Z</time>
      </trkpt>
      <trkpt lat="47.21356" lon="-0.73518">
        <ele>61.1810303</ele>
        <time>2011-08-27T09:45:11Z</time>
      </trkpt>
      <trkpt lat="47.21376" lon="-0.7353">
        <ele>62.6229248</ele>
        <time>2011-08-27T09:45:18Z</time>
      </trkpt>
      <trkpt lat="47.21398" lon="-0.73542">
        <ele>63.1036377</ele>
        <time>2011-08-27T09:45:24Z</time>
      </trkpt>
      <trkpt lat="47.21414" lon="-0.73554">
        <ele>63.1036377</ele>
        <time>2011-08-27T09:45:29Z</time>
      </trkpt>
      <trkpt lat="47.2144" lon="-0.73573">
        <ele>62.6229248</ele>
        <time>2011-08-27T09:45:37Z</time>
      </trkpt>
      <trkpt lat="47.21459" lon="-0.73583">
        <ele>63.5843506</ele>
        <time>2011-08-27T09:45:43Z</time>
      </trkpt>
      <trkpt lat="47.21476" lon="-0.7358">
        <ele>63.1036377</ele>
        <time>2011-08-27T09:45:48Z</time>
      </trkpt>
      <trkpt lat="47.21496" lon="-0.73579">
        <ele>63.1036377</ele>
        <time>2011-08-27T09:45:53Z</time>
      </trkpt>
      <trkpt lat="47.21511" lon="-0.73579">
        <ele>61.1810303</ele>
        <time>2011-08-27T09:45:57Z</time>
      </trkpt>
      <trkpt lat="47.21531" lon="-0.7359">
        <ele>61.6617432</ele>
        <time>2011-08-27T09:46:02Z</time>
      </trkpt>
      <trkpt lat="47.21567" lon="-0.73611">
        <ele>61.1810303</ele>
        <time>2011-08-27T09:46:11Z</time>
      </trkpt>
      <trkpt lat="47.21581" lon="-0.73622">
        <ele>60.7003174</ele>
        <time>2011-08-27T09:46:15Z</time>
      </trkpt>
      <trkpt lat="47.21601" lon="-0.73645">
        <ele>59.2584229</ele>
        <time>2011-08-27T09:46:21Z</time>
      </trkpt>
      <trkpt lat="47.21624" lon="-0.73651">
        <ele>58.77771</ele>
        <time>2011-08-27T09:46:27Z</time>
      </trkpt>
      <trkpt lat="47.21657" lon="-0.73648">
        <ele>59.2584229</ele>
        <time>2011-08-27T09:46:35Z</time>
      </trkpt>
      <trkpt lat="47.21679" lon="-0.73645">
        <ele>59.7391357</ele>
        <time>2011-08-27T09:46:41Z</time>
      </trkpt>
      <trkpt lat="47.21692" lon="-0.73639">
        <ele>59.2584229</ele>
        <time>2011-08-27T09:46:45Z</time>
      </trkpt>
      <trkpt lat="47.21702" lon="-0.73649">
        <ele>60.2197266</ele>
        <time>2011-08-27T09:46:49Z</time>
      </trkpt>
      <trkpt lat="47.21701" lon="-0.73666">
        <ele>62.6229248</ele>
        <time>2011-08-27T09:46:55Z</time>
      </trkpt>
      <trkpt lat="47.21702" lon="-0.73676">
        <ele>65.0263672</ele>
        <time>2011-08-27T09:46:59Z</time>
      </trkpt>
      <trkpt lat="47.21703" lon="-0.73685">
        <ele>66.9489746</ele>
        <time>2011-08-27T09:47:04Z</time>
      </trkpt>
      <trkpt lat="47.21704" lon="-0.73691">
        <ele>68.871582</ele>
        <time>2011-08-27T09:47:11Z</time>
      </trkpt>
      <trkpt lat="47.21704" lon="-0.73696">
        <ele>70.7941895</ele>
        <time>2011-08-27T09:47:17Z</time>
      </trkpt>
      <trkpt lat="47.21707" lon="-0.73706">
        <ele>72.7169189</ele>
        <time>2011-08-27T09:47:27Z</time>
      </trkpt>
      <trkpt lat="47.21709" lon="-0.73714">
        <ele>76.0814209</ele>
        <time>2011-08-27T09:47:35Z</time>
      </trkpt>
      <trkpt lat="47.21709" lon="-0.73714">
        <ele>77.0428467</ele>
        <time>2011-08-27T09:47:42Z</time>
      </trkpt>
      <trkpt lat="47.21711" lon="-0.73719">
        <ele>77.0428467</ele>
        <time>2011-08-27T09:47:47Z</time>
      </trkpt>
      <trkpt lat="47.21713" lon="-0.73728">
        <ele>78.9654541</ele>
        <time>2011-08-27T09:47:54Z</time>
      </trkpt>
      <trkpt lat="47.21714" lon="-0.73734">
        <ele>78.4847412</ele>
        <time>2011-08-27T09:47:58Z</time>
      </trkpt>
      <trkpt lat="47.21718" lon="-0.7374">
        <ele>78.4847412</ele>
        <time>2011-08-27T09:48:07Z</time>
      </trkpt>
      <trkpt lat="47.21724" lon="-0.73737">
        <ele>79.4460449</ele>
        <time>2011-08-27T09:48:14Z</time>
      </trkpt>
      <trkpt lat="47.21732" lon="-0.73733">
        <ele>80.4074707</ele>
        <time>2011-08-27T09:48:23Z</time>
      </trkpt>
      <trkpt lat="47.21735" lon="-0.73731">
        <ele>80.8881836</ele>
        <time>2011-08-27T09:48:28Z</time>
      </trkpt>
      <trkpt lat="47.21737" lon="-0.73729">
        <ele>80.8881836</ele>
        <time>2011-08-27T09:48:30Z</time>
      </trkpt>
      <trkpt lat="47.2175" lon="-0.7372">
        <ele>81.3687744</ele>
        <time>2011-08-27T09:48:37Z</time>
      </trkpt>
      <trkpt lat="47.21778" lon="-0.73702">
        <ele>80.4074707</ele>
        <time>2011-08-27T09:48:48Z</time>
      </trkpt>
      <trkpt lat="47.21803" lon="-0.73685">
        <ele>81.8493652</ele>
        <time>2011-08-27T09:48:56Z</time>
      </trkpt>
      <trkpt lat="47.21827" lon="-0.73668">
        <ele>81.8493652</ele>
        <time>2011-08-27T09:49:03Z</time>
      </trkpt>
      <trkpt lat="47.21855" lon="-0.73652">
        <ele>81.3687744</ele>
        <time>2011-08-27T09:49:09Z</time>
      </trkpt>
      <trkpt lat="47.2189" lon="-0.73633">
        <ele>82.810791</ele>
        <time>2011-08-27T09:49:17Z</time>
      </trkpt>
      <trkpt lat="47.2191" lon="-0.73622">
        <ele>83.2913818</ele>
        <time>2011-08-27T09:49:22Z</time>
      </trkpt>
      <trkpt lat="47.21924" lon="-0.73625">
        <ele>83.2913818</ele>
        <time>2011-08-27T09:49:26Z</time>
      </trkpt>
      <trkpt lat="47.21926" lon="-0.7363">
        <ele>83.2913818</ele>
        <time>2011-08-27T09:49:27Z</time>
      </trkpt>
      <trkpt lat="47.21938" lon="-0.73663">
        <ele>82.810791</ele>
        <time>2011-08-27T09:49:33Z</time>
      </trkpt>
      <trkpt lat="47.21943" lon="-0.7368">
        <ele>82.810791</ele>
        <time>2011-08-27T09:49:36Z</time>
      </trkpt>
      <trkpt lat="47.21945" lon="-0.73691">
        <ele>82.810791</ele>
        <time>2011-08-27T09:49:38Z</time>
      </trkpt>
      <trkpt lat="47.21946" lon="-0.73713">
        <ele>82.810791</ele>
        <time>2011-08-27T09:49:42Z</time>
      </trkpt>
      <trkpt lat="47.21941" lon="-0.73764">
        <ele>81.3687744</ele>
        <time>2011-08-27T09:49:51Z</time>
      </trkpt>
      <trkpt lat="47.21937" lon="-0.73789">
        <ele>81.3687744</ele>
        <time>2011-08-27T09:49:57Z</time>
      </trkpt>
      <trkpt lat="47.21943" lon="-0.7379">
        <ele>82.3300781</ele>
        <time>2011-08-27T09:50:03Z</time>
      </trkpt>
      <trkpt lat="47.21945" lon="-0.7379">
        <ele>82.810791</ele>
        <time>2011-08-27T09:50:07Z</time>
      </trkpt>
      <trkpt lat="47.21944" lon="-0.73789">
        <ele>83.7719727</ele>
        <time>2011-08-27T09:50:14Z</time>
      </trkpt>
      <trkpt lat="47.21944" lon="-0.73791">
        <ele>84.2526855</ele>
        <time>2011-08-27T09:50:34Z</time>
      </trkpt>
      <trkpt lat="47.21945" lon="-0.73792">
        <ele>85.2139893</ele>
        <time>2011-08-27T09:50:43Z</time>
      </trkpt>
      <trkpt lat="47.21945" lon="-0.73793">
        <ele>85.6945801</ele>
        <time>2011-08-27T09:50:48Z</time>
      </trkpt>
      <trkpt lat="47.21946" lon="-0.73792">
        <ele>86.6560059</ele>
        <time>2011-08-27T09:50:53Z</time>
      </trkpt>
      <trkpt lat="47.21947" lon="-0.73792">
        <ele>87.1365967</ele>
        <time>2011-08-27T09:50:59Z</time>
      </trkpt>
      <trkpt lat="47.21947" lon="-0.73791">
        <ele>88.0980225</ele>
        <time>2011-08-27T09:51:06Z</time>
      </trkpt>
      <trkpt lat="47.21948" lon="-0.73791">
        <ele>89.0593262</ele>
        <time>2011-08-27T09:51:18Z</time>
      </trkpt>
      <trkpt lat="47.21946" lon="-0.7379">
        <ele>88.0980225</ele>
        <time>2011-08-27T09:51:36Z</time>
      </trkpt>
      <trkpt lat="47.21941" lon="-0.7379">
        <ele>87.6171875</ele>
        <time>2011-08-27T09:52:18Z</time>
      </trkpt>
      <trkpt lat="47.21942" lon="-0.7379">
        <ele>87.1365967</ele>
        <time>2011-08-27T09:52:26Z</time>
      </trkpt>
      <trkpt lat="47.21945" lon="-0.7379">
        <ele>86.175293</ele>
        <time>2011-08-27T09:52:30Z</time>
      </trkpt>
      <trkpt lat="47.21955" lon="-0.73788">
        <ele>85.2139893</ele>
        <time>2011-08-27T09:52:34Z</time>
      </trkpt>
      <trkpt lat="47.21973" lon="-0.73779">
        <ele>83.7719727</ele>
        <time>2011-08-27T09:52:38Z</time>
      </trkpt>
      <trkpt lat="47.22001" lon="-0.73765">
        <ele>80.4074707</ele>
        <time>2011-08-27T09:52:42Z</time>
      </trkpt>
      <trkpt lat="47.22045" lon="-0.73743">
        <ele>75.6008301</ele>
        <time>2011-08-27T09:52:47Z</time>
      </trkpt>
      <trkpt lat="47.22073" lon="-0.73728">
        <ele>73.6782227</ele>
        <time>2011-08-27T09:52:50Z</time>
      </trkpt>
      <trkpt lat="47.22103" lon="-0.73695">
        <ele>70.3134766</ele>
        <time>2011-08-27T09:52:54Z</time>
      </trkpt>
      <trkpt lat="47.22124" lon="-0.7366">
        <ele>67.9102783</ele>
        <time>2011-08-27T09:52:57Z</time>
      </trkpt>
      <trkpt lat="47.22145" lon="-0.73601">
        <ele>64.5456543</ele>
        <time>2011-08-27T09:53:01Z</time>
      </trkpt>
      <trkpt lat="47.22156" lon="-0.73557">
        <ele>63.1036377</ele>
        <time>2011-08-27T09:53:04Z</time>
      </trkpt>
      <trkpt lat="47.22158" lon="-0.73514">
        <ele>64.0650635</ele>
        <time>2011-08-27T09:53:08Z</time>
      </trkpt>
      <trkpt lat="47.22159" lon="-0.73498">
        <ele>64.5456543</ele>
        <time>2011-08-27T09:53:10Z</time>
      </trkpt>
      <trkpt lat="47.22158" lon="-0.73475">
        <ele>64.5456543</ele>
        <time>2011-08-27T09:53:13Z</time>
      </trkpt>
      <trkpt lat="47.2216" lon="-0.73416">
        <ele>64.5456543</ele>
        <time>2011-08-27T09:53:20Z</time>
      </trkpt>
      <trkpt lat="47.22161" lon="-0.73407">
        <ele>64.5456543</ele>
        <time>2011-08-27T09:53:21Z</time>
      </trkpt>
      <trkpt lat="47.22158" lon="-0.73373">
        <ele>64.0650635</ele>
        <time>2011-08-27T09:53:26Z</time>
      </trkpt>
      <trkpt lat="47.22143" lon="-0.73352">
        <ele>64.0650635</ele>
        <time>2011-08-27T09:53:31Z</time>
      </trkpt>
      <trkpt lat="47.22135" lon="-0.73346">
        <ele>64.0650635</ele>
        <time>2011-08-27T09:53:33Z</time>
      </trkpt>
      <trkpt lat="47.22107" lon="-0.73338">
        <ele>63.1036377</ele>
        <time>2011-08-27T09:53:39Z</time>
      </trkpt>
      <trkpt lat="47.2209" lon="-0.73324">
        <ele>63.5843506</ele>
        <time>2011-08-27T09:53:43Z</time>
      </trkpt>
      <trkpt lat="47.22085" lon="-0.73303">
        <ele>63.5843506</ele>
        <time>2011-08-27T09:53:46Z</time>
      </trkpt>
      <trkpt lat="47.22079" lon="-0.73268">
        <ele>65.5070801</ele>
        <time>2011-08-27T09:53:52Z</time>
      </trkpt>
      <trkpt lat="47.22078" lon="-0.73263">
        <ele>65.5070801</ele>
        <time>2011-08-27T09:53:53Z</time>
      </trkpt>
      <trkpt lat="47.22075" lon="-0.7322">
        <ele>67.9102783</ele>
        <time>2011-08-27T09:54:01Z</time>
      </trkpt>
      <trkpt lat="47.22072" lon="-0.73189">
        <ele>68.3908691</ele>
        <time>2011-08-27T09:54:07Z</time>
      </trkpt>
      <trkpt lat="47.22067" lon="-0.73155">
        <ele>71.7554932</ele>
        <time>2011-08-27T09:54:14Z</time>
      </trkpt>
      <trkpt lat="47.22056" lon="-0.73124">
        <ele>73.6782227</ele>
        <time>2011-08-27T09:54:21Z</time>
      </trkpt>
      <trkpt lat="47.22048" lon="-0.73096">
        <ele>74.1588135</ele>
        <time>2011-08-27T09:54:26Z</time>
      </trkpt>
      <trkpt lat="47.2205" lon="-0.73079">
        <ele>75.1202393</ele>
        <time>2011-08-27T09:54:29Z</time>
      </trkpt>
      <trkpt lat="47.22062" lon="-0.73063">
        <ele>75.1202393</ele>
        <time>2011-08-27T09:54:33Z</time>
      </trkpt>
      <trkpt lat="47.2209" lon="-0.73037">
        <ele>75.6008301</ele>
        <time>2011-08-27T09:54:40Z</time>
      </trkpt>
      <trkpt lat="47.22101" lon="-0.73026">
        <ele>75.6008301</ele>
        <time>2011-08-27T09:54:43Z</time>
      </trkpt>
      <trkpt lat="47.22105" lon="-0.73004">
        <ele>75.6008301</ele>
        <time>2011-08-27T09:54:47Z</time>
      </trkpt>
      <trkpt lat="47.22103" lon="-0.72998">
        <ele>75.6008301</ele>
        <time>2011-08-27T09:54:48Z</time>
      </trkpt>
      <trkpt lat="47.22095" lon="-0.72972">
        <ele>76.0814209</ele>
        <time>2011-08-27T09:54:53Z</time>
      </trkpt>
      <trkpt lat="47.22082" lon="-0.72956">
        <ele>76.0814209</ele>
        <time>2011-08-27T09:54:58Z</time>
      </trkpt>
      <trkpt lat="47.22066" lon="-0.72963">
        <ele>77.5234375</ele>
        <time>2011-08-27T09:55:02Z</time>
      </trkpt>
      <trkpt lat="47.22037" lon="-0.72981">
        <ele>78.9654541</ele>
        <time>2011-08-27T09:55:09Z</time>
      </trkpt>
      <trkpt lat="47.2202" lon="-0.72975">
        <ele>79.4460449</ele>
        <time>2011-08-27T09:55:13Z</time>
      </trkpt>
      <trkpt lat="47.22014" lon="-0.72957">
        <ele>79.9266357</ele>
        <time>2011-08-27T09:55:16Z</time>
      </trkpt>
      <trkpt lat="47.22007" lon="-0.72925">
        <ele>82.3300781</ele>
        <time>2011-08-27T09:55:21Z</time>
      </trkpt>
      <trkpt lat="47.21987" lon="-0.72869">
        <ele>83.2913818</ele>
        <time>2011-08-27T09:55:30Z</time>
      </trkpt>
      <trkpt lat="47.21965" lon="-0.72829">
        <ele>84.2526855</ele>
        <time>2011-08-27T09:55:38Z</time>
      </trkpt>
      <trkpt lat="47.21948" lon="-0.7279">
        <ele>84.2526855</ele>
        <time>2011-08-27T09:55:46Z</time>
      </trkpt>
      <trkpt lat="47.21942" lon="-0.7277">
        <ele>86.175293</ele>
        <time>2011-08-27T09:55:51Z</time>
      </trkpt>
      <trkpt lat="47.2194" lon="-0.72769">
        <ele>85.6945801</ele>
        <time>2011-08-27T09:55:55Z</time>
      </trkpt>
      <trkpt lat="47.2194" lon="-0.72768">
        <ele>86.175293</ele>
        <time>2011-08-27T09:56:01Z</time>
      </trkpt>
      <trkpt lat="47.21939" lon="-0.72767">
        <ele>86.175293</ele>
        <time>2011-08-27T09:56:07Z</time>
      </trkpt>
      <trkpt lat="47.21937" lon="-0.72768">
        <ele>86.175293</ele>
        <time>2011-08-27T09:56:09Z</time>
      </trkpt>
      <trkpt lat="47.21932" lon="-0.72768">
        <ele>86.175293</ele>
        <time>2011-08-27T09:56:15Z</time>
      </trkpt>
      <trkpt lat="47.21932" lon="-0.72766">
        <ele>86.175293</ele>
        <time>2011-08-27T09:56:16Z</time>
      </trkpt>
      <trkpt lat="47.21934" lon="-0.72753">
        <ele>86.175293</ele>
        <time>2011-08-27T09:56:20Z</time>
      </trkpt>
      <trkpt lat="47.21937" lon="-0.7273">
        <ele>86.175293</ele>
        <time>2011-08-27T09:56:25Z</time>
      </trkpt>
      <trkpt lat="47.21934" lon="-0.72703">
        <ele>86.175293</ele>
        <time>2011-08-27T09:56:30Z</time>
      </trkpt>
      <trkpt lat="47.21941" lon="-0.72677">
        <ele>85.2139893</ele>
        <time>2011-08-27T09:56:35Z</time>
      </trkpt>
      <trkpt lat="47.21951" lon="-0.72644">
        <ele>85.2139893</ele>
        <time>2011-08-27T09:56:41Z</time>
      </trkpt>
      <trkpt lat="47.2196" lon="-0.7262">
        <ele>86.175293</ele>
        <time>2011-08-27T09:56:45Z</time>
      </trkpt>
      <trkpt lat="47.21965" lon="-0.72604">
        <ele>85.6945801</ele>
        <time>2011-08-27T09:56:47Z</time>
      </trkpt>
      <trkpt lat="47.21969" lon="-0.72596">
        <ele>85.2139893</ele>
        <time>2011-08-27T09:56:48Z</time>
      </trkpt>
      <trkpt lat="47.21979" lon="-0.72544">
        <ele>82.810791</ele>
        <time>2011-08-27T09:56:53Z</time>
      </trkpt>
      <trkpt lat="47.21979" lon="-0.72496">
        <ele>80.8881836</ele>
        <time>2011-08-27T09:56:57Z</time>
      </trkpt>
      <trkpt lat="47.21982" lon="-0.72455">
        <ele>80.4074707</ele>
        <time>2011-08-27T09:57:01Z</time>
      </trkpt>
      <trkpt lat="47.21985" lon="-0.72446">
        <ele>80.4074707</ele>
        <time>2011-08-27T09:57:02Z</time>
      </trkpt>
      <trkpt lat="47.21999" lon="-0.7242">
        <ele>79.9266357</ele>
        <time>2011-08-27T09:57:07Z</time>
      </trkpt>
      <trkpt lat="47.22007" lon="-0.72399">
        <ele>79.9266357</ele>
        <time>2011-08-27T09:57:11Z</time>
      </trkpt>
      <trkpt lat="47.22011" lon="-0.72388">
        <ele>79.9266357</ele>
        <time>2011-08-27T09:57:13Z</time>
      </trkpt>
      <trkpt lat="47.22022" lon="-0.72362">
        <ele>78.9654541</ele>
        <time>2011-08-27T09:57:18Z</time>
      </trkpt>
      <trkpt lat="47.22028" lon="-0.72343">
        <ele>79.4460449</ele>
        <time>2011-08-27T09:57:21Z</time>
      </trkpt>
      <trkpt lat="47.22027" lon="-0.72313">
        <ele>79.9266357</ele>
        <time>2011-08-27T09:57:26Z</time>
      </trkpt>
      <trkpt lat="47.22029" lon="-0.72309">
        <ele>80.4074707</ele>
        <time>2011-08-27T09:57:29Z</time>
      </trkpt>
      <trkpt lat="47.22038" lon="-0.7232">
        <ele>79.4460449</ele>
        <time>2011-08-27T09:57:33Z</time>
      </trkpt>
      <trkpt lat="47.22048" lon="-0.72313">
        <ele>78.9654541</ele>
        <time>2011-08-27T09:57:36Z</time>
      </trkpt>
      <trkpt lat="47.22079" lon="-0.72261">
        <ele>79.9266357</ele>
        <time>2011-08-27T09:57:45Z</time>
      </trkpt>
      <trkpt lat="47.22088" lon="-0.72244">
        <ele>80.8881836</ele>
        <time>2011-08-27T09:57:48Z</time>
      </trkpt>
      <trkpt lat="47.22104" lon="-0.72211">
        <ele>82.810791</ele>
        <time>2011-08-27T09:57:53Z</time>
      </trkpt>
      <trkpt lat="47.22116" lon="-0.72184">
        <ele>82.810791</ele>
        <time>2011-08-27T09:57:57Z</time>
      </trkpt>
      <trkpt lat="47.22135" lon="-0.72143">
        <ele>85.2139893</ele>
        <time>2011-08-27T09:58:03Z</time>
      </trkpt>
      <trkpt lat="47.22152" lon="-0.72101">
        <ele>84.7333984</ele>
        <time>2011-08-27T09:58:09Z</time>
      </trkpt>
      <trkpt lat="47.22167" lon="-0.72081">
        <ele>84.7333984</ele>
        <time>2011-08-27T09:58:13Z</time>
      </trkpt>
      <trkpt lat="47.22203" lon="-0.72047">
        <ele>83.7719727</ele>
        <time>2011-08-27T09:58:22Z</time>
      </trkpt>
      <trkpt lat="47.2223" lon="-0.72017">
        <ele>82.3300781</ele>
        <time>2011-08-27T09:58:29Z</time>
      </trkpt>
      <trkpt lat="47.22251" lon="-0.71984">
        <ele>81.8493652</ele>
        <time>2011-08-27T09:58:35Z</time>
      </trkpt>
      <trkpt lat="47.22255" lon="-0.71978">
        <ele>81.8493652</ele>
        <time>2011-08-27T09:58:36Z</time>
      </trkpt>
      <trkpt lat="47.2227" lon="-0.71946">
        <ele>81.3687744</ele>
        <time>2011-08-27T09:58:41Z</time>
      </trkpt>
      <trkpt lat="47.22292" lon="-0.71896">
        <ele>82.810791</ele>
        <time>2011-08-27T09:58:49Z</time>
      </trkpt>
      <trkpt lat="47.22319" lon="-0.71826">
        <ele>84.7333984</ele>
        <time>2011-08-27T09:58:59Z</time>
      </trkpt>
      <trkpt lat="47.2235" lon="-0.7175">
        <ele>84.2526855</ele>
        <time>2011-08-27T09:59:09Z</time>
      </trkpt>
      <trkpt lat="47.2238" lon="-0.71662">
        <ele>83.7719727</ele>
        <time>2011-08-27T09:59:19Z</time>
      </trkpt>
      <trkpt lat="47.22401" lon="-0.71605">
        <ele>84.7333984</ele>
        <time>2011-08-27T09:59:26Z</time>
      </trkpt>
      <trkpt lat="47.22433" lon="-0.71549">
        <ele>87.6171875</ele>
        <time>2011-08-27T09:59:34Z</time>
      </trkpt>
      <trkpt lat="47.22464" lon="-0.71493">
        <ele>89.539917</ele>
        <time>2011-08-27T09:59:42Z</time>
      </trkpt>
      <trkpt lat="47.22481" lon="-0.71464">
        <ele>89.539917</ele>
        <time>2011-08-27T09:59:46Z</time>
      </trkpt>
      <trkpt lat="47.22515" lon="-0.71394">
        <ele>88.5787354</ele>
        <time>2011-08-27T09:59:55Z</time>
      </trkpt>
      <trkpt lat="47.22536" lon="-0.71345">
        <ele>88.0980225</ele>
        <time>2011-08-27T10:00:02Z</time>
      </trkpt>
      <trkpt lat="47.22544" lon="-0.71328">
        <ele>87.6171875</ele>
        <time>2011-08-27T10:00:06Z</time>
      </trkpt>
      <trkpt lat="47.22557" lon="-0.71303">
        <ele>87.1365967</ele>
        <time>2011-08-27T10:00:12Z</time>
      </trkpt>
      <trkpt lat="47.22576" lon="-0.71272">
        <ele>86.175293</ele>
        <time>2011-08-27T10:00:19Z</time>
      </trkpt>
      <trkpt lat="47.22589" lon="-0.71276">
        <ele>86.175293</ele>
        <time>2011-08-27T10:00:23Z</time>
      </trkpt>
      <trkpt lat="47.22608" lon="-0.71302">
        <ele>86.6560059</ele>
        <time>2011-08-27T10:00:29Z</time>
      </trkpt>
      <trkpt lat="47.22631" lon="-0.71337">
        <ele>87.1365967</ele>
        <time>2011-08-27T10:00:37Z</time>
      </trkpt>
      <trkpt lat="47.22654" lon="-0.71377">
        <ele>87.1365967</ele>
        <time>2011-08-27T10:00:45Z</time>
      </trkpt>
      <trkpt lat="47.22683" lon="-0.71433">
        <ele>86.6560059</ele>
        <time>2011-08-27T10:00:55Z</time>
      </trkpt>
      <trkpt lat="47.22705" lon="-0.71479">
        <ele>86.175293</ele>
        <time>2011-08-27T10:01:03Z</time>
      </trkpt>
      <trkpt lat="47.22714" lon="-0.71496">
        <ele>85.6945801</ele>
        <time>2011-08-27T10:01:06Z</time>
      </trkpt>
      <trkpt lat="47.2272" lon="-0.71507">
        <ele>85.6945801</ele>
        <time>2011-08-27T10:01:08Z</time>
      </trkpt>
      <trkpt lat="47.22744" lon="-0.71533">
        <ele>84.7333984</ele>
        <time>2011-08-27T10:01:13Z</time>
      </trkpt>
      <trkpt lat="47.22761" lon="-0.71564">
        <ele>83.2913818</ele>
        <time>2011-08-27T10:01:17Z</time>
      </trkpt>
      <trkpt lat="47.22782" lon="-0.71614">
        <ele>80.4074707</ele>
        <time>2011-08-27T10:01:22Z</time>
      </trkpt>
      <trkpt lat="47.22819" lon="-0.7168">
        <ele>76.5621338</ele>
        <time>2011-08-27T10:01:28Z</time>
      </trkpt>
      <trkpt lat="47.22827" lon="-0.71723">
        <ele>75.6008301</ele>
        <time>2011-08-27T10:01:32Z</time>
      </trkpt>
      <trkpt lat="47.22817" lon="-0.71736">
        <ele>75.1202393</ele>
        <time>2011-08-27T10:01:34Z</time>
      </trkpt>
      <trkpt lat="47.22788" lon="-0.71765">
        <ele>73.6782227</ele>
        <time>2011-08-27T10:01:39Z</time>
      </trkpt>
      <trkpt lat="47.22781" lon="-0.7177">
        <ele>73.1976318</ele>
        <time>2011-08-27T10:01:40Z</time>
      </trkpt>
      <trkpt lat="47.2277" lon="-0.71777">
        <ele>71.7554932</ele>
        <time>2011-08-27T10:01:42Z</time>
      </trkpt>
      <trkpt lat="47.22766" lon="-0.71787">
        <ele>70.3134766</ele>
        <time>2011-08-27T10:01:45Z</time>
      </trkpt>
      <trkpt lat="47.2278" lon="-0.71788">
        <ele>68.3908691</ele>
        <time>2011-08-27T10:01:48Z</time>
      </trkpt>
      <trkpt lat="47.22827" lon="-0.71777">
        <ele>65.9876709</ele>
        <time>2011-08-27T10:01:55Z</time>
      </trkpt>
      <trkpt lat="47.2284" lon="-0.71774">
        <ele>65.5070801</ele>
        <time>2011-08-27T10:01:57Z</time>
      </trkpt>
      <trkpt lat="47.22853" lon="-0.71771">
        <ele>64.5456543</ele>
        <time>2011-08-27T10:01:59Z</time>
      </trkpt>
      <trkpt lat="47.22865" lon="-0.71764">
        <ele>63.5843506</ele>
        <time>2011-08-27T10:02:01Z</time>
      </trkpt>
      <trkpt lat="47.2287" lon="-0.7176">
        <ele>63.1036377</ele>
        <time>2011-08-27T10:02:02Z</time>
      </trkpt>
      <trkpt lat="47.22876" lon="-0.71754">
        <ele>62.6229248</ele>
        <time>2011-08-27T10:02:03Z</time>
      </trkpt>
      <trkpt lat="47.2289" lon="-0.7172">
        <ele>59.7391357</ele>
        <time>2011-08-27T10:02:07Z</time>
      </trkpt>
      <trkpt lat="47.22883" lon="-0.71688">
        <ele>58.77771</ele>
        <time>2011-08-27T10:02:10Z</time>
      </trkpt>
      <trkpt lat="47.22878" lon="-0.71679">
        <ele>58.77771</ele>
        <time>2011-08-27T10:02:11Z</time>
      </trkpt>
      <trkpt lat="47.22872" lon="-0.71661">
        <ele>58.2971191</ele>
        <time>2011-08-27T10:02:13Z</time>
      </trkpt>
      <trkpt lat="47.22873" lon="-0.7164">
        <ele>57.8165283</ele>
        <time>2011-08-27T10:02:17Z</time>
      </trkpt>
      <trkpt lat="47.22883" lon="-0.71632">
        <ele>59.7391357</ele>
        <time>2011-08-27T10:02:20Z</time>
      </trkpt>
      <trkpt lat="47.22877" lon="-0.71625">
        <ele>63.1036377</ele>
        <time>2011-08-27T10:02:24Z</time>
      </trkpt>
      <trkpt lat="47.22879" lon="-0.71626">
        <ele>66.4682617</ele>
        <time>2011-08-27T10:02:28Z</time>
      </trkpt>
      <trkpt lat="47.22877" lon="-0.71629">
        <ele>72.2362061</ele>
        <time>2011-08-27T10:02:33Z</time>
      </trkpt>
      <trkpt lat="47.22873" lon="-0.71625">
        <ele>74.1588135</ele>
        <time>2011-08-27T10:02:37Z</time>
      </trkpt>
      <trkpt lat="47.22868" lon="-0.71615">
        <ele>75.1202393</ele>
        <time>2011-08-27T10:02:41Z</time>
      </trkpt>
      <trkpt lat="47.22867" lon="-0.71612">
        <ele>76.0814209</ele>
        <time>2011-08-27T10:02:42Z</time>
      </trkpt>
      <trkpt lat="47.22865" lon="-0.716">
        <ele>75.1202393</ele>
        <time>2011-08-27T10:02:44Z</time>
      </trkpt>
      <trkpt lat="47.22865" lon="-0.71587">
        <ele>73.6782227</ele>
        <time>2011-08-27T10:02:46Z</time>
      </trkpt>
      <trkpt lat="47.22876" lon="-0.71557">
        <ele>70.3134766</ele>
        <time>2011-08-27T10:02:51Z</time>
      </trkpt>
      <trkpt lat="47.22891" lon="-0.71532">
        <ele>65.9876709</ele>
        <time>2011-08-27T10:02:56Z</time>
      </trkpt>
      <trkpt lat="47.22901" lon="-0.71524">
        <ele>62.6229248</ele>
        <time>2011-08-27T10:02:59Z</time>
      </trkpt>
      <trkpt lat="47.22921" lon="-0.71502">
        <ele>59.2584229</ele>
        <time>2011-08-27T10:03:05Z</time>
      </trkpt>
      <trkpt lat="47.2293" lon="-0.71491">
        <ele>58.77771</ele>
        <time>2011-08-27T10:03:08Z</time>
      </trkpt>
      <trkpt lat="47.2295" lon="-0.71472">
        <ele>57.3358154</ele>
        <time>2011-08-27T10:03:14Z</time>
      </trkpt>
      <trkpt lat="47.22967" lon="-0.71458">
        <ele>58.2971191</ele>
        <time>2011-08-27T10:03:20Z</time>
      </trkpt>
      <trkpt lat="47.22978" lon="-0.7145">
        <ele>60.2197266</ele>
        <time>2011-08-27T10:03:26Z</time>
      </trkpt>
      <trkpt lat="47.22985" lon="-0.71447">
        <ele>61.6617432</ele>
        <time>2011-08-27T10:03:31Z</time>
      </trkpt>
      <trkpt lat="47.22988" lon="-0.71446">
        <ele>62.142334</ele>
        <time>2011-08-27T10:03:37Z</time>
      </trkpt>
      <trkpt lat="47.2299" lon="-0.71447">
        <ele>61.1810303</ele>
        <time>2011-08-27T10:03:43Z</time>
      </trkpt>
      <trkpt lat="47.22991" lon="-0.71445">
        <ele>63.1036377</ele>
        <time>2011-08-27T10:03:48Z</time>
      </trkpt>
      <trkpt lat="47.22991" lon="-0.71442">
        <ele>63.1036377</ele>
        <time>2011-08-27T10:03:54Z</time>
      </trkpt>
      <trkpt lat="47.22989" lon="-0.71419">
        <ele>60.7003174</ele>
        <time>2011-08-27T10:03:58Z</time>
      </trkpt>
      <trkpt lat="47.22994" lon="-0.714">
        <ele>59.2584229</ele>
        <time>2011-08-27T10:04:00Z</time>
      </trkpt>
      <trkpt lat="47.23006" lon="-0.71359">
        <ele>57.8165283</ele>
        <time>2011-08-27T10:04:05Z</time>
      </trkpt>
      <trkpt lat="47.23001" lon="-0.71337">
        <ele>58.2971191</ele>
        <time>2011-08-27T10:04:10Z</time>
      </trkpt>
      <trkpt lat="47.22992" lon="-0.71321">
        <ele>59.7391357</ele>
        <time>2011-08-27T10:04:14Z</time>
      </trkpt>
      <trkpt lat="47.22978" lon="-0.71309">
        <ele>60.2197266</ele>
        <time>2011-08-27T10:04:18Z</time>
      </trkpt>
      <trkpt lat="47.22975" lon="-0.71305">
        <ele>60.2197266</ele>
        <time>2011-08-27T10:04:19Z</time>
      </trkpt>
      <trkpt lat="47.22959" lon="-0.71277">
        <ele>60.7003174</ele>
        <time>2011-08-27T10:04:26Z</time>
      </trkpt>
      <trkpt lat="47.22958" lon="-0.71272">
        <ele>60.7003174</ele>
        <time>2011-08-27T10:04:27Z</time>
      </trkpt>
      <trkpt lat="47.22964" lon="-0.71246">
        <ele>58.77771</ele>
        <time>2011-08-27T10:04:33Z</time>
      </trkpt>
      <trkpt lat="47.22967" lon="-0.71242">
        <ele>57.3358154</ele>
        <time>2011-08-27T10:04:34Z</time>
      </trkpt>
      <trkpt lat="47.22993" lon="-0.71221">
        <ele>55.8937988</ele>
        <time>2011-08-27T10:04:42Z</time>
      </trkpt>
      <trkpt lat="47.23017" lon="-0.71205">
        <ele>56.8551025</ele>
        <time>2011-08-27T10:04:50Z</time>
      </trkpt>
      <trkpt lat="47.2304" lon="-0.71181">
        <ele>57.8165283</ele>
        <time>2011-08-27T10:04:58Z</time>
      </trkpt>
      <trkpt lat="47.23064" lon="-0.71154">
        <ele>58.77771</ele>
        <time>2011-08-27T10:05:06Z</time>
      </trkpt>
      <trkpt lat="47.23084" lon="-0.71129">
        <ele>58.2971191</ele>
        <time>2011-08-27T10:05:12Z</time>
      </trkpt>
      <trkpt lat="47.23103" lon="-0.71093">
        <ele>55.8937988</ele>
        <time>2011-08-27T10:05:17Z</time>
      </trkpt>
      <trkpt lat="47.23126" lon="-0.71065">
        <ele>53.9711914</ele>
        <time>2011-08-27T10:05:21Z</time>
      </trkpt>
      <trkpt lat="47.23138" lon="-0.71054">
        <ele>53.9711914</ele>
        <time>2011-08-27T10:05:24Z</time>
      </trkpt>
      <trkpt lat="47.23142" lon="-0.71051">
        <ele>53.9711914</ele>
        <time>2011-08-27T10:05:25Z</time>
      </trkpt>
      <trkpt lat="47.23148" lon="-0.71047">
        <ele>53.9711914</ele>
        <time>2011-08-27T10:05:27Z</time>
      </trkpt>
      <trkpt lat="47.23165" lon="-0.71056">
        <ele>54.4517822</ele>
        <time>2011-08-27T10:05:32Z</time>
      </trkpt>
      <trkpt lat="47.23173" lon="-0.71075">
        <ele>54.4517822</ele>
        <time>2011-08-27T10:05:35Z</time>
      </trkpt>
      <trkpt lat="47.23192" lon="-0.71118">
        <ele>54.4517822</ele>
        <time>2011-08-27T10:05:42Z</time>
      </trkpt>
      <trkpt lat="47.232" lon="-0.71138">
        <ele>54.4517822</ele>
        <time>2011-08-27T10:05:46Z</time>
      </trkpt>
      <trkpt lat="47.23204" lon="-0.71147">
        <ele>55.4130859</ele>
        <time>2011-08-27T10:05:48Z</time>
      </trkpt>
      <trkpt lat="47.23219" lon="-0.71164">
        <ele>57.3358154</ele>
        <time>2011-08-27T10:05:54Z</time>
      </trkpt>
      <trkpt lat="47.23236" lon="-0.71179">
        <ele>59.7391357</ele>
        <time>2011-08-27T10:06:02Z</time>
      </trkpt>
      <trkpt lat="47.23251" lon="-0.71186">
        <ele>62.142334</ele>
        <time>2011-08-27T10:06:09Z</time>
      </trkpt>
      <trkpt lat="47.23267" lon="-0.71187">
        <ele>63.1036377</ele>
        <time>2011-08-27T10:06:16Z</time>
      </trkpt>
      <trkpt lat="47.23288" lon="-0.71188">
        <ele>65.0263672</ele>
        <time>2011-08-27T10:06:25Z</time>
      </trkpt>
      <trkpt lat="47.23306" lon="-0.71198">
        <ele>66.9489746</ele>
        <time>2011-08-27T10:06:33Z</time>
      </trkpt>
      <trkpt lat="47.23311" lon="-0.71206">
        <ele>67.4296875</ele>
        <time>2011-08-27T10:06:37Z</time>
      </trkpt>
      <trkpt lat="47.23317" lon="-0.71212">
        <ele>67.9102783</ele>
        <time>2011-08-27T10:06:41Z</time>
      </trkpt>
      <trkpt lat="47.23321" lon="-0.7122">
        <ele>67.9102783</ele>
        <time>2011-08-27T10:06:45Z</time>
      </trkpt>
      <trkpt lat="47.23323" lon="-0.71223">
        <ele>67.9102783</ele>
        <time>2011-08-27T10:06:47Z</time>
      </trkpt>
      <trkpt lat="47.23326" lon="-0.71225">
        <ele>66.4682617</ele>
        <time>2011-08-27T10:06:53Z</time>
      </trkpt>
      <trkpt lat="47.23327" lon="-0.71227">
        <ele>66.4682617</ele>
        <time>2011-08-27T10:07:00Z</time>
      </trkpt>
      <trkpt lat="47.2333" lon="-0.71229">
        <ele>66.4682617</ele>
        <time>2011-08-27T10:07:07Z</time>
      </trkpt>
      <trkpt lat="47.23332" lon="-0.7123">
        <ele>65.0263672</ele>
        <time>2011-08-27T10:07:20Z</time>
      </trkpt>
      <trkpt lat="47.23332" lon="-0.7123">
        <ele>65.0263672</ele>
        <time>2011-08-27T10:07:21Z</time>
      </trkpt>
      <trkpt lat="47.23332" lon="-0.71233">
        <ele>63.5843506</ele>
        <time>2011-08-27T10:07:35Z</time>
      </trkpt>
      <trkpt lat="47.23335" lon="-0.71237">
        <ele>63.1036377</ele>
        <time>2011-08-27T10:07:41Z</time>
      </trkpt>
      <trkpt lat="47.23345" lon="-0.71241">
        <ele>62.6229248</ele>
        <time>2011-08-27T10:07:45Z</time>
      </trkpt>
      <trkpt lat="47.23353" lon="-0.71242">
        <ele>62.6229248</ele>
        <time>2011-08-27T10:07:48Z</time>
      </trkpt>
      <trkpt lat="47.23374" lon="-0.71242">
        <ele>64.5456543</ele>
        <time>2011-08-27T10:07:54Z</time>
      </trkpt>
      <trkpt lat="47.23392" lon="-0.7124">
        <ele>65.5070801</ele>
        <time>2011-08-27T10:07:59Z</time>
      </trkpt>
      <trkpt lat="47.23405" lon="-0.71239">
        <ele>65.9876709</ele>
        <time>2011-08-27T10:08:03Z</time>
      </trkpt>
      <trkpt lat="47.23421" lon="-0.71238">
        <ele>67.4296875</ele>
        <time>2011-08-27T10:08:08Z</time>
      </trkpt>
      <trkpt lat="47.23434" lon="-0.7124">
        <ele>69.3522949</ele>
        <time>2011-08-27T10:08:12Z</time>
      </trkpt>
      <trkpt lat="47.23456" lon="-0.71242">
        <ele>71.7554932</ele>
        <time>2011-08-27T10:08:19Z</time>
      </trkpt>
      <trkpt lat="47.23464" lon="-0.71241">
        <ele>72.7169189</ele>
        <time>2011-08-27T10:08:23Z</time>
      </trkpt>
      <trkpt lat="47.23467" lon="-0.71241">
        <ele>73.6782227</ele>
        <time>2011-08-27T10:08:29Z</time>
      </trkpt>
      <trkpt lat="47.23469" lon="-0.71242">
        <ele>74.1588135</ele>
        <time>2011-08-27T10:08:34Z</time>
      </trkpt>
      <trkpt lat="47.23471" lon="-0.71243">
        <ele>74.6395264</ele>
        <time>2011-08-27T10:08:40Z</time>
      </trkpt>
      <trkpt lat="47.23474" lon="-0.71241">
        <ele>74.6395264</ele>
        <time>2011-08-27T10:08:44Z</time>
      </trkpt>
      <trkpt lat="47.23473" lon="-0.71229">
        <ele>75.1202393</ele>
        <time>2011-08-27T10:08:50Z</time>
      </trkpt>
      <trkpt lat="47.23474" lon="-0.71212">
        <ele>76.0814209</ele>
        <time>2011-08-27T10:08:56Z</time>
      </trkpt>
      <trkpt lat="47.23475" lon="-0.71189">
        <ele>76.5621338</ele>
        <time>2011-08-27T10:09:03Z</time>
      </trkpt>
      <trkpt lat="47.23478" lon="-0.7117">
        <ele>76.5621338</ele>
        <time>2011-08-27T10:09:08Z</time>
      </trkpt>
      <trkpt lat="47.23483" lon="-0.71144">
        <ele>75.6008301</ele>
        <time>2011-08-27T10:09:14Z</time>
      </trkpt>
      <trkpt lat="47.23489" lon="-0.71109">
        <ele>74.1588135</ele>
        <time>2011-08-27T10:09:20Z</time>
      </trkpt>
      <trkpt lat="47.23495" lon="-0.7108">
        <ele>73.1976318</ele>
        <time>2011-08-27T10:09:24Z</time>
      </trkpt>
      <trkpt lat="47.23507" lon="-0.71038">
        <ele>72.2362061</ele>
        <time>2011-08-27T10:09:29Z</time>
      </trkpt>
      <trkpt lat="47.23514" lon="-0.71005">
        <ele>72.2362061</ele>
        <time>2011-08-27T10:09:33Z</time>
      </trkpt>
      <trkpt lat="47.23516" lon="-0.70974">
        <ele>73.1976318</ele>
        <time>2011-08-27T10:09:37Z</time>
      </trkpt>
      <trkpt lat="47.23512" lon="-0.70955">
        <ele>73.6782227</ele>
        <time>2011-08-27T10:09:40Z</time>
      </trkpt>
      <trkpt lat="47.23492" lon="-0.70917">
        <ele>76.5621338</ele>
        <time>2011-08-27T10:09:47Z</time>
      </trkpt>
      <trkpt lat="47.23486" lon="-0.70891">
        <ele>78.9654541</ele>
        <time>2011-08-27T10:09:51Z</time>
      </trkpt>
      <trkpt lat="47.23483" lon="-0.70855">
        <ele>78.4847412</ele>
        <time>2011-08-27T10:09:56Z</time>
      </trkpt>
      <trkpt lat="47.23491" lon="-0.70811">
        <ele>78.0040283</ele>
        <time>2011-08-27T10:10:02Z</time>
      </trkpt>
      <trkpt lat="47.23493" lon="-0.70805">
        <ele>78.4847412</ele>
        <time>2011-08-27T10:10:03Z</time>
      </trkpt>
      <trkpt lat="47.23522" lon="-0.70744">
        <ele>78.0040283</ele>
        <time>2011-08-27T10:10:13Z</time>
      </trkpt>
      <trkpt lat="47.23529" lon="-0.70731">
        <ele>77.5234375</ele>
        <time>2011-08-27T10:10:15Z</time>
      </trkpt>
      <trkpt lat="47.23553" lon="-0.70659">
        <ele>75.1202393</ele>
        <time>2011-08-27T10:10:24Z</time>
      </trkpt>
      <trkpt lat="47.23582" lon="-0.70585">
        <ele>71.7554932</ele>
        <time>2011-08-27T10:10:33Z</time>
      </trkpt>
      <trkpt lat="47.23588" lon="-0.70566">
        <ele>70.3134766</ele>
        <time>2011-08-27T10:10:35Z</time>
      </trkpt>
      <trkpt lat="47.23607" lon="-0.70485">
        <ele>67.4296875</ele>
        <time>2011-08-27T10:10:42Z</time>
      </trkpt>
      <trkpt lat="47.23624" lon="-0.70417">
        <ele>66.9489746</ele>
        <time>2011-08-27T10:10:48Z</time>
      </trkpt>
      <trkpt lat="47.23643" lon="-0.70351">
        <ele>68.3908691</ele>
        <time>2011-08-27T10:10:55Z</time>
      </trkpt>
      <trkpt lat="47.23656" lon="-0.70297">
        <ele>71.7554932</ele>
        <time>2011-08-27T10:11:02Z</time>
      </trkpt>
      <trkpt lat="47.23663" lon="-0.70268">
        <ele>74.1588135</ele>
        <time>2011-08-27T10:11:06Z</time>
      </trkpt>
      <trkpt lat="47.23666" lon="-0.70255">
        <ele>75.1202393</ele>
        <time>2011-08-27T10:11:08Z</time>
      </trkpt>
      <trkpt lat="47.23672" lon="-0.70237">
        <ele>76.5621338</ele>
        <time>2011-08-27T10:11:11Z</time>
      </trkpt>
      <trkpt lat="47.23685" lon="-0.70205">
        <ele>77.0428467</ele>
        <time>2011-08-27T10:11:17Z</time>
      </trkpt>
      <trkpt lat="47.23701" lon="-0.7017">
        <ele>78.0040283</ele>
        <time>2011-08-27T10:11:24Z</time>
      </trkpt>
      <trkpt lat="47.2373" lon="-0.70118">
        <ele>79.9266357</ele>
        <time>2011-08-27T10:11:35Z</time>
      </trkpt>
      <trkpt lat="47.23749" lon="-0.70088">
        <ele>80.4074707</ele>
        <time>2011-08-27T10:11:42Z</time>
      </trkpt>
      <trkpt lat="47.23768" lon="-0.70056">
        <ele>80.4074707</ele>
        <time>2011-08-27T10:11:50Z</time>
      </trkpt>
      <trkpt lat="47.23785" lon="-0.70019">
        <ele>81.3687744</ele>
        <time>2011-08-27T10:11:58Z</time>
      </trkpt>
      <trkpt lat="47.23799" lon="-0.6998">
        <ele>81.8493652</ele>
        <time>2011-08-27T10:12:06Z</time>
      </trkpt>
      <trkpt lat="47.23815" lon="-0.69934">
        <ele>82.3300781</ele>
        <time>2011-08-27T10:12:15Z</time>
      </trkpt>
      <trkpt lat="47.23833" lon="-0.69896">
        <ele>82.3300781</ele>
        <time>2011-08-27T10:12:23Z</time>
      </trkpt>
      <trkpt lat="47.23856" lon="-0.69851">
        <ele>81.8493652</ele>
        <time>2011-08-27T10:12:32Z</time>
      </trkpt>
      <trkpt lat="47.23883" lon="-0.69795">
        <ele>82.3300781</ele>
        <time>2011-08-27T10:12:43Z</time>
      </trkpt>
      <trkpt lat="47.23896" lon="-0.69767">
        <ele>82.3300781</ele>
        <time>2011-08-27T10:12:48Z</time>
      </trkpt>
      <trkpt lat="47.23911" lon="-0.69758">
        <ele>82.810791</ele>
        <time>2011-08-27T10:12:52Z</time>
      </trkpt>
      <trkpt lat="47.23919" lon="-0.69763">
        <ele>82.810791</ele>
        <time>2011-08-27T10:12:54Z</time>
      </trkpt>
      <trkpt lat="47.23946" lon="-0.69782">
        <ele>83.2913818</ele>
        <time>2011-08-27T10:13:01Z</time>
      </trkpt>
      <trkpt lat="47.23961" lon="-0.69795">
        <ele>83.7719727</ele>
        <time>2011-08-27T10:13:05Z</time>
      </trkpt>
      <trkpt lat="47.24009" lon="-0.69828">
        <ele>84.7333984</ele>
        <time>2011-08-27T10:13:17Z</time>
      </trkpt>
      <trkpt lat="47.24018" lon="-0.69834">
        <ele>84.7333984</ele>
        <time>2011-08-27T10:13:19Z</time>
      </trkpt>
      <trkpt lat="47.24035" lon="-0.69834">
        <ele>85.6945801</ele>
        <time>2011-08-27T10:13:23Z</time>
      </trkpt>
      <trkpt lat="47.24042" lon="-0.69827">
        <ele>85.6945801</ele>
        <time>2011-08-27T10:13:25Z</time>
      </trkpt>
      <trkpt lat="47.24081" lon="-0.69786">
        <ele>87.1365967</ele>
        <time>2011-08-27T10:13:35Z</time>
      </trkpt>
      <trkpt lat="47.24104" lon="-0.6976">
        <ele>88.0980225</ele>
        <time>2011-08-27T10:13:41Z</time>
      </trkpt>
      <trkpt lat="47.24144" lon="-0.69714">
        <ele>88.5787354</ele>
        <time>2011-08-27T10:13:51Z</time>
      </trkpt>
      <trkpt lat="47.24182" lon="-0.69674">
        <ele>89.539917</ele>
        <time>2011-08-27T10:14:00Z</time>
      </trkpt>
      <trkpt lat="47.24222" lon="-0.69633">
        <ele>89.539917</ele>
        <time>2011-08-27T10:14:09Z</time>
      </trkpt>
      <trkpt lat="47.24235" lon="-0.69619">
        <ele>89.539917</ele>
        <time>2011-08-27T10:14:12Z</time>
      </trkpt>
      <trkpt lat="47.24246" lon="-0.69592">
        <ele>89.0593262</ele>
        <time>2011-08-27T10:14:16Z</time>
      </trkpt>
      <trkpt lat="47.24246" lon="-0.69583">
        <ele>89.0593262</ele>
        <time>2011-08-27T10:14:17Z</time>
      </trkpt>
      <trkpt lat="47.24247" lon="-0.69487">
        <ele>88.5787354</ele>
        <time>2011-08-27T10:14:28Z</time>
      </trkpt>
      <trkpt lat="47.24248" lon="-0.69413">
        <ele>88.0980225</ele>
        <time>2011-08-27T10:14:36Z</time>
      </trkpt>
      <trkpt lat="47.24249" lon="-0.69361">
        <ele>88.0980225</ele>
        <time>2011-08-27T10:14:42Z</time>
      </trkpt>
      <trkpt lat="47.2425" lon="-0.69321">
        <ele>88.0980225</ele>
        <time>2011-08-27T10:14:47Z</time>
      </trkpt>
      <trkpt lat="47.24251" lon="-0.6927">
        <ele>87.6171875</ele>
        <time>2011-08-27T10:14:54Z</time>
      </trkpt>
      <trkpt lat="47.24251" lon="-0.69243">
        <ele>87.1365967</ele>
        <time>2011-08-27T10:14:58Z</time>
      </trkpt>
      <trkpt lat="47.24252" lon="-0.69217">
        <ele>86.6560059</ele>
        <time>2011-08-27T10:15:02Z</time>
      </trkpt>
      <trkpt lat="47.24252" lon="-0.69211">
        <ele>86.6560059</ele>
        <time>2011-08-27T10:15:03Z</time>
      </trkpt>
      <trkpt lat="47.24253" lon="-0.69202">
        <ele>86.6560059</ele>
        <time>2011-08-27T10:15:05Z</time>
      </trkpt>
      <trkpt lat="47.24249" lon="-0.69198">
        <ele>86.175293</ele>
        <time>2011-08-27T10:15:09Z</time>
      </trkpt>
      <trkpt lat="47.24247" lon="-0.69197">
        <ele>86.175293</ele>
        <time>2011-08-27T10:15:12Z</time>
      </trkpt>
      <trkpt lat="47.24248" lon="-0.69192">
        <ele>86.175293</ele>
        <time>2011-08-27T10:15:15Z</time>
      </trkpt>
      <trkpt lat="47.24248" lon="-0.69191">
        <ele>86.6560059</ele>
        <time>2011-08-27T10:15:20Z</time>
      </trkpt>
      <trkpt lat="47.24248" lon="-0.69191">
        <ele>87.6171875</ele>
        <time>2011-08-27T10:15:40Z</time>
      </trkpt>
      <trkpt lat="47.2425" lon="-0.69181">
        <ele>87.6171875</ele>
        <time>2011-08-27T10:15:44Z</time>
      </trkpt>
      <trkpt lat="47.2425" lon="-0.69155">
        <ele>87.6171875</ele>
        <time>2011-08-27T10:15:49Z</time>
      </trkpt>
      <trkpt lat="47.2425" lon="-0.6911">
        <ele>88.0980225</ele>
        <time>2011-08-27T10:15:56Z</time>
      </trkpt>
      <trkpt lat="47.2425" lon="-0.69076">
        <ele>88.0980225</ele>
        <time>2011-08-27T10:16:01Z</time>
      </trkpt>
      <trkpt lat="47.2424" lon="-0.69044">
        <ele>88.0980225</ele>
        <time>2011-08-27T10:16:06Z</time>
      </trkpt>
      <trkpt lat="47.24209" lon="-0.68999">
        <ele>87.6171875</ele>
        <time>2011-08-27T10:16:15Z</time>
      </trkpt>
      <trkpt lat="47.2418" lon="-0.68957">
        <ele>86.6560059</ele>
        <time>2011-08-27T10:16:23Z</time>
      </trkpt>
      <trkpt lat="47.24161" lon="-0.68928">
        <ele>86.175293</ele>
        <time>2011-08-27T10:16:28Z</time>
      </trkpt>
      <trkpt lat="47.24153" lon="-0.68891">
        <ele>85.6945801</ele>
        <time>2011-08-27T10:16:33Z</time>
      </trkpt>
      <trkpt lat="47.24158" lon="-0.68866">
        <ele>85.6945801</ele>
        <time>2011-08-27T10:16:36Z</time>
      </trkpt>
      <trkpt lat="47.2418" lon="-0.68797">
        <ele>84.2526855</ele>
        <time>2011-08-27T10:16:45Z</time>
      </trkpt>
      <trkpt lat="47.24202" lon="-0.68718">
        <ele>83.7719727</ele>
        <time>2011-08-27T10:16:55Z</time>
      </trkpt>
      <trkpt lat="47.24222" lon="-0.68649">
        <ele>83.7719727</ele>
        <time>2011-08-27T10:17:04Z</time>
      </trkpt>
      <trkpt lat="47.24241" lon="-0.68591">
        <ele>83.7719727</ele>
        <time>2011-08-27T10:17:12Z</time>
      </trkpt>
      <trkpt lat="47.24267" lon="-0.68508">
        <ele>83.2913818</ele>
        <time>2011-08-27T10:17:23Z</time>
      </trkpt>
      <trkpt lat="47.24283" lon="-0.68448">
        <ele>82.3300781</ele>
        <time>2011-08-27T10:17:30Z</time>
      </trkpt>
      <trkpt lat="47.243" lon="-0.68363">
        <ele>81.3687744</ele>
        <time>2011-08-27T10:17:39Z</time>
      </trkpt>
      <trkpt lat="47.24323" lon="-0.68287">
        <ele>80.4074707</ele>
        <time>2011-08-27T10:17:47Z</time>
      </trkpt>
      <trkpt lat="47.24342" lon="-0.68208">
        <ele>79.4460449</ele>
        <time>2011-08-27T10:17:55Z</time>
      </trkpt>
      <trkpt lat="47.2436" lon="-0.68163">
        <ele>78.9654541</ele>
        <time>2011-08-27T10:18:00Z</time>
      </trkpt>
      <trkpt lat="47.24384" lon="-0.68133">
        <ele>77.0428467</ele>
        <time>2011-08-27T10:18:04Z</time>
      </trkpt>
      <trkpt lat="47.2443" lon="-0.68102">
        <ele>75.6008301</ele>
        <time>2011-08-27T10:18:10Z</time>
      </trkpt>
      <trkpt lat="47.24478" lon="-0.68074">
        <ele>76.0814209</ele>
        <time>2011-08-27T10:18:17Z</time>
      </trkpt>
      <trkpt lat="47.2449" lon="-0.68066">
        <ele>76.0814209</ele>
        <time>2011-08-27T10:18:19Z</time>
      </trkpt>
      <trkpt lat="47.24512" lon="-0.68036">
        <ele>77.0428467</ele>
        <time>2011-08-27T10:18:24Z</time>
      </trkpt>
      <trkpt lat="47.24516" lon="-0.68021">
        <ele>78.0040283</ele>
        <time>2011-08-27T10:18:26Z</time>
      </trkpt>
      <trkpt lat="47.24523" lon="-0.67984">
        <ele>79.9266357</ele>
        <time>2011-08-27T10:18:31Z</time>
      </trkpt>
      <trkpt lat="47.24529" lon="-0.67952">
        <ele>80.8881836</ele>
        <time>2011-08-27T10:18:35Z</time>
      </trkpt>
      <trkpt lat="47.24534" lon="-0.67929">
        <ele>81.3687744</ele>
        <time>2011-08-27T10:18:38Z</time>
      </trkpt>
      <trkpt lat="47.24538" lon="-0.67911">
        <ele>81.8493652</ele>
        <time>2011-08-27T10:18:41Z</time>
      </trkpt>
      <trkpt lat="47.24541" lon="-0.67901">
        <ele>81.8493652</ele>
        <time>2011-08-27T10:18:43Z</time>
      </trkpt>
      <trkpt lat="47.24563" lon="-0.67863">
        <ele>81.3687744</ele>
        <time>2011-08-27T10:18:50Z</time>
      </trkpt>
      <trkpt lat="47.24586" lon="-0.67819">
        <ele>80.8881836</ele>
        <time>2011-08-27T10:18:57Z</time>
      </trkpt>
      <trkpt lat="47.24606" lon="-0.67781">
        <ele>80.4074707</ele>
        <time>2011-08-27T10:19:03Z</time>
      </trkpt>
      <trkpt lat="47.24635" lon="-0.67724">
        <ele>78.4847412</ele>
        <time>2011-08-27T10:19:11Z</time>
      </trkpt>
      <trkpt lat="47.24662" lon="-0.67663">
        <ele>77.0428467</ele>
        <time>2011-08-27T10:19:18Z</time>
      </trkpt>
      <trkpt lat="47.24691" lon="-0.676">
        <ele>75.6008301</ele>
        <time>2011-08-27T10:19:25Z</time>
      </trkpt>
      <trkpt lat="47.24709" lon="-0.6756">
        <ele>75.1202393</ele>
        <time>2011-08-27T10:19:30Z</time>
      </trkpt>
      <trkpt lat="47.24719" lon="-0.67538">
        <ele>75.1202393</ele>
        <time>2011-08-27T10:19:34Z</time>
      </trkpt>
      <trkpt lat="47.24722" lon="-0.67532">
        <ele>75.6008301</ele>
        <time>2011-08-27T10:19:37Z</time>
      </trkpt>
      <trkpt lat="47.24722" lon="-0.67532">
        <ele>76.0814209</ele>
        <time>2011-08-27T10:19:45Z</time>
      </trkpt>
      <trkpt lat="47.24723" lon="-0.67536">
        <ele>74.1588135</ele>
        <time>2011-08-27T10:19:57Z</time>
      </trkpt>
      <trkpt lat="47.24722" lon="-0.67537">
        <ele>73.1976318</ele>
        <time>2011-08-27T10:20:07Z</time>
      </trkpt>
      <trkpt lat="47.24721" lon="-0.67536">
        <ele>75.6008301</ele>
        <time>2011-08-27T10:20:41Z</time>
      </trkpt>
      <trkpt lat="47.24723" lon="-0.67533">
        <ele>75.6008301</ele>
        <time>2011-08-27T10:20:45Z</time>
      </trkpt>
      <trkpt lat="47.24735" lon="-0.67517">
        <ele>75.6008301</ele>
        <time>2011-08-27T10:20:51Z</time>
      </trkpt>
      <trkpt lat="47.24748" lon="-0.67501">
        <ele>75.6008301</ele>
        <time>2011-08-27T10:20:55Z</time>
      </trkpt>
      <trkpt lat="47.24762" lon="-0.67479">
        <ele>75.6008301</ele>
        <time>2011-08-27T10:20:59Z</time>
      </trkpt>
      <trkpt lat="47.24785" lon="-0.67441">
        <ele>74.1588135</ele>
        <time>2011-08-27T10:21:05Z</time>
      </trkpt>
      <trkpt lat="47.24817" lon="-0.67389">
        <ele>72.7169189</ele>
        <time>2011-08-27T10:21:12Z</time>
      </trkpt>
      <trkpt lat="47.24841" lon="-0.67339">
        <ele>70.7941895</ele>
        <time>2011-08-27T10:21:18Z</time>
      </trkpt>
      <trkpt lat="47.24857" lon="-0.67307">
        <ele>70.3134766</ele>
        <time>2011-08-27T10:21:22Z</time>
      </trkpt>
      <trkpt lat="47.24867" lon="-0.67285">
        <ele>70.3134766</ele>
        <time>2011-08-27T10:21:26Z</time>
      </trkpt>
      <trkpt lat="47.24876" lon="-0.6727">
        <ele>70.7941895</ele>
        <time>2011-08-27T10:21:30Z</time>
      </trkpt>
      <trkpt lat="47.24884" lon="-0.67255">
        <ele>70.3134766</ele>
        <time>2011-08-27T10:21:33Z</time>
      </trkpt>
      <trkpt lat="47.24899" lon="-0.67234">
        <ele>70.7941895</ele>
        <time>2011-08-27T10:21:37Z</time>
      </trkpt>
      <trkpt lat="47.24906" lon="-0.67223">
        <ele>70.7941895</ele>
        <time>2011-08-27T10:21:39Z</time>
      </trkpt>
      <trkpt lat="47.24915" lon="-0.67202">
        <ele>69.8328857</ele>
        <time>2011-08-27T10:21:42Z</time>
      </trkpt>
      <trkpt lat="47.24923" lon="-0.67177">
        <ele>69.3522949</ele>
        <time>2011-08-27T10:21:45Z</time>
      </trkpt>
      <trkpt lat="47.24938" lon="-0.67119">
        <ele>67.9102783</ele>
        <time>2011-08-27T10:21:51Z</time>
      </trkpt>
      <trkpt lat="47.24956" lon="-0.67041">
        <ele>65.5070801</ele>
        <time>2011-08-27T10:21:58Z</time>
      </trkpt>
      <trkpt lat="47.24962" lon="-0.66996">
        <ele>65.9876709</ele>
        <time>2011-08-27T10:22:02Z</time>
      </trkpt>
      <trkpt lat="47.24973" lon="-0.66941">
        <ele>65.0263672</ele>
        <time>2011-08-27T10:22:07Z</time>
      </trkpt>
      <trkpt lat="47.24979" lon="-0.66921">
        <ele>64.5456543</ele>
        <time>2011-08-27T10:22:09Z</time>
      </trkpt>
      <trkpt lat="47.25" lon="-0.66859">
        <ele>59.2584229</ele>
        <time>2011-08-27T10:22:15Z</time>
      </trkpt>
      <trkpt lat="47.25006" lon="-0.66839">
        <ele>56.8551025</ele>
        <time>2011-08-27T10:22:17Z</time>
      </trkpt>
      <trkpt lat="47.25022" lon="-0.66805">
        <ele>53.4904785</ele>
        <time>2011-08-27T10:22:21Z</time>
      </trkpt>
      <trkpt lat="47.25042" lon="-0.66787">
        <ele>49.1645508</ele>
        <time>2011-08-27T10:22:25Z</time>
      </trkpt>
      <trkpt lat="47.25066" lon="-0.66745">
        <ele>43.8773193</ele>
        <time>2011-08-27T10:22:30Z</time>
      </trkpt>
      <trkpt lat="47.25069" lon="-0.66733">
        <ele>41.473999</ele>
        <time>2011-08-27T10:22:32Z</time>
      </trkpt>
      <trkpt lat="47.25068" lon="-0.66729">
        <ele>40.5128174</ele>
        <time>2011-08-27T10:22:35Z</time>
      </trkpt>
      <trkpt lat="47.25069" lon="-0.66727">
        <ele>40.9934082</ele>
        <time>2011-08-27T10:22:37Z</time>
      </trkpt>
      <trkpt lat="47.25069" lon="-0.66728">
        <ele>43.3966064</ele>
        <time>2011-08-27T10:22:48Z</time>
      </trkpt>
      <trkpt lat="47.2507" lon="-0.66726">
        <ele>43.3966064</ele>
        <time>2011-08-27T10:22:51Z</time>
      </trkpt>
      <trkpt lat="47.25068" lon="-0.66727">
        <ele>45.3192139</ele>
        <time>2011-08-27T10:22:57Z</time>
      </trkpt>
      <trkpt lat="47.25067" lon="-0.66731">
        <ele>43.8773193</ele>
        <time>2011-08-27T10:23:05Z</time>
      </trkpt>
      <trkpt lat="47.25065" lon="-0.66733">
        <ele>43.3966064</ele>
        <time>2011-08-27T10:23:11Z</time>
      </trkpt>
      <trkpt lat="47.25063" lon="-0.66728">
        <ele>45.3192139</ele>
        <time>2011-08-27T10:23:16Z</time>
      </trkpt>
      <trkpt lat="47.25058" lon="-0.66719">
        <ele>47.2418213</ele>
        <time>2011-08-27T10:23:23Z</time>
      </trkpt>
      <trkpt lat="47.25055" lon="-0.6671">
        <ele>47.7225342</ele>
        <time>2011-08-27T10:23:27Z</time>
      </trkpt>
      <trkpt lat="47.25049" lon="-0.66688">
        <ele>47.2418213</ele>
        <time>2011-08-27T10:23:32Z</time>
      </trkpt>
      <trkpt lat="47.25041" lon="-0.6667">
        <ele>47.7225342</ele>
        <time>2011-08-27T10:23:36Z</time>
      </trkpt>
      <trkpt lat="47.25039" lon="-0.66651">
        <ele>47.2418213</ele>
        <time>2011-08-27T10:23:41Z</time>
      </trkpt>
      <trkpt lat="47.25042" lon="-0.66637">
        <ele>48.2033691</ele>
        <time>2011-08-27T10:23:46Z</time>
      </trkpt>
      <trkpt lat="47.25044" lon="-0.66626">
        <ele>49.1645508</ele>
        <time>2011-08-27T10:23:50Z</time>
      </trkpt>
      <trkpt lat="47.25048" lon="-0.66614">
        <ele>50.1259766</ele>
        <time>2011-08-27T10:23:56Z</time>
      </trkpt>
      <trkpt lat="47.25048" lon="-0.66614">
        <ele>52.5291748</ele>
        <time>2011-08-27T10:24:02Z</time>
      </trkpt>
      <trkpt lat="47.25058" lon="-0.6661">
        <ele>53.4904785</ele>
        <time>2011-08-27T10:24:08Z</time>
      </trkpt>
      <trkpt lat="47.25063" lon="-0.66607">
        <ele>55.4130859</ele>
        <time>2011-08-27T10:24:12Z</time>
      </trkpt>
      <trkpt lat="47.25072" lon="-0.66597">
        <ele>56.8551025</ele>
        <time>2011-08-27T10:24:18Z</time>
      </trkpt>
      <trkpt lat="47.25085" lon="-0.66581">
        <ele>54.932373</ele>
        <time>2011-08-27T10:24:26Z</time>
      </trkpt>
      <trkpt lat="47.25093" lon="-0.66571">
        <ele>54.4517822</ele>
        <time>2011-08-27T10:24:31Z</time>
      </trkpt>
      <trkpt lat="47.25102" lon="-0.66558">
        <ele>57.8165283</ele>
        <time>2011-08-27T10:24:36Z</time>
      </trkpt>
      <trkpt lat="47.25116" lon="-0.6654">
        <ele>66.9489746</ele>
        <time>2011-08-27T10:24:43Z</time>
      </trkpt>
      <trkpt lat="47.2513" lon="-0.66524">
        <ele>69.8328857</ele>
        <time>2011-08-27T10:24:49Z</time>
      </trkpt>
      <trkpt lat="47.25146" lon="-0.66506">
        <ele>70.7941895</ele>
        <time>2011-08-27T10:24:54Z</time>
      </trkpt>
      <trkpt lat="47.25166" lon="-0.66481">
        <ele>66.4682617</ele>
        <time>2011-08-27T10:24:59Z</time>
      </trkpt>
      <trkpt lat="47.2518" lon="-0.66466">
        <ele>59.7391357</ele>
        <time>2011-08-27T10:25:03Z</time>
      </trkpt>
      <trkpt lat="47.25182" lon="-0.66464">
        <ele>59.2584229</ele>
        <time>2011-08-27T10:25:04Z</time>
      </trkpt>
      <trkpt lat="47.25188" lon="-0.66462">
        <ele>53.9711914</ele>
        <time>2011-08-27T10:25:11Z</time>
      </trkpt>
      <trkpt lat="47.25189" lon="-0.66463">
        <ele>50.6065674</ele>
        <time>2011-08-27T10:25:14Z</time>
      </trkpt>
      <trkpt lat="47.25188" lon="-0.66459">
        <ele>47.7225342</ele>
        <time>2011-08-27T10:25:18Z</time>
      </trkpt>
      <trkpt lat="47.25193" lon="-0.66456">
        <ele>46.2806396</ele>
        <time>2011-08-27T10:25:22Z</time>
      </trkpt>
      <trkpt lat="47.25198" lon="-0.66449">
        <ele>45.7999268</ele>
        <time>2011-08-27T10:25:27Z</time>
      </trkpt>
      <trkpt lat="47.25213" lon="-0.66436">
        <ele>48.68396</ele>
        <time>2011-08-27T10:25:33Z</time>
      </trkpt>
      <trkpt lat="47.25233" lon="-0.66413">
        <ele>49.6452637</ele>
        <time>2011-08-27T10:25:40Z</time>
      </trkpt>
      <trkpt lat="47.25254" lon="-0.66386">
        <ele>47.2418213</ele>
        <time>2011-08-27T10:25:47Z</time>
      </trkpt>
      <trkpt lat="47.25265" lon="-0.66372">
        <ele>45.3192139</ele>
        <time>2011-08-27T10:25:52Z</time>
      </trkpt>
      <trkpt lat="47.2528" lon="-0.66353">
        <ele>44.838623</ele>
        <time>2011-08-27T10:25:58Z</time>
      </trkpt>
      <trkpt lat="47.25294" lon="-0.66335">
        <ele>43.8773193</ele>
        <time>2011-08-27T10:26:03Z</time>
      </trkpt>
      <trkpt lat="47.25311" lon="-0.66305">
        <ele>40.9934082</ele>
        <time>2011-08-27T10:26:09Z</time>
      </trkpt>
      <trkpt lat="47.25326" lon="-0.66278">
        <ele>42.9160156</ele>
        <time>2011-08-27T10:26:15Z</time>
      </trkpt>
      <trkpt lat="47.25343" lon="-0.66252">
        <ele>45.3192139</ele>
        <time>2011-08-27T10:26:23Z</time>
      </trkpt>
      <trkpt lat="47.25353" lon="-0.66227">
        <ele>44.838623</ele>
        <time>2011-08-27T10:26:28Z</time>
      </trkpt>
      <trkpt lat="47.25368" lon="-0.66209">
        <ele>46.2806396</ele>
        <time>2011-08-27T10:26:32Z</time>
      </trkpt>
      <trkpt lat="47.25377" lon="-0.66196">
        <ele>53.0097656</ele>
        <time>2011-08-27T10:26:37Z</time>
      </trkpt>
      <trkpt lat="47.25396" lon="-0.66177">
        <ele>58.77771</ele>
        <time>2011-08-27T10:26:42Z</time>
      </trkpt>
      <trkpt lat="47.25411" lon="-0.66165">
        <ele>58.2971191</ele>
        <time>2011-08-27T10:26:47Z</time>
      </trkpt>
      <trkpt lat="47.25415" lon="-0.66162">
        <ele>57.8165283</ele>
        <time>2011-08-27T10:26:48Z</time>
      </trkpt>
      <trkpt lat="47.25423" lon="-0.66157">
        <ele>56.3745117</ele>
        <time>2011-08-27T10:26:50Z</time>
      </trkpt>
      <trkpt lat="47.25453" lon="-0.66139">
        <ele>53.0097656</ele>
        <time>2011-08-27T10:26:56Z</time>
      </trkpt>
      <trkpt lat="47.25463" lon="-0.66134">
        <ele>51.5678711</ele>
        <time>2011-08-27T10:26:58Z</time>
      </trkpt>
      <trkpt lat="47.25486" lon="-0.66127">
        <ele>51.0871582</ele>
        <time>2011-08-27T10:27:02Z</time>
      </trkpt>
      <trkpt lat="47.25507" lon="-0.66122">
        <ele>48.68396</ele>
        <time>2011-08-27T10:27:06Z</time>
      </trkpt>
      <trkpt lat="47.25529" lon="-0.66116">
        <ele>46.7612305</ele>
        <time>2011-08-27T10:27:11Z</time>
      </trkpt>
      <trkpt lat="47.25546" lon="-0.66111">
        <ele>44.3580322</ele>
        <time>2011-08-27T10:27:14Z</time>
      </trkpt>
      <trkpt lat="47.25573" lon="-0.66097">
        <ele>40.9934082</ele>
        <time>2011-08-27T10:27:19Z</time>
      </trkpt>
      <trkpt lat="47.25594" lon="-0.6608">
        <ele>43.3966064</ele>
        <time>2011-08-27T10:27:23Z</time>
      </trkpt>
      <trkpt lat="47.25606" lon="-0.66056">
        <ele>40.9934082</ele>
        <time>2011-08-27T10:27:27Z</time>
      </trkpt>
      <trkpt lat="47.25612" lon="-0.66037">
        <ele>40.9934082</ele>
        <time>2011-08-27T10:27:31Z</time>
      </trkpt>
      <trkpt lat="47.25615" lon="-0.66026">
        <ele>40.0321045</ele>
        <time>2011-08-27T10:27:33Z</time>
      </trkpt>
      <trkpt lat="47.25615" lon="-0.66014">
        <ele>40.5128174</ele>
        <time>2011-08-27T10:27:35Z</time>
      </trkpt>
      <trkpt lat="47.25618" lon="-0.65985">
        <ele>40.5128174</ele>
        <time>2011-08-27T10:27:40Z</time>
      </trkpt>
      <trkpt lat="47.25621" lon="-0.65959">
        <ele>40.0321045</ele>
        <time>2011-08-27T10:27:45Z</time>
      </trkpt>
      <trkpt lat="47.25621" lon="-0.65957">
        <ele>40.5128174</ele>
        <time>2011-08-27T10:27:49Z</time>
      </trkpt>
      <trkpt lat="47.25621" lon="-0.65955">
        <ele>39.0706787</ele>
        <time>2011-08-27T10:27:55Z</time>
      </trkpt>
      <trkpt lat="47.25621" lon="-0.65956">
        <ele>36.6674805</ele>
        <time>2011-08-27T10:28:00Z</time>
      </trkpt>
      <trkpt lat="47.25617" lon="-0.65941">
        <ele>39.0706787</ele>
        <time>2011-08-27T10:28:07Z</time>
      </trkpt>
      <trkpt lat="47.25611" lon="-0.65924">
        <ele>41.473999</ele>
        <time>2011-08-27T10:28:12Z</time>
      </trkpt>
      <trkpt lat="47.25616" lon="-0.65908">
        <ele>42.9160156</ele>
        <time>2011-08-27T10:28:17Z</time>
      </trkpt>
      <trkpt lat="47.25617" lon="-0.65901">
        <ele>44.838623</ele>
        <time>2011-08-27T10:28:20Z</time>
      </trkpt>
      <trkpt lat="47.25622" lon="-0.6588">
        <ele>48.2033691</ele>
        <time>2011-08-27T10:28:28Z</time>
      </trkpt>
      <trkpt lat="47.25621" lon="-0.65865">
        <ele>49.6452637</ele>
        <time>2011-08-27T10:28:33Z</time>
      </trkpt>
      <trkpt lat="47.25615" lon="-0.65857">
        <ele>51.0871582</ele>
        <time>2011-08-27T10:28:38Z</time>
      </trkpt>
      <trkpt lat="47.25606" lon="-0.65848">
        <ele>51.5678711</ele>
        <time>2011-08-27T10:28:45Z</time>
      </trkpt>
      <trkpt lat="47.25604" lon="-0.65845">
        <ele>51.0871582</ele>
        <time>2011-08-27T10:28:47Z</time>
      </trkpt>
      <trkpt lat="47.25597" lon="-0.65831">
        <ele>53.4904785</ele>
        <time>2011-08-27T10:28:55Z</time>
      </trkpt>
      <trkpt lat="47.256" lon="-0.65821">
        <ele>53.9711914</ele>
        <time>2011-08-27T10:29:01Z</time>
      </trkpt>
      <trkpt lat="47.25609" lon="-0.65815">
        <ele>54.932373</ele>
        <time>2011-08-27T10:29:08Z</time>
      </trkpt>
      <trkpt lat="47.25617" lon="-0.6581">
        <ele>56.3745117</ele>
        <time>2011-08-27T10:29:15Z</time>
      </trkpt>
      <trkpt lat="47.25625" lon="-0.65798">
        <ele>56.8551025</ele>
        <time>2011-08-27T10:29:22Z</time>
      </trkpt>
      <trkpt lat="47.2563" lon="-0.65786">
        <ele>56.8551025</ele>
        <time>2011-08-27T10:29:28Z</time>
      </trkpt>
      <trkpt lat="47.25635" lon="-0.65762">
        <ele>56.8551025</ele>
        <time>2011-08-27T10:29:36Z</time>
      </trkpt>
      <trkpt lat="47.25637" lon="-0.65739">
        <ele>58.2971191</ele>
        <time>2011-08-27T10:29:42Z</time>
      </trkpt>
      <trkpt lat="47.25634" lon="-0.65717">
        <ele>59.7391357</ele>
        <time>2011-08-27T10:29:48Z</time>
      </trkpt>
      <trkpt lat="47.25626" lon="-0.65701">
        <ele>61.6617432</ele>
        <time>2011-08-27T10:29:53Z</time>
      </trkpt>
      <trkpt lat="47.25614" lon="-0.6568">
        <ele>65.0263672</ele>
        <time>2011-08-27T10:30:00Z</time>
      </trkpt>
      <trkpt lat="47.25605" lon="-0.65659">
        <ele>65.9876709</ele>
        <time>2011-08-27T10:30:06Z</time>
      </trkpt>
      <trkpt lat="47.25602" lon="-0.65633">
        <ele>65.9876709</ele>
        <time>2011-08-27T10:30:13Z</time>
      </trkpt>
      <trkpt lat="47.256" lon="-0.65608">
        <ele>66.4682617</ele>
        <time>2011-08-27T10:30:20Z</time>
      </trkpt>
      <trkpt lat="47.25603" lon="-0.65588">
        <ele>66.4682617</ele>
        <time>2011-08-27T10:30:26Z</time>
      </trkpt>
      <trkpt lat="47.25611" lon="-0.65561">
        <ele>66.9489746</ele>
        <time>2011-08-27T10:30:36Z</time>
      </trkpt>
      <trkpt lat="47.25619" lon="-0.65538">
        <ele>68.3908691</ele>
        <time>2011-08-27T10:30:45Z</time>
      </trkpt>
      <trkpt lat="47.25624" lon="-0.65521">
        <ele>67.9102783</ele>
        <time>2011-08-27T10:30:50Z</time>
      </trkpt>
      <trkpt lat="47.25633" lon="-0.65499">
        <ele>67.4296875</ele>
        <time>2011-08-27T10:30:56Z</time>
      </trkpt>
      <trkpt lat="47.2565" lon="-0.65461">
        <ele>66.4682617</ele>
        <time>2011-08-27T10:31:05Z</time>
      </trkpt>
      <trkpt lat="47.25661" lon="-0.6543">
        <ele>65.9876709</ele>
        <time>2011-08-27T10:31:11Z</time>
      </trkpt>
      <trkpt lat="47.25675" lon="-0.6539">
        <ele>65.9876709</ele>
        <time>2011-08-27T10:31:19Z</time>
      </trkpt>
      <trkpt lat="47.25682" lon="-0.65366">
        <ele>66.9489746</ele>
        <time>2011-08-27T10:31:24Z</time>
      </trkpt>
      <trkpt lat="47.25693" lon="-0.65332">
        <ele>68.871582</ele>
        <time>2011-08-27T10:31:31Z</time>
      </trkpt>
      <trkpt lat="47.25707" lon="-0.65293">
        <ele>70.3134766</ele>
        <time>2011-08-27T10:31:39Z</time>
      </trkpt>
      <trkpt lat="47.25718" lon="-0.65262">
        <ele>70.7941895</ele>
        <time>2011-08-27T10:31:46Z</time>
      </trkpt>
      <trkpt lat="47.25732" lon="-0.65224">
        <ele>70.7941895</ele>
        <time>2011-08-27T10:31:54Z</time>
      </trkpt>
      <trkpt lat="47.25741" lon="-0.65199">
        <ele>71.2749023</ele>
        <time>2011-08-27T10:31:59Z</time>
      </trkpt>
      <trkpt lat="47.25757" lon="-0.65154">
        <ele>71.2749023</ele>
        <time>2011-08-27T10:32:07Z</time>
      </trkpt>
      <trkpt lat="47.25773" lon="-0.65106">
        <ele>71.7554932</ele>
        <time>2011-08-27T10:32:15Z</time>
      </trkpt>
      <trkpt lat="47.2579" lon="-0.65063">
        <ele>70.7941895</ele>
        <time>2011-08-27T10:32:22Z</time>
      </trkpt>
      <trkpt lat="47.25801" lon="-0.65034">
        <ele>71.2749023</ele>
        <time>2011-08-27T10:32:27Z</time>
      </trkpt>
      <trkpt lat="47.258" lon="-0.65012">
        <ele>71.2749023</ele>
        <time>2011-08-27T10:32:31Z</time>
      </trkpt>
      <trkpt lat="47.25794" lon="-0.65003">
        <ele>71.7554932</ele>
        <time>2011-08-27T10:32:33Z</time>
      </trkpt>
      <trkpt lat="47.25777" lon="-0.6496">
        <ele>73.1976318</ele>
        <time>2011-08-27T10:32:41Z</time>
      </trkpt>
      <trkpt lat="47.25764" lon="-0.64918">
        <ele>74.1588135</ele>
        <time>2011-08-27T10:32:49Z</time>
      </trkpt>
      <trkpt lat="47.25757" lon="-0.64888">
        <ele>75.1202393</ele>
        <time>2011-08-27T10:32:56Z</time>
      </trkpt>
      <trkpt lat="47.25755" lon="-0.64875">
        <ele>75.1202393</ele>
        <time>2011-08-27T10:33:02Z</time>
      </trkpt>
      <trkpt lat="47.25755" lon="-0.64876">
        <ele>76.5621338</ele>
        <time>2011-08-27T10:33:09Z</time>
      </trkpt>
      <trkpt lat="47.25755" lon="-0.64876">
        <ele>78.0040283</ele>
        <time>2011-08-27T10:33:18Z</time>
      </trkpt>
      <trkpt lat="47.25754" lon="-0.64876">
        <ele>78.0040283</ele>
        <time>2011-08-27T10:33:27Z</time>
      </trkpt>
      <trkpt lat="47.25754" lon="-0.64876">
        <ele>77.5234375</ele>
        <time>2011-08-27T10:33:35Z</time>
      </trkpt>
      <trkpt lat="47.25754" lon="-0.64868">
        <ele>77.5234375</ele>
        <time>2011-08-27T10:33:41Z</time>
      </trkpt>
      <trkpt lat="47.2575" lon="-0.64853">
        <ele>77.0428467</ele>
        <time>2011-08-27T10:33:46Z</time>
      </trkpt>
      <trkpt lat="47.25745" lon="-0.64835">
        <ele>77.0428467</ele>
        <time>2011-08-27T10:33:52Z</time>
      </trkpt>
      <trkpt lat="47.25739" lon="-0.64812">
        <ele>76.0814209</ele>
        <time>2011-08-27T10:33:59Z</time>
      </trkpt>
      <trkpt lat="47.25734" lon="-0.64788">
        <ele>74.6395264</ele>
        <time>2011-08-27T10:34:06Z</time>
      </trkpt>
      <trkpt lat="47.25727" lon="-0.64756">
        <ele>73.6782227</ele>
        <time>2011-08-27T10:34:14Z</time>
      </trkpt>
      <trkpt lat="47.2572" lon="-0.64712">
        <ele>73.6782227</ele>
        <time>2011-08-27T10:34:22Z</time>
      </trkpt>
      <trkpt lat="47.25714" lon="-0.64671">
        <ele>73.6782227</ele>
        <time>2011-08-27T10:34:29Z</time>
      </trkpt>
      <trkpt lat="47.25709" lon="-0.64625">
        <ele>74.1588135</ele>
        <time>2011-08-27T10:34:36Z</time>
      </trkpt>
      <trkpt lat="47.25701" lon="-0.64551">
        <ele>74.6395264</ele>
        <time>2011-08-27T10:34:47Z</time>
      </trkpt>
      <trkpt lat="47.25703" lon="-0.64489">
        <ele>75.1202393</ele>
        <time>2011-08-27T10:34:56Z</time>
      </trkpt>
      <trkpt lat="47.25714" lon="-0.64442">
        <ele>75.1202393</ele>
        <time>2011-08-27T10:35:03Z</time>
      </trkpt>
      <trkpt lat="47.25732" lon="-0.64375">
        <ele>75.1202393</ele>
        <time>2011-08-27T10:35:12Z</time>
      </trkpt>
      <trkpt lat="47.25757" lon="-0.64298">
        <ele>75.1202393</ele>
        <time>2011-08-27T10:35:22Z</time>
      </trkpt>
      <trkpt lat="47.25779" lon="-0.6423">
        <ele>75.1202393</ele>
        <time>2011-08-27T10:35:31Z</time>
      </trkpt>
      <trkpt lat="47.25796" lon="-0.6415">
        <ele>75.6008301</ele>
        <time>2011-08-27T10:35:41Z</time>
      </trkpt>
      <trkpt lat="47.25805" lon="-0.64086">
        <ele>75.6008301</ele>
        <time>2011-08-27T10:35:49Z</time>
      </trkpt>
      <trkpt lat="47.2581" lon="-0.64058">
        <ele>75.6008301</ele>
        <time>2011-08-27T10:35:53Z</time>
      </trkpt>
      <trkpt lat="47.25815" lon="-0.64037">
        <ele>75.6008301</ele>
        <time>2011-08-27T10:35:57Z</time>
      </trkpt>
      <trkpt lat="47.25816" lon="-0.64028">
        <ele>74.6395264</ele>
        <time>2011-08-27T10:36:02Z</time>
      </trkpt>
      <trkpt lat="47.25819" lon="-0.64028">
        <ele>76.0814209</ele>
        <time>2011-08-27T10:36:07Z</time>
      </trkpt>
      <trkpt lat="47.25815" lon="-0.64029">
        <ele>76.5621338</ele>
        <time>2011-08-27T10:36:11Z</time>
      </trkpt>
      <trkpt lat="47.25816" lon="-0.64031">
        <ele>76.5621338</ele>
        <time>2011-08-27T10:36:22Z</time>
      </trkpt>
      <trkpt lat="47.25816" lon="-0.64032">
        <ele>76.5621338</ele>
        <time>2011-08-27T10:36:35Z</time>
      </trkpt>
      <trkpt lat="47.25816" lon="-0.64032">
        <ele>76.5621338</ele>
        <time>2011-08-27T10:36:55Z</time>
      </trkpt>
      <trkpt lat="47.25815" lon="-0.64034">
        <ele>76.0814209</ele>
        <time>2011-08-27T10:37:09Z</time>
      </trkpt>
      <trkpt lat="47.25813" lon="-0.64029">
        <ele>76.5621338</ele>
        <time>2011-08-27T10:37:14Z</time>
      </trkpt>
      <trkpt lat="47.25804" lon="-0.64024">
        <ele>76.0814209</ele>
        <time>2011-08-27T10:37:18Z</time>
      </trkpt>
      <trkpt lat="47.25783" lon="-0.64014">
        <ele>76.0814209</ele>
        <time>2011-08-27T10:37:24Z</time>
      </trkpt>
      <trkpt lat="47.25748" lon="-0.63992">
        <ele>75.1202393</ele>
        <time>2011-08-27T10:37:32Z</time>
      </trkpt>
      <trkpt lat="47.25716" lon="-0.63967">
        <ele>73.6782227</ele>
        <time>2011-08-27T10:37:38Z</time>
      </trkpt>
      <trkpt lat="47.25675" lon="-0.63938">
        <ele>72.7169189</ele>
        <time>2011-08-27T10:37:45Z</time>
      </trkpt>
      <trkpt lat="47.25639" lon="-0.63908">
        <ele>73.6782227</ele>
        <time>2011-08-27T10:37:52Z</time>
      </trkpt>
      <trkpt lat="47.25605" lon="-0.63875">
        <ele>74.1588135</ele>
        <time>2011-08-27T10:37:59Z</time>
      </trkpt>
      <trkpt lat="47.2559" lon="-0.63859">
        <ele>74.6395264</ele>
        <time>2011-08-27T10:38:02Z</time>
      </trkpt>
      <trkpt lat="47.2557" lon="-0.63837">
        <ele>75.6008301</ele>
        <time>2011-08-27T10:38:06Z</time>
      </trkpt>
      <trkpt lat="47.2556" lon="-0.63827">
        <ele>75.1202393</ele>
        <time>2011-08-27T10:38:08Z</time>
      </trkpt>
      <trkpt lat="47.25527" lon="-0.63793">
        <ele>76.5621338</ele>
        <time>2011-08-27T10:38:15Z</time>
      </trkpt>
      <trkpt lat="47.25483" lon="-0.63745">
        <ele>75.6008301</ele>
        <time>2011-08-27T10:38:24Z</time>
      </trkpt>
      <trkpt lat="47.25455" lon="-0.637">
        <ele>73.1976318</ele>
        <time>2011-08-27T10:38:30Z</time>
      </trkpt>
      <trkpt lat="47.25422" lon="-0.63662">
        <ele>72.7169189</ele>
        <time>2011-08-27T10:38:36Z</time>
      </trkpt>
      <trkpt lat="47.25387" lon="-0.63644">
        <ele>72.2362061</ele>
        <time>2011-08-27T10:38:42Z</time>
      </trkpt>
      <trkpt lat="47.25346" lon="-0.63645">
        <ele>70.7941895</ele>
        <time>2011-08-27T10:38:49Z</time>
      </trkpt>
      <trkpt lat="47.25311" lon="-0.63654">
        <ele>71.2749023</ele>
        <time>2011-08-27T10:38:55Z</time>
      </trkpt>
      <trkpt lat="47.25277" lon="-0.63643">
        <ele>72.7169189</ele>
        <time>2011-08-27T10:39:01Z</time>
      </trkpt>
      <trkpt lat="47.2525" lon="-0.63609">
        <ele>74.6395264</ele>
        <time>2011-08-27T10:39:07Z</time>
      </trkpt>
      <trkpt lat="47.25233" lon="-0.63539">
        <ele>77.0428467</ele>
        <time>2011-08-27T10:39:16Z</time>
      </trkpt>
      <trkpt lat="47.25225" lon="-0.63498">
        <ele>78.0040283</ele>
        <time>2011-08-27T10:39:22Z</time>
      </trkpt>
      <trkpt lat="47.25214" lon="-0.63439">
        <ele>79.4460449</ele>
        <time>2011-08-27T10:39:31Z</time>
      </trkpt>
      <trkpt lat="47.25206" lon="-0.63385">
        <ele>80.4074707</ele>
        <time>2011-08-27T10:39:39Z</time>
      </trkpt>
      <trkpt lat="47.25199" lon="-0.63334">
        <ele>81.3687744</ele>
        <time>2011-08-27T10:39:47Z</time>
      </trkpt>
      <trkpt lat="47.25189" lon="-0.63282">
        <ele>82.3300781</ele>
        <time>2011-08-27T10:39:54Z</time>
      </trkpt>
      <trkpt lat="47.25187" lon="-0.63275">
        <ele>82.3300781</ele>
        <time>2011-08-27T10:39:55Z</time>
      </trkpt>
      <trkpt lat="47.25161" lon="-0.63226">
        <ele>83.7719727</ele>
        <time>2011-08-27T10:40:03Z</time>
      </trkpt>
      <trkpt lat="47.2512" lon="-0.63174">
        <ele>83.7719727</ele>
        <time>2011-08-27T10:40:13Z</time>
      </trkpt>
      <trkpt lat="47.25087" lon="-0.63131">
        <ele>84.2526855</ele>
        <time>2011-08-27T10:40:21Z</time>
      </trkpt>
      <trkpt lat="47.25059" lon="-0.63083">
        <ele>85.6945801</ele>
        <time>2011-08-27T10:40:29Z</time>
      </trkpt>
      <trkpt lat="47.25029" lon="-0.63038">
        <ele>86.6560059</ele>
        <time>2011-08-27T10:40:37Z</time>
      </trkpt>
      <trkpt lat="47.24999" lon="-0.63012">
        <ele>87.1365967</ele>
        <time>2011-08-27T10:40:44Z</time>
      </trkpt>
      <trkpt lat="47.24948" lon="-0.62973">
        <ele>84.2526855</ele>
        <time>2011-08-27T10:40:56Z</time>
      </trkpt>
      <trkpt lat="47.24901" lon="-0.6294">
        <ele>82.3300781</ele>
        <time>2011-08-27T10:41:07Z</time>
      </trkpt>
      <trkpt lat="47.24857" lon="-0.62912">
        <ele>83.7719727</ele>
        <time>2011-08-27T10:41:17Z</time>
      </trkpt>
      <trkpt lat="47.24821" lon="-0.62889">
        <ele>86.6560059</ele>
        <time>2011-08-27T10:41:26Z</time>
      </trkpt>
      <trkpt lat="47.24793" lon="-0.6287">
        <ele>89.539917</ele>
        <time>2011-08-27T10:41:34Z</time>
      </trkpt>
      <trkpt lat="47.24771" lon="-0.62852">
        <ele>91.4625244</ele>
        <time>2011-08-27T10:41:41Z</time>
      </trkpt>
      <trkpt lat="47.24745" lon="-0.62823">
        <ele>92.904541</ele>
        <time>2011-08-27T10:41:50Z</time>
      </trkpt>
      <trkpt lat="47.24715" lon="-0.62789">
        <ele>94.3465576</ele>
        <time>2011-08-27T10:42:00Z</time>
      </trkpt>
      <trkpt lat="47.2469" lon="-0.62759">
        <ele>95.3077393</ele>
        <time>2011-08-27T10:42:07Z</time>
      </trkpt>
      <trkpt lat="47.24662" lon="-0.62726">
        <ele>94.3465576</ele>
        <time>2011-08-27T10:42:13Z</time>
      </trkpt>
      <trkpt lat="47.24632" lon="-0.62691">
        <ele>92.4239502</ele>
        <time>2011-08-27T10:42:18Z</time>
      </trkpt>
      <trkpt lat="47.24589" lon="-0.62638">
        <ele>89.0593262</ele>
        <time>2011-08-27T10:42:24Z</time>
      </trkpt>
      <trkpt lat="47.24549" lon="-0.6259">
        <ele>87.1365967</ele>
        <time>2011-08-27T10:42:29Z</time>
      </trkpt>
      <trkpt lat="47.24513" lon="-0.62566">
        <ele>86.6560059</ele>
        <time>2011-08-27T10:42:33Z</time>
      </trkpt>
      <trkpt lat="47.24457" lon="-0.62547">
        <ele>85.6945801</ele>
        <time>2011-08-27T10:42:40Z</time>
      </trkpt>
      <trkpt lat="47.2441" lon="-0.62524">
        <ele>86.175293</ele>
        <time>2011-08-27T10:42:47Z</time>
      </trkpt>
      <trkpt lat="47.24387" lon="-0.62511">
        <ele>86.6560059</ele>
        <time>2011-08-27T10:42:51Z</time>
      </trkpt>
      <trkpt lat="47.2438" lon="-0.62493">
        <ele>86.6560059</ele>
        <time>2011-08-27T10:42:54Z</time>
      </trkpt>
      <trkpt lat="47.24385" lon="-0.6248">
        <ele>86.6560059</ele>
        <time>2011-08-27T10:42:56Z</time>
      </trkpt>
      <trkpt lat="47.2439" lon="-0.62472">
        <ele>86.6560059</ele>
        <time>2011-08-27T10:42:58Z</time>
      </trkpt>
      <trkpt lat="47.2439" lon="-0.62472">
        <ele>87.1365967</ele>
        <time>2011-08-27T10:43:06Z</time>
      </trkpt>
      <trkpt lat="47.2439" lon="-0.62472">
        <ele>87.6171875</ele>
        <time>2011-08-27T10:43:12Z</time>
      </trkpt>
      <trkpt lat="47.24389" lon="-0.62469">
        <ele>87.1365967</ele>
        <time>2011-08-27T10:43:18Z</time>
      </trkpt>
      <trkpt lat="47.24382" lon="-0.62463">
        <ele>87.1365967</ele>
        <time>2011-08-27T10:43:23Z</time>
      </trkpt>
      <trkpt lat="47.24367" lon="-0.62446">
        <ele>86.6560059</ele>
        <time>2011-08-27T10:43:32Z</time>
      </trkpt>
      <trkpt lat="47.24366" lon="-0.62446">
        <ele>87.6171875</ele>
        <time>2011-08-27T10:43:36Z</time>
      </trkpt>
      <trkpt lat="47.24365" lon="-0.62444">
        <ele>87.6171875</ele>
        <time>2011-08-27T10:43:43Z</time>
      </trkpt>
      <trkpt lat="47.24364" lon="-0.6244">
        <ele>89.0593262</ele>
        <time>2011-08-27T10:43:53Z</time>
      </trkpt>
      <trkpt lat="47.24362" lon="-0.62437">
        <ele>89.539917</ele>
        <time>2011-08-27T10:43:59Z</time>
      </trkpt>
      <trkpt lat="47.24363" lon="-0.6244">
        <ele>89.0593262</ele>
        <time>2011-08-27T10:44:05Z</time>
      </trkpt>
      <trkpt lat="47.24364" lon="-0.62443">
        <ele>89.0593262</ele>
        <time>2011-08-27T10:44:08Z</time>
      </trkpt>
      <trkpt lat="47.24364" lon="-0.62445">
        <ele>88.5787354</ele>
        <time>2011-08-27T10:44:15Z</time>
      </trkpt>
      <trkpt lat="47.24367" lon="-0.62448">
        <ele>88.5787354</ele>
        <time>2011-08-27T10:44:21Z</time>
      </trkpt>
      <trkpt lat="47.24371" lon="-0.62448">
        <ele>90.5013428</ele>
        <time>2011-08-27T10:44:26Z</time>
      </trkpt>
      <trkpt lat="47.24367" lon="-0.62448">
        <ele>87.1365967</ele>
        <time>2011-08-27T10:44:39Z</time>
      </trkpt>
      <trkpt lat="47.24357" lon="-0.62449">
        <ele>90.5013428</ele>
        <time>2011-08-27T10:44:44Z</time>
      </trkpt>
      <trkpt lat="47.24357" lon="-0.62451">
        <ele>91.4625244</ele>
        <time>2011-08-27T10:44:48Z</time>
      </trkpt>
      <trkpt lat="47.24358" lon="-0.62453">
        <ele>91.9432373</ele>
        <time>2011-08-27T10:44:54Z</time>
      </trkpt>
      <trkpt lat="47.24361" lon="-0.62457">
        <ele>91.9432373</ele>
        <time>2011-08-27T10:44:57Z</time>
      </trkpt>
      <trkpt lat="47.24358" lon="-0.62458">
        <ele>89.0593262</ele>
        <time>2011-08-27T10:45:01Z</time>
      </trkpt>
      <trkpt lat="47.24358" lon="-0.62458">
        <ele>89.0593262</ele>
        <time>2011-08-27T10:45:06Z</time>
      </trkpt>
      <trkpt lat="47.24355" lon="-0.62456">
        <ele>88.5787354</ele>
        <time>2011-08-27T10:45:13Z</time>
      </trkpt>
      <trkpt lat="47.24359" lon="-0.62455">
        <ele>89.539917</ele>
        <time>2011-08-27T10:45:18Z</time>
      </trkpt>
      <trkpt lat="47.24361" lon="-0.62449">
        <ele>87.1365967</ele>
        <time>2011-08-27T10:45:23Z</time>
      </trkpt>
      <trkpt lat="47.24362" lon="-0.62452">
        <ele>86.175293</ele>
        <time>2011-08-27T10:45:35Z</time>
      </trkpt>
      <trkpt lat="47.24361" lon="-0.62452">
        <ele>85.2139893</ele>
        <time>2011-08-27T10:45:36Z</time>
      </trkpt>
      <trkpt lat="47.24364" lon="-0.62456">
        <ele>83.7719727</ele>
        <time>2011-08-27T10:45:42Z</time>
      </trkpt>
      <trkpt lat="47.24365" lon="-0.62455">
        <ele>88.5787354</ele>
        <time>2011-08-27T10:45:47Z</time>
      </trkpt>
      <trkpt lat="47.24361" lon="-0.62451">
        <ele>91.9432373</ele>
        <time>2011-08-27T10:45:54Z</time>
      </trkpt>
      <trkpt lat="47.24361" lon="-0.62458">
        <ele>88.0980225</ele>
        <time>2011-08-27T10:46:19Z</time>
      </trkpt>
      <trkpt lat="47.24357" lon="-0.62463">
        <ele>85.2139893</ele>
        <time>2011-08-27T10:46:29Z</time>
      </trkpt>
      <trkpt lat="47.24355" lon="-0.62461">
        <ele>87.1365967</ele>
        <time>2011-08-27T10:46:35Z</time>
      </trkpt>
      <trkpt lat="47.24356" lon="-0.62454">
        <ele>91.4625244</ele>
        <time>2011-08-27T10:46:58Z</time>
      </trkpt>
      <trkpt lat="47.24359" lon="-0.62452">
        <ele>94.8271484</ele>
        <time>2011-08-27T10:47:03Z</time>
      </trkpt>
      <trkpt lat="47.24361" lon="-0.62453">
        <ele>96.7498779</ele>
        <time>2011-08-27T10:47:11Z</time>
      </trkpt>
      <trkpt lat="47.24357" lon="-0.62453">
        <ele>91.9432373</ele>
        <time>2011-08-27T10:47:21Z</time>
      </trkpt>
      <trkpt lat="47.24355" lon="-0.62453">
        <ele>88.0980225</ele>
        <time>2011-08-27T10:47:30Z</time>
      </trkpt>
      <trkpt lat="47.24351" lon="-0.62458">
        <ele>86.6560059</ele>
        <time>2011-08-27T10:47:36Z</time>
      </trkpt>
      <trkpt lat="47.24356" lon="-0.62454">
        <ele>90.0206299</ele>
        <time>2011-08-27T10:47:41Z</time>
      </trkpt>
      <trkpt lat="47.24358" lon="-0.62456">
        <ele>90.9819336</ele>
        <time>2011-08-27T10:47:47Z</time>
      </trkpt>
      <trkpt lat="47.24359" lon="-0.62457">
        <ele>90.9819336</ele>
        <time>2011-08-27T10:47:49Z</time>
      </trkpt>
      <trkpt lat="47.24361" lon="-0.62454">
        <ele>88.5787354</ele>
        <time>2011-08-27T10:48:04Z</time>
      </trkpt>
      <trkpt lat="47.24358" lon="-0.62451">
        <ele>86.175293</ele>
        <time>2011-08-27T10:48:26Z</time>
      </trkpt>
      <trkpt lat="47.24355" lon="-0.62453">
        <ele>91.9432373</ele>
        <time>2011-08-27T10:48:35Z</time>
      </trkpt>
      <trkpt lat="47.24358" lon="-0.6245">
        <ele>98.1918945</ele>
        <time>2011-08-27T10:48:44Z</time>
      </trkpt>
      <trkpt lat="47.24358" lon="-0.62448">
        <ele>99.1530762</ele>
        <time>2011-08-27T10:48:48Z</time>
      </trkpt>
      <trkpt lat="47.24356" lon="-0.62445">
        <ele>92.904541</ele>
        <time>2011-08-27T10:48:55Z</time>
      </trkpt>
      <trkpt lat="47.24356" lon="-0.62437">
        <ele>82.810791</ele>
        <time>2011-08-27T10:49:08Z</time>
      </trkpt>
      <trkpt lat="47.24357" lon="-0.62437">
        <ele>76.0814209</ele>
        <time>2011-08-27T10:49:13Z</time>
      </trkpt>
      <trkpt lat="47.24357" lon="-0.62445">
        <ele>77.5234375</ele>
        <time>2011-08-27T10:49:25Z</time>
      </trkpt>
      <trkpt lat="47.24355" lon="-0.62454">
        <ele>80.4074707</ele>
        <time>2011-08-27T10:49:45Z</time>
      </trkpt>
      <trkpt lat="47.24354" lon="-0.62456">
        <ele>78.4847412</ele>
        <time>2011-08-27T10:49:52Z</time>
      </trkpt>
      <trkpt lat="47.2435" lon="-0.62452">
        <ele>84.7333984</ele>
        <time>2011-08-27T10:50:00Z</time>
      </trkpt>
      <trkpt lat="47.2435" lon="-0.6245">
        <ele>91.9432373</ele>
        <time>2011-08-27T10:50:16Z</time>
      </trkpt>
      <trkpt lat="47.24348" lon="-0.62452">
        <ele>91.9432373</ele>
        <time>2011-08-27T10:50:29Z</time>
      </trkpt>
      <trkpt lat="47.2435" lon="-0.62458">
        <ele>85.2139893</ele>
        <time>2011-08-27T10:50:38Z</time>
      </trkpt>
      <trkpt lat="47.24353" lon="-0.62456">
        <ele>88.0980225</ele>
        <time>2011-08-27T10:50:52Z</time>
      </trkpt>
      <trkpt lat="47.24355" lon="-0.62459">
        <ele>84.7333984</ele>
        <time>2011-08-27T10:51:03Z</time>
      </trkpt>
      <trkpt lat="47.24355" lon="-0.62459">
        <ele>84.2526855</ele>
        <time>2011-08-27T10:51:04Z</time>
      </trkpt>
      <trkpt lat="47.24355" lon="-0.62459">
        <ele>83.2913818</ele>
        <time>2011-08-27T10:51:05Z</time>
      </trkpt>
      <trkpt lat="47.24355" lon="-0.62459">
        <ele>84.2526855</ele>
        <time>2011-08-27T10:51:10Z</time>
      </trkpt>
      <trkpt lat="47.24355" lon="-0.6246">
        <ele>83.2913818</ele>
        <time>2011-08-27T10:51:11Z</time>
      </trkpt>
      <trkpt lat="47.24359" lon="-0.62454">
        <ele>91.4625244</ele>
        <time>2011-08-27T10:51:35Z</time>
      </trkpt>
      <trkpt lat="47.24359" lon="-0.62458">
        <ele>91.4625244</ele>
        <time>2011-08-27T10:51:45Z</time>
      </trkpt>
      <trkpt lat="47.24356" lon="-0.62457">
        <ele>89.0593262</ele>
        <time>2011-08-27T10:52:06Z</time>
      </trkpt>
      <trkpt lat="47.24355" lon="-0.62457">
        <ele>88.0980225</ele>
        <time>2011-08-27T10:52:07Z</time>
      </trkpt>
      <trkpt lat="47.24355" lon="-0.62458">
        <ele>87.6171875</ele>
        <time>2011-08-27T10:52:08Z</time>
      </trkpt>
      <trkpt lat="47.24355" lon="-0.62458">
        <ele>86.6560059</ele>
        <time>2011-08-27T10:52:16Z</time>
      </trkpt>
      <trkpt lat="47.24356" lon="-0.62456">
        <ele>92.904541</ele>
        <time>2011-08-27T10:52:28Z</time>
      </trkpt>
      <trkpt lat="47.24355" lon="-0.62455">
        <ele>88.5787354</ele>
        <time>2011-08-27T10:52:38Z</time>
      </trkpt>
      <trkpt lat="47.24354" lon="-0.62458">
        <ele>89.539917</ele>
        <time>2011-08-27T10:52:44Z</time>
      </trkpt>
      <trkpt lat="47.24357" lon="-0.62457">
        <ele>90.0206299</ele>
        <time>2011-08-27T10:52:50Z</time>
      </trkpt>
      <trkpt lat="47.24356" lon="-0.62454">
        <ele>98.6724854</ele>
        <time>2011-08-27T10:52:56Z</time>
      </trkpt>
      <trkpt lat="47.24356" lon="-0.62456">
        <ele>96.7498779</ele>
        <time>2011-08-27T10:53:03Z</time>
      </trkpt>
      <trkpt lat="47.24357" lon="-0.6246">
        <ele>87.6171875</ele>
        <time>2011-08-27T10:53:10Z</time>
      </trkpt>
      <trkpt lat="47.24359" lon="-0.62458">
        <ele>88.0980225</ele>
        <time>2011-08-27T10:53:17Z</time>
      </trkpt>
      <trkpt lat="47.24359" lon="-0.62457">
        <ele>91.9432373</ele>
        <time>2011-08-27T10:53:24Z</time>
      </trkpt>
      <trkpt lat="47.24361" lon="-0.62454">
        <ele>94.8271484</ele>
        <time>2011-08-27T10:53:27Z</time>
      </trkpt>
      <trkpt lat="47.24363" lon="-0.62451">
        <ele>93.3851318</ele>
        <time>2011-08-27T10:53:29Z</time>
      </trkpt>
      <trkpt lat="47.2436" lon="-0.62448">
        <ele>94.8271484</ele>
        <time>2011-08-27T10:53:34Z</time>
      </trkpt>
      <trkpt lat="47.24363" lon="-0.62444">
        <ele>90.5013428</ele>
        <time>2011-08-27T10:53:39Z</time>
      </trkpt>
      <trkpt lat="47.24364" lon="-0.6244">
        <ele>90.9819336</ele>
        <time>2011-08-27T10:53:43Z</time>
      </trkpt>
      <trkpt lat="47.24365" lon="-0.6244">
        <ele>89.0593262</ele>
        <time>2011-08-27T10:53:49Z</time>
      </trkpt>
      <trkpt lat="47.24365" lon="-0.62438">
        <ele>91.4625244</ele>
        <time>2011-08-27T10:53:58Z</time>
      </trkpt>
      <trkpt lat="47.24366" lon="-0.62436">
        <ele>94.3465576</ele>
        <time>2011-08-27T10:54:03Z</time>
      </trkpt>
      <trkpt lat="47.24365" lon="-0.62434">
        <ele>94.3465576</ele>
        <time>2011-08-27T10:54:06Z</time>
      </trkpt>
      <trkpt lat="47.24364" lon="-0.62434">
        <ele>93.3851318</ele>
        <time>2011-08-27T10:54:12Z</time>
      </trkpt>
      <trkpt lat="47.24364" lon="-0.62435">
        <ele>92.4239502</ele>
        <time>2011-08-27T10:54:18Z</time>
      </trkpt>
      <trkpt lat="47.24369" lon="-0.6244">
        <ele>90.9819336</ele>
        <time>2011-08-27T10:54:24Z</time>
      </trkpt>
      <trkpt lat="47.24376" lon="-0.62451">
        <ele>90.0206299</ele>
        <time>2011-08-27T10:54:31Z</time>
      </trkpt>
      <trkpt lat="47.24382" lon="-0.62461">
        <ele>89.0593262</ele>
        <time>2011-08-27T10:54:36Z</time>
      </trkpt>
      <trkpt lat="47.24384" lon="-0.62467">
        <ele>88.5787354</ele>
        <time>2011-08-27T10:54:38Z</time>
      </trkpt>
      <trkpt lat="47.24381" lon="-0.62489">
        <ele>88.0980225</ele>
        <time>2011-08-27T10:54:44Z</time>
      </trkpt>
      <trkpt lat="47.24379" lon="-0.62492">
        <ele>88.5787354</ele>
        <time>2011-08-27T10:54:45Z</time>
      </trkpt>
      <trkpt lat="47.24369" lon="-0.62501">
        <ele>89.539917</ele>
        <time>2011-08-27T10:54:50Z</time>
      </trkpt>
      <trkpt lat="47.2435" lon="-0.62497">
        <ele>89.539917</ele>
        <time>2011-08-27T10:54:56Z</time>
      </trkpt>
      <trkpt lat="47.24324" lon="-0.62485">
        <ele>89.0593262</ele>
        <time>2011-08-27T10:55:03Z</time>
      </trkpt>
      <trkpt lat="47.24285" lon="-0.62464">
        <ele>87.1365967</ele>
        <time>2011-08-27T10:55:12Z</time>
      </trkpt>
      <trkpt lat="47.24262" lon="-0.62448">
        <ele>87.6171875</ele>
        <time>2011-08-27T10:55:17Z</time>
      </trkpt>
      <trkpt lat="47.24229" lon="-0.62425">
        <ele>87.6171875</ele>
        <time>2011-08-27T10:55:24Z</time>
      </trkpt>
      <trkpt lat="47.24196" lon="-0.62399">
        <ele>86.6560059</ele>
        <time>2011-08-27T10:55:31Z</time>
      </trkpt>
      <trkpt lat="47.24162" lon="-0.62369">
        <ele>86.6560059</ele>
        <time>2011-08-27T10:55:38Z</time>
      </trkpt>
      <trkpt lat="47.2412" lon="-0.62335">
        <ele>85.6945801</ele>
        <time>2011-08-27T10:55:46Z</time>
      </trkpt>
      <trkpt lat="47.2407" lon="-0.62293">
        <ele>86.6560059</ele>
        <time>2011-08-27T10:55:55Z</time>
      </trkpt>
      <trkpt lat="47.24009" lon="-0.62239">
        <ele>85.6945801</ele>
        <time>2011-08-27T10:56:06Z</time>
      </trkpt>
      <trkpt lat="47.23967" lon="-0.62191">
        <ele>83.7719727</ele>
        <time>2011-08-27T10:56:14Z</time>
      </trkpt>
      <trkpt lat="47.23943" lon="-0.62144">
        <ele>82.3300781</ele>
        <time>2011-08-27T10:56:20Z</time>
      </trkpt>
      <trkpt lat="47.23922" lon="-0.62078">
        <ele>82.810791</ele>
        <time>2011-08-27T10:56:27Z</time>
      </trkpt>
      <trkpt lat="47.23895" lon="-0.61992">
        <ele>81.8493652</ele>
        <time>2011-08-27T10:56:36Z</time>
      </trkpt>
      <trkpt lat="47.23882" lon="-0.61968">
        <ele>80.8881836</ele>
        <time>2011-08-27T10:56:39Z</time>
      </trkpt>
      <trkpt lat="47.23873" lon="-0.61952">
        <ele>80.8881836</ele>
        <time>2011-08-27T10:56:41Z</time>
      </trkpt>
      <trkpt lat="47.23835" lon="-0.61889">
        <ele>79.4460449</ele>
        <time>2011-08-27T10:56:49Z</time>
      </trkpt>
      <trkpt lat="47.23793" lon="-0.6182">
        <ele>76.5621338</ele>
        <time>2011-08-27T10:56:58Z</time>
      </trkpt>
      <trkpt lat="47.23766" lon="-0.61792">
        <ele>76.0814209</ele>
        <time>2011-08-27T10:57:03Z</time>
      </trkpt>
      <trkpt lat="47.23737" lon="-0.61775">
        <ele>75.6008301</ele>
        <time>2011-08-27T10:57:08Z</time>
      </trkpt>
      <trkpt lat="47.23727" lon="-0.61772">
        <ele>76.0814209</ele>
        <time>2011-08-27T10:57:10Z</time>
      </trkpt>
      <trkpt lat="47.23684" lon="-0.61746">
        <ele>76.0814209</ele>
        <time>2011-08-27T10:57:18Z</time>
      </trkpt>
      <trkpt lat="47.23664" lon="-0.6173">
        <ele>75.6008301</ele>
        <time>2011-08-27T10:57:22Z</time>
      </trkpt>
      <trkpt lat="47.23629" lon="-0.61699">
        <ele>75.1202393</ele>
        <time>2011-08-27T10:57:29Z</time>
      </trkpt>
      <trkpt lat="47.23582" lon="-0.61667">
        <ele>72.2362061</ele>
        <time>2011-08-27T10:57:38Z</time>
      </trkpt>
      <trkpt lat="47.23528" lon="-0.61643">
        <ele>71.7554932</ele>
        <time>2011-08-27T10:57:47Z</time>
      </trkpt>
      <trkpt lat="47.23476" lon="-0.61618">
        <ele>73.6782227</ele>
        <time>2011-08-27T10:57:56Z</time>
      </trkpt>
      <trkpt lat="47.23439" lon="-0.61588">
        <ele>74.1588135</ele>
        <time>2011-08-27T10:58:03Z</time>
      </trkpt>
      <trkpt lat="47.23405" lon="-0.61557">
        <ele>76.5621338</ele>
        <time>2011-08-27T10:58:10Z</time>
      </trkpt>
      <trkpt lat="47.23388" lon="-0.61542">
        <ele>76.0814209</ele>
        <time>2011-08-27T10:58:14Z</time>
      </trkpt>
      <trkpt lat="47.23364" lon="-0.61519">
        <ele>75.6008301</ele>
        <time>2011-08-27T10:58:20Z</time>
      </trkpt>
      <trkpt lat="47.23337" lon="-0.61483">
        <ele>75.1202393</ele>
        <time>2011-08-27T10:58:27Z</time>
      </trkpt>
      <trkpt lat="47.23315" lon="-0.61463">
        <ele>76.0814209</ele>
        <time>2011-08-27T10:58:32Z</time>
      </trkpt>
      <trkpt lat="47.23276" lon="-0.61451">
        <ele>77.5234375</ele>
        <time>2011-08-27T10:58:40Z</time>
      </trkpt>
      <trkpt lat="47.23249" lon="-0.61435">
        <ele>78.9654541</ele>
        <time>2011-08-27T10:58:46Z</time>
      </trkpt>
      <trkpt lat="47.23215" lon="-0.61398">
        <ele>77.5234375</ele>
        <time>2011-08-27T10:58:54Z</time>
      </trkpt>
      <trkpt lat="47.23171" lon="-0.61347">
        <ele>76.5621338</ele>
        <time>2011-08-27T10:59:04Z</time>
      </trkpt>
      <trkpt lat="47.23135" lon="-0.61305">
        <ele>74.6395264</ele>
        <time>2011-08-27T10:59:12Z</time>
      </trkpt>
      <trkpt lat="47.23102" lon="-0.61264">
        <ele>72.2362061</ele>
        <time>2011-08-27T10:59:19Z</time>
      </trkpt>
      <trkpt lat="47.23087" lon="-0.61245">
        <ele>72.7169189</ele>
        <time>2011-08-27T10:59:22Z</time>
      </trkpt>
      <trkpt lat="47.23055" lon="-0.61209">
        <ele>72.7169189</ele>
        <time>2011-08-27T10:59:28Z</time>
      </trkpt>
      <trkpt lat="47.23009" lon="-0.6116">
        <ele>73.6782227</ele>
        <time>2011-08-27T10:59:37Z</time>
      </trkpt>
      <trkpt lat="47.22968" lon="-0.61125">
        <ele>71.7554932</ele>
        <time>2011-08-27T10:59:45Z</time>
      </trkpt>
      <trkpt lat="47.22917" lon="-0.61083">
        <ele>69.8328857</ele>
        <time>2011-08-27T10:59:55Z</time>
      </trkpt>
      <trkpt lat="47.22863" lon="-0.61035">
        <ele>67.9102783</ele>
        <time>2011-08-27T11:00:06Z</time>
      </trkpt>
      <trkpt lat="47.22821" lon="-0.60999">
        <ele>68.871582</ele>
        <time>2011-08-27T11:00:14Z</time>
      </trkpt>
      <trkpt lat="47.22767" lon="-0.60952">
        <ele>69.3522949</ele>
        <time>2011-08-27T11:00:24Z</time>
      </trkpt>
      <trkpt lat="47.22712" lon="-0.60904">
        <ele>70.3134766</ele>
        <time>2011-08-27T11:00:34Z</time>
      </trkpt>
      <trkpt lat="47.22657" lon="-0.60857">
        <ele>72.2362061</ele>
        <time>2011-08-27T11:00:44Z</time>
      </trkpt>
      <trkpt lat="47.22603" lon="-0.60809">
        <ele>73.1976318</ele>
        <time>2011-08-27T11:00:54Z</time>
      </trkpt>
      <trkpt lat="47.22554" lon="-0.60766">
        <ele>74.1588135</ele>
        <time>2011-08-27T11:01:03Z</time>
      </trkpt>
      <trkpt lat="47.22509" lon="-0.60729">
        <ele>74.1588135</ele>
        <time>2011-08-27T11:01:11Z</time>
      </trkpt>
      <trkpt lat="47.22453" lon="-0.60685">
        <ele>73.6782227</ele>
        <time>2011-08-27T11:01:21Z</time>
      </trkpt>
      <trkpt lat="47.22407" lon="-0.60653">
        <ele>73.1976318</ele>
        <time>2011-08-27T11:01:29Z</time>
      </trkpt>
      <trkpt lat="47.22369" lon="-0.60642">
        <ele>74.1588135</ele>
        <time>2011-08-27T11:01:35Z</time>
      </trkpt>
      <trkpt lat="47.22312" lon="-0.60642">
        <ele>75.1202393</ele>
        <time>2011-08-27T11:01:44Z</time>
      </trkpt>
      <trkpt lat="47.22249" lon="-0.60641">
        <ele>75.6008301</ele>
        <time>2011-08-27T11:01:54Z</time>
      </trkpt>
      <trkpt lat="47.22198" lon="-0.60637">
        <ele>76.0814209</ele>
        <time>2011-08-27T11:02:02Z</time>
      </trkpt>
      <trkpt lat="47.22126" lon="-0.60625">
        <ele>75.6008301</ele>
        <time>2011-08-27T11:02:13Z</time>
      </trkpt>
      <trkpt lat="47.2206" lon="-0.60619">
        <ele>75.6008301</ele>
        <time>2011-08-27T11:02:23Z</time>
      </trkpt>
      <trkpt lat="47.21999" lon="-0.60611">
        <ele>76.0814209</ele>
        <time>2011-08-27T11:02:32Z</time>
      </trkpt>
      <trkpt lat="47.21966" lon="-0.60608">
        <ele>76.0814209</ele>
        <time>2011-08-27T11:02:37Z</time>
      </trkpt>
      <trkpt lat="47.2191" lon="-0.60622">
        <ele>75.1202393</ele>
        <time>2011-08-27T11:02:46Z</time>
      </trkpt>
      <trkpt lat="47.21864" lon="-0.60635">
        <ele>74.1588135</ele>
        <time>2011-08-27T11:02:53Z</time>
      </trkpt>
      <trkpt lat="47.2183" lon="-0.60628">
        <ele>72.2362061</ele>
        <time>2011-08-27T11:02:58Z</time>
      </trkpt>
      <trkpt lat="47.21796" lon="-0.60624">
        <ele>69.3522949</ele>
        <time>2011-08-27T11:03:03Z</time>
      </trkpt>
      <trkpt lat="47.2179" lon="-0.60624">
        <ele>69.8328857</ele>
        <time>2011-08-27T11:03:04Z</time>
      </trkpt>
      <trkpt lat="47.21774" lon="-0.6063">
        <ele>70.7941895</ele>
        <time>2011-08-27T11:03:07Z</time>
      </trkpt>
      <trkpt lat="47.21767" lon="-0.60638">
        <ele>69.8328857</ele>
        <time>2011-08-27T11:03:10Z</time>
      </trkpt>
      <trkpt lat="47.21766" lon="-0.60649">
        <ele>69.3522949</ele>
        <time>2011-08-27T11:03:14Z</time>
      </trkpt>
      <trkpt lat="47.21773" lon="-0.60672">
        <ele>68.871582</ele>
        <time>2011-08-27T11:03:21Z</time>
      </trkpt>
      <trkpt lat="47.21775" lon="-0.60679">
        <ele>69.3522949</ele>
        <time>2011-08-27T11:03:23Z</time>
      </trkpt>
      <trkpt lat="47.21781" lon="-0.60701">
        <ele>69.8328857</ele>
        <time>2011-08-27T11:03:29Z</time>
      </trkpt>
      <trkpt lat="47.21776" lon="-0.60711">
        <ele>71.7554932</ele>
        <time>2011-08-27T11:03:33Z</time>
      </trkpt>
      <trkpt lat="47.21779" lon="-0.60716">
        <ele>71.7554932</ele>
        <time>2011-08-27T11:03:36Z</time>
      </trkpt>
      <trkpt lat="47.21776" lon="-0.60711">
        <ele>71.7554932</ele>
        <time>2011-08-27T11:03:39Z</time>
      </trkpt>
      <trkpt lat="47.21772" lon="-0.60717">
        <ele>72.2362061</ele>
        <time>2011-08-27T11:03:43Z</time>
      </trkpt>
      <trkpt lat="47.21778" lon="-0.6072">
        <ele>72.7169189</ele>
        <time>2011-08-27T11:03:48Z</time>
      </trkpt>
      <trkpt lat="47.21778" lon="-0.60713">
        <ele>72.7169189</ele>
        <time>2011-08-27T11:03:52Z</time>
      </trkpt>
      <trkpt lat="47.21776" lon="-0.60704">
        <ele>73.1976318</ele>
        <time>2011-08-27T11:04:00Z</time>
      </trkpt>
      <trkpt lat="47.21778" lon="-0.60698">
        <ele>73.1976318</ele>
        <time>2011-08-27T11:04:06Z</time>
      </trkpt>
      <trkpt lat="47.21776" lon="-0.60691">
        <ele>72.2362061</ele>
        <time>2011-08-27T11:04:11Z</time>
      </trkpt>
      <trkpt lat="47.21773" lon="-0.60675">
        <ele>71.7554932</ele>
        <time>2011-08-27T11:04:19Z</time>
      </trkpt>
      <trkpt lat="47.21766" lon="-0.60652">
        <ele>72.2362061</ele>
        <time>2011-08-27T11:04:29Z</time>
      </trkpt>
      <trkpt lat="47.21766" lon="-0.6065">
        <ele>72.2362061</ele>
        <time>2011-08-27T11:04:30Z</time>
      </trkpt>
      <trkpt lat="47.21763" lon="-0.60645">
        <ele>71.7554932</ele>
        <time>2011-08-27T11:04:33Z</time>
      </trkpt>
      <trkpt lat="47.21762" lon="-0.60633">
        <ele>70.7941895</ele>
        <time>2011-08-27T11:04:38Z</time>
      </trkpt>
      <trkpt lat="47.21762" lon="-0.60622">
        <ele>70.3134766</ele>
        <time>2011-08-27T11:04:43Z</time>
      </trkpt>
      <trkpt lat="47.21766" lon="-0.60623">
        <ele>70.3134766</ele>
        <time>2011-08-27T11:04:48Z</time>
      </trkpt>
      <trkpt lat="47.21767" lon="-0.60644">
        <ele>70.7941895</ele>
        <time>2011-08-27T11:04:52Z</time>
      </trkpt>
      <trkpt lat="47.21772" lon="-0.60671">
        <ele>70.3134766</ele>
        <time>2011-08-27T11:04:56Z</time>
      </trkpt>
      <trkpt lat="47.21776" lon="-0.60685">
        <ele>70.3134766</ele>
        <time>2011-08-27T11:04:58Z</time>
      </trkpt>
      <trkpt lat="47.21777" lon="-0.607">
        <ele>69.8328857</ele>
        <time>2011-08-27T11:05:00Z</time>
      </trkpt>
      <trkpt lat="47.21773" lon="-0.60728">
        <ele>69.8328857</ele>
        <time>2011-08-27T11:05:04Z</time>
      </trkpt>
      <trkpt lat="47.2177" lon="-0.60734">
        <ele>69.8328857</ele>
        <time>2011-08-27T11:05:05Z</time>
      </trkpt>
      <trkpt lat="47.21736" lon="-0.60776">
        <ele>69.3522949</ele>
        <time>2011-08-27T11:05:13Z</time>
      </trkpt>
      <trkpt lat="47.21702" lon="-0.60806">
        <ele>70.7941895</ele>
        <time>2011-08-27T11:05:20Z</time>
      </trkpt>
      <trkpt lat="47.217" lon="-0.60823">
        <ele>69.3522949</ele>
        <time>2011-08-27T11:05:24Z</time>
      </trkpt>
      <trkpt lat="47.21719" lon="-0.60874">
        <ele>68.3908691</ele>
        <time>2011-08-27T11:05:31Z</time>
      </trkpt>
      <trkpt lat="47.21729" lon="-0.60906">
        <ele>68.871582</ele>
        <time>2011-08-27T11:05:35Z</time>
      </trkpt>
      <trkpt lat="47.21741" lon="-0.60936">
        <ele>68.871582</ele>
        <time>2011-08-27T11:05:39Z</time>
      </trkpt>
      <trkpt lat="47.21761" lon="-0.60976">
        <ele>68.871582</ele>
        <time>2011-08-27T11:05:45Z</time>
      </trkpt>
      <trkpt lat="47.21781" lon="-0.61025">
        <ele>69.3522949</ele>
        <time>2011-08-27T11:05:52Z</time>
      </trkpt>
      <trkpt lat="47.21796" lon="-0.61076">
        <ele>70.3134766</ele>
        <time>2011-08-27T11:05:59Z</time>
      </trkpt>
      <trkpt lat="47.21807" lon="-0.61118">
        <ele>69.8328857</ele>
        <time>2011-08-27T11:06:05Z</time>
      </trkpt>
      <trkpt lat="47.21807" lon="-0.61176">
        <ele>70.3134766</ele>
        <time>2011-08-27T11:06:13Z</time>
      </trkpt>
      <trkpt lat="47.21805" lon="-0.61237">
        <ele>71.2749023</ele>
        <time>2011-08-27T11:06:21Z</time>
      </trkpt>
      <trkpt lat="47.21802" lon="-0.61298">
        <ele>73.1976318</ele>
        <time>2011-08-27T11:06:29Z</time>
      </trkpt>
      <trkpt lat="47.21794" lon="-0.61352">
        <ele>73.6782227</ele>
        <time>2011-08-27T11:06:37Z</time>
      </trkpt>
      <trkpt lat="47.21793" lon="-0.61356">
        <ele>74.1588135</ele>
        <time>2011-08-27T11:06:38Z</time>
      </trkpt>
      <trkpt lat="47.21789" lon="-0.61361">
        <ele>74.6395264</ele>
        <time>2011-08-27T11:06:43Z</time>
      </trkpt>
      <trkpt lat="47.21789" lon="-0.61354">
        <ele>74.6395264</ele>
        <time>2011-08-27T11:06:46Z</time>
      </trkpt>
      <trkpt lat="47.21791" lon="-0.61337">
        <ele>73.6782227</ele>
        <time>2011-08-27T11:06:51Z</time>
      </trkpt>
      <trkpt lat="47.21795" lon="-0.6131">
        <ele>73.1976318</ele>
        <time>2011-08-27T11:06:56Z</time>
      </trkpt>
      <trkpt lat="47.21799" lon="-0.61279">
        <ele>74.6395264</ele>
        <time>2011-08-27T11:07:01Z</time>
      </trkpt>
      <trkpt lat="47.21801" lon="-0.61235">
        <ele>75.6008301</ele>
        <time>2011-08-27T11:07:07Z</time>
      </trkpt>
      <trkpt lat="47.21803" lon="-0.61181">
        <ele>74.6395264</ele>
        <time>2011-08-27T11:07:14Z</time>
      </trkpt>
      <trkpt lat="47.21803" lon="-0.6113">
        <ele>73.6782227</ele>
        <time>2011-08-27T11:07:21Z</time>
      </trkpt>
      <trkpt lat="47.21802" lon="-0.61116">
        <ele>73.6782227</ele>
        <time>2011-08-27T11:07:23Z</time>
      </trkpt>
      <trkpt lat="47.21787" lon="-0.61057">
        <ele>73.1976318</ele>
        <time>2011-08-27T11:07:31Z</time>
      </trkpt>
      <trkpt lat="47.21769" lon="-0.61007">
        <ele>73.1976318</ele>
        <time>2011-08-27T11:07:38Z</time>
      </trkpt>
      <trkpt lat="47.21767" lon="-0.61">
        <ele>73.1976318</ele>
        <time>2011-08-27T11:07:39Z</time>
      </trkpt>
      <trkpt lat="47.21748" lon="-0.60959">
        <ele>72.2362061</ele>
        <time>2011-08-27T11:07:45Z</time>
      </trkpt>
      <trkpt lat="47.21725" lon="-0.60906">
        <ele>71.2749023</ele>
        <time>2011-08-27T11:07:52Z</time>
      </trkpt>
      <trkpt lat="47.21696" lon="-0.60818">
        <ele>71.7554932</ele>
        <time>2011-08-27T11:08:02Z</time>
      </trkpt>
      <trkpt lat="47.2168" lon="-0.60762">
        <ele>70.3134766</ele>
        <time>2011-08-27T11:08:09Z</time>
      </trkpt>
      <trkpt lat="47.21677" lon="-0.60746">
        <ele>69.3522949</ele>
        <time>2011-08-27T11:08:11Z</time>
      </trkpt>
      <trkpt lat="47.21674" lon="-0.607">
        <ele>68.3908691</ele>
        <time>2011-08-27T11:08:17Z</time>
      </trkpt>
      <trkpt lat="47.21661" lon="-0.60674">
        <ele>66.9489746</ele>
        <time>2011-08-27T11:08:21Z</time>
      </trkpt>
      <trkpt lat="47.21641" lon="-0.60644">
        <ele>66.9489746</ele>
        <time>2011-08-27T11:08:26Z</time>
      </trkpt>
      <trkpt lat="47.21637" lon="-0.60629">
        <ele>66.9489746</ele>
        <time>2011-08-27T11:08:28Z</time>
      </trkpt>
      <trkpt lat="47.21628" lon="-0.60558">
        <ele>67.4296875</ele>
        <time>2011-08-27T11:08:36Z</time>
      </trkpt>
      <trkpt lat="47.21622" lon="-0.60465">
        <ele>65.5070801</ele>
        <time>2011-08-27T11:08:46Z</time>
      </trkpt>
      <trkpt lat="47.21618" lon="-0.6041">
        <ele>64.5456543</ele>
        <time>2011-08-27T11:08:52Z</time>
      </trkpt>
      <trkpt lat="47.21612" lon="-0.60327">
        <ele>64.5456543</ele>
        <time>2011-08-27T11:09:01Z</time>
      </trkpt>
      <trkpt lat="47.21602" lon="-0.60272">
        <ele>65.9876709</ele>
        <time>2011-08-27T11:09:07Z</time>
      </trkpt>
      <trkpt lat="47.21575" lon="-0.60185">
        <ele>67.9102783</ele>
        <time>2011-08-27T11:09:17Z</time>
      </trkpt>
      <trkpt lat="47.21548" lon="-0.60099">
        <ele>68.871582</ele>
        <time>2011-08-27T11:09:27Z</time>
      </trkpt>
      <trkpt lat="47.21542" lon="-0.60082">
        <ele>69.3522949</ele>
        <time>2011-08-27T11:09:29Z</time>
      </trkpt>
      <trkpt lat="47.21521" lon="-0.60014">
        <ele>68.871582</ele>
        <time>2011-08-27T11:09:37Z</time>
      </trkpt>
      <trkpt lat="47.21501" lon="-0.59947">
        <ele>68.3908691</ele>
        <time>2011-08-27T11:09:45Z</time>
      </trkpt>
      <trkpt lat="47.21479" lon="-0.59874">
        <ele>68.3908691</ele>
        <time>2011-08-27T11:09:54Z</time>
      </trkpt>
      <trkpt lat="47.21476" lon="-0.59867">
        <ele>68.3908691</ele>
        <time>2011-08-27T11:09:55Z</time>
      </trkpt>
      <trkpt lat="47.2146" lon="-0.59872">
        <ele>68.871582</ele>
        <time>2011-08-27T11:09:59Z</time>
      </trkpt>
      <trkpt lat="47.21459" lon="-0.59878">
        <ele>68.871582</ele>
        <time>2011-08-27T11:10:00Z</time>
      </trkpt>
      <trkpt lat="47.21443" lon="-0.59926">
        <ele>70.3134766</ele>
        <time>2011-08-27T11:10:08Z</time>
      </trkpt>
      <trkpt lat="47.21425" lon="-0.59982">
        <ele>72.2362061</ele>
        <time>2011-08-27T11:10:17Z</time>
      </trkpt>
      <trkpt lat="47.21408" lon="-0.60038">
        <ele>73.6782227</ele>
        <time>2011-08-27T11:10:26Z</time>
      </trkpt>
      <trkpt lat="47.21402" lon="-0.60061">
        <ele>74.1588135</ele>
        <time>2011-08-27T11:10:30Z</time>
      </trkpt>
      <trkpt lat="47.21389" lon="-0.60104">
        <ele>75.1202393</ele>
        <time>2011-08-27T11:10:37Z</time>
      </trkpt>
      <trkpt lat="47.2137" lon="-0.60168">
        <ele>76.5621338</ele>
        <time>2011-08-27T11:10:47Z</time>
      </trkpt>
      <trkpt lat="47.21363" lon="-0.60192">
        <ele>77.0428467</ele>
        <time>2011-08-27T11:10:51Z</time>
      </trkpt>
      <trkpt lat="47.21356" lon="-0.60209">
        <ele>77.0428467</ele>
        <time>2011-08-27T11:10:55Z</time>
      </trkpt>
      <trkpt lat="47.21347" lon="-0.60231">
        <ele>77.5234375</ele>
        <time>2011-08-27T11:11:01Z</time>
      </trkpt>
      <trkpt lat="47.21341" lon="-0.60231">
        <ele>77.5234375</ele>
        <time>2011-08-27T11:11:04Z</time>
      </trkpt>
      <trkpt lat="47.21332" lon="-0.60229">
        <ele>77.0428467</ele>
        <time>2011-08-27T11:11:10Z</time>
      </trkpt>
      <trkpt lat="47.21331" lon="-0.60228">
        <ele>77.0428467</ele>
        <time>2011-08-27T11:11:16Z</time>
      </trkpt>
      <trkpt lat="47.21329" lon="-0.60224">
        <ele>77.5234375</ele>
        <time>2011-08-27T11:11:22Z</time>
      </trkpt>
      <trkpt lat="47.21329" lon="-0.60218">
        <ele>78.0040283</ele>
        <time>2011-08-27T11:11:28Z</time>
      </trkpt>
      <trkpt lat="47.21329" lon="-0.60216">
        <ele>76.5621338</ele>
        <time>2011-08-27T11:11:34Z</time>
      </trkpt>
      <trkpt lat="47.21328" lon="-0.60214">
        <ele>75.6008301</ele>
        <time>2011-08-27T11:11:41Z</time>
      </trkpt>
      <trkpt lat="47.21329" lon="-0.60214">
        <ele>76.0814209</ele>
        <time>2011-08-27T11:11:47Z</time>
      </trkpt>
      <trkpt lat="47.21329" lon="-0.60217">
        <ele>74.6395264</ele>
        <time>2011-08-27T11:11:52Z</time>
      </trkpt>
      <trkpt lat="47.21391" lon="-0.60101">
        <ele>72.2362061</ele>
        <time>2011-08-27T12:49:53Z</time>
      </trkpt>
      <trkpt lat="47.21401" lon="-0.60064">
        <ele>72.7169189</ele>
        <time>2011-08-27T12:50:00Z</time>
      </trkpt>
      <trkpt lat="47.21412" lon="-0.60029">
        <ele>72.7169189</ele>
        <time>2011-08-27T12:50:07Z</time>
      </trkpt>
      <trkpt lat="47.21425" lon="-0.59985">
        <ele>72.2362061</ele>
        <time>2011-08-27T12:50:15Z</time>
      </trkpt>
      <trkpt lat="47.21443" lon="-0.59933">
        <ele>71.7554932</ele>
        <time>2011-08-27T12:50:24Z</time>
      </trkpt>
      <trkpt lat="47.21458" lon="-0.59888">
        <ele>71.2749023</ele>
        <time>2011-08-27T12:50:32Z</time>
      </trkpt>
      <trkpt lat="47.21467" lon="-0.59866">
        <ele>70.3134766</ele>
        <time>2011-08-27T12:50:36Z</time>
      </trkpt>
      <trkpt lat="47.21473" lon="-0.59857">
        <ele>69.8328857</ele>
        <time>2011-08-27T12:50:41Z</time>
      </trkpt>
      <trkpt lat="47.21474" lon="-0.59855">
        <ele>69.8328857</ele>
        <time>2011-08-27T12:50:43Z</time>
      </trkpt>
      <trkpt lat="47.21481" lon="-0.5986">
        <ele>69.3522949</ele>
        <time>2011-08-27T12:50:47Z</time>
      </trkpt>
      <trkpt lat="47.21484" lon="-0.59869">
        <ele>69.3522949</ele>
        <time>2011-08-27T12:50:49Z</time>
      </trkpt>
      <trkpt lat="47.21491" lon="-0.59891">
        <ele>68.871582</ele>
        <time>2011-08-27T12:50:53Z</time>
      </trkpt>
      <trkpt lat="47.21497" lon="-0.59909">
        <ele>68.871582</ele>
        <time>2011-08-27T12:50:56Z</time>
      </trkpt>
      <trkpt lat="47.21499" lon="-0.59915">
        <ele>68.871582</ele>
        <time>2011-08-27T12:50:57Z</time>
      </trkpt>
      <trkpt lat="47.21514" lon="-0.59964">
        <ele>68.871582</ele>
        <time>2011-08-27T12:51:05Z</time>
      </trkpt>
      <trkpt lat="47.21531" lon="-0.60021">
        <ele>68.871582</ele>
        <time>2011-08-27T12:51:14Z</time>
      </trkpt>
      <trkpt lat="47.21548" lon="-0.60079">
        <ele>68.871582</ele>
        <time>2011-08-27T12:51:23Z</time>
      </trkpt>
      <trkpt lat="47.21565" lon="-0.60133">
        <ele>68.871582</ele>
        <time>2011-08-27T12:51:32Z</time>
      </trkpt>
      <trkpt lat="47.21583" lon="-0.60194">
        <ele>69.3522949</ele>
        <time>2011-08-27T12:51:42Z</time>
      </trkpt>
      <trkpt lat="47.21605" lon="-0.60266">
        <ele>69.8328857</ele>
        <time>2011-08-27T12:51:54Z</time>
      </trkpt>
      <trkpt lat="47.21613" lon="-0.60296">
        <ele>70.3134766</ele>
        <time>2011-08-27T12:51:59Z</time>
      </trkpt>
      <trkpt lat="47.21617" lon="-0.60334">
        <ele>70.7941895</ele>
        <time>2011-08-27T12:52:05Z</time>
      </trkpt>
      <trkpt lat="47.21622" lon="-0.60394">
        <ele>70.3134766</ele>
        <time>2011-08-27T12:52:14Z</time>
      </trkpt>
      <trkpt lat="47.21626" lon="-0.60454">
        <ele>70.3134766</ele>
        <time>2011-08-27T12:52:23Z</time>
      </trkpt>
      <trkpt lat="47.2163" lon="-0.60506">
        <ele>69.8328857</ele>
        <time>2011-08-27T12:52:31Z</time>
      </trkpt>
      <trkpt lat="47.21632" lon="-0.60532">
        <ele>69.8328857</ele>
        <time>2011-08-27T12:52:35Z</time>
      </trkpt>
      <trkpt lat="47.21636" lon="-0.60593">
        <ele>70.7941895</ele>
        <time>2011-08-27T12:52:44Z</time>
      </trkpt>
      <trkpt lat="47.21642" lon="-0.60626">
        <ele>71.2749023</ele>
        <time>2011-08-27T12:52:49Z</time>
      </trkpt>
      <trkpt lat="47.21651" lon="-0.60649">
        <ele>71.2749023</ele>
        <time>2011-08-27T12:52:53Z</time>
      </trkpt>
      <trkpt lat="47.21664" lon="-0.60668">
        <ele>71.7554932</ele>
        <time>2011-08-27T12:52:57Z</time>
      </trkpt>
      <trkpt lat="47.2168" lon="-0.60673">
        <ele>72.2362061</ele>
        <time>2011-08-27T12:53:01Z</time>
      </trkpt>
      <trkpt lat="47.21702" lon="-0.60673">
        <ele>75.6008301</ele>
        <time>2011-08-27T12:53:06Z</time>
      </trkpt>
      <trkpt lat="47.21705" lon="-0.60672">
        <ele>75.6008301</ele>
        <time>2011-08-27T12:53:07Z</time>
      </trkpt>
      <trkpt lat="47.21715" lon="-0.60669">
        <ele>76.5621338</ele>
        <time>2011-08-27T12:53:10Z</time>
      </trkpt>
      <trkpt lat="47.21735" lon="-0.60663">
        <ele>74.1588135</ele>
        <time>2011-08-27T12:53:15Z</time>
      </trkpt>
      <trkpt lat="47.21756" lon="-0.60649">
        <ele>74.1588135</ele>
        <time>2011-08-27T12:53:21Z</time>
      </trkpt>
      <trkpt lat="47.21768" lon="-0.60629">
        <ele>75.1202393</ele>
        <time>2011-08-27T12:53:26Z</time>
      </trkpt>
      <trkpt lat="47.21787" lon="-0.60618">
        <ele>75.1202393</ele>
        <time>2011-08-27T12:53:31Z</time>
      </trkpt>
      <trkpt lat="47.21804" lon="-0.60616">
        <ele>76.0814209</ele>
        <time>2011-08-27T12:53:35Z</time>
      </trkpt>
      <trkpt lat="47.21839" lon="-0.60626">
        <ele>76.5621338</ele>
        <time>2011-08-27T12:53:43Z</time>
      </trkpt>
      <trkpt lat="47.21868" lon="-0.60628">
        <ele>77.5234375</ele>
        <time>2011-08-27T12:53:50Z</time>
      </trkpt>
      <trkpt lat="47.21894" lon="-0.60621">
        <ele>77.5234375</ele>
        <time>2011-08-27T12:53:57Z</time>
      </trkpt>
      <trkpt lat="47.21922" lon="-0.60614">
        <ele>78.0040283</ele>
        <time>2011-08-27T12:54:04Z</time>
      </trkpt>
      <trkpt lat="47.21961" lon="-0.60604">
        <ele>78.9654541</ele>
        <time>2011-08-27T12:54:13Z</time>
      </trkpt>
      <trkpt lat="47.21974" lon="-0.60603">
        <ele>78.9654541</ele>
        <time>2011-08-27T12:54:16Z</time>
      </trkpt>
      <trkpt lat="47.21982" lon="-0.60603">
        <ele>78.9654541</ele>
        <time>2011-08-27T12:54:18Z</time>
      </trkpt>
      <trkpt lat="47.22018" lon="-0.60609">
        <ele>79.4460449</ele>
        <time>2011-08-27T12:54:26Z</time>
      </trkpt>
      <trkpt lat="47.2207" lon="-0.60615">
        <ele>80.4074707</ele>
        <time>2011-08-27T12:54:37Z</time>
      </trkpt>
      <trkpt lat="47.22123" lon="-0.6062">
        <ele>79.9266357</ele>
        <time>2011-08-27T12:54:48Z</time>
      </trkpt>
      <trkpt lat="47.22156" lon="-0.60625">
        <ele>78.9654541</ele>
        <time>2011-08-27T12:54:55Z</time>
      </trkpt>
      <trkpt lat="47.22205" lon="-0.60633">
        <ele>79.9266357</ele>
        <time>2011-08-27T12:55:05Z</time>
      </trkpt>
      <trkpt lat="47.22246" lon="-0.60635">
        <ele>80.4074707</ele>
        <time>2011-08-27T12:55:13Z</time>
      </trkpt>
      <trkpt lat="47.22299" lon="-0.60637">
        <ele>80.4074707</ele>
        <time>2011-08-27T12:55:23Z</time>
      </trkpt>
      <trkpt lat="47.22343" lon="-0.60637">
        <ele>79.9266357</ele>
        <time>2011-08-27T12:55:31Z</time>
      </trkpt>
      <trkpt lat="47.22392" lon="-0.6064">
        <ele>79.4460449</ele>
        <time>2011-08-27T12:55:40Z</time>
      </trkpt>
      <trkpt lat="47.22424" lon="-0.60655">
        <ele>79.4460449</ele>
        <time>2011-08-27T12:55:46Z</time>
      </trkpt>
      <trkpt lat="47.2247" lon="-0.60691">
        <ele>78.9654541</ele>
        <time>2011-08-27T12:55:55Z</time>
      </trkpt>
      <trkpt lat="47.22527" lon="-0.60735">
        <ele>78.4847412</ele>
        <time>2011-08-27T12:56:06Z</time>
      </trkpt>
      <trkpt lat="47.22579" lon="-0.60779">
        <ele>78.0040283</ele>
        <time>2011-08-27T12:56:16Z</time>
      </trkpt>
      <trkpt lat="47.22625" lon="-0.6082">
        <ele>77.0428467</ele>
        <time>2011-08-27T12:56:25Z</time>
      </trkpt>
      <trkpt lat="47.2267" lon="-0.60859">
        <ele>77.0428467</ele>
        <time>2011-08-27T12:56:34Z</time>
      </trkpt>
      <trkpt lat="47.22725" lon="-0.60908">
        <ele>76.0814209</ele>
        <time>2011-08-27T12:56:45Z</time>
      </trkpt>
      <trkpt lat="47.22761" lon="-0.60939">
        <ele>75.1202393</ele>
        <time>2011-08-27T12:56:52Z</time>
      </trkpt>
      <trkpt lat="47.22812" lon="-0.60985">
        <ele>74.1588135</ele>
        <time>2011-08-27T12:57:02Z</time>
      </trkpt>
      <trkpt lat="47.22856" lon="-0.61023">
        <ele>74.6395264</ele>
        <time>2011-08-27T12:57:10Z</time>
      </trkpt>
      <trkpt lat="47.22901" lon="-0.61062">
        <ele>74.1588135</ele>
        <time>2011-08-27T12:57:18Z</time>
      </trkpt>
      <trkpt lat="47.22951" lon="-0.61105">
        <ele>73.1976318</ele>
        <time>2011-08-27T12:57:27Z</time>
      </trkpt>
      <trkpt lat="47.22994" lon="-0.6114">
        <ele>73.1976318</ele>
        <time>2011-08-27T12:57:35Z</time>
      </trkpt>
      <trkpt lat="47.23034" lon="-0.6118">
        <ele>72.2362061</ele>
        <time>2011-08-27T12:57:43Z</time>
      </trkpt>
      <trkpt lat="47.23077" lon="-0.61229">
        <ele>72.7169189</ele>
        <time>2011-08-27T12:57:52Z</time>
      </trkpt>
      <trkpt lat="47.23116" lon="-0.61277">
        <ele>73.1976318</ele>
        <time>2011-08-27T12:58:01Z</time>
      </trkpt>
      <trkpt lat="47.23162" lon="-0.61333">
        <ele>75.6008301</ele>
        <time>2011-08-27T12:58:12Z</time>
      </trkpt>
      <trkpt lat="47.23209" lon="-0.61385">
        <ele>77.0428467</ele>
        <time>2011-08-27T12:58:22Z</time>
      </trkpt>
      <trkpt lat="47.23241" lon="-0.6142">
        <ele>78.0040283</ele>
        <time>2011-08-27T12:58:29Z</time>
      </trkpt>
      <trkpt lat="47.23264" lon="-0.61441">
        <ele>78.0040283</ele>
        <time>2011-08-27T12:58:34Z</time>
      </trkpt>
      <trkpt lat="47.23303" lon="-0.61454">
        <ele>78.0040283</ele>
        <time>2011-08-27T12:58:41Z</time>
      </trkpt>
      <trkpt lat="47.23314" lon="-0.61458">
        <ele>78.0040283</ele>
        <time>2011-08-27T12:58:43Z</time>
      </trkpt>
      <trkpt lat="47.23335" lon="-0.61473">
        <ele>77.5234375</ele>
        <time>2011-08-27T12:58:47Z</time>
      </trkpt>
      <trkpt lat="47.23371" lon="-0.61519">
        <ele>76.5621338</ele>
        <time>2011-08-27T12:58:55Z</time>
      </trkpt>
      <trkpt lat="47.23381" lon="-0.6153">
        <ele>76.0814209</ele>
        <time>2011-08-27T12:58:57Z</time>
      </trkpt>
      <trkpt lat="47.23386" lon="-0.61535">
        <ele>76.0814209</ele>
        <time>2011-08-27T12:58:58Z</time>
      </trkpt>
      <trkpt lat="47.23402" lon="-0.61549">
        <ele>76.0814209</ele>
        <time>2011-08-27T12:59:01Z</time>
      </trkpt>
      <trkpt lat="47.23456" lon="-0.61596">
        <ele>75.6008301</ele>
        <time>2011-08-27T12:59:11Z</time>
      </trkpt>
      <trkpt lat="47.23501" lon="-0.61626">
        <ele>75.6008301</ele>
        <time>2011-08-27T12:59:19Z</time>
      </trkpt>
      <trkpt lat="47.23562" lon="-0.61651">
        <ele>75.6008301</ele>
        <time>2011-08-27T12:59:29Z</time>
      </trkpt>
      <trkpt lat="47.23608" lon="-0.61677">
        <ele>76.0814209</ele>
        <time>2011-08-27T12:59:37Z</time>
      </trkpt>
      <trkpt lat="47.2365" lon="-0.61711">
        <ele>76.0814209</ele>
        <time>2011-08-27T12:59:45Z</time>
      </trkpt>
      <trkpt lat="47.23682" lon="-0.61738">
        <ele>76.0814209</ele>
        <time>2011-08-27T12:59:51Z</time>
      </trkpt>
      <trkpt lat="47.23722" lon="-0.61766">
        <ele>76.0814209</ele>
        <time>2011-08-27T12:59:58Z</time>
      </trkpt>
      <trkpt lat="47.2377" lon="-0.61794">
        <ele>75.6008301</ele>
        <time>2011-08-27T13:00:06Z</time>
      </trkpt>
      <trkpt lat="47.23799" lon="-0.61825">
        <ele>75.1202393</ele>
        <time>2011-08-27T13:00:12Z</time>
      </trkpt>
      <trkpt lat="47.23824" lon="-0.61867">
        <ele>74.1588135</ele>
        <time>2011-08-27T13:00:19Z</time>
      </trkpt>
      <trkpt lat="47.23848" lon="-0.61908">
        <ele>75.6008301</ele>
        <time>2011-08-27T13:00:26Z</time>
      </trkpt>
      <trkpt lat="47.23883" lon="-0.61965">
        <ele>78.0040283</ele>
        <time>2011-08-27T13:00:36Z</time>
      </trkpt>
      <trkpt lat="47.2391" lon="-0.62023">
        <ele>79.4460449</ele>
        <time>2011-08-27T13:00:45Z</time>
      </trkpt>
      <trkpt lat="47.23926" lon="-0.62081">
        <ele>80.4074707</ele>
        <time>2011-08-27T13:00:53Z</time>
      </trkpt>
      <trkpt lat="47.23943" lon="-0.62134">
        <ele>81.8493652</ele>
        <time>2011-08-27T13:01:01Z</time>
      </trkpt>
      <trkpt lat="47.23962" lon="-0.62178">
        <ele>81.8493652</ele>
        <time>2011-08-27T13:01:09Z</time>
      </trkpt>
      <trkpt lat="47.23984" lon="-0.6221">
        <ele>80.8881836</ele>
        <time>2011-08-27T13:01:16Z</time>
      </trkpt>
      <trkpt lat="47.2402" lon="-0.62246">
        <ele>81.8493652</ele>
        <time>2011-08-27T13:01:25Z</time>
      </trkpt>
      <trkpt lat="47.24063" lon="-0.62284">
        <ele>83.2913818</ele>
        <time>2011-08-27T13:01:35Z</time>
      </trkpt>
      <trkpt lat="47.24103" lon="-0.62317">
        <ele>83.7719727</ele>
        <time>2011-08-27T13:01:44Z</time>
      </trkpt>
      <trkpt lat="47.24154" lon="-0.62359">
        <ele>84.2526855</ele>
        <time>2011-08-27T13:01:55Z</time>
      </trkpt>
      <trkpt lat="47.24194" lon="-0.62393">
        <ele>84.7333984</ele>
        <time>2011-08-27T13:02:04Z</time>
      </trkpt>
      <trkpt lat="47.24232" lon="-0.62423">
        <ele>84.7333984</ele>
        <time>2011-08-27T13:02:12Z</time>
      </trkpt>
      <trkpt lat="47.2426" lon="-0.62445">
        <ele>84.7333984</ele>
        <time>2011-08-27T13:02:18Z</time>
      </trkpt>
      <trkpt lat="47.24309" lon="-0.62476">
        <ele>83.7719727</ele>
        <time>2011-08-27T13:02:28Z</time>
      </trkpt>
      <trkpt lat="47.24366" lon="-0.62503">
        <ele>82.810791</ele>
        <time>2011-08-27T13:02:39Z</time>
      </trkpt>
      <trkpt lat="47.24403" lon="-0.62519">
        <ele>82.3300781</ele>
        <time>2011-08-27T13:02:46Z</time>
      </trkpt>
      <trkpt lat="47.24451" lon="-0.62543">
        <ele>82.3300781</ele>
        <time>2011-08-27T13:02:55Z</time>
      </trkpt>
      <trkpt lat="47.24496" lon="-0.6256">
        <ele>83.2913818</ele>
        <time>2011-08-27T13:03:04Z</time>
      </trkpt>
      <trkpt lat="47.24541" lon="-0.62577">
        <ele>84.2526855</ele>
        <time>2011-08-27T13:03:13Z</time>
      </trkpt>
      <trkpt lat="47.24545" lon="-0.6258">
        <ele>84.2526855</ele>
        <time>2011-08-27T13:03:14Z</time>
      </trkpt>
      <trkpt lat="47.24577" lon="-0.62614">
        <ele>85.2139893</ele>
        <time>2011-08-27T13:03:22Z</time>
      </trkpt>
      <trkpt lat="47.24599" lon="-0.62642">
        <ele>86.6560059</ele>
        <time>2011-08-27T13:03:29Z</time>
      </trkpt>
      <trkpt lat="47.24622" lon="-0.62669">
        <ele>88.5787354</ele>
        <time>2011-08-27T13:03:37Z</time>
      </trkpt>
      <trkpt lat="47.24649" lon="-0.62702">
        <ele>91.4625244</ele>
        <time>2011-08-27T13:03:46Z</time>
      </trkpt>
      <trkpt lat="47.24677" lon="-0.62736">
        <ele>93.8658447</ele>
        <time>2011-08-27T13:03:55Z</time>
      </trkpt>
      <trkpt lat="47.24702" lon="-0.62766">
        <ele>94.8271484</ele>
        <time>2011-08-27T13:04:04Z</time>
      </trkpt>
      <trkpt lat="47.2472" lon="-0.62786">
        <ele>95.3077393</ele>
        <time>2011-08-27T13:04:10Z</time>
      </trkpt>
      <trkpt lat="47.24742" lon="-0.62811">
        <ele>95.3077393</ele>
        <time>2011-08-27T13:04:19Z</time>
      </trkpt>
      <trkpt lat="47.24751" lon="-0.62824">
        <ele>95.3077393</ele>
        <time>2011-08-27T13:04:23Z</time>
      </trkpt>
      <trkpt lat="47.24775" lon="-0.62852">
        <ele>94.3465576</ele>
        <time>2011-08-27T13:04:31Z</time>
      </trkpt>
      <trkpt lat="47.24798" lon="-0.6287">
        <ele>92.904541</ele>
        <time>2011-08-27T13:04:36Z</time>
      </trkpt>
      <trkpt lat="47.24819" lon="-0.62884">
        <ele>91.9432373</ele>
        <time>2011-08-27T13:04:40Z</time>
      </trkpt>
      <trkpt lat="47.24843" lon="-0.629">
        <ele>90.5013428</ele>
        <time>2011-08-27T13:04:44Z</time>
      </trkpt>
      <trkpt lat="47.24862" lon="-0.62912">
        <ele>90.0206299</ele>
        <time>2011-08-27T13:04:47Z</time>
      </trkpt>
      <trkpt lat="47.24892" lon="-0.62934">
        <ele>89.0593262</ele>
        <time>2011-08-27T13:04:52Z</time>
      </trkpt>
      <trkpt lat="47.2492" lon="-0.62952">
        <ele>88.5787354</ele>
        <time>2011-08-27T13:04:57Z</time>
      </trkpt>
      <trkpt lat="47.24931" lon="-0.62959">
        <ele>88.5787354</ele>
        <time>2011-08-27T13:04:59Z</time>
      </trkpt>
      <trkpt lat="47.24969" lon="-0.62988">
        <ele>88.5787354</ele>
        <time>2011-08-27T13:05:07Z</time>
      </trkpt>
      <trkpt lat="47.24997" lon="-0.63008">
        <ele>88.0980225</ele>
        <time>2011-08-27T13:05:13Z</time>
      </trkpt>
      <trkpt lat="47.25015" lon="-0.63021">
        <ele>87.6171875</ele>
        <time>2011-08-27T13:05:17Z</time>
      </trkpt>
      <trkpt lat="47.25032" lon="-0.63037">
        <ele>87.6171875</ele>
        <time>2011-08-27T13:05:21Z</time>
      </trkpt>
      <trkpt lat="47.25067" lon="-0.63089">
        <ele>87.6171875</ele>
        <time>2011-08-27T13:05:30Z</time>
      </trkpt>
      <trkpt lat="47.25096" lon="-0.6314">
        <ele>84.7333984</ele>
        <time>2011-08-27T13:05:38Z</time>
      </trkpt>
      <trkpt lat="47.25133" lon="-0.63184">
        <ele>83.2913818</ele>
        <time>2011-08-27T13:05:46Z</time>
      </trkpt>
      <trkpt lat="47.25175" lon="-0.63242">
        <ele>81.3687744</ele>
        <time>2011-08-27T13:05:55Z</time>
      </trkpt>
      <trkpt lat="47.25187" lon="-0.63265">
        <ele>80.8881836</ele>
        <time>2011-08-27T13:05:58Z</time>
      </trkpt>
      <trkpt lat="47.25198" lon="-0.633">
        <ele>80.4074707</ele>
        <time>2011-08-27T13:06:02Z</time>
      </trkpt>
      <trkpt lat="47.25212" lon="-0.63398">
        <ele>79.4460449</ele>
        <time>2011-08-27T13:06:12Z</time>
      </trkpt>
      <trkpt lat="47.25227" lon="-0.63486">
        <ele>78.9654541</ele>
        <time>2011-08-27T13:06:21Z</time>
      </trkpt>
      <trkpt lat="47.25244" lon="-0.6357">
        <ele>77.0428467</ele>
        <time>2011-08-27T13:06:30Z</time>
      </trkpt>
      <trkpt lat="47.25248" lon="-0.6359">
        <ele>76.5621338</ele>
        <time>2011-08-27T13:06:32Z</time>
      </trkpt>
      <trkpt lat="47.2527" lon="-0.63631">
        <ele>76.0814209</ele>
        <time>2011-08-27T13:06:37Z</time>
      </trkpt>
      <trkpt lat="47.25298" lon="-0.63647">
        <ele>75.6008301</ele>
        <time>2011-08-27T13:06:41Z</time>
      </trkpt>
      <trkpt lat="47.25328" lon="-0.63647">
        <ele>75.6008301</ele>
        <time>2011-08-27T13:06:45Z</time>
      </trkpt>
      <trkpt lat="47.25335" lon="-0.63645">
        <ele>75.1202393</ele>
        <time>2011-08-27T13:06:46Z</time>
      </trkpt>
      <trkpt lat="47.25377" lon="-0.63638">
        <ele>75.6008301</ele>
        <time>2011-08-27T13:06:52Z</time>
      </trkpt>
      <trkpt lat="47.25417" lon="-0.63654">
        <ele>75.1202393</ele>
        <time>2011-08-27T13:06:58Z</time>
      </trkpt>
      <trkpt lat="47.25441" lon="-0.63674">
        <ele>75.1202393</ele>
        <time>2011-08-27T13:07:02Z</time>
      </trkpt>
      <trkpt lat="47.25469" lon="-0.63716">
        <ele>74.1588135</ele>
        <time>2011-08-27T13:07:08Z</time>
      </trkpt>
      <trkpt lat="47.25497" lon="-0.63753">
        <ele>75.6008301</ele>
        <time>2011-08-27T13:07:14Z</time>
      </trkpt>
      <trkpt lat="47.25532" lon="-0.63791">
        <ele>76.0814209</ele>
        <time>2011-08-27T13:07:22Z</time>
      </trkpt>
      <trkpt lat="47.25562" lon="-0.63824">
        <ele>75.1202393</ele>
        <time>2011-08-27T13:07:29Z</time>
      </trkpt>
      <trkpt lat="47.25589" lon="-0.63853">
        <ele>73.6782227</ele>
        <time>2011-08-27T13:07:35Z</time>
      </trkpt>
      <trkpt lat="47.25611" lon="-0.63876">
        <ele>72.7169189</ele>
        <time>2011-08-27T13:07:40Z</time>
      </trkpt>
      <trkpt lat="47.25657" lon="-0.6392">
        <ele>70.7941895</ele>
        <time>2011-08-27T13:07:49Z</time>
      </trkpt>
      <trkpt lat="47.25697" lon="-0.63948">
        <ele>70.3134766</ele>
        <time>2011-08-27T13:07:56Z</time>
      </trkpt>
      <trkpt lat="47.25734" lon="-0.63977">
        <ele>71.7554932</ele>
        <time>2011-08-27T13:08:03Z</time>
      </trkpt>
      <trkpt lat="47.25775" lon="-0.64004">
        <ele>73.6782227</ele>
        <time>2011-08-27T13:08:11Z</time>
      </trkpt>
      <trkpt lat="47.25802" lon="-0.6402">
        <ele>74.6395264</ele>
        <time>2011-08-27T13:08:17Z</time>
      </trkpt>
      <trkpt lat="47.25806" lon="-0.64022">
        <ele>74.6395264</ele>
        <time>2011-08-27T13:08:18Z</time>
      </trkpt>
      <trkpt lat="47.25814" lon="-0.64037">
        <ele>75.1202393</ele>
        <time>2011-08-27T13:08:22Z</time>
      </trkpt>
      <trkpt lat="47.25811" lon="-0.64044">
        <ele>76.5621338</ele>
        <time>2011-08-27T13:08:26Z</time>
      </trkpt>
      <trkpt lat="47.25811" lon="-0.64045">
        <ele>78.4847412</ele>
        <time>2011-08-27T13:08:34Z</time>
      </trkpt>
      <trkpt lat="47.25812" lon="-0.6405">
        <ele>78.9654541</ele>
        <time>2011-08-27T13:08:39Z</time>
      </trkpt>
      <trkpt lat="47.25812" lon="-0.64052">
        <ele>79.4460449</ele>
        <time>2011-08-27T13:08:44Z</time>
      </trkpt>
      <trkpt lat="47.25812" lon="-0.64052">
        <ele>79.9266357</ele>
        <time>2011-08-27T13:08:49Z</time>
      </trkpt>
      <trkpt lat="47.25813" lon="-0.64052">
        <ele>80.4074707</ele>
        <time>2011-08-27T13:08:54Z</time>
      </trkpt>
      <trkpt lat="47.25812" lon="-0.64051">
        <ele>79.4460449</ele>
        <time>2011-08-27T13:09:06Z</time>
      </trkpt>
      <trkpt lat="47.25812" lon="-0.64051">
        <ele>78.9654541</ele>
        <time>2011-08-27T13:09:12Z</time>
      </trkpt>
      <trkpt lat="47.25812" lon="-0.64051">
        <ele>78.9654541</ele>
        <time>2011-08-27T13:09:15Z</time>
      </trkpt>
      <trkpt lat="47.25812" lon="-0.64051">
        <ele>78.0040283</ele>
        <time>2011-08-27T13:09:24Z</time>
      </trkpt>
      <trkpt lat="47.25811" lon="-0.6405">
        <ele>77.5234375</ele>
        <time>2011-08-27T13:09:33Z</time>
      </trkpt>
      <trkpt lat="47.25812" lon="-0.6405">
        <ele>77.5234375</ele>
        <time>2011-08-27T13:09:46Z</time>
      </trkpt>
      <trkpt lat="47.25811" lon="-0.64052">
        <ele>76.5621338</ele>
        <time>2011-08-27T13:10:09Z</time>
      </trkpt>
      <trkpt lat="47.25808" lon="-0.64069">
        <ele>77.0428467</ele>
        <time>2011-08-27T13:10:16Z</time>
      </trkpt>
      <trkpt lat="47.25806" lon="-0.64085">
        <ele>77.0428467</ele>
        <time>2011-08-27T13:10:20Z</time>
      </trkpt>
      <trkpt lat="47.25799" lon="-0.6413">
        <ele>77.0428467</ele>
        <time>2011-08-27T13:10:29Z</time>
      </trkpt>
      <trkpt lat="47.25792" lon="-0.64179">
        <ele>77.0428467</ele>
        <time>2011-08-27T13:10:37Z</time>
      </trkpt>
      <trkpt lat="47.25787" lon="-0.64197">
        <ele>77.0428467</ele>
        <time>2011-08-27T13:10:40Z</time>
      </trkpt>
      <trkpt lat="47.25785" lon="-0.64203">
        <ele>77.0428467</ele>
        <time>2011-08-27T13:10:41Z</time>
      </trkpt>
      <trkpt lat="47.25774" lon="-0.64251">
        <ele>76.5621338</ele>
        <time>2011-08-27T13:10:48Z</time>
      </trkpt>
      <trkpt lat="47.25757" lon="-0.64299">
        <ele>75.6008301</ele>
        <time>2011-08-27T13:10:55Z</time>
      </trkpt>
      <trkpt lat="47.25737" lon="-0.64358">
        <ele>76.0814209</ele>
        <time>2011-08-27T13:11:03Z</time>
      </trkpt>
      <trkpt lat="47.25733" lon="-0.64372">
        <ele>76.0814209</ele>
        <time>2011-08-27T13:11:05Z</time>
      </trkpt>
      <trkpt lat="47.25714" lon="-0.64447">
        <ele>76.0814209</ele>
        <time>2011-08-27T13:11:15Z</time>
      </trkpt>
      <trkpt lat="47.25702" lon="-0.64497">
        <ele>76.5621338</ele>
        <time>2011-08-27T13:11:22Z</time>
      </trkpt>
      <trkpt lat="47.25701" lon="-0.64544">
        <ele>76.0814209</ele>
        <time>2011-08-27T13:11:28Z</time>
      </trkpt>
      <trkpt lat="47.25707" lon="-0.64624">
        <ele>75.1202393</ele>
        <time>2011-08-27T13:11:38Z</time>
      </trkpt>
      <trkpt lat="47.25716" lon="-0.64701">
        <ele>74.6395264</ele>
        <time>2011-08-27T13:11:48Z</time>
      </trkpt>
      <trkpt lat="47.25729" lon="-0.64776">
        <ele>74.6395264</ele>
        <time>2011-08-27T13:11:58Z</time>
      </trkpt>
      <trkpt lat="47.25745" lon="-0.6484">
        <ele>74.1588135</ele>
        <time>2011-08-27T13:12:07Z</time>
      </trkpt>
      <trkpt lat="47.25762" lon="-0.64909">
        <ele>73.1976318</ele>
        <time>2011-08-27T13:12:16Z</time>
      </trkpt>
      <trkpt lat="47.25782" lon="-0.64975">
        <ele>71.7554932</ele>
        <time>2011-08-27T13:12:24Z</time>
      </trkpt>
      <trkpt lat="47.25792" lon="-0.64999">
        <ele>70.7941895</ele>
        <time>2011-08-27T13:12:27Z</time>
      </trkpt>
      <trkpt lat="47.258" lon="-0.65013">
        <ele>70.3134766</ele>
        <time>2011-08-27T13:12:29Z</time>
      </trkpt>
      <trkpt lat="47.258" lon="-0.65039">
        <ele>70.3134766</ele>
        <time>2011-08-27T13:12:33Z</time>
      </trkpt>
      <trkpt lat="47.25786" lon="-0.65075">
        <ele>70.3134766</ele>
        <time>2011-08-27T13:12:38Z</time>
      </trkpt>
      <trkpt lat="47.25761" lon="-0.65145">
        <ele>71.7554932</ele>
        <time>2011-08-27T13:12:48Z</time>
      </trkpt>
      <trkpt lat="47.25746" lon="-0.65191">
        <ele>72.7169189</ele>
        <time>2011-08-27T13:12:54Z</time>
      </trkpt>
      <trkpt lat="47.25732" lon="-0.65231">
        <ele>72.2362061</ele>
        <time>2011-08-27T13:12:59Z</time>
      </trkpt>
      <trkpt lat="47.2571" lon="-0.65296">
        <ele>72.7169189</ele>
        <time>2011-08-27T13:13:07Z</time>
      </trkpt>
      <trkpt lat="47.25689" lon="-0.65353">
        <ele>70.7941895</ele>
        <time>2011-08-27T13:13:14Z</time>
      </trkpt>
      <trkpt lat="47.25686" lon="-0.65363">
        <ele>70.3134766</ele>
        <time>2011-08-27T13:13:15Z</time>
      </trkpt>
      <trkpt lat="47.25681" lon="-0.65384">
        <ele>69.3522949</ele>
        <time>2011-08-27T13:13:17Z</time>
      </trkpt>
      <trkpt lat="47.25674" lon="-0.65404">
        <ele>68.3908691</ele>
        <time>2011-08-27T13:13:19Z</time>
      </trkpt>
      <trkpt lat="47.25651" lon="-0.65467">
        <ele>67.4296875</ele>
        <time>2011-08-27T13:13:26Z</time>
      </trkpt>
      <trkpt lat="47.25648" lon="-0.65476">
        <ele>66.9489746</ele>
        <time>2011-08-27T13:13:27Z</time>
      </trkpt>
      <trkpt lat="47.25634" lon="-0.65507">
        <ele>66.9489746</ele>
        <time>2011-08-27T13:13:31Z</time>
      </trkpt>
      <trkpt lat="47.2561" lon="-0.65569">
        <ele>66.4682617</ele>
        <time>2011-08-27T13:13:39Z</time>
      </trkpt>
      <trkpt lat="47.25608" lon="-0.65578">
        <ele>65.9876709</ele>
        <time>2011-08-27T13:13:40Z</time>
      </trkpt>
      <trkpt lat="47.25604" lon="-0.65629">
        <ele>64.5456543</ele>
        <time>2011-08-27T13:13:45Z</time>
      </trkpt>
      <trkpt lat="47.25616" lon="-0.6568">
        <ele>62.142334</ele>
        <time>2011-08-27T13:13:50Z</time>
      </trkpt>
      <trkpt lat="47.2563" lon="-0.65707">
        <ele>59.7391357</ele>
        <time>2011-08-27T13:13:53Z</time>
      </trkpt>
      <trkpt lat="47.25639" lon="-0.65763">
        <ele>55.8937988</ele>
        <time>2011-08-27T13:13:58Z</time>
      </trkpt>
      <trkpt lat="47.25618" lon="-0.65811">
        <ele>53.0097656</ele>
        <time>2011-08-27T13:14:03Z</time>
      </trkpt>
      <trkpt lat="47.25612" lon="-0.65816">
        <ele>51.5678711</ele>
        <time>2011-08-27T13:14:04Z</time>
      </trkpt>
      <trkpt lat="47.25607" lon="-0.65819">
        <ele>51.0871582</ele>
        <time>2011-08-27T13:14:05Z</time>
      </trkpt>
      <trkpt lat="47.25603" lon="-0.65824">
        <ele>50.6065674</ele>
        <time>2011-08-27T13:14:06Z</time>
      </trkpt>
      <trkpt lat="47.25602" lon="-0.65847">
        <ele>48.68396</ele>
        <time>2011-08-27T13:14:09Z</time>
      </trkpt>
      <trkpt lat="47.25616" lon="-0.65865">
        <ele>45.3192139</ele>
        <time>2011-08-27T13:14:12Z</time>
      </trkpt>
      <trkpt lat="47.25622" lon="-0.65904">
        <ele>43.8773193</ele>
        <time>2011-08-27T13:14:16Z</time>
      </trkpt>
      <trkpt lat="47.25616" lon="-0.65924">
        <ele>41.9547119</ele>
        <time>2011-08-27T13:14:19Z</time>
      </trkpt>
      <trkpt lat="47.25616" lon="-0.65939">
        <ele>40.9934082</ele>
        <time>2011-08-27T13:14:23Z</time>
      </trkpt>
      <trkpt lat="47.2562" lon="-0.65949">
        <ele>39.5512695</ele>
        <time>2011-08-27T13:14:27Z</time>
      </trkpt>
      <trkpt lat="47.25622" lon="-0.65955">
        <ele>38.109375</ele>
        <time>2011-08-27T13:14:34Z</time>
      </trkpt>
      <trkpt lat="47.25624" lon="-0.65959">
        <ele>38.5900879</ele>
        <time>2011-08-27T13:14:47Z</time>
      </trkpt>
      <trkpt lat="47.25625" lon="-0.65963">
        <ele>38.5900879</ele>
        <time>2011-08-27T13:14:56Z</time>
      </trkpt>
      <trkpt lat="47.25624" lon="-0.65983">
        <ele>38.109375</ele>
        <time>2011-08-27T13:15:03Z</time>
      </trkpt>
      <trkpt lat="47.25623" lon="-0.65999">
        <ele>39.0706787</ele>
        <time>2011-08-27T13:15:08Z</time>
      </trkpt>
      <trkpt lat="47.25622" lon="-0.66021">
        <ele>40.9934082</ele>
        <time>2011-08-27T13:15:13Z</time>
      </trkpt>
      <trkpt lat="47.25617" lon="-0.66046">
        <ele>42.4354248</ele>
        <time>2011-08-27T13:15:19Z</time>
      </trkpt>
      <trkpt lat="47.25606" lon="-0.66078">
        <ele>42.4354248</ele>
        <time>2011-08-27T13:15:25Z</time>
      </trkpt>
      <trkpt lat="47.25589" lon="-0.66094">
        <ele>41.9547119</ele>
        <time>2011-08-27T13:15:29Z</time>
      </trkpt>
      <trkpt lat="47.25584" lon="-0.66096">
        <ele>42.9160156</ele>
        <time>2011-08-27T13:15:30Z</time>
      </trkpt>
      <trkpt lat="47.25574" lon="-0.66101">
        <ele>42.9160156</ele>
        <time>2011-08-27T13:15:33Z</time>
      </trkpt>
      <trkpt lat="47.25563" lon="-0.66106">
        <ele>42.9160156</ele>
        <time>2011-08-27T13:15:37Z</time>
      </trkpt>
      <trkpt lat="47.25543" lon="-0.66114">
        <ele>42.9160156</ele>
        <time>2011-08-27T13:15:44Z</time>
      </trkpt>
      <trkpt lat="47.25524" lon="-0.6612">
        <ele>41.473999</ele>
        <time>2011-08-27T13:15:50Z</time>
      </trkpt>
      <trkpt lat="47.25505" lon="-0.66124">
        <ele>40.9934082</ele>
        <time>2011-08-27T13:15:55Z</time>
      </trkpt>
      <trkpt lat="47.25479" lon="-0.6613">
        <ele>42.4354248</ele>
        <time>2011-08-27T13:16:01Z</time>
      </trkpt>
      <trkpt lat="47.25468" lon="-0.66134">
        <ele>45.7999268</ele>
        <time>2011-08-27T13:16:04Z</time>
      </trkpt>
      <trkpt lat="47.25457" lon="-0.66141">
        <ele>47.7225342</ele>
        <time>2011-08-27T13:16:07Z</time>
      </trkpt>
      <trkpt lat="47.2544" lon="-0.66158">
        <ele>58.77771</ele>
        <time>2011-08-27T13:16:14Z</time>
      </trkpt>
      <trkpt lat="47.25418" lon="-0.6617">
        <ele>72.2362061</ele>
        <time>2011-08-27T13:16:21Z</time>
      </trkpt>
      <trkpt lat="47.25404" lon="-0.66186">
        <ele>75.6008301</ele>
        <time>2011-08-27T13:16:25Z</time>
      </trkpt>
      <trkpt lat="47.25396" lon="-0.66197">
        <ele>77.0428467</ele>
        <time>2011-08-27T13:16:29Z</time>
      </trkpt>
      <trkpt lat="47.25381" lon="-0.66212">
        <ele>74.1588135</ele>
        <time>2011-08-27T13:16:33Z</time>
      </trkpt>
      <trkpt lat="47.25369" lon="-0.66235">
        <ele>70.3134766</ele>
        <time>2011-08-27T13:16:37Z</time>
      </trkpt>
      <trkpt lat="47.25365" lon="-0.66249">
        <ele>69.3522949</ele>
        <time>2011-08-27T13:16:40Z</time>
      </trkpt>
      <trkpt lat="47.25362" lon="-0.66254">
        <ele>66.4682617</ele>
        <time>2011-08-27T13:16:42Z</time>
      </trkpt>
      <trkpt lat="47.2536" lon="-0.66257">
        <ele>65.0263672</ele>
        <time>2011-08-27T13:16:43Z</time>
      </trkpt>
      <trkpt lat="47.25354" lon="-0.66254">
        <ele>55.4130859</ele>
        <time>2011-08-27T13:16:48Z</time>
      </trkpt>
      <trkpt lat="47.25355" lon="-0.66242">
        <ele>53.0097656</ele>
        <time>2011-08-27T13:16:53Z</time>
      </trkpt>
      <trkpt lat="47.25354" lon="-0.66233">
        <ele>50.1259766</ele>
        <time>2011-08-27T13:16:59Z</time>
      </trkpt>
      <trkpt lat="47.25354" lon="-0.66228">
        <ele>50.1259766</ele>
        <time>2011-08-27T13:17:01Z</time>
      </trkpt>
      <trkpt lat="47.25351" lon="-0.6623">
        <ele>48.2033691</ele>
        <time>2011-08-27T13:17:05Z</time>
      </trkpt>
      <trkpt lat="47.25352" lon="-0.66245">
        <ele>51.5678711</ele>
        <time>2011-08-27T13:17:11Z</time>
      </trkpt>
      <trkpt lat="47.25345" lon="-0.66267">
        <ele>60.7003174</ele>
        <time>2011-08-27T13:17:21Z</time>
      </trkpt>
      <trkpt lat="47.25336" lon="-0.66289">
        <ele>62.6229248</ele>
        <time>2011-08-27T13:17:27Z</time>
      </trkpt>
      <trkpt lat="47.25332" lon="-0.663">
        <ele>63.5843506</ele>
        <time>2011-08-27T13:17:29Z</time>
      </trkpt>
      <trkpt lat="47.25327" lon="-0.66311">
        <ele>63.1036377</ele>
        <time>2011-08-27T13:17:31Z</time>
      </trkpt>
      <trkpt lat="47.25319" lon="-0.66321">
        <ele>60.7003174</ele>
        <time>2011-08-27T13:17:33Z</time>
      </trkpt>
      <trkpt lat="47.25316" lon="-0.66326">
        <ele>60.2197266</ele>
        <time>2011-08-27T13:17:34Z</time>
      </trkpt>
      <trkpt lat="47.25313" lon="-0.6633">
        <ele>59.2584229</ele>
        <time>2011-08-27T13:17:35Z</time>
      </trkpt>
      <trkpt lat="47.25286" lon="-0.66361">
        <ele>50.1259766</ele>
        <time>2011-08-27T13:17:42Z</time>
      </trkpt>
      <trkpt lat="47.25279" lon="-0.66369">
        <ele>48.2033691</ele>
        <time>2011-08-27T13:17:44Z</time>
      </trkpt>
      <trkpt lat="47.25272" lon="-0.66377">
        <ele>46.7612305</ele>
        <time>2011-08-27T13:17:46Z</time>
      </trkpt>
      <trkpt lat="47.25261" lon="-0.6639">
        <ele>44.3580322</ele>
        <time>2011-08-27T13:17:49Z</time>
      </trkpt>
      <trkpt lat="47.25255" lon="-0.66398">
        <ele>43.3966064</ele>
        <time>2011-08-27T13:17:51Z</time>
      </trkpt>
      <trkpt lat="47.25246" lon="-0.66409">
        <ele>42.9160156</ele>
        <time>2011-08-27T13:17:54Z</time>
      </trkpt>
      <trkpt lat="47.25243" lon="-0.66413">
        <ele>42.9160156</ele>
        <time>2011-08-27T13:17:55Z</time>
      </trkpt>
      <trkpt lat="47.2524" lon="-0.66416">
        <ele>42.4354248</ele>
        <time>2011-08-27T13:17:56Z</time>
      </trkpt>
      <trkpt lat="47.25218" lon="-0.66438">
        <ele>42.4354248</ele>
        <time>2011-08-27T13:18:04Z</time>
      </trkpt>
      <trkpt lat="47.25203" lon="-0.66453">
        <ele>44.838623</ele>
        <time>2011-08-27T13:18:12Z</time>
      </trkpt>
      <trkpt lat="47.25198" lon="-0.66459">
        <ele>50.6065674</ele>
        <time>2011-08-27T13:18:18Z</time>
      </trkpt>
      <trkpt lat="47.25198" lon="-0.66458">
        <ele>52.5291748</ele>
        <time>2011-08-27T13:18:24Z</time>
      </trkpt>
      <trkpt lat="47.25197" lon="-0.6647">
        <ele>59.2584229</ele>
        <time>2011-08-27T13:18:31Z</time>
      </trkpt>
      <trkpt lat="47.25192" lon="-0.66482">
        <ele>67.9102783</ele>
        <time>2011-08-27T13:18:38Z</time>
      </trkpt>
      <trkpt lat="47.25187" lon="-0.66492">
        <ele>74.1588135</ele>
        <time>2011-08-27T13:18:44Z</time>
      </trkpt>
      <trkpt lat="47.25175" lon="-0.66503">
        <ele>74.6395264</ele>
        <time>2011-08-27T13:18:49Z</time>
      </trkpt>
      <trkpt lat="47.2517" lon="-0.66507">
        <ele>73.1976318</ele>
        <time>2011-08-27T13:18:51Z</time>
      </trkpt>
      <trkpt lat="47.25154" lon="-0.66519">
        <ele>70.7941895</ele>
        <time>2011-08-27T13:18:57Z</time>
      </trkpt>
      <trkpt lat="47.25133" lon="-0.66538">
        <ele>65.5070801</ele>
        <time>2011-08-27T13:19:05Z</time>
      </trkpt>
      <trkpt lat="47.25118" lon="-0.66547">
        <ele>59.7391357</ele>
        <time>2011-08-27T13:19:09Z</time>
      </trkpt>
      <trkpt lat="47.25104" lon="-0.66565">
        <ele>54.4517822</ele>
        <time>2011-08-27T13:19:15Z</time>
      </trkpt>
      <trkpt lat="47.25099" lon="-0.66572">
        <ele>53.4904785</ele>
        <time>2011-08-27T13:19:17Z</time>
      </trkpt>
      <trkpt lat="47.25097" lon="-0.66575">
        <ele>53.4904785</ele>
        <time>2011-08-27T13:19:18Z</time>
      </trkpt>
      <trkpt lat="47.25092" lon="-0.66581">
        <ele>52.5291748</ele>
        <time>2011-08-27T13:19:20Z</time>
      </trkpt>
      <trkpt lat="47.2509" lon="-0.66584">
        <ele>52.048584</ele>
        <time>2011-08-27T13:19:21Z</time>
      </trkpt>
      <trkpt lat="47.25075" lon="-0.66602">
        <ele>49.1645508</ele>
        <time>2011-08-27T13:19:25Z</time>
      </trkpt>
      <trkpt lat="47.25059" lon="-0.66612">
        <ele>45.7999268</ele>
        <time>2011-08-27T13:19:29Z</time>
      </trkpt>
      <trkpt lat="47.25053" lon="-0.66616">
        <ele>50.1259766</ele>
        <time>2011-08-27T13:19:33Z</time>
      </trkpt>
      <trkpt lat="47.25049" lon="-0.66616">
        <ele>53.0097656</ele>
        <time>2011-08-27T13:19:38Z</time>
      </trkpt>
      <trkpt lat="47.25042" lon="-0.66617">
        <ele>55.8937988</ele>
        <time>2011-08-27T13:19:53Z</time>
      </trkpt>
      <trkpt lat="47.25041" lon="-0.66624">
        <ele>56.8551025</ele>
        <time>2011-08-27T13:19:59Z</time>
      </trkpt>
      <trkpt lat="47.25036" lon="-0.66645">
        <ele>54.932373</ele>
        <time>2011-08-27T13:20:03Z</time>
      </trkpt>
      <trkpt lat="47.25037" lon="-0.6667">
        <ele>53.0097656</ele>
        <time>2011-08-27T13:20:07Z</time>
      </trkpt>
      <trkpt lat="47.25046" lon="-0.66688">
        <ele>49.6452637</ele>
        <time>2011-08-27T13:20:10Z</time>
      </trkpt>
      <trkpt lat="47.25055" lon="-0.66711">
        <ele>46.7612305</ele>
        <time>2011-08-27T13:20:14Z</time>
      </trkpt>
      <trkpt lat="47.2506" lon="-0.66722">
        <ele>44.838623</ele>
        <time>2011-08-27T13:20:17Z</time>
      </trkpt>
      <trkpt lat="47.25064" lon="-0.66737">
        <ele>41.9547119</ele>
        <time>2011-08-27T13:20:22Z</time>
      </trkpt>
      <trkpt lat="47.25065" lon="-0.6674">
        <ele>41.9547119</ele>
        <time>2011-08-27T13:20:23Z</time>
      </trkpt>
      <trkpt lat="47.25061" lon="-0.66767">
        <ele>45.3192139</ele>
        <time>2011-08-27T13:20:31Z</time>
      </trkpt>
      <trkpt lat="47.25057" lon="-0.66781">
        <ele>45.3192139</ele>
        <time>2011-08-27T13:20:37Z</time>
      </trkpt>
      <trkpt lat="47.25046" lon="-0.66794">
        <ele>42.4354248</ele>
        <time>2011-08-27T13:20:44Z</time>
      </trkpt>
      <trkpt lat="47.25034" lon="-0.66805">
        <ele>43.3966064</ele>
        <time>2011-08-27T13:20:50Z</time>
      </trkpt>
      <trkpt lat="47.25025" lon="-0.66819">
        <ele>46.7612305</ele>
        <time>2011-08-27T13:20:57Z</time>
      </trkpt>
      <trkpt lat="47.25019" lon="-0.6683">
        <ele>49.1645508</ele>
        <time>2011-08-27T13:21:02Z</time>
      </trkpt>
      <trkpt lat="47.25012" lon="-0.66842">
        <ele>51.5678711</ele>
        <time>2011-08-27T13:21:09Z</time>
      </trkpt>
      <trkpt lat="47.25009" lon="-0.6685">
        <ele>53.4904785</ele>
        <time>2011-08-27T13:21:13Z</time>
      </trkpt>
      <trkpt lat="47.25008" lon="-0.66854">
        <ele>53.9711914</ele>
        <time>2011-08-27T13:21:15Z</time>
      </trkpt>
      <trkpt lat="47.25006" lon="-0.6686">
        <ele>55.8937988</ele>
        <time>2011-08-27T13:21:19Z</time>
      </trkpt>
      <trkpt lat="47.25005" lon="-0.66862">
        <ele>55.8937988</ele>
        <time>2011-08-27T13:21:20Z</time>
      </trkpt>
      <trkpt lat="47.25002" lon="-0.66876">
        <ele>57.8165283</ele>
        <time>2011-08-27T13:21:28Z</time>
      </trkpt>
      <trkpt lat="47.24999" lon="-0.66885">
        <ele>58.77771</ele>
        <time>2011-08-27T13:21:33Z</time>
      </trkpt>
      <trkpt lat="47.24994" lon="-0.66898">
        <ele>59.2584229</ele>
        <time>2011-08-27T13:21:40Z</time>
      </trkpt>
      <trkpt lat="47.2499" lon="-0.66911">
        <ele>59.7391357</ele>
        <time>2011-08-27T13:21:47Z</time>
      </trkpt>
      <trkpt lat="47.24984" lon="-0.66929">
        <ele>60.7003174</ele>
        <time>2011-08-27T13:21:56Z</time>
      </trkpt>
      <trkpt lat="47.24981" lon="-0.6694">
        <ele>61.1810303</ele>
        <time>2011-08-27T13:22:01Z</time>
      </trkpt>
      <trkpt lat="47.24978" lon="-0.66952">
        <ele>62.142334</ele>
        <time>2011-08-27T13:22:06Z</time>
      </trkpt>
      <trkpt lat="47.24971" lon="-0.66988">
        <ele>63.5843506</ele>
        <time>2011-08-27T13:22:17Z</time>
      </trkpt>
      <trkpt lat="47.24968" lon="-0.67013">
        <ele>63.5843506</ele>
        <time>2011-08-27T13:22:23Z</time>
      </trkpt>
      <trkpt lat="47.24966" lon="-0.67025">
        <ele>64.0650635</ele>
        <time>2011-08-27T13:22:26Z</time>
      </trkpt>
      <trkpt lat="47.24966" lon="-0.67029">
        <ele>64.0650635</ele>
        <time>2011-08-27T13:22:27Z</time>
      </trkpt>
      <trkpt lat="47.2496" lon="-0.67053">
        <ele>65.5070801</ele>
        <time>2011-08-27T13:22:33Z</time>
      </trkpt>
      <trkpt lat="47.24952" lon="-0.6709">
        <ele>67.4296875</ele>
        <time>2011-08-27T13:22:42Z</time>
      </trkpt>
      <trkpt lat="47.24945" lon="-0.67119">
        <ele>68.3908691</ele>
        <time>2011-08-27T13:22:49Z</time>
      </trkpt>
      <trkpt lat="47.24935" lon="-0.67154">
        <ele>69.8328857</ele>
        <time>2011-08-27T13:22:58Z</time>
      </trkpt>
      <trkpt lat="47.24923" lon="-0.67193">
        <ele>71.7554932</ele>
        <time>2011-08-27T13:23:08Z</time>
      </trkpt>
      <trkpt lat="47.24912" lon="-0.67222">
        <ele>71.7554932</ele>
        <time>2011-08-27T13:23:16Z</time>
      </trkpt>
      <trkpt lat="47.249" lon="-0.67241">
        <ele>72.7169189</ele>
        <time>2011-08-27T13:23:24Z</time>
      </trkpt>
      <trkpt lat="47.24891" lon="-0.67253">
        <ele>72.7169189</ele>
        <time>2011-08-27T13:23:32Z</time>
      </trkpt>
      <trkpt lat="47.24881" lon="-0.6727">
        <ele>72.2362061</ele>
        <time>2011-08-27T13:23:40Z</time>
      </trkpt>
      <trkpt lat="47.24871" lon="-0.67289">
        <ele>72.2362061</ele>
        <time>2011-08-27T13:23:48Z</time>
      </trkpt>
      <trkpt lat="47.2487" lon="-0.67291">
        <ele>72.2362061</ele>
        <time>2011-08-27T13:23:49Z</time>
      </trkpt>
      <trkpt lat="47.24871" lon="-0.67291">
        <ele>73.6782227</ele>
        <time>2011-08-27T13:23:55Z</time>
      </trkpt>
      <trkpt lat="47.24871" lon="-0.67291">
        <ele>76.0814209</ele>
        <time>2011-08-27T13:24:06Z</time>
      </trkpt>
      <trkpt lat="47.24868" lon="-0.67292">
        <ele>77.0428467</ele>
        <time>2011-08-27T13:24:12Z</time>
      </trkpt>
      <trkpt lat="47.24865" lon="-0.673">
        <ele>76.0814209</ele>
        <time>2011-08-27T13:24:15Z</time>
      </trkpt>
      <trkpt lat="47.24862" lon="-0.67307">
        <ele>75.6008301</ele>
        <time>2011-08-27T13:24:17Z</time>
      </trkpt>
      <trkpt lat="47.24849" lon="-0.67334">
        <ele>75.6008301</ele>
        <time>2011-08-27T13:24:26Z</time>
      </trkpt>
      <trkpt lat="47.24842" lon="-0.67346">
        <ele>75.6008301</ele>
        <time>2011-08-27T13:24:32Z</time>
      </trkpt>
      <trkpt lat="47.24835" lon="-0.67361">
        <ele>74.6395264</ele>
        <time>2011-08-27T13:24:38Z</time>
      </trkpt>
      <trkpt lat="47.24823" lon="-0.67387">
        <ele>75.1202393</ele>
        <time>2011-08-27T13:24:48Z</time>
      </trkpt>
      <trkpt lat="47.24809" lon="-0.67411">
        <ele>74.6395264</ele>
        <time>2011-08-27T13:24:57Z</time>
      </trkpt>
      <trkpt lat="47.24791" lon="-0.67439">
        <ele>77.0428467</ele>
        <time>2011-08-27T13:25:06Z</time>
      </trkpt>
      <trkpt lat="47.24775" lon="-0.67462">
        <ele>78.4847412</ele>
        <time>2011-08-27T13:25:13Z</time>
      </trkpt>
      <trkpt lat="47.24762" lon="-0.67481">
        <ele>78.9654541</ele>
        <time>2011-08-27T13:25:19Z</time>
      </trkpt>
      <trkpt lat="47.24738" lon="-0.67515">
        <ele>80.4074707</ele>
        <time>2011-08-27T13:25:29Z</time>
      </trkpt>
      <trkpt lat="47.24718" lon="-0.67549">
        <ele>81.3687744</ele>
        <time>2011-08-27T13:25:38Z</time>
      </trkpt>
      <trkpt lat="47.24698" lon="-0.67592">
        <ele>82.3300781</ele>
        <time>2011-08-27T13:25:48Z</time>
      </trkpt>
      <trkpt lat="47.24684" lon="-0.67625">
        <ele>83.7719727</ele>
        <time>2011-08-27T13:25:56Z</time>
      </trkpt>
      <trkpt lat="47.24668" lon="-0.67662">
        <ele>85.6945801</ele>
        <time>2011-08-27T13:26:05Z</time>
      </trkpt>
      <trkpt lat="47.24652" lon="-0.67699">
        <ele>87.1365967</ele>
        <time>2011-08-27T13:26:14Z</time>
      </trkpt>
      <trkpt lat="47.24633" lon="-0.67741">
        <ele>87.6171875</ele>
        <time>2011-08-27T13:26:24Z</time>
      </trkpt>
      <trkpt lat="47.24615" lon="-0.67776">
        <ele>89.0593262</ele>
        <time>2011-08-27T13:26:33Z</time>
      </trkpt>
      <trkpt lat="47.24601" lon="-0.678">
        <ele>89.539917</ele>
        <time>2011-08-27T13:26:39Z</time>
      </trkpt>
      <trkpt lat="47.2458" lon="-0.6784">
        <ele>90.0206299</ele>
        <time>2011-08-27T13:26:48Z</time>
      </trkpt>
      <trkpt lat="47.24555" lon="-0.67884">
        <ele>91.4625244</ele>
        <time>2011-08-27T13:26:58Z</time>
      </trkpt>
      <trkpt lat="47.24542" lon="-0.67912">
        <ele>90.5013428</ele>
        <time>2011-08-27T13:27:04Z</time>
      </trkpt>
      <trkpt lat="47.24536" lon="-0.67946">
        <ele>90.5013428</ele>
        <time>2011-08-27T13:27:11Z</time>
      </trkpt>
      <trkpt lat="47.2453" lon="-0.67977">
        <ele>89.539917</ele>
        <time>2011-08-27T13:27:19Z</time>
      </trkpt>
      <trkpt lat="47.24524" lon="-0.68002">
        <ele>87.6171875</ele>
        <time>2011-08-27T13:27:24Z</time>
      </trkpt>
      <trkpt lat="47.24513" lon="-0.68044">
        <ele>85.6945801</ele>
        <time>2011-08-27T13:27:31Z</time>
      </trkpt>
      <trkpt lat="47.24507" lon="-0.68055">
        <ele>84.7333984</ele>
        <time>2011-08-27T13:27:33Z</time>
      </trkpt>
      <trkpt lat="47.24499" lon="-0.68064">
        <ele>84.2526855</ele>
        <time>2011-08-27T13:27:35Z</time>
      </trkpt>
      <trkpt lat="47.24457" lon="-0.68094">
        <ele>82.3300781</ele>
        <time>2011-08-27T13:27:44Z</time>
      </trkpt>
      <trkpt lat="47.24415" lon="-0.68119">
        <ele>81.3687744</ele>
        <time>2011-08-27T13:27:53Z</time>
      </trkpt>
      <trkpt lat="47.24384" lon="-0.68143">
        <ele>82.810791</ele>
        <time>2011-08-27T13:28:01Z</time>
      </trkpt>
      <trkpt lat="47.24361" lon="-0.6817">
        <ele>85.2139893</ele>
        <time>2011-08-27T13:28:09Z</time>
      </trkpt>
      <trkpt lat="47.24347" lon="-0.68201">
        <ele>86.6560059</ele>
        <time>2011-08-27T13:28:16Z</time>
      </trkpt>
      <trkpt lat="47.2434" lon="-0.68232">
        <ele>87.6171875</ele>
        <time>2011-08-27T13:28:22Z</time>
      </trkpt>
      <trkpt lat="47.24328" lon="-0.68281">
        <ele>87.6171875</ele>
        <time>2011-08-27T13:28:31Z</time>
      </trkpt>
      <trkpt lat="47.24314" lon="-0.68326">
        <ele>87.6171875</ele>
        <time>2011-08-27T13:28:39Z</time>
      </trkpt>
      <trkpt lat="47.243" lon="-0.68378">
        <ele>89.0593262</ele>
        <time>2011-08-27T13:28:48Z</time>
      </trkpt>
      <trkpt lat="47.24289" lon="-0.68439">
        <ele>90.0206299</ele>
        <time>2011-08-27T13:28:58Z</time>
      </trkpt>
      <trkpt lat="47.24273" lon="-0.68499">
        <ele>90.5013428</ele>
        <time>2011-08-27T13:29:08Z</time>
      </trkpt>
      <trkpt lat="47.24257" lon="-0.6855">
        <ele>90.9819336</ele>
        <time>2011-08-27T13:29:17Z</time>
      </trkpt>
      <trkpt lat="47.2424" lon="-0.68603">
        <ele>91.4625244</ele>
        <time>2011-08-27T13:29:26Z</time>
      </trkpt>
      <trkpt lat="47.24224" lon="-0.68651">
        <ele>91.9432373</ele>
        <time>2011-08-27T13:29:34Z</time>
      </trkpt>
      <trkpt lat="47.2421" lon="-0.68698">
        <ele>92.4239502</ele>
        <time>2011-08-27T13:29:42Z</time>
      </trkpt>
      <trkpt lat="47.24193" lon="-0.68758">
        <ele>93.3851318</ele>
        <time>2011-08-27T13:29:52Z</time>
      </trkpt>
      <trkpt lat="47.24177" lon="-0.68809">
        <ele>93.3851318</ele>
        <time>2011-08-27T13:30:01Z</time>
      </trkpt>
      <trkpt lat="47.24161" lon="-0.68862">
        <ele>94.8271484</ele>
        <time>2011-08-27T13:30:10Z</time>
      </trkpt>
      <trkpt lat="47.24155" lon="-0.68883">
        <ele>94.8271484</ele>
        <time>2011-08-27T13:30:14Z</time>
      </trkpt>
      <trkpt lat="47.24158" lon="-0.68915">
        <ele>95.7884521</ele>
        <time>2011-08-27T13:30:20Z</time>
      </trkpt>
      <trkpt lat="47.2416" lon="-0.6892">
        <ele>96.2692871</ele>
        <time>2011-08-27T13:30:21Z</time>
      </trkpt>
      <trkpt lat="47.24188" lon="-0.68965">
        <ele>95.3077393</ele>
        <time>2011-08-27T13:30:31Z</time>
      </trkpt>
      <trkpt lat="47.24219" lon="-0.6901">
        <ele>93.8658447</ele>
        <time>2011-08-27T13:30:41Z</time>
      </trkpt>
      <trkpt lat="47.2424" lon="-0.6904">
        <ele>92.904541</ele>
        <time>2011-08-27T13:30:48Z</time>
      </trkpt>
      <trkpt lat="47.24245" lon="-0.6905">
        <ele>92.4239502</ele>
        <time>2011-08-27T13:30:50Z</time>
      </trkpt>
      <trkpt lat="47.24251" lon="-0.69077">
        <ele>91.9432373</ele>
        <time>2011-08-27T13:30:55Z</time>
      </trkpt>
      <trkpt lat="47.24251" lon="-0.69141">
        <ele>90.9819336</ele>
        <time>2011-08-27T13:31:05Z</time>
      </trkpt>
      <trkpt lat="47.24252" lon="-0.6919">
        <ele>90.9819336</ele>
        <time>2011-08-27T13:31:13Z</time>
      </trkpt>
      <trkpt lat="47.24252" lon="-0.69247">
        <ele>90.9819336</ele>
        <time>2011-08-27T13:31:22Z</time>
      </trkpt>
      <trkpt lat="47.24251" lon="-0.69305">
        <ele>91.4625244</ele>
        <time>2011-08-27T13:31:31Z</time>
      </trkpt>
      <trkpt lat="47.24251" lon="-0.69356">
        <ele>91.9432373</ele>
        <time>2011-08-27T13:31:39Z</time>
      </trkpt>
      <trkpt lat="47.2425" lon="-0.69414">
        <ele>92.904541</ele>
        <time>2011-08-27T13:31:48Z</time>
      </trkpt>
      <trkpt lat="47.24249" lon="-0.69464">
        <ele>92.904541</ele>
        <time>2011-08-27T13:31:56Z</time>
      </trkpt>
      <trkpt lat="47.24248" lon="-0.69519">
        <ele>93.8658447</ele>
        <time>2011-08-27T13:32:05Z</time>
      </trkpt>
      <trkpt lat="47.24247" lon="-0.69575">
        <ele>93.8658447</ele>
        <time>2011-08-27T13:32:14Z</time>
      </trkpt>
      <trkpt lat="47.24247" lon="-0.69594">
        <ele>93.3851318</ele>
        <time>2011-08-27T13:32:17Z</time>
      </trkpt>
      <trkpt lat="47.24237" lon="-0.69619">
        <ele>93.8658447</ele>
        <time>2011-08-27T13:32:22Z</time>
      </trkpt>
      <trkpt lat="47.24234" lon="-0.69623">
        <ele>93.8658447</ele>
        <time>2011-08-27T13:32:23Z</time>
      </trkpt>
      <trkpt lat="47.24198" lon="-0.69659">
        <ele>94.3465576</ele>
        <time>2011-08-27T13:32:33Z</time>
      </trkpt>
      <trkpt lat="47.2417" lon="-0.69689">
        <ele>95.3077393</ele>
        <time>2011-08-27T13:32:41Z</time>
      </trkpt>
      <trkpt lat="47.24126" lon="-0.69736">
        <ele>95.3077393</ele>
        <time>2011-08-27T13:32:53Z</time>
      </trkpt>
      <trkpt lat="47.24089" lon="-0.69775">
        <ele>95.3077393</ele>
        <time>2011-08-27T13:33:03Z</time>
      </trkpt>
      <trkpt lat="47.2406" lon="-0.69806">
        <ele>94.8271484</ele>
        <time>2011-08-27T13:33:11Z</time>
      </trkpt>
      <trkpt lat="47.24039" lon="-0.69831">
        <ele>94.3465576</ele>
        <time>2011-08-27T13:33:17Z</time>
      </trkpt>
      <trkpt lat="47.2402" lon="-0.69834">
        <ele>94.3465576</ele>
        <time>2011-08-27T13:33:22Z</time>
      </trkpt>
      <trkpt lat="47.24016" lon="-0.69831">
        <ele>93.8658447</ele>
        <time>2011-08-27T13:33:23Z</time>
      </trkpt>
      <trkpt lat="47.23987" lon="-0.69811">
        <ele>91.4625244</ele>
        <time>2011-08-27T13:33:31Z</time>
      </trkpt>
      <trkpt lat="47.2395" lon="-0.69785">
        <ele>89.0593262</ele>
        <time>2011-08-27T13:33:41Z</time>
      </trkpt>
      <trkpt lat="47.23939" lon="-0.69777">
        <ele>88.5787354</ele>
        <time>2011-08-27T13:33:44Z</time>
      </trkpt>
      <trkpt lat="47.23932" lon="-0.69772">
        <ele>88.0980225</ele>
        <time>2011-08-27T13:33:46Z</time>
      </trkpt>
      <trkpt lat="47.23916" lon="-0.69761">
        <ele>87.1365967</ele>
        <time>2011-08-27T13:33:50Z</time>
      </trkpt>
      <trkpt lat="47.239" lon="-0.69764">
        <ele>86.6560059</ele>
        <time>2011-08-27T13:33:54Z</time>
      </trkpt>
      <trkpt lat="47.23895" lon="-0.69775">
        <ele>86.6560059</ele>
        <time>2011-08-27T13:33:56Z</time>
      </trkpt>
      <trkpt lat="47.23869" lon="-0.69831">
        <ele>86.175293</ele>
        <time>2011-08-27T13:34:06Z</time>
      </trkpt>
      <trkpt lat="47.23837" lon="-0.699">
        <ele>86.6560059</ele>
        <time>2011-08-27T13:34:17Z</time>
      </trkpt>
      <trkpt lat="47.23819" lon="-0.69946">
        <ele>86.175293</ele>
        <time>2011-08-27T13:34:24Z</time>
      </trkpt>
      <trkpt lat="47.23801" lon="-0.69997">
        <ele>85.6945801</ele>
        <time>2011-08-27T13:34:31Z</time>
      </trkpt>
      <trkpt lat="47.23783" lon="-0.70045">
        <ele>84.2526855</ele>
        <time>2011-08-27T13:34:37Z</time>
      </trkpt>
      <trkpt lat="47.23759" lon="-0.70087">
        <ele>82.3300781</ele>
        <time>2011-08-27T13:34:43Z</time>
      </trkpt>
      <trkpt lat="47.23722" lon="-0.70146">
        <ele>80.4074707</ele>
        <time>2011-08-27T13:34:52Z</time>
      </trkpt>
      <trkpt lat="47.23693" lon="-0.702">
        <ele>79.9266357</ele>
        <time>2011-08-27T13:35:00Z</time>
      </trkpt>
      <trkpt lat="47.23667" lon="-0.70275">
        <ele>78.4847412</ele>
        <time>2011-08-27T13:35:10Z</time>
      </trkpt>
      <trkpt lat="47.23655" lon="-0.70324">
        <ele>75.6008301</ele>
        <time>2011-08-27T13:35:15Z</time>
      </trkpt>
      <trkpt lat="47.2364" lon="-0.70382">
        <ele>73.1976318</ele>
        <time>2011-08-27T13:35:21Z</time>
      </trkpt>
      <trkpt lat="47.23617" lon="-0.70465">
        <ele>71.7554932</ele>
        <time>2011-08-27T13:35:30Z</time>
      </trkpt>
      <trkpt lat="47.23612" lon="-0.7049">
        <ele>72.2362061</ele>
        <time>2011-08-27T13:35:33Z</time>
      </trkpt>
      <trkpt lat="47.23601" lon="-0.70538">
        <ele>73.6782227</ele>
        <time>2011-08-27T13:35:40Z</time>
      </trkpt>
      <trkpt lat="47.23593" lon="-0.70573">
        <ele>75.1202393</ele>
        <time>2011-08-27T13:35:46Z</time>
      </trkpt>
      <trkpt lat="47.23581" lon="-0.70608">
        <ele>77.5234375</ele>
        <time>2011-08-27T13:35:53Z</time>
      </trkpt>
      <trkpt lat="47.23573" lon="-0.70628">
        <ele>78.0040283</ele>
        <time>2011-08-27T13:35:57Z</time>
      </trkpt>
      <trkpt lat="47.2357" lon="-0.70638">
        <ele>78.0040283</ele>
        <time>2011-08-27T13:35:59Z</time>
      </trkpt>
      <trkpt lat="47.23553" lon="-0.70684">
        <ele>78.9654541</ele>
        <time>2011-08-27T13:36:08Z</time>
      </trkpt>
      <trkpt lat="47.23542" lon="-0.7072">
        <ele>78.9654541</ele>
        <time>2011-08-27T13:36:15Z</time>
      </trkpt>
      <trkpt lat="47.23539" lon="-0.7073">
        <ele>79.4460449</ele>
        <time>2011-08-27T13:36:17Z</time>
      </trkpt>
      <trkpt lat="47.23537" lon="-0.70735">
        <ele>79.9266357</ele>
        <time>2011-08-27T13:36:18Z</time>
      </trkpt>
      <trkpt lat="47.23522" lon="-0.70766">
        <ele>80.4074707</ele>
        <time>2011-08-27T13:36:25Z</time>
      </trkpt>
      <trkpt lat="47.23512" lon="-0.70788">
        <ele>79.9266357</ele>
        <time>2011-08-27T13:36:30Z</time>
      </trkpt>
      <trkpt lat="47.23499" lon="-0.70822">
        <ele>78.4847412</ele>
        <time>2011-08-27T13:36:37Z</time>
      </trkpt>
      <trkpt lat="47.23496" lon="-0.70857">
        <ele>78.4847412</ele>
        <time>2011-08-27T13:36:44Z</time>
      </trkpt>
      <trkpt lat="47.23499" lon="-0.70886">
        <ele>78.9654541</ele>
        <time>2011-08-27T13:36:51Z</time>
      </trkpt>
      <trkpt lat="47.23506" lon="-0.70922">
        <ele>79.4460449</ele>
        <time>2011-08-27T13:36:59Z</time>
      </trkpt>
      <trkpt lat="47.23513" lon="-0.70945">
        <ele>79.4460449</ele>
        <time>2011-08-27T13:37:06Z</time>
      </trkpt>
      <trkpt lat="47.2352" lon="-0.70975">
        <ele>78.4847412</ele>
        <time>2011-08-27T13:37:13Z</time>
      </trkpt>
      <trkpt lat="47.23518" lon="-0.71005">
        <ele>77.5234375</ele>
        <time>2011-08-27T13:37:18Z</time>
      </trkpt>
      <trkpt lat="47.23506" lon="-0.71055">
        <ele>78.0040283</ele>
        <time>2011-08-27T13:37:27Z</time>
      </trkpt>
      <trkpt lat="47.23494" lon="-0.71102">
        <ele>79.4460449</ele>
        <time>2011-08-27T13:37:36Z</time>
      </trkpt>
      <trkpt lat="47.23488" lon="-0.71135">
        <ele>80.4074707</ele>
        <time>2011-08-27T13:37:42Z</time>
      </trkpt>
      <trkpt lat="47.23482" lon="-0.71176">
        <ele>81.3687744</ele>
        <time>2011-08-27T13:37:50Z</time>
      </trkpt>
      <trkpt lat="47.2348" lon="-0.71213">
        <ele>80.4074707</ele>
        <time>2011-08-27T13:37:58Z</time>
      </trkpt>
      <trkpt lat="47.23481" lon="-0.7124">
        <ele>78.9654541</ele>
        <time>2011-08-27T13:38:04Z</time>
      </trkpt>
      <trkpt lat="47.23478" lon="-0.71243">
        <ele>78.9654541</ele>
        <time>2011-08-27T13:38:09Z</time>
      </trkpt>
      <trkpt lat="47.23476" lon="-0.71243">
        <ele>78.9654541</ele>
        <time>2011-08-27T13:38:15Z</time>
      </trkpt>
      <trkpt lat="47.23473" lon="-0.71242">
        <ele>78.4847412</ele>
        <time>2011-08-27T13:38:19Z</time>
      </trkpt>
      <trkpt lat="47.23471" lon="-0.71241">
        <ele>78.4847412</ele>
        <time>2011-08-27T13:38:25Z</time>
      </trkpt>
      <trkpt lat="47.23471" lon="-0.71241">
        <ele>78.9654541</ele>
        <time>2011-08-27T13:38:30Z</time>
      </trkpt>
      <trkpt lat="47.2347" lon="-0.71242">
        <ele>79.4460449</ele>
        <time>2011-08-27T13:38:40Z</time>
      </trkpt>
      <trkpt lat="47.2347" lon="-0.71242">
        <ele>79.9266357</ele>
        <time>2011-08-27T13:38:48Z</time>
      </trkpt>
      <trkpt lat="47.2347" lon="-0.71242">
        <ele>79.4460449</ele>
        <time>2011-08-27T13:38:54Z</time>
      </trkpt>
      <trkpt lat="47.2347" lon="-0.71241">
        <ele>78.0040283</ele>
        <time>2011-08-27T13:39:02Z</time>
      </trkpt>
      <trkpt lat="47.2347" lon="-0.71241">
        <ele>78.0040283</ele>
        <time>2011-08-27T13:39:04Z</time>
      </trkpt>
      <trkpt lat="47.2346" lon="-0.71241">
        <ele>76.5621338</ele>
        <time>2011-08-27T13:39:08Z</time>
      </trkpt>
      <trkpt lat="47.23428" lon="-0.71238">
        <ele>73.6782227</ele>
        <time>2011-08-27T13:39:14Z</time>
      </trkpt>
      <trkpt lat="47.23414" lon="-0.71238">
        <ele>72.7169189</ele>
        <time>2011-08-27T13:39:16Z</time>
      </trkpt>
      <trkpt lat="47.23384" lon="-0.71239">
        <ele>71.2749023</ele>
        <time>2011-08-27T13:39:20Z</time>
      </trkpt>
      <trkpt lat="47.23351" lon="-0.7124">
        <ele>70.3134766</ele>
        <time>2011-08-27T13:39:25Z</time>
      </trkpt>
      <trkpt lat="47.2334" lon="-0.71239">
        <ele>69.8328857</ele>
        <time>2011-08-27T13:39:28Z</time>
      </trkpt>
      <trkpt lat="47.23334" lon="-0.71236">
        <ele>70.7941895</ele>
        <time>2011-08-27T13:39:34Z</time>
      </trkpt>
      <trkpt lat="47.23333" lon="-0.71234">
        <ele>71.7554932</ele>
        <time>2011-08-27T13:39:41Z</time>
      </trkpt>
      <trkpt lat="47.23332" lon="-0.7123">
        <ele>70.7941895</ele>
        <time>2011-08-27T13:39:48Z</time>
      </trkpt>
      <trkpt lat="47.23329" lon="-0.71229">
        <ele>71.7554932</ele>
        <time>2011-08-27T13:39:53Z</time>
      </trkpt>
      <trkpt lat="47.23326" lon="-0.71223">
        <ele>71.7554932</ele>
        <time>2011-08-27T13:39:59Z</time>
      </trkpt>
      <trkpt lat="47.23323" lon="-0.7122">
        <ele>70.7941895</ele>
        <time>2011-08-27T13:40:01Z</time>
      </trkpt>
      <trkpt lat="47.23315" lon="-0.71212">
        <ele>68.871582</ele>
        <time>2011-08-27T13:40:08Z</time>
      </trkpt>
      <trkpt lat="47.23308" lon="-0.71204">
        <ele>67.4296875</ele>
        <time>2011-08-27T13:40:14Z</time>
      </trkpt>
      <trkpt lat="47.23295" lon="-0.71195">
        <ele>65.5070801</ele>
        <time>2011-08-27T13:40:18Z</time>
      </trkpt>
      <trkpt lat="47.2327" lon="-0.71194">
        <ele>63.5843506</ele>
        <time>2011-08-27T13:40:23Z</time>
      </trkpt>
      <trkpt lat="47.23248" lon="-0.71191">
        <ele>61.6617432</ele>
        <time>2011-08-27T13:40:27Z</time>
      </trkpt>
      <trkpt lat="47.23225" lon="-0.71176">
        <ele>57.3358154</ele>
        <time>2011-08-27T13:40:31Z</time>
      </trkpt>
      <trkpt lat="47.23218" lon="-0.7117">
        <ele>56.3745117</ele>
        <time>2011-08-27T13:40:32Z</time>
      </trkpt>
      <trkpt lat="47.23211" lon="-0.71164">
        <ele>56.3745117</ele>
        <time>2011-08-27T13:40:33Z</time>
      </trkpt>
      <trkpt lat="47.23205" lon="-0.71157">
        <ele>55.8937988</ele>
        <time>2011-08-27T13:40:34Z</time>
      </trkpt>
      <trkpt lat="47.23181" lon="-0.71104">
        <ele>53.4904785</ele>
        <time>2011-08-27T13:40:40Z</time>
      </trkpt>
      <trkpt lat="47.2317" lon="-0.71073">
        <ele>53.4904785</ele>
        <time>2011-08-27T13:40:44Z</time>
      </trkpt>
      <trkpt lat="47.23153" lon="-0.71054">
        <ele>53.4904785</ele>
        <time>2011-08-27T13:40:48Z</time>
      </trkpt>
      <trkpt lat="47.2314" lon="-0.71059">
        <ele>52.048584</ele>
        <time>2011-08-27T13:40:51Z</time>
      </trkpt>
      <trkpt lat="47.23126" lon="-0.7107">
        <ele>51.5678711</ele>
        <time>2011-08-27T13:40:54Z</time>
      </trkpt>
      <trkpt lat="47.23111" lon="-0.71088">
        <ele>51.5678711</ele>
        <time>2011-08-27T13:40:57Z</time>
      </trkpt>
      <trkpt lat="47.23095" lon="-0.7112">
        <ele>54.4517822</ele>
        <time>2011-08-27T13:41:02Z</time>
      </trkpt>
      <trkpt lat="47.2309" lon="-0.7113">
        <ele>54.932373</ele>
        <time>2011-08-27T13:41:04Z</time>
      </trkpt>
      <trkpt lat="47.23085" lon="-0.71138">
        <ele>55.8937988</ele>
        <time>2011-08-27T13:41:06Z</time>
      </trkpt>
      <trkpt lat="47.23081" lon="-0.71146">
        <ele>56.3745117</ele>
        <time>2011-08-27T13:41:08Z</time>
      </trkpt>
      <trkpt lat="47.23071" lon="-0.71158">
        <ele>57.8165283</ele>
        <time>2011-08-27T13:41:12Z</time>
      </trkpt>
      <trkpt lat="47.23054" lon="-0.71177">
        <ele>57.8165283</ele>
        <time>2011-08-27T13:41:18Z</time>
      </trkpt>
      <trkpt lat="47.23051" lon="-0.7118">
        <ele>57.8165283</ele>
        <time>2011-08-27T13:41:19Z</time>
      </trkpt>
      <trkpt lat="47.23042" lon="-0.71191">
        <ele>56.8551025</ele>
        <time>2011-08-27T13:41:22Z</time>
      </trkpt>
      <trkpt lat="47.23031" lon="-0.71202">
        <ele>56.8551025</ele>
        <time>2011-08-27T13:41:25Z</time>
      </trkpt>
      <trkpt lat="47.23024" lon="-0.71209">
        <ele>56.8551025</ele>
        <time>2011-08-27T13:41:27Z</time>
      </trkpt>
      <trkpt lat="47.2302" lon="-0.71212">
        <ele>56.8551025</ele>
        <time>2011-08-27T13:41:28Z</time>
      </trkpt>
      <trkpt lat="47.23006" lon="-0.71221">
        <ele>55.8937988</ele>
        <time>2011-08-27T13:41:31Z</time>
      </trkpt>
      <trkpt lat="47.23001" lon="-0.71223">
        <ele>55.4130859</ele>
        <time>2011-08-27T13:41:32Z</time>
      </trkpt>
      <trkpt lat="47.2297" lon="-0.71244">
        <ele>54.932373</ele>
        <time>2011-08-27T13:41:38Z</time>
      </trkpt>
      <trkpt lat="47.2296" lon="-0.71259">
        <ele>54.932373</ele>
        <time>2011-08-27T13:41:42Z</time>
      </trkpt>
      <trkpt lat="47.22959" lon="-0.71264">
        <ele>55.4130859</ele>
        <time>2011-08-27T13:41:43Z</time>
      </trkpt>
      <trkpt lat="47.22964" lon="-0.71286">
        <ele>54.4517822</ele>
        <time>2011-08-27T13:41:48Z</time>
      </trkpt>
      <trkpt lat="47.22969" lon="-0.71295">
        <ele>54.932373</ele>
        <time>2011-08-27T13:41:50Z</time>
      </trkpt>
      <trkpt lat="47.22972" lon="-0.713">
        <ele>54.932373</ele>
        <time>2011-08-27T13:41:51Z</time>
      </trkpt>
      <trkpt lat="47.22979" lon="-0.71307">
        <ele>56.3745117</ele>
        <time>2011-08-27T13:41:53Z</time>
      </trkpt>
      <trkpt lat="47.22993" lon="-0.71317">
        <ele>58.2971191</ele>
        <time>2011-08-27T13:41:58Z</time>
      </trkpt>
      <trkpt lat="47.22998" lon="-0.71333">
        <ele>62.142334</ele>
        <time>2011-08-27T13:42:03Z</time>
      </trkpt>
      <trkpt lat="47.22999" lon="-0.71339">
        <ele>63.1036377</ele>
        <time>2011-08-27T13:42:04Z</time>
      </trkpt>
      <trkpt lat="47.23" lon="-0.71377">
        <ele>66.9489746</ele>
        <time>2011-08-27T13:42:10Z</time>
      </trkpt>
      <trkpt lat="47.22996" lon="-0.71411">
        <ele>68.871582</ele>
        <time>2011-08-27T13:42:15Z</time>
      </trkpt>
      <trkpt lat="47.22995" lon="-0.71416">
        <ele>69.3522949</ele>
        <time>2011-08-27T13:42:16Z</time>
      </trkpt>
      <trkpt lat="47.22994" lon="-0.7143">
        <ele>70.7941895</ele>
        <time>2011-08-27T13:42:19Z</time>
      </trkpt>
      <trkpt lat="47.22995" lon="-0.7144">
        <ele>72.2362061</ele>
        <time>2011-08-27T13:42:25Z</time>
      </trkpt>
      <trkpt lat="47.22995" lon="-0.7144">
        <ele>73.1976318</ele>
        <time>2011-08-27T13:42:27Z</time>
      </trkpt>
      <trkpt lat="47.22994" lon="-0.7144">
        <ele>73.1976318</ele>
        <time>2011-08-27T13:42:28Z</time>
      </trkpt>
      <trkpt lat="47.22995" lon="-0.71445">
        <ele>70.7941895</ele>
        <time>2011-08-27T13:42:38Z</time>
      </trkpt>
      <trkpt lat="47.22993" lon="-0.71443">
        <ele>71.7554932</ele>
        <time>2011-08-27T13:43:04Z</time>
      </trkpt>
      <trkpt lat="47.22979" lon="-0.71449">
        <ele>70.7941895</ele>
        <time>2011-08-27T13:43:09Z</time>
      </trkpt>
      <trkpt lat="47.2296" lon="-0.71464">
        <ele>67.9102783</ele>
        <time>2011-08-27T13:43:13Z</time>
      </trkpt>
      <trkpt lat="47.22945" lon="-0.71479">
        <ele>65.5070801</ele>
        <time>2011-08-27T13:43:16Z</time>
      </trkpt>
      <trkpt lat="47.22933" lon="-0.71495">
        <ele>62.6229248</ele>
        <time>2011-08-27T13:43:19Z</time>
      </trkpt>
      <trkpt lat="47.22923" lon="-0.71509">
        <ele>61.1810303</ele>
        <time>2011-08-27T13:43:22Z</time>
      </trkpt>
      <trkpt lat="47.22913" lon="-0.7152">
        <ele>59.2584229</ele>
        <time>2011-08-27T13:43:25Z</time>
      </trkpt>
      <trkpt lat="47.22909" lon="-0.71524">
        <ele>58.2971191</ele>
        <time>2011-08-27T13:43:26Z</time>
      </trkpt>
      <trkpt lat="47.22895" lon="-0.71538">
        <ele>55.8937988</ele>
        <time>2011-08-27T13:43:30Z</time>
      </trkpt>
      <trkpt lat="47.22882" lon="-0.71562">
        <ele>54.932373</ele>
        <time>2011-08-27T13:43:35Z</time>
      </trkpt>
      <trkpt lat="47.22878" lon="-0.71572">
        <ele>55.4130859</ele>
        <time>2011-08-27T13:43:37Z</time>
      </trkpt>
      <trkpt lat="47.22872" lon="-0.71598">
        <ele>57.3358154</ele>
        <time>2011-08-27T13:43:43Z</time>
      </trkpt>
      <trkpt lat="47.22877" lon="-0.71609">
        <ele>57.3358154</ele>
        <time>2011-08-27T13:43:46Z</time>
      </trkpt>
      <trkpt lat="47.22884" lon="-0.71618">
        <ele>58.2971191</ele>
        <time>2011-08-27T13:43:50Z</time>
      </trkpt>
      <trkpt lat="47.22886" lon="-0.71622">
        <ele>59.2584229</ele>
        <time>2011-08-27T13:43:54Z</time>
      </trkpt>
      <trkpt lat="47.22887" lon="-0.71627">
        <ele>64.0650635</ele>
        <time>2011-08-27T13:44:02Z</time>
      </trkpt>
      <trkpt lat="47.2289" lon="-0.71631">
        <ele>62.6229248</ele>
        <time>2011-08-27T13:44:09Z</time>
      </trkpt>
      <trkpt lat="47.22892" lon="-0.7164">
        <ele>65.5070801</ele>
        <time>2011-08-27T13:44:13Z</time>
      </trkpt>
      <trkpt lat="47.22878" lon="-0.71658">
        <ele>66.9489746</ele>
        <time>2011-08-27T13:44:19Z</time>
      </trkpt>
      <trkpt lat="47.22872" lon="-0.71677">
        <ele>66.4682617</ele>
        <time>2011-08-27T13:44:23Z</time>
      </trkpt>
      <trkpt lat="47.22879" lon="-0.717">
        <ele>65.9876709</ele>
        <time>2011-08-27T13:44:28Z</time>
      </trkpt>
      <trkpt lat="47.22889" lon="-0.71723">
        <ele>65.0263672</ele>
        <time>2011-08-27T13:44:34Z</time>
      </trkpt>
      <trkpt lat="47.2289" lon="-0.71741">
        <ele>66.4682617</ele>
        <time>2011-08-27T13:44:39Z</time>
      </trkpt>
      <trkpt lat="47.22883" lon="-0.71752">
        <ele>70.3134766</ele>
        <time>2011-08-27T13:44:44Z</time>
      </trkpt>
      <trkpt lat="47.22867" lon="-0.7177">
        <ele>72.2362061</ele>
        <time>2011-08-27T13:44:52Z</time>
      </trkpt>
      <trkpt lat="47.22851" lon="-0.71776">
        <ele>71.2749023</ele>
        <time>2011-08-27T13:44:59Z</time>
      </trkpt>
      <trkpt lat="47.22831" lon="-0.7178">
        <ele>72.2362061</ele>
        <time>2011-08-27T13:45:08Z</time>
      </trkpt>
      <trkpt lat="47.22803" lon="-0.71785">
        <ele>73.6782227</ele>
        <time>2011-08-27T13:45:19Z</time>
      </trkpt>
      <trkpt lat="47.22795" lon="-0.71787">
        <ele>73.6782227</ele>
        <time>2011-08-27T13:45:22Z</time>
      </trkpt>
      <trkpt lat="47.22771" lon="-0.71792">
        <ele>74.1588135</ele>
        <time>2011-08-27T13:45:32Z</time>
      </trkpt>
      <trkpt lat="47.22768" lon="-0.71791">
        <ele>74.6395264</ele>
        <time>2011-08-27T13:45:34Z</time>
      </trkpt>
      <trkpt lat="47.22769" lon="-0.71779">
        <ele>75.1202393</ele>
        <time>2011-08-27T13:45:39Z</time>
      </trkpt>
      <trkpt lat="47.22773" lon="-0.71777">
        <ele>75.6008301</ele>
        <time>2011-08-27T13:45:41Z</time>
      </trkpt>
      <trkpt lat="47.22791" lon="-0.71764">
        <ele>78.0040283</ele>
        <time>2011-08-27T13:45:50Z</time>
      </trkpt>
      <trkpt lat="47.22806" lon="-0.71749">
        <ele>79.9266357</ele>
        <time>2011-08-27T13:45:58Z</time>
      </trkpt>
      <trkpt lat="47.22813" lon="-0.7174">
        <ele>79.9266357</ele>
        <time>2011-08-27T13:46:02Z</time>
      </trkpt>
      <trkpt lat="47.22815" lon="-0.71737">
        <ele>79.9266357</ele>
        <time>2011-08-27T13:46:03Z</time>
      </trkpt>
      <trkpt lat="47.2282" lon="-0.71732">
        <ele>79.9266357</ele>
        <time>2011-08-27T13:46:05Z</time>
      </trkpt>
      <trkpt lat="47.22822" lon="-0.71729">
        <ele>79.4460449</ele>
        <time>2011-08-27T13:46:06Z</time>
      </trkpt>
      <trkpt lat="47.22827" lon="-0.71707">
        <ele>79.4460449</ele>
        <time>2011-08-27T13:46:11Z</time>
      </trkpt>
      <trkpt lat="47.22822" lon="-0.71686">
        <ele>79.4460449</ele>
        <time>2011-08-27T13:46:16Z</time>
      </trkpt>
      <trkpt lat="47.22815" lon="-0.71674">
        <ele>79.9266357</ele>
        <time>2011-08-27T13:46:20Z</time>
      </trkpt>
      <trkpt lat="47.22802" lon="-0.71655">
        <ele>80.8881836</ele>
        <time>2011-08-27T13:46:27Z</time>
      </trkpt>
      <trkpt lat="47.22797" lon="-0.71646">
        <ele>80.8881836</ele>
        <time>2011-08-27T13:46:30Z</time>
      </trkpt>
      <trkpt lat="47.22781" lon="-0.71617">
        <ele>82.3300781</ele>
        <time>2011-08-27T13:46:39Z</time>
      </trkpt>
      <trkpt lat="47.22771" lon="-0.71596">
        <ele>83.7719727</ele>
        <time>2011-08-27T13:46:46Z</time>
      </trkpt>
      <trkpt lat="47.22762" lon="-0.71575">
        <ele>85.2139893</ele>
        <time>2011-08-27T13:46:54Z</time>
      </trkpt>
      <trkpt lat="47.22751" lon="-0.71551">
        <ele>86.6560059</ele>
        <time>2011-08-27T13:47:03Z</time>
      </trkpt>
      <trkpt lat="47.22737" lon="-0.71532">
        <ele>87.6171875</ele>
        <time>2011-08-27T13:47:12Z</time>
      </trkpt>
      <trkpt lat="47.22719" lon="-0.71511">
        <ele>89.0593262</ele>
        <time>2011-08-27T13:47:22Z</time>
      </trkpt>
      <trkpt lat="47.22705" lon="-0.71482">
        <ele>89.539917</ele>
        <time>2011-08-27T13:47:31Z</time>
      </trkpt>
      <trkpt lat="47.22685" lon="-0.71441">
        <ele>90.5013428</ele>
        <time>2011-08-27T13:47:41Z</time>
      </trkpt>
      <trkpt lat="47.22666" lon="-0.71403">
        <ele>90.5013428</ele>
        <time>2011-08-27T13:47:49Z</time>
      </trkpt>
      <trkpt lat="47.22641" lon="-0.71357">
        <ele>90.0206299</ele>
        <time>2011-08-27T13:47:58Z</time>
      </trkpt>
      <trkpt lat="47.22616" lon="-0.71317">
        <ele>89.539917</ele>
        <time>2011-08-27T13:48:06Z</time>
      </trkpt>
      <trkpt lat="47.22595" lon="-0.71287">
        <ele>89.539917</ele>
        <time>2011-08-27T13:48:12Z</time>
      </trkpt>
      <trkpt lat="47.22578" lon="-0.71281">
        <ele>89.539917</ele>
        <time>2011-08-27T13:48:16Z</time>
      </trkpt>
      <trkpt lat="47.22571" lon="-0.7129">
        <ele>90.0206299</ele>
        <time>2011-08-27T13:48:18Z</time>
      </trkpt>
      <trkpt lat="47.2255" lon="-0.71328">
        <ele>91.4625244</ele>
        <time>2011-08-27T13:48:26Z</time>
      </trkpt>
      <trkpt lat="47.22524" lon="-0.71387">
        <ele>92.904541</ele>
        <time>2011-08-27T13:48:37Z</time>
      </trkpt>
      <trkpt lat="47.22499" lon="-0.71442">
        <ele>93.8658447</ele>
        <time>2011-08-27T13:48:47Z</time>
      </trkpt>
      <trkpt lat="47.22473" lon="-0.7149">
        <ele>94.8271484</ele>
        <time>2011-08-27T13:48:56Z</time>
      </trkpt>
      <trkpt lat="47.22446" lon="-0.71539">
        <ele>94.8271484</ele>
        <time>2011-08-27T13:49:05Z</time>
      </trkpt>
      <trkpt lat="47.2242" lon="-0.71584">
        <ele>93.3851318</ele>
        <time>2011-08-27T13:49:12Z</time>
      </trkpt>
      <trkpt lat="47.22397" lon="-0.7163">
        <ele>91.9432373</ele>
        <time>2011-08-27T13:49:18Z</time>
      </trkpt>
      <trkpt lat="47.22377" lon="-0.71685">
        <ele>90.0206299</ele>
        <time>2011-08-27T13:49:25Z</time>
      </trkpt>
      <trkpt lat="47.22372" lon="-0.717">
        <ele>89.539917</ele>
        <time>2011-08-27T13:49:27Z</time>
      </trkpt>
      <trkpt lat="47.2235" lon="-0.71763">
        <ele>87.6171875</ele>
        <time>2011-08-27T13:49:36Z</time>
      </trkpt>
      <trkpt lat="47.22318" lon="-0.71843">
        <ele>87.6171875</ele>
        <time>2011-08-27T13:49:48Z</time>
      </trkpt>
      <trkpt lat="47.22298" lon="-0.71896">
        <ele>87.1365967</ele>
        <time>2011-08-27T13:49:56Z</time>
      </trkpt>
      <trkpt lat="47.22268" lon="-0.71964">
        <ele>87.1365967</ele>
        <time>2011-08-27T13:50:07Z</time>
      </trkpt>
      <trkpt lat="47.22238" lon="-0.72019">
        <ele>87.6171875</ele>
        <time>2011-08-27T13:50:16Z</time>
      </trkpt>
      <trkpt lat="47.22207" lon="-0.72055">
        <ele>88.0980225</ele>
        <time>2011-08-27T13:50:24Z</time>
      </trkpt>
      <trkpt lat="47.22173" lon="-0.72085">
        <ele>89.539917</ele>
        <time>2011-08-27T13:50:33Z</time>
      </trkpt>
      <trkpt lat="47.2217" lon="-0.72088">
        <ele>90.0206299</ele>
        <time>2011-08-27T13:50:34Z</time>
      </trkpt>
      <trkpt lat="47.22164" lon="-0.72092">
        <ele>90.0206299</ele>
        <time>2011-08-27T13:50:36Z</time>
      </trkpt>
      <trkpt lat="47.22152" lon="-0.72114">
        <ele>90.0206299</ele>
        <time>2011-08-27T13:50:41Z</time>
      </trkpt>
      <trkpt lat="47.22148" lon="-0.72125">
        <ele>90.0206299</ele>
        <time>2011-08-27T13:50:43Z</time>
      </trkpt>
      <trkpt lat="47.22143" lon="-0.72141">
        <ele>90.5013428</ele>
        <time>2011-08-27T13:50:46Z</time>
      </trkpt>
      <trkpt lat="47.22141" lon="-0.72146">
        <ele>90.5013428</ele>
        <time>2011-08-27T13:50:47Z</time>
      </trkpt>
      <trkpt lat="47.22139" lon="-0.72151">
        <ele>90.5013428</ele>
        <time>2011-08-27T13:50:48Z</time>
      </trkpt>
      <trkpt lat="47.22122" lon="-0.72187">
        <ele>90.5013428</ele>
        <time>2011-08-27T13:50:55Z</time>
      </trkpt>
      <trkpt lat="47.22102" lon="-0.72229">
        <ele>88.0980225</ele>
        <time>2011-08-27T13:51:03Z</time>
      </trkpt>
      <trkpt lat="47.22082" lon="-0.72268">
        <ele>85.2139893</ele>
        <time>2011-08-27T13:51:10Z</time>
      </trkpt>
      <trkpt lat="47.22053" lon="-0.7231">
        <ele>83.2913818</ele>
        <time>2011-08-27T13:51:17Z</time>
      </trkpt>
      <trkpt lat="47.22036" lon="-0.72338">
        <ele>83.7719727</ele>
        <time>2011-08-27T13:51:22Z</time>
      </trkpt>
      <trkpt lat="47.22033" lon="-0.72349">
        <ele>83.2913818</ele>
        <time>2011-08-27T13:51:24Z</time>
      </trkpt>
      <trkpt lat="47.22015" lon="-0.72395">
        <ele>82.810791</ele>
        <time>2011-08-27T13:51:32Z</time>
      </trkpt>
      <trkpt lat="47.22008" lon="-0.72407">
        <ele>82.810791</ele>
        <time>2011-08-27T13:51:34Z</time>
      </trkpt>
      <trkpt lat="47.21986" lon="-0.7247">
        <ele>80.4074707</ele>
        <time>2011-08-27T13:51:43Z</time>
      </trkpt>
      <trkpt lat="47.21983" lon="-0.72477">
        <ele>80.4074707</ele>
        <time>2011-08-27T13:51:44Z</time>
      </trkpt>
      <trkpt lat="47.21983" lon="-0.72507">
        <ele>79.9266357</ele>
        <time>2011-08-27T13:51:48Z</time>
      </trkpt>
      <trkpt lat="47.21987" lon="-0.72538">
        <ele>80.8881836</ele>
        <time>2011-08-27T13:51:53Z</time>
      </trkpt>
      <trkpt lat="47.21986" lon="-0.72549">
        <ele>81.3687744</ele>
        <time>2011-08-27T13:51:55Z</time>
      </trkpt>
      <trkpt lat="47.21986" lon="-0.72555">
        <ele>81.3687744</ele>
        <time>2011-08-27T13:51:56Z</time>
      </trkpt>
      <trkpt lat="47.2198" lon="-0.7259">
        <ele>82.810791</ele>
        <time>2011-08-27T13:52:03Z</time>
      </trkpt>
      <trkpt lat="47.21969" lon="-0.7262">
        <ele>85.6945801</ele>
        <time>2011-08-27T13:52:10Z</time>
      </trkpt>
      <trkpt lat="47.21962" lon="-0.72641">
        <ele>88.0980225</ele>
        <time>2011-08-27T13:52:15Z</time>
      </trkpt>
      <trkpt lat="47.21949" lon="-0.72672">
        <ele>90.5013428</ele>
        <time>2011-08-27T13:52:23Z</time>
      </trkpt>
      <trkpt lat="47.21942" lon="-0.72701">
        <ele>90.5013428</ele>
        <time>2011-08-27T13:52:30Z</time>
      </trkpt>
      <trkpt lat="47.21946" lon="-0.72732">
        <ele>90.0206299</ele>
        <time>2011-08-27T13:52:38Z</time>
      </trkpt>
      <trkpt lat="47.21948" lon="-0.72738">
        <ele>90.9819336</ele>
        <time>2011-08-27T13:52:40Z</time>
      </trkpt>
      <trkpt lat="47.21949" lon="-0.72744">
        <ele>91.4625244</ele>
        <time>2011-08-27T13:52:43Z</time>
      </trkpt>
      <trkpt lat="47.2195" lon="-0.72751">
        <ele>95.3077393</ele>
        <time>2011-08-27T13:52:51Z</time>
      </trkpt>
      <trkpt lat="47.21946" lon="-0.72764">
        <ele>97.7111816</ele>
        <time>2011-08-27T13:52:55Z</time>
      </trkpt>
      <trkpt lat="47.21952" lon="-0.72783">
        <ele>101.5563965</ele>
        <time>2011-08-27T13:53:00Z</time>
      </trkpt>
      <trkpt lat="47.21964" lon="-0.72809">
        <ele>101.0756836</ele>
        <time>2011-08-27T13:53:07Z</time>
      </trkpt>
      <trkpt lat="47.21966" lon="-0.72812">
        <ele>99.6337891</ele>
        <time>2011-08-27T13:53:08Z</time>
      </trkpt>
      <trkpt lat="47.2197" lon="-0.7282">
        <ele>97.7111816</ele>
        <time>2011-08-27T13:53:10Z</time>
      </trkpt>
      <trkpt lat="47.21975" lon="-0.72829">
        <ele>96.7498779</ele>
        <time>2011-08-27T13:53:12Z</time>
      </trkpt>
      <trkpt lat="47.21978" lon="-0.72834">
        <ele>96.2692871</ele>
        <time>2011-08-27T13:53:13Z</time>
      </trkpt>
      <trkpt lat="47.21996" lon="-0.7287">
        <ele>93.3851318</ele>
        <time>2011-08-27T13:53:19Z</time>
      </trkpt>
      <trkpt lat="47.22008" lon="-0.72906">
        <ele>90.9819336</ele>
        <time>2011-08-27T13:53:24Z</time>
      </trkpt>
      <trkpt lat="47.22016" lon="-0.72935">
        <ele>89.0593262</ele>
        <time>2011-08-27T13:53:28Z</time>
      </trkpt>
      <trkpt lat="47.22024" lon="-0.72964">
        <ele>87.6171875</ele>
        <time>2011-08-27T13:53:32Z</time>
      </trkpt>
      <trkpt lat="47.22038" lon="-0.72979">
        <ele>87.1365967</ele>
        <time>2011-08-27T13:53:36Z</time>
      </trkpt>
      <trkpt lat="47.22052" lon="-0.72971">
        <ele>87.1365967</ele>
        <time>2011-08-27T13:53:39Z</time>
      </trkpt>
      <trkpt lat="47.2207" lon="-0.72957">
        <ele>86.6560059</ele>
        <time>2011-08-27T13:53:43Z</time>
      </trkpt>
      <trkpt lat="47.22087" lon="-0.72957">
        <ele>85.6945801</ele>
        <time>2011-08-27T13:53:46Z</time>
      </trkpt>
      <trkpt lat="47.221" lon="-0.72978">
        <ele>84.2526855</ele>
        <time>2011-08-27T13:53:49Z</time>
      </trkpt>
      <trkpt lat="47.22107" lon="-0.73003">
        <ele>83.7719727</ele>
        <time>2011-08-27T13:53:52Z</time>
      </trkpt>
      <trkpt lat="47.22104" lon="-0.73031">
        <ele>83.7719727</ele>
        <time>2011-08-27T13:53:56Z</time>
      </trkpt>
      <trkpt lat="47.22096" lon="-0.73041">
        <ele>84.2526855</ele>
        <time>2011-08-27T13:53:58Z</time>
      </trkpt>
      <trkpt lat="47.22061" lon="-0.73075">
        <ele>86.175293</ele>
        <time>2011-08-27T13:54:06Z</time>
      </trkpt>
      <trkpt lat="47.22045" lon="-0.7309">
        <ele>86.6560059</ele>
        <time>2011-08-27T13:54:09Z</time>
      </trkpt>
      <trkpt lat="47.22052" lon="-0.73127">
        <ele>85.2139893</ele>
        <time>2011-08-27T13:54:13Z</time>
      </trkpt>
      <trkpt lat="47.22057" lon="-0.73135">
        <ele>84.2526855</ele>
        <time>2011-08-27T13:54:14Z</time>
      </trkpt>
      <trkpt lat="47.22071" lon="-0.73163">
        <ele>81.8493652</ele>
        <time>2011-08-27T13:54:17Z</time>
      </trkpt>
      <trkpt lat="47.22078" lon="-0.73218">
        <ele>79.9266357</ele>
        <time>2011-08-27T13:54:22Z</time>
      </trkpt>
      <trkpt lat="47.22088" lon="-0.73295">
        <ele>75.1202393</ele>
        <time>2011-08-27T13:54:28Z</time>
      </trkpt>
      <trkpt lat="47.22089" lon="-0.73307">
        <ele>74.6395264</ele>
        <time>2011-08-27T13:54:29Z</time>
      </trkpt>
      <trkpt lat="47.22096" lon="-0.73332">
        <ele>73.1976318</ele>
        <time>2011-08-27T13:54:33Z</time>
      </trkpt>
      <trkpt lat="47.22097" lon="-0.7334">
        <ele>72.7169189</ele>
        <time>2011-08-27T13:54:38Z</time>
      </trkpt>
      <trkpt lat="47.22098" lon="-0.73336">
        <ele>72.2362061</ele>
        <time>2011-08-27T13:54:42Z</time>
      </trkpt>
      <trkpt lat="47.22102" lon="-0.73336">
        <ele>71.7554932</ele>
        <time>2011-08-27T13:54:45Z</time>
      </trkpt>
      <trkpt lat="47.22117" lon="-0.73339">
        <ele>71.2749023</ele>
        <time>2011-08-27T13:54:51Z</time>
      </trkpt>
      <trkpt lat="47.22139" lon="-0.73346">
        <ele>70.3134766</ele>
        <time>2011-08-27T13:54:57Z</time>
      </trkpt>
      <trkpt lat="47.22155" lon="-0.73359">
        <ele>69.8328857</ele>
        <time>2011-08-27T13:55:01Z</time>
      </trkpt>
      <trkpt lat="47.22165" lon="-0.73389">
        <ele>68.871582</ele>
        <time>2011-08-27T13:55:06Z</time>
      </trkpt>
      <trkpt lat="47.22166" lon="-0.73403">
        <ele>68.3908691</ele>
        <time>2011-08-27T13:55:08Z</time>
      </trkpt>
      <trkpt lat="47.22163" lon="-0.73463">
        <ele>68.3908691</ele>
        <time>2011-08-27T13:55:16Z</time>
      </trkpt>
      <trkpt lat="47.22163" lon="-0.73478">
        <ele>68.3908691</ele>
        <time>2011-08-27T13:55:18Z</time>
      </trkpt>
      <trkpt lat="47.22164" lon="-0.73491">
        <ele>68.3908691</ele>
        <time>2011-08-27T13:55:20Z</time>
      </trkpt>
      <trkpt lat="47.22163" lon="-0.7353">
        <ele>67.9102783</ele>
        <time>2011-08-27T13:55:26Z</time>
      </trkpt>
      <trkpt lat="47.22164" lon="-0.73548">
        <ele>66.9489746</ele>
        <time>2011-08-27T13:55:28Z</time>
      </trkpt>
      <trkpt lat="47.22157" lon="-0.73584">
        <ele>65.5070801</ele>
        <time>2011-08-27T13:55:32Z</time>
      </trkpt>
      <trkpt lat="47.22141" lon="-0.7364">
        <ele>65.9876709</ele>
        <time>2011-08-27T13:55:40Z</time>
      </trkpt>
      <trkpt lat="47.22138" lon="-0.7365">
        <ele>66.4682617</ele>
        <time>2011-08-27T13:55:42Z</time>
      </trkpt>
      <trkpt lat="47.22123" lon="-0.73677">
        <ele>69.8328857</ele>
        <time>2011-08-27T13:55:50Z</time>
      </trkpt>
      <trkpt lat="47.22109" lon="-0.73699">
        <ele>72.7169189</ele>
        <time>2011-08-27T13:55:57Z</time>
      </trkpt>
      <trkpt lat="47.2209" lon="-0.73723">
        <ele>75.1202393</ele>
        <time>2011-08-27T13:56:06Z</time>
      </trkpt>
      <trkpt lat="47.22076" lon="-0.73735">
        <ele>77.5234375</ele>
        <time>2011-08-27T13:56:12Z</time>
      </trkpt>
      <trkpt lat="47.22056" lon="-0.73745">
        <ele>78.0040283</ele>
        <time>2011-08-27T13:56:21Z</time>
      </trkpt>
      <trkpt lat="47.22042" lon="-0.73752">
        <ele>78.9654541</ele>
        <time>2011-08-27T13:56:28Z</time>
      </trkpt>
      <trkpt lat="47.22023" lon="-0.73762">
        <ele>80.4074707</ele>
        <time>2011-08-27T13:56:38Z</time>
      </trkpt>
      <trkpt lat="47.22013" lon="-0.73769">
        <ele>82.3300781</ele>
        <time>2011-08-27T13:56:45Z</time>
      </trkpt>
      <trkpt lat="47.22003" lon="-0.73774">
        <ele>83.7719727</ele>
        <time>2011-08-27T13:56:53Z</time>
      </trkpt>
      <trkpt lat="47.21988" lon="-0.73782">
        <ele>85.6945801</ele>
        <time>2011-08-27T13:57:03Z</time>
      </trkpt>
      <trkpt lat="47.21974" lon="-0.73789">
        <ele>87.1365967</ele>
        <time>2011-08-27T13:57:13Z</time>
      </trkpt>
      <trkpt lat="47.21966" lon="-0.73793">
        <ele>88.5787354</ele>
        <time>2011-08-27T13:57:19Z</time>
      </trkpt>
      <trkpt lat="47.21951" lon="-0.73798">
        <ele>88.5787354</ele>
        <time>2011-08-27T13:57:28Z</time>
      </trkpt>
      <trkpt lat="47.21946" lon="-0.73799">
        <ele>89.0593262</ele>
        <time>2011-08-27T13:57:31Z</time>
      </trkpt>
      <trkpt lat="47.21945" lon="-0.73787">
        <ele>88.5787354</ele>
        <time>2011-08-27T13:57:37Z</time>
      </trkpt>
      <trkpt lat="47.21946" lon="-0.73779">
        <ele>88.0980225</ele>
        <time>2011-08-27T13:57:39Z</time>
      </trkpt>
      <trkpt lat="47.21948" lon="-0.73769">
        <ele>87.1365967</ele>
        <time>2011-08-27T13:57:41Z</time>
      </trkpt>
      <trkpt lat="47.21952" lon="-0.73735">
        <ele>85.2139893</ele>
        <time>2011-08-27T13:57:47Z</time>
      </trkpt>
      <trkpt lat="47.21952" lon="-0.73707">
        <ele>84.7333984</ele>
        <time>2011-08-27T13:57:51Z</time>
      </trkpt>
      <trkpt lat="47.21943" lon="-0.73667">
        <ele>84.2526855</ele>
        <time>2011-08-27T13:57:57Z</time>
      </trkpt>
      <trkpt lat="47.21941" lon="-0.73661">
        <ele>84.2526855</ele>
        <time>2011-08-27T13:57:58Z</time>
      </trkpt>
      <trkpt lat="47.21934" lon="-0.73642">
        <ele>83.7719727</ele>
        <time>2011-08-27T13:58:01Z</time>
      </trkpt>
      <trkpt lat="47.21931" lon="-0.73636">
        <ele>83.7719727</ele>
        <time>2011-08-27T13:58:02Z</time>
      </trkpt>
      <trkpt lat="47.21915" lon="-0.73627">
        <ele>81.8493652</ele>
        <time>2011-08-27T13:58:06Z</time>
      </trkpt>
      <trkpt lat="47.2191" lon="-0.73629">
        <ele>81.8493652</ele>
        <time>2011-08-27T13:58:07Z</time>
      </trkpt>
      <trkpt lat="47.21898" lon="-0.73636">
        <ele>81.8493652</ele>
        <time>2011-08-27T13:58:10Z</time>
      </trkpt>
      <trkpt lat="47.21882" lon="-0.73646">
        <ele>82.810791</ele>
        <time>2011-08-27T13:58:14Z</time>
      </trkpt>
      <trkpt lat="47.21847" lon="-0.73665">
        <ele>84.2526855</ele>
        <time>2011-08-27T13:58:22Z</time>
      </trkpt>
      <trkpt lat="47.21808" lon="-0.73689">
        <ele>87.6171875</ele>
        <time>2011-08-27T13:58:32Z</time>
      </trkpt>
      <trkpt lat="47.21774" lon="-0.73712">
        <ele>90.0206299</ele>
        <time>2011-08-27T13:58:41Z</time>
      </trkpt>
      <trkpt lat="47.21752" lon="-0.73727">
        <ele>90.5013428</ele>
        <time>2011-08-27T13:58:48Z</time>
      </trkpt>
      <trkpt lat="47.2174" lon="-0.73735">
        <ele>90.9819336</ele>
        <time>2011-08-27T13:58:52Z</time>
      </trkpt>
      <trkpt lat="47.21729" lon="-0.73743">
        <ele>90.0206299</ele>
        <time>2011-08-27T13:58:55Z</time>
      </trkpt>
      <trkpt lat="47.21723" lon="-0.73746">
        <ele>89.0593262</ele>
        <time>2011-08-27T13:58:57Z</time>
      </trkpt>
      <trkpt lat="47.21716" lon="-0.73735">
        <ele>86.6560059</ele>
        <time>2011-08-27T13:59:01Z</time>
      </trkpt>
      <trkpt lat="47.21714" lon="-0.73727">
        <ele>84.7333984</ele>
        <time>2011-08-27T13:59:03Z</time>
      </trkpt>
      <trkpt lat="47.21708" lon="-0.73704">
        <ele>77.5234375</ele>
        <time>2011-08-27T13:59:08Z</time>
      </trkpt>
      <trkpt lat="47.21707" lon="-0.7368">
        <ele>70.7941895</ele>
        <time>2011-08-27T13:59:11Z</time>
      </trkpt>
      <trkpt lat="47.21709" lon="-0.73664">
        <ele>67.4296875</ele>
        <time>2011-08-27T13:59:13Z</time>
      </trkpt>
      <trkpt lat="47.21702" lon="-0.73647">
        <ele>63.5843506</ele>
        <time>2011-08-27T13:59:16Z</time>
      </trkpt>
      <trkpt lat="47.21696" lon="-0.73646">
        <ele>64.5456543</ele>
        <time>2011-08-27T13:59:19Z</time>
      </trkpt>
      <trkpt lat="47.21698" lon="-0.73647">
        <ele>66.4682617</ele>
        <time>2011-08-27T13:59:22Z</time>
      </trkpt>
      <trkpt lat="47.21698" lon="-0.73647">
        <ele>66.9489746</ele>
        <time>2011-08-27T13:59:23Z</time>
      </trkpt>
      <trkpt lat="47.217" lon="-0.7365">
        <ele>72.2362061</ele>
        <time>2011-08-27T13:59:43Z</time>
      </trkpt>
      <trkpt lat="47.2169" lon="-0.73653">
        <ele>72.2362061</ele>
        <time>2011-08-27T13:59:48Z</time>
      </trkpt>
      <trkpt lat="47.21658" lon="-0.73656">
        <ele>72.2362061</ele>
        <time>2011-08-27T13:59:57Z</time>
      </trkpt>
      <trkpt lat="47.21627" lon="-0.73658">
        <ele>72.2362061</ele>
        <time>2011-08-27T14:00:06Z</time>
      </trkpt>
      <trkpt lat="47.21605" lon="-0.73651">
        <ele>70.7941895</ele>
        <time>2011-08-27T14:00:12Z</time>
      </trkpt>
      <trkpt lat="47.21591" lon="-0.73635">
        <ele>68.871582</ele>
        <time>2011-08-27T14:00:17Z</time>
      </trkpt>
      <trkpt lat="47.21587" lon="-0.73629">
        <ele>68.871582</ele>
        <time>2011-08-27T14:00:19Z</time>
      </trkpt>
      <trkpt lat="47.2157" lon="-0.73615">
        <ele>69.3522949</ele>
        <time>2011-08-27T14:00:26Z</time>
      </trkpt>
      <trkpt lat="47.21551" lon="-0.73603">
        <ele>68.871582</ele>
        <time>2011-08-27T14:00:34Z</time>
      </trkpt>
      <trkpt lat="47.21536" lon="-0.73593">
        <ele>67.9102783</ele>
        <time>2011-08-27T14:00:41Z</time>
      </trkpt>
      <trkpt lat="47.21518" lon="-0.73584">
        <ele>66.9489746</ele>
        <time>2011-08-27T14:00:49Z</time>
      </trkpt>
      <trkpt lat="47.215" lon="-0.73582">
        <ele>66.9489746</ele>
        <time>2011-08-27T14:00:56Z</time>
      </trkpt>
      <trkpt lat="47.21488" lon="-0.73585">
        <ele>67.9102783</ele>
        <time>2011-08-27T14:01:01Z</time>
      </trkpt>
      <trkpt lat="47.21473" lon="-0.73587">
        <ele>66.4682617</ele>
        <time>2011-08-27T14:01:06Z</time>
      </trkpt>
      <trkpt lat="47.21457" lon="-0.73584">
        <ele>63.5843506</ele>
        <time>2011-08-27T14:01:11Z</time>
      </trkpt>
      <trkpt lat="47.21449" lon="-0.7358">
        <ele>62.6229248</ele>
        <time>2011-08-27T14:01:14Z</time>
      </trkpt>
      <trkpt lat="47.21445" lon="-0.73577">
        <ele>62.142334</ele>
        <time>2011-08-27T14:01:16Z</time>
      </trkpt>
      <trkpt lat="47.21443" lon="-0.73575">
        <ele>61.6617432</ele>
        <time>2011-08-27T14:01:17Z</time>
      </trkpt>
      <trkpt lat="47.21435" lon="-0.7357">
        <ele>62.142334</ele>
        <time>2011-08-27T14:01:20Z</time>
      </trkpt>
      <trkpt lat="47.2142" lon="-0.73561">
        <ele>62.142334</ele>
        <time>2011-08-27T14:01:25Z</time>
      </trkpt>
      <trkpt lat="47.21401" lon="-0.7355">
        <ele>62.6229248</ele>
        <time>2011-08-27T14:01:31Z</time>
      </trkpt>
      <trkpt lat="47.21384" lon="-0.7354">
        <ele>64.0650635</ele>
        <time>2011-08-27T14:01:37Z</time>
      </trkpt>
      <trkpt lat="47.21365" lon="-0.73528">
        <ele>64.0650635</ele>
        <time>2011-08-27T14:01:44Z</time>
      </trkpt>
      <trkpt lat="47.21359" lon="-0.73525">
        <ele>64.0650635</ele>
        <time>2011-08-27T14:01:46Z</time>
      </trkpt>
      <trkpt lat="47.21354" lon="-0.73522">
        <ele>64.5456543</ele>
        <time>2011-08-27T14:01:48Z</time>
      </trkpt>
      <trkpt lat="47.21354" lon="-0.7351">
        <ele>64.5456543</ele>
        <time>2011-08-27T14:01:53Z</time>
      </trkpt>
      <trkpt lat="47.21354" lon="-0.73507">
        <ele>64.0650635</ele>
        <time>2011-08-27T14:01:54Z</time>
      </trkpt>
      <trkpt lat="47.21351" lon="-0.73498">
        <ele>62.6229248</ele>
        <time>2011-08-27T14:01:57Z</time>
      </trkpt>
      <trkpt lat="47.21344" lon="-0.7349">
        <ele>62.142334</ele>
        <time>2011-08-27T14:02:00Z</time>
      </trkpt>
      <trkpt lat="47.21343" lon="-0.73487">
        <ele>61.6617432</ele>
        <time>2011-08-27T14:02:01Z</time>
      </trkpt>
      <trkpt lat="47.21341" lon="-0.73466">
        <ele>63.5843506</ele>
        <time>2011-08-27T14:02:06Z</time>
      </trkpt>
      <trkpt lat="47.21338" lon="-0.7344">
        <ele>63.1036377</ele>
        <time>2011-08-27T14:02:12Z</time>
      </trkpt>
      <trkpt lat="47.21338" lon="-0.7342">
        <ele>61.1810303</ele>
        <time>2011-08-27T14:02:17Z</time>
      </trkpt>
      <trkpt lat="47.21332" lon="-0.73418">
        <ele>63.1036377</ele>
        <time>2011-08-27T14:02:20Z</time>
      </trkpt>
      <trkpt lat="47.2133" lon="-0.73417">
        <ele>63.5843506</ele>
        <time>2011-08-27T14:02:21Z</time>
      </trkpt>
      <trkpt lat="47.21327" lon="-0.73416">
        <ele>64.0650635</ele>
        <time>2011-08-27T14:02:22Z</time>
      </trkpt>
      <trkpt lat="47.21325" lon="-0.73413">
        <ele>64.0650635</ele>
        <time>2011-08-27T14:02:23Z</time>
      </trkpt>
      <trkpt lat="47.21307" lon="-0.73398">
        <ele>69.3522949</ele>
        <time>2011-08-27T14:02:30Z</time>
      </trkpt>
      <trkpt lat="47.21297" lon="-0.73396">
        <ele>69.8328857</ele>
        <time>2011-08-27T14:02:34Z</time>
      </trkpt>
      <trkpt lat="47.2129" lon="-0.73395">
        <ele>70.7941895</ele>
        <time>2011-08-27T14:02:37Z</time>
      </trkpt>
      <trkpt lat="47.21288" lon="-0.73395">
        <ele>71.2749023</ele>
        <time>2011-08-27T14:02:38Z</time>
      </trkpt>
      <trkpt lat="47.21284" lon="-0.73382">
        <ele>70.7941895</ele>
        <time>2011-08-27T14:02:43Z</time>
      </trkpt>
      <trkpt lat="47.21284" lon="-0.73365">
        <ele>69.3522949</ele>
        <time>2011-08-27T14:02:47Z</time>
      </trkpt>
      <trkpt lat="47.21287" lon="-0.73348">
        <ele>68.871582</ele>
        <time>2011-08-27T14:02:50Z</time>
      </trkpt>
      <trkpt lat="47.21276" lon="-0.73333">
        <ele>67.4296875</ele>
        <time>2011-08-27T14:02:54Z</time>
      </trkpt>
      <trkpt lat="47.21234" lon="-0.73329">
        <ele>68.871582</ele>
        <time>2011-08-27T14:03:03Z</time>
      </trkpt>
      <trkpt lat="47.21228" lon="-0.73329">
        <ele>70.3134766</ele>
        <time>2011-08-27T14:03:05Z</time>
      </trkpt>
      <trkpt lat="47.21211" lon="-0.73329">
        <ele>74.6395264</ele>
        <time>2011-08-27T14:03:12Z</time>
      </trkpt>
      <trkpt lat="47.21202" lon="-0.73321">
        <ele>76.0814209</ele>
        <time>2011-08-27T14:03:17Z</time>
      </trkpt>
      <trkpt lat="47.21187" lon="-0.73313">
        <ele>77.0428467</ele>
        <time>2011-08-27T14:03:25Z</time>
      </trkpt>
      <trkpt lat="47.21169" lon="-0.73304">
        <ele>77.5234375</ele>
        <time>2011-08-27T14:03:34Z</time>
      </trkpt>
      <trkpt lat="47.21157" lon="-0.73297">
        <ele>78.0040283</ele>
        <time>2011-08-27T14:03:41Z</time>
      </trkpt>
      <trkpt lat="47.21145" lon="-0.73292">
        <ele>78.4847412</ele>
        <time>2011-08-27T14:03:47Z</time>
      </trkpt>
      <trkpt lat="47.21143" lon="-0.73291">
        <ele>78.4847412</ele>
        <time>2011-08-27T14:03:48Z</time>
      </trkpt>
      <trkpt lat="47.21135" lon="-0.73286">
        <ele>78.9654541</ele>
        <time>2011-08-27T14:03:52Z</time>
      </trkpt>
      <trkpt lat="47.21133" lon="-0.73285">
        <ele>79.4460449</ele>
        <time>2011-08-27T14:03:53Z</time>
      </trkpt>
      <trkpt lat="47.21127" lon="-0.73282">
        <ele>79.4460449</ele>
        <time>2011-08-27T14:03:56Z</time>
      </trkpt>
      <trkpt lat="47.21112" lon="-0.73276">
        <ele>79.9266357</ele>
        <time>2011-08-27T14:04:02Z</time>
      </trkpt>
      <trkpt lat="47.21088" lon="-0.73269">
        <ele>80.4074707</ele>
        <time>2011-08-27T14:04:09Z</time>
      </trkpt>
      <trkpt lat="47.21081" lon="-0.73267">
        <ele>80.4074707</ele>
        <time>2011-08-27T14:04:11Z</time>
      </trkpt>
      <trkpt lat="47.21078" lon="-0.73265">
        <ele>80.4074707</ele>
        <time>2011-08-27T14:04:12Z</time>
      </trkpt>
      <trkpt lat="47.21072" lon="-0.73262">
        <ele>80.4074707</ele>
        <time>2011-08-27T14:04:14Z</time>
      </trkpt>
      <trkpt lat="47.21069" lon="-0.73261">
        <ele>80.8881836</ele>
        <time>2011-08-27T14:04:15Z</time>
      </trkpt>
      <trkpt lat="47.21059" lon="-0.73258">
        <ele>81.8493652</ele>
        <time>2011-08-27T14:04:18Z</time>
      </trkpt>
      <trkpt lat="47.21035" lon="-0.73253">
        <ele>82.810791</ele>
        <time>2011-08-27T14:04:25Z</time>
      </trkpt>
      <trkpt lat="47.21009" lon="-0.73247">
        <ele>82.3300781</ele>
        <time>2011-08-27T14:04:32Z</time>
      </trkpt>
      <trkpt lat="47.20995" lon="-0.73244">
        <ele>81.8493652</ele>
        <time>2011-08-27T14:04:35Z</time>
      </trkpt>
      <trkpt lat="47.2099" lon="-0.73243">
        <ele>81.8493652</ele>
        <time>2011-08-27T14:04:36Z</time>
      </trkpt>
      <trkpt lat="47.20985" lon="-0.73242">
        <ele>81.3687744</ele>
        <time>2011-08-27T14:04:37Z</time>
      </trkpt>
      <trkpt lat="47.2098" lon="-0.73241">
        <ele>81.8493652</ele>
        <time>2011-08-27T14:04:38Z</time>
      </trkpt>
      <trkpt lat="47.20956" lon="-0.73236">
        <ele>81.8493652</ele>
        <time>2011-08-27T14:04:43Z</time>
      </trkpt>
      <trkpt lat="47.20946" lon="-0.73235">
        <ele>81.8493652</ele>
        <time>2011-08-27T14:04:45Z</time>
      </trkpt>
      <trkpt lat="47.20931" lon="-0.73239">
        <ele>81.3687744</ele>
        <time>2011-08-27T14:04:48Z</time>
      </trkpt>
      <trkpt lat="47.20922" lon="-0.73257">
        <ele>80.4074707</ele>
        <time>2011-08-27T14:04:51Z</time>
      </trkpt>
      <trkpt lat="47.20919" lon="-0.73273">
        <ele>81.3687744</ele>
        <time>2011-08-27T14:04:55Z</time>
      </trkpt>
      <trkpt lat="47.20918" lon="-0.73276">
        <ele>81.8493652</ele>
        <time>2011-08-27T14:04:56Z</time>
      </trkpt>
      <trkpt lat="47.20908" lon="-0.73289">
        <ele>84.7333984</ele>
        <time>2011-08-27T14:05:02Z</time>
      </trkpt>
      <trkpt lat="47.20893" lon="-0.7331">
        <ele>88.5787354</ele>
        <time>2011-08-27T14:05:12Z</time>
      </trkpt>
      <trkpt lat="47.20887" lon="-0.73329">
        <ele>89.539917</ele>
        <time>2011-08-27T14:05:19Z</time>
      </trkpt>
      <trkpt lat="47.20885" lon="-0.73345">
        <ele>89.539917</ele>
        <time>2011-08-27T14:05:25Z</time>
      </trkpt>
      <trkpt lat="47.20882" lon="-0.73365">
        <ele>89.539917</ele>
        <time>2011-08-27T14:05:33Z</time>
      </trkpt>
      <trkpt lat="47.20876" lon="-0.73375">
        <ele>90.5013428</ele>
        <time>2011-08-27T14:05:37Z</time>
      </trkpt>
      <trkpt lat="47.20869" lon="-0.73378">
        <ele>90.5013428</ele>
        <time>2011-08-27T14:05:40Z</time>
      </trkpt>
      <trkpt lat="47.20867" lon="-0.73378">
        <ele>90.9819336</ele>
        <time>2011-08-27T14:05:41Z</time>
      </trkpt>
      <trkpt lat="47.20848" lon="-0.73372">
        <ele>90.5013428</ele>
        <time>2011-08-27T14:05:48Z</time>
      </trkpt>
      <trkpt lat="47.20842" lon="-0.73369">
        <ele>90.5013428</ele>
        <time>2011-08-27T14:05:50Z</time>
      </trkpt>
      <trkpt lat="47.20838" lon="-0.73368">
        <ele>90.5013428</ele>
        <time>2011-08-27T14:05:51Z</time>
      </trkpt>
      <trkpt lat="47.20829" lon="-0.73366">
        <ele>90.0206299</ele>
        <time>2011-08-27T14:05:54Z</time>
      </trkpt>
      <trkpt lat="47.20805" lon="-0.73363">
        <ele>90.0206299</ele>
        <time>2011-08-27T14:06:01Z</time>
      </trkpt>
      <trkpt lat="47.20787" lon="-0.73364">
        <ele>90.5013428</ele>
        <time>2011-08-27T14:06:06Z</time>
      </trkpt>
      <trkpt lat="47.20776" lon="-0.73366">
        <ele>90.9819336</ele>
        <time>2011-08-27T14:06:09Z</time>
      </trkpt>
      <trkpt lat="47.20773" lon="-0.73366">
        <ele>90.9819336</ele>
        <time>2011-08-27T14:06:10Z</time>
      </trkpt>
      <trkpt lat="47.20766" lon="-0.73368">
        <ele>91.9432373</ele>
        <time>2011-08-27T14:06:12Z</time>
      </trkpt>
      <trkpt lat="47.20749" lon="-0.73373">
        <ele>92.904541</ele>
        <time>2011-08-27T14:06:18Z</time>
      </trkpt>
      <trkpt lat="47.20722" lon="-0.73381">
        <ele>94.3465576</ele>
        <time>2011-08-27T14:06:29Z</time>
      </trkpt>
      <trkpt lat="47.207" lon="-0.73388">
        <ele>94.8271484</ele>
        <time>2011-08-27T14:06:38Z</time>
      </trkpt>
      <trkpt lat="47.20677" lon="-0.73396">
        <ele>94.3465576</ele>
        <time>2011-08-27T14:06:46Z</time>
      </trkpt>
      <trkpt lat="47.20645" lon="-0.73409">
        <ele>93.3851318</ele>
        <time>2011-08-27T14:06:56Z</time>
      </trkpt>
      <trkpt lat="47.20615" lon="-0.73431">
        <ele>93.8658447</ele>
        <time>2011-08-27T14:07:06Z</time>
      </trkpt>
      <trkpt lat="47.20594" lon="-0.73464">
        <ele>95.3077393</ele>
        <time>2011-08-27T14:07:15Z</time>
      </trkpt>
      <trkpt lat="47.20569" lon="-0.73503">
        <ele>95.3077393</ele>
        <time>2011-08-27T14:07:25Z</time>
      </trkpt>
      <trkpt lat="47.20545" lon="-0.73538">
        <ele>96.2692871</ele>
        <time>2011-08-27T14:07:34Z</time>
      </trkpt>
      <trkpt lat="47.20518" lon="-0.73578">
        <ele>97.2304688</ele>
        <time>2011-08-27T14:07:44Z</time>
      </trkpt>
      <trkpt lat="47.20496" lon="-0.73608">
        <ele>98.1918945</ele>
        <time>2011-08-27T14:07:52Z</time>
      </trkpt>
      <trkpt lat="47.20477" lon="-0.73636">
        <ele>98.1918945</ele>
        <time>2011-08-27T14:07:59Z</time>
      </trkpt>
      <trkpt lat="47.20452" lon="-0.73674">
        <ele>98.1918945</ele>
        <time>2011-08-27T14:08:08Z</time>
      </trkpt>
      <trkpt lat="47.20433" lon="-0.7371">
        <ele>99.6337891</ele>
        <time>2011-08-27T14:08:17Z</time>
      </trkpt>
      <trkpt lat="47.20429" lon="-0.7372">
        <ele>99.1530762</ele>
        <time>2011-08-27T14:08:21Z</time>
      </trkpt>
      <trkpt lat="47.20429" lon="-0.73719">
        <ele>97.2304688</ele>
        <time>2011-08-27T14:08:29Z</time>
      </trkpt>
      <trkpt lat="47.20427" lon="-0.73718">
        <ele>93.8658447</ele>
        <time>2011-08-27T14:08:43Z</time>
      </trkpt>
      <trkpt lat="47.20431" lon="-0.73717">
        <ele>104.4404297</ele>
        <time>2011-08-27T14:08:57Z</time>
      </trkpt>
      <trkpt lat="47.20431" lon="-0.73719">
        <ele>107.8050537</ele>
        <time>2011-08-27T14:09:08Z</time>
      </trkpt>
      <trkpt lat="47.20431" lon="-0.73718">
        <ele>107.3243408</ele>
        <time>2011-08-27T14:09:14Z</time>
      </trkpt>
      <trkpt lat="47.20431" lon="-0.73718">
        <ele>106.3630371</ele>
        <time>2011-08-27T14:09:21Z</time>
      </trkpt>
      <trkpt lat="47.2043" lon="-0.73718">
        <ele>103.9597168</ele>
        <time>2011-08-27T14:09:41Z</time>
      </trkpt>
      <trkpt lat="47.2043" lon="-0.73717">
        <ele>102.998291</ele>
        <time>2011-08-27T14:09:46Z</time>
      </trkpt>
      <trkpt lat="47.2043" lon="-0.73717">
        <ele>102.0371094</ele>
        <time>2011-08-27T14:09:52Z</time>
      </trkpt>
      <trkpt lat="47.20429" lon="-0.73717">
        <ele>102.5177002</ele>
        <time>2011-08-27T14:09:55Z</time>
      </trkpt>
      <trkpt lat="47.20421" lon="-0.7373">
        <ele>100.114502</ele>
        <time>2011-08-27T14:10:00Z</time>
      </trkpt>
      <trkpt lat="47.20406" lon="-0.73759">
        <ele>98.1918945</ele>
        <time>2011-08-27T14:10:05Z</time>
      </trkpt>
      <trkpt lat="47.20383" lon="-0.73805">
        <ele>96.2692871</ele>
        <time>2011-08-27T14:10:12Z</time>
      </trkpt>
      <trkpt lat="47.20366" lon="-0.73841">
        <ele>94.8271484</ele>
        <time>2011-08-27T14:10:17Z</time>
      </trkpt>
      <trkpt lat="47.2035" lon="-0.7388">
        <ele>92.904541</ele>
        <time>2011-08-27T14:10:22Z</time>
      </trkpt>
      <trkpt lat="47.20348" lon="-0.73908">
        <ele>93.8658447</ele>
        <time>2011-08-27T14:10:26Z</time>
      </trkpt>
      <trkpt lat="47.2035" lon="-0.73911">
        <ele>94.3465576</ele>
        <time>2011-08-27T14:10:27Z</time>
      </trkpt>
      <trkpt lat="47.2035" lon="-0.73913">
        <ele>94.3465576</ele>
        <time>2011-08-27T14:10:29Z</time>
      </trkpt>
      <trkpt lat="47.20336" lon="-0.7391">
        <ele>92.904541</ele>
        <time>2011-08-27T14:10:34Z</time>
      </trkpt>
      <trkpt lat="47.20321" lon="-0.73893">
        <ele>90.0206299</ele>
        <time>2011-08-27T14:10:37Z</time>
      </trkpt>
      <trkpt lat="47.20309" lon="-0.73879">
        <ele>89.0593262</ele>
        <time>2011-08-27T14:10:39Z</time>
      </trkpt>
      <trkpt lat="47.20287" lon="-0.73858">
        <ele>88.0980225</ele>
        <time>2011-08-27T14:10:43Z</time>
      </trkpt>
      <trkpt lat="47.20281" lon="-0.7385">
        <ele>85.6945801</ele>
        <time>2011-08-27T14:10:45Z</time>
      </trkpt>
      <trkpt lat="47.20272" lon="-0.73842">
        <ele>83.2913818</ele>
        <time>2011-08-27T14:10:47Z</time>
      </trkpt>
      <trkpt lat="47.20247" lon="-0.73802">
        <ele>79.4460449</ele>
        <time>2011-08-27T14:10:52Z</time>
      </trkpt>
      <trkpt lat="47.20228" lon="-0.73796">
        <ele>76.5621338</ele>
        <time>2011-08-27T14:10:57Z</time>
      </trkpt>
      <trkpt lat="47.20223" lon="-0.73813">
        <ele>75.1202393</ele>
        <time>2011-08-27T14:11:00Z</time>
      </trkpt>
      <trkpt lat="47.20219" lon="-0.73832">
        <ele>75.1202393</ele>
        <time>2011-08-27T14:11:03Z</time>
      </trkpt>
      <trkpt lat="47.20217" lon="-0.73847">
        <ele>75.6008301</ele>
        <time>2011-08-27T14:11:06Z</time>
      </trkpt>
      <trkpt lat="47.20213" lon="-0.7386">
        <ele>74.1588135</ele>
        <time>2011-08-27T14:11:08Z</time>
      </trkpt>
      <trkpt lat="47.20209" lon="-0.73872">
        <ele>74.1588135</ele>
        <time>2011-08-27T14:11:10Z</time>
      </trkpt>
      <trkpt lat="47.20204" lon="-0.73885">
        <ele>74.1588135</ele>
        <time>2011-08-27T14:11:12Z</time>
      </trkpt>
      <trkpt lat="47.20202" lon="-0.7389">
        <ele>75.1202393</ele>
        <time>2011-08-27T14:11:13Z</time>
      </trkpt>
      <trkpt lat="47.20197" lon="-0.73899">
        <ele>73.6782227</ele>
        <time>2011-08-27T14:11:15Z</time>
      </trkpt>
      <trkpt lat="47.20194" lon="-0.73908">
        <ele>72.7169189</ele>
        <time>2011-08-27T14:11:17Z</time>
      </trkpt>
      <trkpt lat="47.20195" lon="-0.73932">
        <ele>72.2362061</ele>
        <time>2011-08-27T14:11:22Z</time>
      </trkpt>
      <trkpt lat="47.20207" lon="-0.73952">
        <ele>72.2362061</ele>
        <time>2011-08-27T14:11:27Z</time>
      </trkpt>
      <trkpt lat="47.20223" lon="-0.73974">
        <ele>70.7941895</ele>
        <time>2011-08-27T14:11:32Z</time>
      </trkpt>
      <trkpt lat="47.20226" lon="-0.74003">
        <ele>75.1202393</ele>
        <time>2011-08-27T14:11:36Z</time>
      </trkpt>
      <trkpt lat="47.20223" lon="-0.74037">
        <ele>76.5621338</ele>
        <time>2011-08-27T14:11:42Z</time>
      </trkpt>
      <trkpt lat="47.20216" lon="-0.74068">
        <ele>76.5621338</ele>
        <time>2011-08-27T14:11:48Z</time>
      </trkpt>
      <trkpt lat="47.20209" lon="-0.74091">
        <ele>76.0814209</ele>
        <time>2011-08-27T14:11:53Z</time>
      </trkpt>
      <trkpt lat="47.202" lon="-0.74122">
        <ele>76.5621338</ele>
        <time>2011-08-27T14:11:58Z</time>
      </trkpt>
      <trkpt lat="47.20188" lon="-0.74145">
        <ele>79.4460449</ele>
        <time>2011-08-27T14:12:02Z</time>
      </trkpt>
      <trkpt lat="47.20178" lon="-0.74161">
        <ele>82.3300781</ele>
        <time>2011-08-27T14:12:05Z</time>
      </trkpt>
      <trkpt lat="47.20173" lon="-0.7417">
        <ele>82.3300781</ele>
        <time>2011-08-27T14:12:07Z</time>
      </trkpt>
      <trkpt lat="47.20159" lon="-0.74188">
        <ele>83.2913818</ele>
        <time>2011-08-27T14:12:11Z</time>
      </trkpt>
      <trkpt lat="47.2014" lon="-0.74216">
        <ele>83.2913818</ele>
        <time>2011-08-27T14:12:17Z</time>
      </trkpt>
      <trkpt lat="47.20125" lon="-0.74222">
        <ele>81.3687744</ele>
        <time>2011-08-27T14:12:22Z</time>
      </trkpt>
      <trkpt lat="47.20114" lon="-0.74222">
        <ele>82.3300781</ele>
        <time>2011-08-27T14:12:27Z</time>
      </trkpt>
      <trkpt lat="47.20107" lon="-0.74211">
        <ele>80.8881836</ele>
        <time>2011-08-27T14:12:31Z</time>
      </trkpt>
      <trkpt lat="47.20107" lon="-0.74195">
        <ele>78.4847412</ele>
        <time>2011-08-27T14:12:37Z</time>
      </trkpt>
      <trkpt lat="47.20115" lon="-0.74177">
        <ele>78.4847412</ele>
        <time>2011-08-27T14:12:42Z</time>
      </trkpt>
      <trkpt lat="47.20124" lon="-0.74158">
        <ele>79.4460449</ele>
        <time>2011-08-27T14:12:46Z</time>
      </trkpt>
      <trkpt lat="47.2014" lon="-0.74125">
        <ele>82.3300781</ele>
        <time>2011-08-27T14:12:52Z</time>
      </trkpt>
      <trkpt lat="47.20158" lon="-0.74085">
        <ele>83.2913818</ele>
        <time>2011-08-27T14:12:58Z</time>
      </trkpt>
      <trkpt lat="47.20171" lon="-0.74052">
        <ele>83.7719727</ele>
        <time>2011-08-27T14:13:03Z</time>
      </trkpt>
      <trkpt lat="47.20165" lon="-0.74018">
        <ele>79.9266357</ele>
        <time>2011-08-27T14:13:08Z</time>
      </trkpt>
      <trkpt lat="47.20155" lon="-0.73989">
        <ele>77.0428467</ele>
        <time>2011-08-27T14:13:12Z</time>
      </trkpt>
      <trkpt lat="47.20146" lon="-0.7395">
        <ele>73.6782227</ele>
        <time>2011-08-27T14:13:17Z</time>
      </trkpt>
      <trkpt lat="47.20137" lon="-0.73928">
        <ele>71.7554932</ele>
        <time>2011-08-27T14:13:21Z</time>
      </trkpt>
      <trkpt lat="47.20127" lon="-0.73915">
        <ele>73.6782227</ele>
        <time>2011-08-27T14:13:27Z</time>
      </trkpt>
      <trkpt lat="47.20125" lon="-0.73913">
        <ele>73.6782227</ele>
        <time>2011-08-27T14:13:28Z</time>
      </trkpt>
      <trkpt lat="47.20115" lon="-0.73901">
        <ele>75.6008301</ele>
        <time>2011-08-27T14:13:35Z</time>
      </trkpt>
      <trkpt lat="47.20109" lon="-0.73891">
        <ele>78.0040283</ele>
        <time>2011-08-27T14:13:41Z</time>
      </trkpt>
      <trkpt lat="47.20099" lon="-0.73875">
        <ele>79.9266357</ele>
        <time>2011-08-27T14:13:51Z</time>
      </trkpt>
      <trkpt lat="47.20094" lon="-0.73863">
        <ele>80.4074707</ele>
        <time>2011-08-27T14:13:58Z</time>
      </trkpt>
      <trkpt lat="47.20087" lon="-0.73851">
        <ele>79.9266357</ele>
        <time>2011-08-27T14:14:05Z</time>
      </trkpt>
      <trkpt lat="47.20083" lon="-0.73838">
        <ele>79.9266357</ele>
        <time>2011-08-27T14:14:12Z</time>
      </trkpt>
      <trkpt lat="47.20085" lon="-0.73832">
        <ele>80.4074707</ele>
        <time>2011-08-27T14:14:16Z</time>
      </trkpt>
      <trkpt lat="47.20086" lon="-0.73814">
        <ele>80.8881836</ele>
        <time>2011-08-27T14:14:23Z</time>
      </trkpt>
      <trkpt lat="47.20092" lon="-0.73792">
        <ele>81.8493652</ele>
        <time>2011-08-27T14:14:29Z</time>
      </trkpt>
      <trkpt lat="47.20097" lon="-0.73772">
        <ele>79.4460449</ele>
        <time>2011-08-27T14:14:34Z</time>
      </trkpt>
      <trkpt lat="47.20102" lon="-0.73747">
        <ele>77.5234375</ele>
        <time>2011-08-27T14:14:39Z</time>
      </trkpt>
      <trkpt lat="47.20104" lon="-0.73722">
        <ele>75.6008301</ele>
        <time>2011-08-27T14:14:43Z</time>
      </trkpt>
      <trkpt lat="47.20107" lon="-0.73689">
        <ele>76.0814209</ele>
        <time>2011-08-27T14:14:48Z</time>
      </trkpt>
      <trkpt lat="47.2011" lon="-0.73668">
        <ele>75.6008301</ele>
        <time>2011-08-27T14:14:51Z</time>
      </trkpt>
      <trkpt lat="47.20123" lon="-0.73636">
        <ele>76.5621338</ele>
        <time>2011-08-27T14:14:56Z</time>
      </trkpt>
      <trkpt lat="47.20126" lon="-0.7363">
        <ele>76.5621338</ele>
        <time>2011-08-27T14:14:57Z</time>
      </trkpt>
      <trkpt lat="47.20148" lon="-0.73565">
        <ele>78.0040283</ele>
        <time>2011-08-27T14:15:06Z</time>
      </trkpt>
      <trkpt lat="47.20145" lon="-0.73536">
        <ele>79.4460449</ele>
        <time>2011-08-27T14:15:10Z</time>
      </trkpt>
      <trkpt lat="47.20137" lon="-0.73527">
        <ele>79.4460449</ele>
        <time>2011-08-27T14:15:12Z</time>
      </trkpt>
      <trkpt lat="47.20092" lon="-0.73488">
        <ele>82.810791</ele>
        <time>2011-08-27T14:15:22Z</time>
      </trkpt>
      <trkpt lat="47.20072" lon="-0.73486">
        <ele>82.810791</ele>
        <time>2011-08-27T14:15:26Z</time>
      </trkpt>
      <trkpt lat="47.20045" lon="-0.73498">
        <ele>84.2526855</ele>
        <time>2011-08-27T14:15:33Z</time>
      </trkpt>
      <trkpt lat="47.20024" lon="-0.73504">
        <ele>85.6945801</ele>
        <time>2011-08-27T14:15:40Z</time>
      </trkpt>
      <trkpt lat="47.20012" lon="-0.73516">
        <ele>87.6171875</ele>
        <time>2011-08-27T14:15:45Z</time>
      </trkpt>
      <trkpt lat="47.20006" lon="-0.73523">
        <ele>88.0980225</ele>
        <time>2011-08-27T14:15:50Z</time>
      </trkpt>
      <trkpt lat="47.20006" lon="-0.73526">
        <ele>90.5013428</ele>
        <time>2011-08-27T14:15:52Z</time>
      </trkpt>
      <trkpt lat="47.2" lon="-0.73534">
        <ele>90.5013428</ele>
        <time>2011-08-27T14:15:57Z</time>
      </trkpt>
      <trkpt lat="47.19984" lon="-0.73556">
        <ele>88.5787354</ele>
        <time>2011-08-27T14:16:04Z</time>
      </trkpt>
      <trkpt lat="47.19972" lon="-0.73571">
        <ele>90.5013428</ele>
        <time>2011-08-27T14:16:10Z</time>
      </trkpt>
      <trkpt lat="47.19957" lon="-0.73596">
        <ele>91.9432373</ele>
        <time>2011-08-27T14:16:17Z</time>
      </trkpt>
      <trkpt lat="47.19946" lon="-0.73617">
        <ele>93.8658447</ele>
        <time>2011-08-27T14:16:23Z</time>
      </trkpt>
      <trkpt lat="47.19937" lon="-0.73634">
        <ele>95.3077393</ele>
        <time>2011-08-27T14:16:28Z</time>
      </trkpt>
      <trkpt lat="47.19928" lon="-0.73654">
        <ele>97.7111816</ele>
        <time>2011-08-27T14:16:33Z</time>
      </trkpt>
      <trkpt lat="47.19919" lon="-0.7368">
        <ele>100.5950928</ele>
        <time>2011-08-27T14:16:39Z</time>
      </trkpt>
      <trkpt lat="47.19913" lon="-0.73696">
        <ele>99.6337891</ele>
        <time>2011-08-27T14:16:44Z</time>
      </trkpt>
      <trkpt lat="47.19904" lon="-0.7372">
        <ele>98.1918945</ele>
        <time>2011-08-27T14:16:52Z</time>
      </trkpt>
      <trkpt lat="47.199" lon="-0.73729">
        <ele>98.6724854</ele>
        <time>2011-08-27T14:16:56Z</time>
      </trkpt>
      <trkpt lat="47.19892" lon="-0.73747">
        <ele>100.114502</ele>
        <time>2011-08-27T14:17:03Z</time>
      </trkpt>
      <trkpt lat="47.19885" lon="-0.73763">
        <ele>99.1530762</ele>
        <time>2011-08-27T14:17:09Z</time>
      </trkpt>
      <trkpt lat="47.19877" lon="-0.73779">
        <ele>97.7111816</ele>
        <time>2011-08-27T14:17:15Z</time>
      </trkpt>
      <trkpt lat="47.19865" lon="-0.73809">
        <ele>100.114502</ele>
        <time>2011-08-27T14:17:24Z</time>
      </trkpt>
      <trkpt lat="47.19855" lon="-0.7383">
        <ele>98.6724854</ele>
        <time>2011-08-27T14:17:32Z</time>
      </trkpt>
      <trkpt lat="47.19847" lon="-0.73844">
        <ele>94.8271484</ele>
        <time>2011-08-27T14:17:38Z</time>
      </trkpt>
      <trkpt lat="47.19839" lon="-0.7386">
        <ele>96.7498779</ele>
        <time>2011-08-27T14:17:44Z</time>
      </trkpt>
      <trkpt lat="47.19831" lon="-0.73874">
        <ele>96.7498779</ele>
        <time>2011-08-27T14:17:50Z</time>
      </trkpt>
      <trkpt lat="47.19822" lon="-0.73891">
        <ele>101.0756836</ele>
        <time>2011-08-27T14:17:56Z</time>
      </trkpt>
      <trkpt lat="47.19816" lon="-0.739">
        <ele>101.5563965</ele>
        <time>2011-08-27T14:18:00Z</time>
      </trkpt>
      <trkpt lat="47.1981" lon="-0.73907">
        <ele>101.5563965</ele>
        <time>2011-08-27T14:18:03Z</time>
      </trkpt>
      <trkpt lat="47.1979" lon="-0.73932">
        <ele>99.1530762</ele>
        <time>2011-08-27T14:18:11Z</time>
      </trkpt>
      <trkpt lat="47.19769" lon="-0.73958">
        <ele>99.1530762</ele>
        <time>2011-08-27T14:18:17Z</time>
      </trkpt>
      <trkpt lat="47.19752" lon="-0.73981">
        <ele>99.1530762</ele>
        <time>2011-08-27T14:18:21Z</time>
      </trkpt>
      <trkpt lat="47.19737" lon="-0.74005">
        <ele>97.2304688</ele>
        <time>2011-08-27T14:18:24Z</time>
      </trkpt>
      <trkpt lat="47.19709" lon="-0.74052">
        <ele>94.3465576</ele>
        <time>2011-08-27T14:18:28Z</time>
      </trkpt>
      <trkpt lat="47.1969" lon="-0.74087">
        <ele>89.0593262</ele>
        <time>2011-08-27T14:18:32Z</time>
      </trkpt>
      <trkpt lat="47.19687" lon="-0.74093">
        <ele>86.6560059</ele>
        <time>2011-08-27T14:18:33Z</time>
      </trkpt>
      <trkpt lat="47.19683" lon="-0.74123">
        <ele>82.810791</ele>
        <time>2011-08-27T14:18:37Z</time>
      </trkpt>
      <trkpt lat="47.19675" lon="-0.74159">
        <ele>78.9654541</ele>
        <time>2011-08-27T14:18:42Z</time>
      </trkpt>
      <trkpt lat="47.19671" lon="-0.74172">
        <ele>79.9266357</ele>
        <time>2011-08-27T14:18:45Z</time>
      </trkpt>
      <trkpt lat="47.19671" lon="-0.74182">
        <ele>80.8881836</ele>
        <time>2011-08-27T14:18:48Z</time>
      </trkpt>
      <trkpt lat="47.19671" lon="-0.74184">
        <ele>80.8881836</ele>
        <time>2011-08-27T14:18:49Z</time>
      </trkpt>
      <trkpt lat="47.19671" lon="-0.74187">
        <ele>81.3687744</ele>
        <time>2011-08-27T14:18:50Z</time>
      </trkpt>
      <trkpt lat="47.19664" lon="-0.74199">
        <ele>80.8881836</ele>
        <time>2011-08-27T14:18:55Z</time>
      </trkpt>
      <trkpt lat="47.19661" lon="-0.74202">
        <ele>80.8881836</ele>
        <time>2011-08-27T14:18:56Z</time>
      </trkpt>
      <trkpt lat="47.19639" lon="-0.74208">
        <ele>80.4074707</ele>
        <time>2011-08-27T14:19:03Z</time>
      </trkpt>
      <trkpt lat="47.19626" lon="-0.74212">
        <ele>81.3687744</ele>
        <time>2011-08-27T14:19:07Z</time>
      </trkpt>
      <trkpt lat="47.1961" lon="-0.74227">
        <ele>82.810791</ele>
        <time>2011-08-27T14:19:13Z</time>
      </trkpt>
      <trkpt lat="47.19589" lon="-0.74252">
        <ele>83.7719727</ele>
        <time>2011-08-27T14:19:21Z</time>
      </trkpt>
      <trkpt lat="47.19572" lon="-0.74273">
        <ele>84.2526855</ele>
        <time>2011-08-27T14:19:29Z</time>
      </trkpt>
      <trkpt lat="47.19561" lon="-0.74287">
        <ele>84.2526855</ele>
        <time>2011-08-27T14:19:36Z</time>
      </trkpt>
      <trkpt lat="47.19551" lon="-0.74298">
        <ele>86.175293</ele>
        <time>2011-08-27T14:19:42Z</time>
      </trkpt>
      <trkpt lat="47.19539" lon="-0.74311">
        <ele>87.6171875</ele>
        <time>2011-08-27T14:19:49Z</time>
      </trkpt>
      <trkpt lat="47.19527" lon="-0.74319">
        <ele>88.5787354</ele>
        <time>2011-08-27T14:19:56Z</time>
      </trkpt>
      <trkpt lat="47.19516" lon="-0.74324">
        <ele>89.539917</ele>
        <time>2011-08-27T14:20:02Z</time>
      </trkpt>
      <trkpt lat="47.19503" lon="-0.7433">
        <ele>90.5013428</ele>
        <time>2011-08-27T14:20:09Z</time>
      </trkpt>
      <trkpt lat="47.19489" lon="-0.74335">
        <ele>90.9819336</ele>
        <time>2011-08-27T14:20:17Z</time>
      </trkpt>
      <trkpt lat="47.1947" lon="-0.74343">
        <ele>91.4625244</ele>
        <time>2011-08-27T14:20:26Z</time>
      </trkpt>
      <trkpt lat="47.19448" lon="-0.74353">
        <ele>91.9432373</ele>
        <time>2011-08-27T14:20:36Z</time>
      </trkpt>
      <trkpt lat="47.19434" lon="-0.74365">
        <ele>91.9432373</ele>
        <time>2011-08-27T14:20:44Z</time>
      </trkpt>
      <trkpt lat="47.19418" lon="-0.7438">
        <ele>92.4239502</ele>
        <time>2011-08-27T14:20:53Z</time>
      </trkpt>
      <trkpt lat="47.19396" lon="-0.74405">
        <ele>96.2692871</ele>
        <time>2011-08-27T14:21:04Z</time>
      </trkpt>
      <trkpt lat="47.19378" lon="-0.74422">
        <ele>97.2304688</ele>
        <time>2011-08-27T14:21:12Z</time>
      </trkpt>
      <trkpt lat="47.19371" lon="-0.74429">
        <ele>97.2304688</ele>
        <time>2011-08-27T14:21:15Z</time>
      </trkpt>
      <trkpt lat="47.1935" lon="-0.74452">
        <ele>98.1918945</ele>
        <time>2011-08-27T14:21:25Z</time>
      </trkpt>
      <trkpt lat="47.19327" lon="-0.74475">
        <ele>99.1530762</ele>
        <time>2011-08-27T14:21:36Z</time>
      </trkpt>
      <trkpt lat="47.19307" lon="-0.74497">
        <ele>99.1530762</ele>
        <time>2011-08-27T14:21:45Z</time>
      </trkpt>
      <trkpt lat="47.19283" lon="-0.7452">
        <ele>95.3077393</ele>
        <time>2011-08-27T14:21:55Z</time>
      </trkpt>
      <trkpt lat="47.19265" lon="-0.74541">
        <ele>96.7498779</ele>
        <time>2011-08-27T14:22:03Z</time>
      </trkpt>
      <trkpt lat="47.19246" lon="-0.74564">
        <ele>97.7111816</ele>
        <time>2011-08-27T14:22:12Z</time>
      </trkpt>
      <trkpt lat="47.19233" lon="-0.74585">
        <ele>99.6337891</ele>
        <time>2011-08-27T14:22:19Z</time>
      </trkpt>
      <trkpt lat="47.19221" lon="-0.74603">
        <ele>100.5950928</ele>
        <time>2011-08-27T14:22:26Z</time>
      </trkpt>
      <trkpt lat="47.1921" lon="-0.74616">
        <ele>99.1530762</ele>
        <time>2011-08-27T14:22:32Z</time>
      </trkpt>
      <trkpt lat="47.19196" lon="-0.74631">
        <ele>99.1530762</ele>
        <time>2011-08-27T14:22:38Z</time>
      </trkpt>
      <trkpt lat="47.1918" lon="-0.74647">
        <ele>98.1918945</ele>
        <time>2011-08-27T14:22:46Z</time>
      </trkpt>
      <trkpt lat="47.19161" lon="-0.74667">
        <ele>100.5950928</ele>
        <time>2011-08-27T14:22:55Z</time>
      </trkpt>
      <trkpt lat="47.19137" lon="-0.74692">
        <ele>101.5563965</ele>
        <time>2011-08-27T14:23:05Z</time>
      </trkpt>
      <trkpt lat="47.19118" lon="-0.74717">
        <ele>102.5177002</ele>
        <time>2011-08-27T14:23:12Z</time>
      </trkpt>
      <trkpt lat="47.19085" lon="-0.74755">
        <ele>104.4404297</ele>
        <time>2011-08-27T14:23:23Z</time>
      </trkpt>
      <trkpt lat="47.19056" lon="-0.74784">
        <ele>106.3630371</ele>
        <time>2011-08-27T14:23:32Z</time>
      </trkpt>
      <trkpt lat="47.19028" lon="-0.74813">
        <ele>106.8436279</ele>
        <time>2011-08-27T14:23:41Z</time>
      </trkpt>
      <trkpt lat="47.1901" lon="-0.74829">
        <ele>106.8436279</ele>
        <time>2011-08-27T14:23:47Z</time>
      </trkpt>
      <trkpt lat="47.1899" lon="-0.74848">
        <ele>107.3243408</ele>
        <time>2011-08-27T14:23:54Z</time>
      </trkpt>
      <trkpt lat="47.18968" lon="-0.74866">
        <ele>107.8050537</ele>
        <time>2011-08-27T14:24:01Z</time>
      </trkpt>
      <trkpt lat="47.18945" lon="-0.74884">
        <ele>108.2856445</ele>
        <time>2011-08-27T14:24:08Z</time>
      </trkpt>
      <trkpt lat="47.18918" lon="-0.74902">
        <ele>108.2856445</ele>
        <time>2011-08-27T14:24:16Z</time>
      </trkpt>
      <trkpt lat="47.18892" lon="-0.74919">
        <ele>108.2856445</ele>
        <time>2011-08-27T14:24:24Z</time>
      </trkpt>
      <trkpt lat="47.18877" lon="-0.74928">
        <ele>107.8050537</ele>
        <time>2011-08-27T14:24:29Z</time>
      </trkpt>
      <trkpt lat="47.1886" lon="-0.74941">
        <ele>107.3243408</ele>
        <time>2011-08-27T14:24:35Z</time>
      </trkpt>
      <trkpt lat="47.1884" lon="-0.74962">
        <ele>104.9210205</ele>
        <time>2011-08-27T14:24:42Z</time>
      </trkpt>
      <trkpt lat="47.18816" lon="-0.74974">
        <ele>103.4790039</ele>
        <time>2011-08-27T14:24:49Z</time>
      </trkpt>
      <trkpt lat="47.18788" lon="-0.74986">
        <ele>102.998291</ele>
        <time>2011-08-27T14:24:57Z</time>
      </trkpt>
      <trkpt lat="47.18769" lon="-0.74993">
        <ele>102.5177002</ele>
        <time>2011-08-27T14:25:03Z</time>
      </trkpt>
      <trkpt lat="47.18741" lon="-0.75005">
        <ele>101.0756836</ele>
        <time>2011-08-27T14:25:11Z</time>
      </trkpt>
      <trkpt lat="47.18733" lon="-0.75008">
        <ele>100.5950928</ele>
        <time>2011-08-27T14:25:13Z</time>
      </trkpt>
      <trkpt lat="47.18729" lon="-0.75009">
        <ele>100.5950928</ele>
        <time>2011-08-27T14:25:14Z</time>
      </trkpt>
      <trkpt lat="47.18695" lon="-0.75022">
        <ele>99.1530762</ele>
        <time>2011-08-27T14:25:23Z</time>
      </trkpt>
      <trkpt lat="47.18671" lon="-0.7503">
        <ele>99.1530762</ele>
        <time>2011-08-27T14:25:30Z</time>
      </trkpt>
      <trkpt lat="47.18644" lon="-0.75037">
        <ele>99.6337891</ele>
        <time>2011-08-27T14:25:38Z</time>
      </trkpt>
      <trkpt lat="47.18618" lon="-0.75045">
        <ele>100.5950928</ele>
        <time>2011-08-27T14:25:46Z</time>
      </trkpt>
      <trkpt lat="47.18592" lon="-0.75057">
        <ele>101.5563965</ele>
        <time>2011-08-27T14:25:54Z</time>
      </trkpt>
      <trkpt lat="47.1857" lon="-0.7507">
        <ele>101.5563965</ele>
        <time>2011-08-27T14:26:01Z</time>
      </trkpt>
      <trkpt lat="47.18558" lon="-0.75073">
        <ele>102.5177002</ele>
        <time>2011-08-27T14:26:05Z</time>
      </trkpt>
      <trkpt lat="47.18543" lon="-0.75078">
        <ele>103.9597168</ele>
        <time>2011-08-27T14:26:10Z</time>
      </trkpt>
      <trkpt lat="47.18515" lon="-0.7509">
        <ele>105.4017334</ele>
        <time>2011-08-27T14:26:19Z</time>
      </trkpt>
      <trkpt lat="47.18482" lon="-0.75102">
        <ele>106.3630371</ele>
        <time>2011-08-27T14:26:29Z</time>
      </trkpt>
      <trkpt lat="47.1845" lon="-0.75114">
        <ele>106.8436279</ele>
        <time>2011-08-27T14:26:39Z</time>
      </trkpt>
      <trkpt lat="47.18419" lon="-0.75123">
        <ele>106.8436279</ele>
        <time>2011-08-27T14:26:49Z</time>
      </trkpt>
      <trkpt lat="47.18396" lon="-0.75132">
        <ele>107.3243408</ele>
        <time>2011-08-27T14:26:57Z</time>
      </trkpt>
      <trkpt lat="47.18378" lon="-0.75138">
        <ele>108.2856445</ele>
        <time>2011-08-27T14:27:04Z</time>
      </trkpt>
      <trkpt lat="47.18355" lon="-0.75145">
        <ele>108.7662354</ele>
        <time>2011-08-27T14:27:12Z</time>
      </trkpt>
      <trkpt lat="47.18327" lon="-0.75155">
        <ele>108.2856445</ele>
        <time>2011-08-27T14:27:22Z</time>
      </trkpt>
      <trkpt lat="47.18304" lon="-0.75164">
        <ele>107.3243408</ele>
        <time>2011-08-27T14:27:31Z</time>
      </trkpt>
      <trkpt lat="47.18294" lon="-0.75167">
        <ele>107.3243408</ele>
        <time>2011-08-27T14:27:34Z</time>
      </trkpt>
      <trkpt lat="47.1827" lon="-0.75176">
        <ele>106.3630371</ele>
        <time>2011-08-27T14:27:42Z</time>
      </trkpt>
      <trkpt lat="47.18247" lon="-0.75186">
        <ele>104.9210205</ele>
        <time>2011-08-27T14:27:49Z</time>
      </trkpt>
      <trkpt lat="47.18213" lon="-0.75203">
        <ele>103.4790039</ele>
        <time>2011-08-27T14:27:58Z</time>
      </trkpt>
      <trkpt lat="47.18189" lon="-0.75215">
        <ele>102.998291</ele>
        <time>2011-08-27T14:28:05Z</time>
      </trkpt>
      <trkpt lat="47.18156" lon="-0.7523">
        <ele>102.5177002</ele>
        <time>2011-08-27T14:28:15Z</time>
      </trkpt>
      <trkpt lat="47.18126" lon="-0.75245">
        <ele>102.5177002</ele>
        <time>2011-08-27T14:28:24Z</time>
      </trkpt>
      <trkpt lat="47.18098" lon="-0.7526">
        <ele>101.5563965</ele>
        <time>2011-08-27T14:28:32Z</time>
      </trkpt>
      <trkpt lat="47.18064" lon="-0.75276">
        <ele>100.114502</ele>
        <time>2011-08-27T14:28:41Z</time>
      </trkpt>
      <trkpt lat="47.18029" lon="-0.75294">
        <ele>98.1918945</ele>
        <time>2011-08-27T14:28:50Z</time>
      </trkpt>
      <trkpt lat="47.17985" lon="-0.75321">
        <ele>97.7111816</ele>
        <time>2011-08-27T14:29:02Z</time>
      </trkpt>
      <trkpt lat="47.17956" lon="-0.75336">
        <ele>100.114502</ele>
        <time>2011-08-27T14:29:11Z</time>
      </trkpt>
      <trkpt lat="47.17935" lon="-0.75346">
        <ele>101.0756836</ele>
        <time>2011-08-27T14:29:18Z</time>
      </trkpt>
      <trkpt lat="47.17922" lon="-0.75357">
        <ele>101.0756836</ele>
        <time>2011-08-27T14:29:23Z</time>
      </trkpt>
      <trkpt lat="47.17907" lon="-0.75381">
        <ele>99.6337891</ele>
        <time>2011-08-27T14:29:29Z</time>
      </trkpt>
      <trkpt lat="47.17887" lon="-0.75416">
        <ele>97.2304688</ele>
        <time>2011-08-27T14:29:36Z</time>
      </trkpt>
      <trkpt lat="47.17862" lon="-0.75454">
        <ele>96.7498779</ele>
        <time>2011-08-27T14:29:44Z</time>
      </trkpt>
      <trkpt lat="47.17837" lon="-0.75479">
        <ele>96.7498779</ele>
        <time>2011-08-27T14:29:52Z</time>
      </trkpt>
      <trkpt lat="47.17811" lon="-0.75492">
        <ele>97.2304688</ele>
        <time>2011-08-27T14:30:01Z</time>
      </trkpt>
      <trkpt lat="47.17794" lon="-0.75501">
        <ele>97.7111816</ele>
        <time>2011-08-27T14:30:07Z</time>
      </trkpt>
      <trkpt lat="47.17779" lon="-0.75507">
        <ele>98.1918945</ele>
        <time>2011-08-27T14:30:12Z</time>
      </trkpt>
      <trkpt lat="47.17756" lon="-0.75517">
        <ele>98.6724854</ele>
        <time>2011-08-27T14:30:20Z</time>
      </trkpt>
      <trkpt lat="47.17742" lon="-0.75523">
        <ele>100.5950928</ele>
        <time>2011-08-27T14:30:27Z</time>
      </trkpt>
      <trkpt lat="47.17735" lon="-0.7553">
        <ele>101.5563965</ele>
        <time>2011-08-27T14:30:33Z</time>
      </trkpt>
      <trkpt lat="47.17731" lon="-0.75535">
        <ele>101.5563965</ele>
        <time>2011-08-27T14:30:38Z</time>
      </trkpt>
      <trkpt lat="47.17732" lon="-0.75535">
        <ele>103.9597168</ele>
        <time>2011-08-27T14:30:51Z</time>
      </trkpt>
      <trkpt lat="47.17732" lon="-0.75534">
        <ele>104.4404297</ele>
        <time>2011-08-27T14:31:05Z</time>
      </trkpt>
      <trkpt lat="47.17732" lon="-0.75534">
        <ele>104.4404297</ele>
        <time>2011-08-27T14:31:10Z</time>
      </trkpt>
      <trkpt lat="47.17732" lon="-0.75534">
        <ele>102.998291</ele>
        <time>2011-08-27T14:31:29Z</time>
      </trkpt>
      <trkpt lat="47.17732" lon="-0.75535">
        <ele>101.5563965</ele>
        <time>2011-08-27T14:31:46Z</time>
      </trkpt>
      <trkpt lat="47.1773" lon="-0.75534">
        <ele>102.0371094</ele>
        <time>2011-08-27T14:32:00Z</time>
      </trkpt>
      <trkpt lat="47.17719" lon="-0.7554">
        <ele>101.0756836</ele>
        <time>2011-08-27T14:32:06Z</time>
      </trkpt>
      <trkpt lat="47.17701" lon="-0.75553">
        <ele>98.6724854</ele>
        <time>2011-08-27T14:32:12Z</time>
      </trkpt>
      <trkpt lat="47.17679" lon="-0.7557">
        <ele>96.2692871</ele>
        <time>2011-08-27T14:32:17Z</time>
      </trkpt>
      <trkpt lat="47.17663" lon="-0.75584">
        <ele>94.3465576</ele>
        <time>2011-08-27T14:32:20Z</time>
      </trkpt>
      <trkpt lat="47.17653" lon="-0.75594">
        <ele>94.3465576</ele>
        <time>2011-08-27T14:32:22Z</time>
      </trkpt>
      <trkpt lat="47.17624" lon="-0.75631">
        <ele>93.3851318</ele>
        <time>2011-08-27T14:32:29Z</time>
      </trkpt>
      <trkpt lat="47.17609" lon="-0.75648">
        <ele>93.8658447</ele>
        <time>2011-08-27T14:32:34Z</time>
      </trkpt>
      <trkpt lat="47.17601" lon="-0.75656">
        <ele>93.8658447</ele>
        <time>2011-08-27T14:32:37Z</time>
      </trkpt>
      <trkpt lat="47.17599" lon="-0.75659">
        <ele>93.8658447</ele>
        <time>2011-08-27T14:32:38Z</time>
      </trkpt>
      <trkpt lat="47.17596" lon="-0.75661">
        <ele>94.3465576</ele>
        <time>2011-08-27T14:32:39Z</time>
      </trkpt>
      <trkpt lat="47.1757" lon="-0.75688">
        <ele>94.3465576</ele>
        <time>2011-08-27T14:32:50Z</time>
      </trkpt>
      <trkpt lat="47.17552" lon="-0.75708">
        <ele>96.2692871</ele>
        <time>2011-08-27T14:32:58Z</time>
      </trkpt>
      <trkpt lat="47.17538" lon="-0.75724">
        <ele>97.2304688</ele>
        <time>2011-08-27T14:33:04Z</time>
      </trkpt>
      <trkpt lat="47.17514" lon="-0.75754">
        <ele>98.1918945</ele>
        <time>2011-08-27T14:33:14Z</time>
      </trkpt>
      <trkpt lat="47.17493" lon="-0.75777">
        <ele>97.7111816</ele>
        <time>2011-08-27T14:33:24Z</time>
      </trkpt>
      <trkpt lat="47.17472" lon="-0.75782">
        <ele>97.7111816</ele>
        <time>2011-08-27T14:33:32Z</time>
      </trkpt>
      <trkpt lat="47.17442" lon="-0.75786">
        <ele>97.2304688</ele>
        <time>2011-08-27T14:33:43Z</time>
      </trkpt>
      <trkpt lat="47.17415" lon="-0.75782">
        <ele>96.2692871</ele>
        <time>2011-08-27T14:33:53Z</time>
      </trkpt>
      <trkpt lat="47.17388" lon="-0.75772">
        <ele>97.7111816</ele>
        <time>2011-08-27T14:34:03Z</time>
      </trkpt>
      <trkpt lat="47.17363" lon="-0.75757">
        <ele>98.6724854</ele>
        <time>2011-08-27T14:34:12Z</time>
      </trkpt>
      <trkpt lat="47.17334" lon="-0.7574">
        <ele>100.5950928</ele>
        <time>2011-08-27T14:34:23Z</time>
      </trkpt>
      <trkpt lat="47.17311" lon="-0.75731">
        <ele>101.5563965</ele>
        <time>2011-08-27T14:34:31Z</time>
      </trkpt>
      <trkpt lat="47.17278" lon="-0.75728">
        <ele>102.998291</ele>
        <time>2011-08-27T14:34:42Z</time>
      </trkpt>
      <trkpt lat="47.17247" lon="-0.75728">
        <ele>103.9597168</ele>
        <time>2011-08-27T14:34:52Z</time>
      </trkpt>
      <trkpt lat="47.17214" lon="-0.75726">
        <ele>105.4017334</ele>
        <time>2011-08-27T14:35:03Z</time>
      </trkpt>
      <trkpt lat="47.17184" lon="-0.75724">
        <ele>106.8436279</ele>
        <time>2011-08-27T14:35:13Z</time>
      </trkpt>
      <trkpt lat="47.17152" lon="-0.75725">
        <ele>108.2856445</ele>
        <time>2011-08-27T14:35:24Z</time>
      </trkpt>
      <trkpt lat="47.17125" lon="-0.75726">
        <ele>109.7276611</ele>
        <time>2011-08-27T14:35:33Z</time>
      </trkpt>
      <trkpt lat="47.17092" lon="-0.75729">
        <ele>110.6888428</ele>
        <time>2011-08-27T14:35:44Z</time>
      </trkpt>
      <trkpt lat="47.17074" lon="-0.7573">
        <ele>111.6502686</ele>
        <time>2011-08-27T14:35:51Z</time>
      </trkpt>
      <trkpt lat="47.17046" lon="-0.75731">
        <ele>113.0922852</ele>
        <time>2011-08-27T14:36:01Z</time>
      </trkpt>
      <trkpt lat="47.17031" lon="-0.75739">
        <ele>113.572998</ele>
        <time>2011-08-27T14:36:07Z</time>
      </trkpt>
      <trkpt lat="47.17032" lon="-0.75762">
        <ele>112.6115723</ele>
        <time>2011-08-27T14:36:13Z</time>
      </trkpt>
      <trkpt lat="47.17038" lon="-0.75795">
        <ele>110.6888428</ele>
        <time>2011-08-27T14:36:20Z</time>
      </trkpt>
      <trkpt lat="47.17044" lon="-0.75837">
        <ele>109.2469482</ele>
        <time>2011-08-27T14:36:28Z</time>
      </trkpt>
      <trkpt lat="47.17051" lon="-0.7588">
        <ele>106.8436279</ele>
        <time>2011-08-27T14:36:34Z</time>
      </trkpt>
      <trkpt lat="47.17057" lon="-0.75918">
        <ele>104.4404297</ele>
        <time>2011-08-27T14:36:38Z</time>
      </trkpt>
      <trkpt lat="47.17068" lon="-0.75982">
        <ele>100.114502</ele>
        <time>2011-08-27T14:36:44Z</time>
      </trkpt>
      <trkpt lat="47.17064" lon="-0.76002">
        <ele>98.6724854</ele>
        <time>2011-08-27T14:36:47Z</time>
      </trkpt>
      <trkpt lat="47.17055" lon="-0.76005">
        <ele>98.6724854</ele>
        <time>2011-08-27T14:36:49Z</time>
      </trkpt>
      <trkpt lat="47.17014" lon="-0.76007">
        <ele>97.7111816</ele>
        <time>2011-08-27T14:36:58Z</time>
      </trkpt>
      <trkpt lat="47.16966" lon="-0.76018">
        <ele>98.6724854</ele>
        <time>2011-08-27T14:37:09Z</time>
      </trkpt>
      <trkpt lat="47.16934" lon="-0.76031">
        <ele>99.6337891</ele>
        <time>2011-08-27T14:37:17Z</time>
      </trkpt>
      <trkpt lat="47.16901" lon="-0.7605">
        <ele>99.1530762</ele>
        <time>2011-08-27T14:37:25Z</time>
      </trkpt>
      <trkpt lat="47.16863" lon="-0.76078">
        <ele>97.7111816</ele>
        <time>2011-08-27T14:37:33Z</time>
      </trkpt>
      <trkpt lat="47.16831" lon="-0.76101">
        <ele>97.7111816</ele>
        <time>2011-08-27T14:37:40Z</time>
      </trkpt>
      <trkpt lat="47.16811" lon="-0.76118">
        <ele>97.7111816</ele>
        <time>2011-08-27T14:37:46Z</time>
      </trkpt>
      <trkpt lat="47.16805" lon="-0.76125">
        <ele>97.7111816</ele>
        <time>2011-08-27T14:37:48Z</time>
      </trkpt>
      <trkpt lat="47.16785" lon="-0.76149">
        <ele>97.2304688</ele>
        <time>2011-08-27T14:37:56Z</time>
      </trkpt>
      <trkpt lat="47.16761" lon="-0.76179">
        <ele>98.6724854</ele>
        <time>2011-08-27T14:38:07Z</time>
      </trkpt>
      <trkpt lat="47.16745" lon="-0.76199">
        <ele>99.6337891</ele>
        <time>2011-08-27T14:38:15Z</time>
      </trkpt>
      <trkpt lat="47.16721" lon="-0.7623">
        <ele>98.6724854</ele>
        <time>2011-08-27T14:38:24Z</time>
      </trkpt>
      <trkpt lat="47.16699" lon="-0.76258">
        <ele>97.7111816</ele>
        <time>2011-08-27T14:38:31Z</time>
      </trkpt>
      <trkpt lat="47.16681" lon="-0.76282">
        <ele>96.7498779</ele>
        <time>2011-08-27T14:38:37Z</time>
      </trkpt>
      <trkpt lat="47.16671" lon="-0.76297">
        <ele>95.7884521</ele>
        <time>2011-08-27T14:38:40Z</time>
      </trkpt>
      <trkpt lat="47.16663" lon="-0.76315">
        <ele>95.3077393</ele>
        <time>2011-08-27T14:38:43Z</time>
      </trkpt>
      <trkpt lat="47.16644" lon="-0.76336">
        <ele>97.2304688</ele>
        <time>2011-08-27T14:38:49Z</time>
      </trkpt>
      <trkpt lat="47.16621" lon="-0.76349">
        <ele>98.1918945</ele>
        <time>2011-08-27T14:38:57Z</time>
      </trkpt>
      <trkpt lat="47.16589" lon="-0.76362">
        <ele>98.1918945</ele>
        <time>2011-08-27T14:39:07Z</time>
      </trkpt>
      <trkpt lat="47.16561" lon="-0.76372">
        <ele>99.1530762</ele>
        <time>2011-08-27T14:39:16Z</time>
      </trkpt>
      <trkpt lat="47.16545" lon="-0.76386">
        <ele>100.114502</ele>
        <time>2011-08-27T14:39:23Z</time>
      </trkpt>
      <trkpt lat="47.16523" lon="-0.76408">
        <ele>99.6337891</ele>
        <time>2011-08-27T14:39:33Z</time>
      </trkpt>
      <trkpt lat="47.16506" lon="-0.76428">
        <ele>99.6337891</ele>
        <time>2011-08-27T14:39:41Z</time>
      </trkpt>
      <trkpt lat="47.16493" lon="-0.76441">
        <ele>99.1530762</ele>
        <time>2011-08-27T14:39:46Z</time>
      </trkpt>
      <trkpt lat="47.16466" lon="-0.76464">
        <ele>98.1918945</ele>
        <time>2011-08-27T14:39:54Z</time>
      </trkpt>
      <trkpt lat="47.16434" lon="-0.76486">
        <ele>98.1918945</ele>
        <time>2011-08-27T14:40:03Z</time>
      </trkpt>
      <trkpt lat="47.16409" lon="-0.76503">
        <ele>99.1530762</ele>
        <time>2011-08-27T14:40:10Z</time>
      </trkpt>
      <trkpt lat="47.16387" lon="-0.76516">
        <ele>101.5563965</ele>
        <time>2011-08-27T14:40:16Z</time>
      </trkpt>
      <trkpt lat="47.16358" lon="-0.76535">
        <ele>102.5177002</ele>
        <time>2011-08-27T14:40:24Z</time>
      </trkpt>
      <trkpt lat="47.16324" lon="-0.76555">
        <ele>105.8824463</ele>
        <time>2011-08-27T14:40:34Z</time>
      </trkpt>
      <trkpt lat="47.16308" lon="-0.76562">
        <ele>106.8436279</ele>
        <time>2011-08-27T14:40:40Z</time>
      </trkpt>
      <trkpt lat="47.16278" lon="-0.76578">
        <ele>107.8050537</ele>
        <time>2011-08-27T14:40:50Z</time>
      </trkpt>
      <trkpt lat="47.16254" lon="-0.76593">
        <ele>108.2856445</ele>
        <time>2011-08-27T14:40:59Z</time>
      </trkpt>
      <trkpt lat="47.16232" lon="-0.76613">
        <ele>108.2856445</ele>
        <time>2011-08-27T14:41:07Z</time>
      </trkpt>
      <trkpt lat="47.16207" lon="-0.76629">
        <ele>107.8050537</ele>
        <time>2011-08-27T14:41:16Z</time>
      </trkpt>
      <trkpt lat="47.16183" lon="-0.76644">
        <ele>106.8436279</ele>
        <time>2011-08-27T14:41:24Z</time>
      </trkpt>
      <trkpt lat="47.16153" lon="-0.76666">
        <ele>107.3243408</ele>
        <time>2011-08-27T14:41:35Z</time>
      </trkpt>
      <trkpt lat="47.16132" lon="-0.76681">
        <ele>108.7662354</ele>
        <time>2011-08-27T14:41:43Z</time>
      </trkpt>
      <trkpt lat="47.16114" lon="-0.7669">
        <ele>110.6888428</ele>
        <time>2011-08-27T14:41:50Z</time>
      </trkpt>
      <trkpt lat="47.16096" lon="-0.76701">
        <ele>111.1695557</ele>
        <time>2011-08-27T14:41:57Z</time>
      </trkpt>
      <trkpt lat="47.16076" lon="-0.76711">
        <ele>113.572998</ele>
        <time>2011-08-27T14:42:04Z</time>
      </trkpt>
      <trkpt lat="47.16046" lon="-0.7673">
        <ele>116.9375</ele>
        <time>2011-08-27T14:42:14Z</time>
      </trkpt>
      <trkpt lat="47.1602" lon="-0.76746">
        <ele>118.3793945</ele>
        <time>2011-08-27T14:42:23Z</time>
      </trkpt>
      <trkpt lat="47.16007" lon="-0.76756">
        <ele>118.8601074</ele>
        <time>2011-08-27T14:42:30Z</time>
      </trkpt>
      <trkpt lat="47.15998" lon="-0.7676">
        <ele>119.3408203</ele>
        <time>2011-08-27T14:42:36Z</time>
      </trkpt>
      <trkpt lat="47.15996" lon="-0.76762">
        <ele>119.3408203</ele>
        <time>2011-08-27T14:42:38Z</time>
      </trkpt>
      <trkpt lat="47.15991" lon="-0.76754">
        <ele>119.3408203</ele>
        <time>2011-08-27T14:42:43Z</time>
      </trkpt>
      <trkpt lat="47.1599" lon="-0.76746">
        <ele>120.302124</ele>
        <time>2011-08-27T14:42:50Z</time>
      </trkpt>
      <trkpt lat="47.15991" lon="-0.76746">
        <ele>121.2635498</ele>
        <time>2011-08-27T14:43:03Z</time>
      </trkpt>
      <trkpt lat="47.15991" lon="-0.76742">
        <ele>120.7828369</ele>
        <time>2011-08-27T14:43:10Z</time>
      </trkpt>
      <trkpt lat="47.1599" lon="-0.76726">
        <ele>120.7828369</ele>
        <time>2011-08-27T14:43:15Z</time>
      </trkpt>
      <trkpt lat="47.1599" lon="-0.76712">
        <ele>120.7828369</ele>
        <time>2011-08-27T14:43:19Z</time>
      </trkpt>
      <trkpt lat="47.15991" lon="-0.76691">
        <ele>120.302124</ele>
        <time>2011-08-27T14:43:26Z</time>
      </trkpt>
      <trkpt lat="47.15991" lon="-0.76674">
        <ele>119.8214111</ele>
        <time>2011-08-27T14:43:31Z</time>
      </trkpt>
      <trkpt lat="47.15988" lon="-0.76637">
        <ele>117.8988037</ele>
        <time>2011-08-27T14:43:41Z</time>
      </trkpt>
      <trkpt lat="47.1598" lon="-0.76612">
        <ele>117.4182129</ele>
        <time>2011-08-27T14:43:48Z</time>
      </trkpt>
      <trkpt lat="47.15968" lon="-0.76587">
        <ele>116.9375</ele>
        <time>2011-08-27T14:43:57Z</time>
      </trkpt>
      <trkpt lat="47.15958" lon="-0.76569">
        <ele>116.9375</ele>
        <time>2011-08-27T14:44:04Z</time>
      </trkpt>
      <trkpt lat="47.15952" lon="-0.76553">
        <ele>116.9375</ele>
        <time>2011-08-27T14:44:09Z</time>
      </trkpt>
      <trkpt lat="47.15946" lon="-0.76533">
        <ele>116.9375</ele>
        <time>2011-08-27T14:44:15Z</time>
      </trkpt>
      <trkpt lat="47.15939" lon="-0.76501">
        <ele>116.9375</ele>
        <time>2011-08-27T14:44:24Z</time>
      </trkpt>
      <trkpt lat="47.15937" lon="-0.76485">
        <ele>116.9375</ele>
        <time>2011-08-27T14:44:28Z</time>
      </trkpt>
      <trkpt lat="47.15934" lon="-0.76457">
        <ele>116.9375</ele>
        <time>2011-08-27T14:44:35Z</time>
      </trkpt>
      <trkpt lat="47.15932" lon="-0.76426">
        <ele>117.4182129</ele>
        <time>2011-08-27T14:44:43Z</time>
      </trkpt>
      <trkpt lat="47.15931" lon="-0.76398">
        <ele>116.4567871</ele>
        <time>2011-08-27T14:44:49Z</time>
      </trkpt>
      <trkpt lat="47.15928" lon="-0.76362">
        <ele>115.4956055</ele>
        <time>2011-08-27T14:44:56Z</time>
      </trkpt>
      <trkpt lat="47.15922" lon="-0.76337">
        <ele>115.4956055</ele>
        <time>2011-08-27T14:45:01Z</time>
      </trkpt>
      <trkpt lat="47.15908" lon="-0.76313">
        <ele>115.4956055</ele>
        <time>2011-08-27T14:45:07Z</time>
      </trkpt>
      <trkpt lat="47.15886" lon="-0.76288">
        <ele>115.0148926</ele>
        <time>2011-08-27T14:45:14Z</time>
      </trkpt>
      <trkpt lat="47.15855" lon="-0.76252">
        <ele>114.0535889</ele>
        <time>2011-08-27T14:45:22Z</time>
      </trkpt>
      <trkpt lat="47.1583" lon="-0.76216">
        <ele>113.572998</ele>
        <time>2011-08-27T14:45:29Z</time>
      </trkpt>
      <trkpt lat="47.15809" lon="-0.76177">
        <ele>112.6115723</ele>
        <time>2011-08-27T14:45:36Z</time>
      </trkpt>
      <trkpt lat="47.15783" lon="-0.76132">
        <ele>112.6115723</ele>
        <time>2011-08-27T14:45:45Z</time>
      </trkpt>
      <trkpt lat="47.15774" lon="-0.76116">
        <ele>112.6115723</ele>
        <time>2011-08-27T14:45:48Z</time>
      </trkpt>
      <trkpt lat="47.15745" lon="-0.76064">
        <ele>111.6502686</ele>
        <time>2011-08-27T14:45:57Z</time>
      </trkpt>
      <trkpt lat="47.15731" lon="-0.76033">
        <ele>111.1695557</ele>
        <time>2011-08-27T14:46:02Z</time>
      </trkpt>
      <trkpt lat="47.15705" lon="-0.75956">
        <ele>111.1695557</ele>
        <time>2011-08-27T14:46:13Z</time>
      </trkpt>
      <trkpt lat="47.15686" lon="-0.75895">
        <ele>111.1695557</ele>
        <time>2011-08-27T14:46:22Z</time>
      </trkpt>
      <trkpt lat="47.1567" lon="-0.75827">
        <ele>111.6502686</ele>
        <time>2011-08-27T14:46:32Z</time>
      </trkpt>
      <trkpt lat="47.15671" lon="-0.75801">
        <ele>111.6502686</ele>
        <time>2011-08-27T14:46:36Z</time>
      </trkpt>
      <trkpt lat="47.15678" lon="-0.75766">
        <ele>111.1695557</ele>
        <time>2011-08-27T14:46:42Z</time>
      </trkpt>
      <trkpt lat="47.15682" lon="-0.75743">
        <ele>111.1695557</ele>
        <time>2011-08-27T14:46:48Z</time>
      </trkpt>
      <trkpt lat="47.15685" lon="-0.7573">
        <ele>111.6502686</ele>
        <time>2011-08-27T14:46:52Z</time>
      </trkpt>
      <trkpt lat="47.15688" lon="-0.75721">
        <ele>111.1695557</ele>
        <time>2011-08-27T14:46:54Z</time>
      </trkpt>
      <trkpt lat="47.15684" lon="-0.75694">
        <ele>112.1309814</ele>
        <time>2011-08-27T14:47:00Z</time>
      </trkpt>
      <trkpt lat="47.15679" lon="-0.75679">
        <ele>112.6115723</ele>
        <time>2011-08-27T14:47:05Z</time>
      </trkpt>
      <trkpt lat="47.15674" lon="-0.75667">
        <ele>113.0922852</ele>
        <time>2011-08-27T14:47:11Z</time>
      </trkpt>
      <trkpt lat="47.15672" lon="-0.75661">
        <ele>113.572998</ele>
        <time>2011-08-27T14:47:15Z</time>
      </trkpt>
      <trkpt lat="47.15667" lon="-0.75645">
        <ele>114.5341797</ele>
        <time>2011-08-27T14:47:22Z</time>
      </trkpt>
      <trkpt lat="47.15662" lon="-0.75635">
        <ele>114.5341797</ele>
        <time>2011-08-27T14:47:28Z</time>
      </trkpt>
      <trkpt lat="47.15655" lon="-0.75613">
        <ele>115.0148926</ele>
        <time>2011-08-27T14:47:36Z</time>
      </trkpt>
      <trkpt lat="47.15647" lon="-0.75587">
        <ele>115.4956055</ele>
        <time>2011-08-27T14:47:44Z</time>
      </trkpt>
      <trkpt lat="47.1564" lon="-0.75565">
        <ele>115.9761963</ele>
        <time>2011-08-27T14:47:51Z</time>
      </trkpt>
      <trkpt lat="47.15637" lon="-0.75553">
        <ele>116.4567871</ele>
        <time>2011-08-27T14:47:55Z</time>
      </trkpt>
      <trkpt lat="47.15628" lon="-0.75526">
        <ele>117.4182129</ele>
        <time>2011-08-27T14:48:02Z</time>
      </trkpt>
      <trkpt lat="47.15618" lon="-0.75496">
        <ele>118.3793945</ele>
        <time>2011-08-27T14:48:09Z</time>
      </trkpt>
      <trkpt lat="47.15606" lon="-0.75461">
        <ele>118.3793945</ele>
        <time>2011-08-27T14:48:17Z</time>
      </trkpt>
      <trkpt lat="47.15586" lon="-0.75404">
        <ele>119.3408203</ele>
        <time>2011-08-27T14:48:29Z</time>
      </trkpt>
      <trkpt lat="47.15571" lon="-0.75358">
        <ele>121.2635498</ele>
        <time>2011-08-27T14:48:39Z</time>
      </trkpt>
      <trkpt lat="47.15553" lon="-0.75304">
        <ele>122.2247314</ele>
        <time>2011-08-27T14:48:51Z</time>
      </trkpt>
      <trkpt lat="47.15537" lon="-0.75257">
        <ele>123.1861572</ele>
        <time>2011-08-27T14:49:01Z</time>
      </trkpt>
      <trkpt lat="47.15516" lon="-0.75195">
        <ele>123.666748</ele>
        <time>2011-08-27T14:49:14Z</time>
      </trkpt>
      <trkpt lat="47.15502" lon="-0.75147">
        <ele>125.1087646</ele>
        <time>2011-08-27T14:49:24Z</time>
      </trkpt>
      <trkpt lat="47.15497" lon="-0.75121">
        <ele>125.5893555</ele>
        <time>2011-08-27T14:49:30Z</time>
      </trkpt>
      <trkpt lat="47.15496" lon="-0.75118">
        <ele>125.5893555</ele>
        <time>2011-08-27T14:49:31Z</time>
      </trkpt>
      <trkpt lat="47.15496" lon="-0.75102">
        <ele>125.5893555</ele>
        <time>2011-08-27T14:49:37Z</time>
      </trkpt>
      <trkpt lat="47.15496" lon="-0.75078">
        <ele>125.5893555</ele>
        <time>2011-08-27T14:49:43Z</time>
      </trkpt>
      <trkpt lat="47.15499" lon="-0.7505">
        <ele>125.5893555</ele>
        <time>2011-08-27T14:49:50Z</time>
      </trkpt>
      <trkpt lat="47.15501" lon="-0.7503">
        <ele>124.6280518</ele>
        <time>2011-08-27T14:49:55Z</time>
      </trkpt>
      <trkpt lat="47.1551" lon="-0.74994">
        <ele>124.6280518</ele>
        <time>2011-08-27T14:50:04Z</time>
      </trkpt>
      <trkpt lat="47.15518" lon="-0.74961">
        <ele>125.5893555</ele>
        <time>2011-08-27T14:50:12Z</time>
      </trkpt>
      <trkpt lat="47.15522" lon="-0.74948">
        <ele>125.5893555</ele>
        <time>2011-08-27T14:50:15Z</time>
      </trkpt>
      <trkpt lat="47.1553" lon="-0.74914">
        <ele>126.0699463</ele>
        <time>2011-08-27T14:50:23Z</time>
      </trkpt>
      <trkpt lat="47.1553" lon="-0.74897">
        <ele>127.0313721</ele>
        <time>2011-08-27T14:50:28Z</time>
      </trkpt>
      <trkpt lat="47.15521" lon="-0.74876">
        <ele>127.9925537</ele>
        <time>2011-08-27T14:50:36Z</time>
      </trkpt>
      <trkpt lat="47.15513" lon="-0.74855">
        <ele>129.4346924</ele>
        <time>2011-08-27T14:50:43Z</time>
      </trkpt>
      <trkpt lat="47.15504" lon="-0.74832">
        <ele>130.3959961</ele>
        <time>2011-08-27T14:50:50Z</time>
      </trkpt>
      <trkpt lat="47.15498" lon="-0.74816">
        <ele>130.876709</ele>
        <time>2011-08-27T14:50:55Z</time>
      </trkpt>
      <trkpt lat="47.15489" lon="-0.74794">
        <ele>132.7993164</ele>
        <time>2011-08-27T14:51:03Z</time>
      </trkpt>
      <trkpt lat="47.15479" lon="-0.74768">
        <ele>134.7219238</ele>
        <time>2011-08-27T14:51:13Z</time>
      </trkpt>
      <trkpt lat="47.15469" lon="-0.74743">
        <ele>136.6446533</ele>
        <time>2011-08-27T14:51:23Z</time>
      </trkpt>
      <trkpt lat="47.1546" lon="-0.74721">
        <ele>138.5672607</ele>
        <time>2011-08-27T14:51:32Z</time>
      </trkpt>
      <trkpt lat="47.15452" lon="-0.74703">
        <ele>139.5284424</ele>
        <time>2011-08-27T14:51:40Z</time>
      </trkpt>
      <trkpt lat="47.15445" lon="-0.74691">
        <ele>140.970459</ele>
        <time>2011-08-27T14:51:47Z</time>
      </trkpt>
      <trkpt lat="47.15437" lon="-0.7468">
        <ele>142.4124756</ele>
        <time>2011-08-27T14:51:55Z</time>
      </trkpt>
      <trkpt lat="47.15431" lon="-0.74671">
        <ele>141.9317627</ele>
        <time>2011-08-27T14:52:01Z</time>
      </trkpt>
      <trkpt lat="47.15425" lon="-0.74662">
        <ele>143.3736572</ele>
        <time>2011-08-27T14:52:07Z</time>
      </trkpt>
      <trkpt lat="47.15418" lon="-0.74652">
        <ele>143.3736572</ele>
        <time>2011-08-27T14:52:14Z</time>
      </trkpt>
      <trkpt lat="47.15413" lon="-0.74643">
        <ele>144.8157959</ele>
        <time>2011-08-27T14:52:21Z</time>
      </trkpt>
      <trkpt lat="47.15404" lon="-0.7463">
        <ele>148.6610107</ele>
        <time>2011-08-27T14:52:31Z</time>
      </trkpt>
      <trkpt lat="47.15396" lon="-0.74617">
        <ele>151.5449219</ele>
        <time>2011-08-27T14:52:40Z</time>
      </trkpt>
      <trkpt lat="47.1539" lon="-0.74608">
        <ele>152.5063477</ele>
        <time>2011-08-27T14:52:47Z</time>
      </trkpt>
      <trkpt lat="47.15385" lon="-0.74598">
        <ele>154.4289551</ele>
        <time>2011-08-27T14:52:53Z</time>
      </trkpt>
      <trkpt lat="47.15383" lon="-0.74594">
        <ele>155.3902588</ele>
        <time>2011-08-27T14:52:55Z</time>
      </trkpt>
      <trkpt lat="47.15376" lon="-0.74583">
        <ele>156.8321533</ele>
        <time>2011-08-27T14:53:01Z</time>
      </trkpt>
      <trkpt lat="47.15368" lon="-0.74569">
        <ele>158.7547607</ele>
        <time>2011-08-27T14:53:10Z</time>
      </trkpt>
      <trkpt lat="47.1536" lon="-0.74557">
        <ele>159.7161865</ele>
        <time>2011-08-27T14:53:17Z</time>
      </trkpt>
      <trkpt lat="47.15353" lon="-0.74548">
        <ele>159.2354736</ele>
        <time>2011-08-27T14:53:23Z</time>
      </trkpt>
      <trkpt lat="47.15347" lon="-0.74538">
        <ele>159.7161865</ele>
        <time>2011-08-27T14:53:29Z</time>
      </trkpt>
      <trkpt lat="47.15339" lon="-0.74525">
        <ele>160.1968994</ele>
        <time>2011-08-27T14:53:37Z</time>
      </trkpt>
      <trkpt lat="47.15332" lon="-0.74509">
        <ele>160.6774902</ele>
        <time>2011-08-27T14:53:45Z</time>
      </trkpt>
      <trkpt lat="47.15327" lon="-0.7449">
        <ele>161.1582031</ele>
        <time>2011-08-27T14:53:54Z</time>
      </trkpt>
      <trkpt lat="47.15326" lon="-0.74478">
        <ele>162.1195068</ele>
        <time>2011-08-27T14:54:00Z</time>
      </trkpt>
      <trkpt lat="47.15324" lon="-0.74463">
        <ele>162.6000977</ele>
        <time>2011-08-27T14:54:07Z</time>
      </trkpt>
      <trkpt lat="47.15324" lon="-0.74455">
        <ele>163.5615234</ele>
        <time>2011-08-27T14:54:11Z</time>
      </trkpt>
      <trkpt lat="47.15324" lon="-0.74454">
        <ele>163.5615234</ele>
        <time>2011-08-27T14:54:21Z</time>
      </trkpt>
      <trkpt lat="47.15324" lon="-0.74452">
        <ele>164.0421143</ele>
        <time>2011-08-27T14:54:35Z</time>
      </trkpt>
      <trkpt lat="47.15324" lon="-0.74451">
        <ele>164.5227051</ele>
        <time>2011-08-27T14:54:36Z</time>
      </trkpt>
      <trkpt lat="47.15325" lon="-0.74443">
        <ele>165.003418</ele>
        <time>2011-08-27T14:54:41Z</time>
      </trkpt>
      <trkpt lat="47.15324" lon="-0.74436">
        <ele>166.4453125</ele>
        <time>2011-08-27T14:54:47Z</time>
      </trkpt>
      <trkpt lat="47.15324" lon="-0.74425">
        <ele>166.4453125</ele>
        <time>2011-08-27T14:54:54Z</time>
      </trkpt>
      <trkpt lat="47.15324" lon="-0.74409">
        <ele>167.4067383</ele>
        <time>2011-08-27T14:55:04Z</time>
      </trkpt>
      <trkpt lat="47.15324" lon="-0.74393">
        <ele>168.368042</ele>
        <time>2011-08-27T14:55:13Z</time>
      </trkpt>
      <trkpt lat="47.15323" lon="-0.74378">
        <ele>168.8487549</ele>
        <time>2011-08-27T14:55:22Z</time>
      </trkpt>
      <trkpt lat="47.15324" lon="-0.7436">
        <ele>171.2520752</ele>
        <time>2011-08-27T14:55:32Z</time>
      </trkpt>
      <trkpt lat="47.15324" lon="-0.74343">
        <ele>173.1746826</ele>
        <time>2011-08-27T14:55:41Z</time>
      </trkpt>
      <trkpt lat="47.15324" lon="-0.74323">
        <ele>175.5778809</ele>
        <time>2011-08-27T14:55:51Z</time>
      </trkpt>
      <trkpt lat="47.15323" lon="-0.7431">
        <ele>177.0200195</ele>
        <time>2011-08-27T14:55:58Z</time>
      </trkpt>
      <trkpt lat="47.15323" lon="-0.74294">
        <ele>177.5006104</ele>
        <time>2011-08-27T14:56:07Z</time>
      </trkpt>
      <trkpt lat="47.15324" lon="-0.74293">
        <ele>177.9812012</ele>
        <time>2011-08-27T14:56:08Z</time>
      </trkpt>
      <trkpt lat="47.15325" lon="-0.74277">
        <ele>179.4232178</ele>
        <time>2011-08-27T14:56:17Z</time>
      </trkpt>
      <trkpt lat="47.15324" lon="-0.74261">
        <ele>178.942627</ele>
        <time>2011-08-27T14:56:26Z</time>
      </trkpt>
      <trkpt lat="47.15324" lon="-0.74258">
        <ele>178.942627</ele>
        <time>2011-08-27T14:56:31Z</time>
      </trkpt>
      <trkpt lat="47.15323" lon="-0.74256">
        <ele>179.9038086</ele>
        <time>2011-08-27T14:56:47Z</time>
      </trkpt>
      <trkpt lat="47.15324" lon="-0.74254">
        <ele>179.4232178</ele>
        <time>2011-08-27T14:56:57Z</time>
      </trkpt>
      <trkpt lat="47.15324" lon="-0.74253">
        <ele>178.942627</ele>
        <time>2011-08-27T14:56:58Z</time>
      </trkpt>
      <trkpt lat="47.15325" lon="-0.74246">
        <ele>179.4232178</ele>
        <time>2011-08-27T14:57:03Z</time>
      </trkpt>
      <trkpt lat="47.15326" lon="-0.74237">
        <ele>180.8652344</ele>
        <time>2011-08-27T14:57:09Z</time>
      </trkpt>
      <trkpt lat="47.15326" lon="-0.74232">
        <ele>183.2684326</ele>
        <time>2011-08-27T14:57:13Z</time>
      </trkpt>
      <trkpt lat="47.15326" lon="-0.74215">
        <ele>184.7105713</ele>
        <time>2011-08-27T14:57:23Z</time>
      </trkpt>
      <trkpt lat="47.15325" lon="-0.74198">
        <ele>185.6717529</ele>
        <time>2011-08-27T14:57:32Z</time>
      </trkpt>
      <trkpt lat="47.15323" lon="-0.74184">
        <ele>186.1524658</ele>
        <time>2011-08-27T14:57:40Z</time>
      </trkpt>
      <trkpt lat="47.1532" lon="-0.74162">
        <ele>187.5943604</ele>
        <time>2011-08-27T14:57:51Z</time>
      </trkpt>
      <trkpt lat="47.15319" lon="-0.74146">
        <ele>188.5557861</ele>
        <time>2011-08-27T14:57:59Z</time>
      </trkpt>
      <trkpt lat="47.15317" lon="-0.74131">
        <ele>190.4783936</ele>
        <time>2011-08-27T14:58:07Z</time>
      </trkpt>
      <trkpt lat="47.15315" lon="-0.74117">
        <ele>191.4395752</ele>
        <time>2011-08-27T14:58:15Z</time>
      </trkpt>
      <trkpt lat="47.1531" lon="-0.74099">
        <ele>192.8817139</ele>
        <time>2011-08-27T14:58:26Z</time>
      </trkpt>
      <trkpt lat="47.15301" lon="-0.74083">
        <ele>193.8430176</ele>
        <time>2011-08-27T14:58:37Z</time>
      </trkpt>
      <trkpt lat="47.15294" lon="-0.74067">
        <ele>194.3237305</ele>
        <time>2011-08-27T14:58:47Z</time>
      </trkpt>
      <trkpt lat="47.15285" lon="-0.7405">
        <ele>194.3237305</ele>
        <time>2011-08-27T14:58:58Z</time>
      </trkpt>
      <trkpt lat="47.15277" lon="-0.74042">
        <ele>194.3237305</ele>
        <time>2011-08-27T14:59:06Z</time>
      </trkpt>
      <trkpt lat="47.15272" lon="-0.74036">
        <ele>194.8043213</ele>
        <time>2011-08-27T14:59:13Z</time>
      </trkpt>
      <trkpt lat="47.1527" lon="-0.74032">
        <ele>195.2849121</ele>
        <time>2011-08-27T14:59:20Z</time>
      </trkpt>
      <trkpt lat="47.15276" lon="-0.74009">
        <ele>195.765625</ele>
        <time>2011-08-27T14:59:28Z</time>
      </trkpt>
      <trkpt lat="47.15289" lon="-0.73969">
        <ele>196.7269287</ele>
        <time>2011-08-27T14:59:39Z</time>
      </trkpt>
      <trkpt lat="47.15304" lon="-0.73924">
        <ele>197.6882324</ele>
        <time>2011-08-27T14:59:50Z</time>
      </trkpt>
      <trkpt lat="47.15315" lon="-0.73891">
        <ele>198.1689453</ele>
        <time>2011-08-27T14:59:58Z</time>
      </trkpt>
      <trkpt lat="47.15327" lon="-0.73842">
        <ele>200.0916748</ele>
        <time>2011-08-27T15:00:09Z</time>
      </trkpt>
      <trkpt lat="47.15329" lon="-0.7382">
        <ele>201.5335693</ele>
        <time>2011-08-27T15:00:15Z</time>
      </trkpt>
      <trkpt lat="47.15322" lon="-0.73813">
        <ele>206.3400879</ele>
        <time>2011-08-27T15:00:21Z</time>
      </trkpt>
      <trkpt lat="47.15317" lon="-0.7381">
        <ele>208.2628174</ele>
        <time>2011-08-27T15:00:25Z</time>
      </trkpt>
      <trkpt lat="47.15315" lon="-0.73811">
        <ele>208.2628174</ele>
        <time>2011-08-27T15:00:32Z</time>
      </trkpt>
      <trkpt lat="47.15316" lon="-0.7381">
        <ele>207.3013916</ele>
        <time>2011-08-27T15:00:37Z</time>
      </trkpt>
    </trkseg>
  </trk>
</gpx>